# Wetter Temperatur Luftdruck Luftfeuchtigkeit Sichtweite Windgeschwindigkeit Windrichtung Zeit
1 Clear 23 1012 60 16093 2.6 260 09:22 14.07.2020
2 Clear 23 1012 60 16093 2.6 260 08:58 14.07.2020
3 Clear 23 1012 60 16093 2.6 260 08:38 14.07.2020
4 Clear 24 1012 57 16093 3.77 322 08:20 14.07.2020
5 Clear 24 1012 57 16093 3.77 322 07:44 14.07.2020
6 Clear 24 1012 54 16093 4.3 316 07:19 14.07.2020
7 Clear 25 1012 54 16093 4.3 316 06:57 14.07.2020
8 Clear 25 1012 54 16093 3.7 324 06:26 14.07.2020
9 Clouds 26 1011 54 16093 3.7 324 05:50 14.07.2020
10 Clear 26 1011 54 16093 2.6 270 04:51 14.07.2020
11 Clear 26 1011 54 16093 2.6 270 04:33 14.07.2020
12 Clear 27 1011 51 16093 3.6 270 03:29 14.07.2020
13 Clear 28 1010 48 16093 3.1 0 02:27 14.07.2020
14 Clouds 29 1009 45 16093 3.6 260 01:41 14.07.2020
15 Clouds 30 1009 42 16093 5.1 270 01:23 14.07.2020
16 Clear 30 1009 39 16093 5.99 268 00:43 14.07.2020
17 Clouds 31 1009 40 16093 4.6 250 00:23 14.07.2020
18 Clouds 31 1009 40 16093 4.6 250 23:39 13.07.2020
19 Clouds 31 1009 45 16093 5.7 250 23:20 13.07.2020
20 Clouds 31 1009 45 16093 5.7 250 22:57 13.07.2020
21 Clouds 31 1009 45 16093 5.7 250 22:39 13.07.2020
22 Clouds 31 1009 45 16093 4.1 250 22:19 13.07.2020
23 Clouds 31 1009 45 16093 4.1 250 21:55 13.07.2020
24 Clouds 31 1009 45 16093 4.1 250 21:36 13.07.2020
25 Clouds 31 1009 45 16093 3.6 250 21:18 13.07.2020
26 Clouds 31 1009 45 16093 3.6 250 20:54 13.07.2020
27 Clouds 31 1009 45 16093 3.6 250 20:36 13.07.2020
28 Clouds 30 1009 45 16093 2.6 0 20:18 13.07.2020
29 Clouds 30 1009 45 16093 2.6 0 19:42 13.07.2020
30 Clear 30 1009 51 16093 4.1 250 19:23 13.07.2020
31 Clear 30 1009 51 16093 4.1 250 18:57 13.07.2020
32 Clear 30 1009 51 16093 4.1 250 18:38 13.07.2020
33 Clear 29 1009 58 16093 2.1 210 18:20 13.07.2020
34 Clear 29 1009 58 16093 2.1 210 17:56 13.07.2020
35 Clear 28 1009 58 16093 2.1 210 17:37 13.07.2020
36 Clear 28 1009 65 16093 2.6 180 17:18 13.07.2020
37 Clear 28 1009 65 16093 2.6 180 16:55 13.07.2020
38 Clear 27 1009 65 16093 2.6 180 16:36 13.07.2020
39 Clear 27 1009 65 16093 2.1 260 16:18 13.07.2020
40 Clear 26 1009 73 16093 3.1 230 15:40 13.07.2020
41 Clear 26 1009 73 16093 2.31 260 15:21 13.07.2020
42 Clear 25 1009 83 16093 2.1 260 14:59 13.07.2020
43 Clear 25 1009 83 16093 2.1 260 14:39 13.07.2020
44 Clear 24 1009 83 16093 2.1 240 14:21 13.07.2020
45 Clear 24 1009 83 16093 2.1 240 13:56 13.07.2020
46 Clear 23 1009 83 16093 2.1 240 13:38 13.07.2020
47 Clouds 23 1009 83 16093 2.6 240 13:20 13.07.2020
48 Clouds 22 1009 83 16093 2.6 240 12:44 13.07.2020
49 Clouds 22 1008 83 16093 2.6 260 12:25 13.07.2020
50 Clouds 22 1008 83 16093 2.6 260 11:59 13.07.2020
51 Clouds 22 1008 83 16093 2.6 260 11:39 13.07.2020
52 Clear 22 1007 83 16093 1.5 270 11:21 13.07.2020
53 Rain 22 1007 83 16093 1.5 270 10:40 13.07.2020
54 Rain 22 1008 78 16093 2.71 262 10:20 13.07.2020
55 Rain 22 1008 78 16093 2.71 262 09:44 13.07.2020
56 Rain 23 1008 78 16093 2.19 210 09:26 13.07.2020
57 Rain 23 1009 73 16093 3.6 260 08:59 13.07.2020
58 Rain 23 1009 73 16093 3.6 260 08:40 13.07.2020
59 Rain 24 1009 69 16093 4.6 260 08:20 13.07.2020
60 Clear 24 1009 65 16093 2.52 251 07:21 13.07.2020
61 Clear 25 1009 65 16093 2.52 251 06:46 13.07.2020
62 Clouds 25 1008 61 16093 3.65 277 06:24 13.07.2020
63 Rain 27 1008 61 16093 2.1 0 04:57 13.07.2020
64 Clouds 29 1007 54 16093 2.6 240 02:45 13.07.2020
65 Clear 30 1006 45 16093 4.6 260 01:42 13.07.2020
66 Clear 31 1006 43 16093 3.6 250 01:21 13.07.2020
67 Clear 32 1006 43 16093 3.6 250 00:40 13.07.2020
68 Clear 32 1006 43 16093 3.6 250 00:21 13.07.2020
69 Clouds 32 1006 40 16093 4.1 250 23:43 12.07.2020
70 Clear 32 1006 40 16093 6.2 270 23:23 12.07.2020
71 Clear 32 1006 40 16093 6.2 270 22:56 12.07.2020
72 Clear 32 1006 40 16093 6.2 270 22:37 12.07.2020
73 Clear 32 1006 43 16093 5.7 260 22:18 12.07.2020
74 Clear 32 1006 43 16093 5.7 260 21:57 12.07.2020
75 Clear 32 1006 43 16093 5.7 260 21:38 12.07.2020
76 Clouds 32 1007 48 16093 5.1 250 21:19 12.07.2020
77 Clouds 32 1007 48 16093 5.1 250 20:57 12.07.2020
78 Clouds 31 1007 48 16093 5.1 250 20:37 12.07.2020
79 Clouds 31 1007 48 16093 4.6 260 20:19 12.07.2020
80 Clouds 31 1007 48 16093 4.6 260 19:40 12.07.2020
81 Clouds 31 1007 48 16093 4.6 260 19:40 12.07.2020
82 Clouds 30 1007 51 16093 4.1 250 19:21 12.07.2020
83 Clouds 30 1007 51 16093 4.1 250 18:58 12.07.2020
84 Clouds 30 1007 51 16093 4.1 250 18:39 12.07.2020
85 Clouds 29 1007 54 16093 4.1 250 18:18 12.07.2020
86 Clouds 28 1007 54 16093 4.1 250 17:39 12.07.2020
87 Clear 28 1007 61 16093 5.1 250 17:21 12.07.2020
88 Clear 27 1007 61 16093 5.1 250 16:58 12.07.2020
89 Clear 27 1007 61 16093 5.1 250 16:40 12.07.2020
90 Clear 27 1008 61 16093 2.6 250 16:18 12.07.2020
91 Clear 25 1007 69 16093 4.6 260 15:43 12.07.2020
92 Clear 25 1007 73 16093 5.1 270 15:23 12.07.2020
93 Clear 24 1007 73 16093 5.1 270 14:43 12.07.2020
94 Clear 24 1007 73 16093 5.1 270 14:25 12.07.2020
95 Clear 23 1006 73 16093 3.1 260 13:54 12.07.2020
96 Clear 23 1006 73 16093 3.1 260 13:36 12.07.2020
97 Clear 23 1006 78 16093 4.1 260 13:18 12.07.2020
98 Clear 23 1006 78 16093 4.1 260 12:42 12.07.2020
99 Clear 22 1005 78 16093 5.1 270 12:20 12.07.2020
100 Clear 23 1005 78 16093 5.1 270 11:58 12.07.2020
101 Clear 23 1005 78 16093 5.1 270 11:40 12.07.2020
102 Clear 23 1005 78 16093 4.6 270 11:19 12.07.2020
103 Rain 23 1005 78 16093 4.6 270 11:19 12.07.2020
104 Rain 23 1005 78 16093 4.6 270 10:42 12.07.2020
105 Rain 23 1005 73 16093 5.1 260 10:20 12.07.2020
106 Clear 23 1005 73 16093 5.1 260 09:43 12.07.2020
107 Clear 23 1005 78 16093 4.1 260 09:24 12.07.2020
108 Clear 23 1005 78 16093 4.1 260 08:59 12.07.2020
109 Clear 23 1005 78 16093 4.1 260 08:40 12.07.2020
110 Clear 23 1005 78 16093 4.1 270 08:22 12.07.2020
111 Clear 24 1005 78 16093 4.1 270 07:54 12.07.2020
112 Rain 24 1005 78 16093 4.1 270 07:36 12.07.2020
113 Rain 24 1005 83 16093 4.1 260 07:18 12.07.2020
114 Rain 25 1005 83 16093 4.1 260 06:47 12.07.2020
115 Clear 25 1005 83 16093 2.6 280 06:19 12.07.2020
116 Clear 25 1005 88 16093 2.6 280 05:22 12.07.2020
117 Clear 25 1005 88 16093 2.6 280 04:29 12.07.2020
118 Rain 25 1005 83 16093 1.5 190 03:53 12.07.2020
119 Rain 25 1004 74 16093 3.1 280 03:31 12.07.2020
120 Rain 25 1004 74 16093 3.1 280 02:45 12.07.2020
121 Rain 25 1004 78 4828 4.6 270 01:36 12.07.2020
122 Clear 28 1003 70 16093 4.1 180 00:41 12.07.2020
123 Clouds 29 1004 70 14484 4.1 140 00:22 12.07.2020
124 Clouds 29 1004 70 14484 4.1 140 23:56 11.07.2020
125 Clouds 30 1004 70 14484 4.1 140 23:38 11.07.2020
126 Rain 30 1004 66 16093 4.6 160 23:18 11.07.2020
127 Rain 30 1004 66 16093 4.6 160 22:45 11.07.2020
128 Rain 29 1005 70 16093 6.31 174 22:26 11.07.2020
129 Rain 29 1005 70 16093 6.31 174 21:58 11.07.2020
130 Rain 29 1005 70 16093 7.2 180 21:40 11.07.2020
131 Rain 28 1005 70 16093 3.1 110 21:21 11.07.2020
132 Rain 27 1005 70 16093 3.1 110 20:56 11.07.2020
133 Rain 28 1005 70 16093 3.1 110 20:37 11.07.2020
134 Rain 29 1006 74 16093 4.1 150 20:19 11.07.2020
135 Rain 29 1006 74 16093 3.6 160 19:56 11.07.2020
136 Rain 29 1006 74 16093 3.6 160 19:38 11.07.2020
137 Rain 29 1006 74 16093 1.5 260 19:19 11.07.2020
138 Clouds 29 1006 74 16093 1.5 260 18:54 11.07.2020
139 Clouds 29 1006 74 16093 1.5 260 18:36 11.07.2020
140 Clouds 29 1006 74 16093 1.5 260 18:36 11.07.2020
141 Clouds 29 1007 78 16093 2.6 230 18:18 11.07.2020
142 Clouds 28 1007 78 16093 2.6 230 17:41 11.07.2020
143 Clouds 27 1007 78 16093 4.1 200 17:21 11.07.2020
144 Clouds 27 1007 78 16093 4.1 200 16:59 11.07.2020
145 Clouds 28 1007 78 16093 4.1 200 16:38 11.07.2020
146 Clouds 27 1007 78 16093 2.6 210 16:19 11.07.2020
147 Clouds 27 1007 78 16093 2.6 210 16:19 11.07.2020
148 Clouds 26 1007 83 16093 3.6 200 15:57 11.07.2020
149 Clouds 26 1007 83 16093 3.6 200 15:37 11.07.2020
150 Clouds 26 1007 88 16093 2.1 200 15:18 11.07.2020
151 Clouds 25 1007 88 16093 1.5 220 14:44 11.07.2020
152 Clear 25 1007 83 16093 4.03 206 14:23 11.07.2020
153 Clear 25 1007 83 16093 4.03 206 14:23 11.07.2020
154 Clouds 24 1006 94 16093 1.5 230 13:57 11.07.2020
155 Clouds 24 1006 94 16093 1.5 230 13:38 11.07.2020
156 Clouds 23 1006 94 16093 2.6 250 13:20 11.07.2020
157 Clouds 23 1006 94 16093 2.6 250 12:44 11.07.2020
158 Clouds 23 1006 94 16093 3.6 240 12:23 11.07.2020
159 Clouds 23 1006 94 16093 3.6 240 11:59 11.07.2020
160 Clouds 23 1006 94 16093 3.6 240 11:41 11.07.2020
161 Clouds 23 1006 94 16093 7.2 240 11:19 11.07.2020
162 Clouds 23 1006 94 16093 7.2 240 10:46 11.07.2020
163 Rain 23 1006 94 16093 8.2 240 10:28 11.07.2020
164 Rain 23 1006 94 16093 8.2 240 09:59 11.07.2020
165 Rain 23 1005 94 16093 7.7 230 09:37 11.07.2020
166 Clouds 23 1005 94 16093 8.2 240 09:19 11.07.2020
167 Rain 23 1005 94 16093 8.2 240 08:43 11.07.2020
168 Rain 23 1005 94 6437 7.2 230 08:25 11.07.2020
169 Rain 23 1005 94 6437 7.2 230 07:55 11.07.2020
170 Mist 23 1005 94 6437 7.2 230 07:36 11.07.2020
171 Rain 23 1005 94 6437 2.1 220 07:18 11.07.2020
172 Rain 23 1003 94 16093 2.6 200 06:25 11.07.2020
173 Rain 23 1003 94 16093 2.6 200 05:54 11.07.2020
174 Rain 23 1003 94 16093 5.1 170 05:19 11.07.2020
175 Rain 23 1003 94 16093 5.1 170 04:44 11.07.2020
176 Rain 23 1003 94 9656 6.2 100 04:19 11.07.2020
177 Rain 23 1003 94 4828 7.7 70 02:53 11.07.2020
178 Rain 23 1003 94 4828 7.7 70 02:25 11.07.2020
179 Rain 23 1005 94 9656 6.2 90 01:24 11.07.2020
180 Mist 23 1005 94 9656 6.2 90 00:57 11.07.2020
181 Rain 24 1005 94 9656 6.2 90 00:37 11.07.2020
182 Rain 24 1005 94 8047 9.3 80 00:18 11.07.2020
183 Rain 24 1006 94 16093 9.3 60 23:45 10.07.2020
184 Rain 24 1006 94 8047 8.2 60 23:26 10.07.2020
185 Rain 24 1006 94 8047 8.2 60 22:57 10.07.2020
186 Rain 24 1006 94 4828 8.7 50 22:38 10.07.2020
187 Rain 23 1007 100 2816 8.7 30 22:19 10.07.2020
188 Rain 23 1008 100 2012 8.7 30 21:39 10.07.2020
189 Rain 23 1009 94 2816 7.2 30 21:20 10.07.2020
190 Rain 23 1009 100 4023 8.2 30 20:57 10.07.2020
191 Mist 23 1009 100 4023 8.2 30 20:38 10.07.2020
192 Mist 23 1009 100 4023 8.2 30 20:38 10.07.2020
193 Rain 23 1010 94 1609 8.7 30 20:19 10.07.2020
194 Rain 23 1010 94 1609 8.7 30 19:57 10.07.2020
195 Rain 23 1011 94 8047 6.7 30 19:38 10.07.2020
196 Rain 23 1012 94 9656 6.2 30 19:19 10.07.2020
197 Rain 24 1012 94 16093 6.2 30 18:41 10.07.2020
198 Rain 24 1012 94 16093 6.2 30 18:19 10.07.2020
199 Rain 24 1013 94 12874 7.2 30 17:57 10.07.2020
200 Rain 24 1013 94 12874 7.2 30 17:38 10.07.2020
201 Rain 24 1013 88 9656 6.7 20 17:20 10.07.2020
202 Rain 25 1013 83 12874 5.7 30 16:42 10.07.2020
203 Rain 25 1014 78 16093 5.7 30 16:20 10.07.2020
204 Clouds 25 1014 83 16093 4.1 20 15:47 10.07.2020
205 Clouds 25 1014 83 16093 4.6 20 15:25 10.07.2020
206 Clouds 25 1014 83 16093 6.2 30 14:56 10.07.2020
207 Clouds 25 1014 83 16093 6.2 30 14:38 10.07.2020
208 Clouds 25 1015 94 16093 4.6 20 14:20 10.07.2020
209 Clouds 24 1015 94 16093 4.6 20 13:57 10.07.2020
210 Clouds 24 1015 94 16093 4.6 20 13:38 10.07.2020
211 Clouds 24 1015 88 16093 4.1 40 13:20 10.07.2020
212 Clouds 24 1015 88 16093 4.1 40 12:56 10.07.2020
213 Clouds 24 1015 88 16093 5.1 40 12:37 10.07.2020
214 Clouds 24 1015 83 16093 3.6 50 12:19 10.07.2020
215 Clouds 24 1015 83 16093 3.6 50 11:41 10.07.2020
216 Clouds 24 1015 83 16093 3.6 50 11:20 10.07.2020
217 Clouds 24 1015 88 16093 4.1 40 10:57 10.07.2020
218 Clouds 24 1015 88 16093 4.1 40 10:38 10.07.2020
219 Clouds 24 1015 88 16093 4.1 40 10:19 10.07.2020
220 Clouds 24 1015 88 16093 3.1 40 09:40 10.07.2020
221 Clouds 25 1016 83 16093 3.1 50 09:22 10.07.2020
222 Clouds 25 1016 83 16093 3.1 50 08:58 10.07.2020
223 Clouds 25 1016 83 16093 3.1 70 08:40 10.07.2020
224 Clouds 25 1016 83 16093 3.1 40 08:22 10.07.2020
225 Clouds 25 1016 83 16093 3.1 50 07:45 10.07.2020
226 Clouds 25 1016 83 16093 3.1 160 07:24 10.07.2020
227 Clouds 25 1016 83 16093 3.1 160 06:57 10.07.2020
228 Clouds 25 1016 83 16093 3.1 160 06:39 10.07.2020
229 Clouds 25 1016 83 16093 3.1 160 05:28 10.07.2020
230 Clear 26 1015 78 16093 2.6 120 03:55 10.07.2020
231 Clear 26 1016 74 16093 3.1 140 02:55 10.07.2020
232 Clear 27 1016 69 16093 4.1 150 02:21 10.07.2020
233 Clear 29 1015 58 16093 4.1 130 00:56 10.07.2020
234 Clear 29 1015 58 16093 4.1 130 00:38 10.07.2020
235 Clear 29 1016 55 16093 5.7 120 00:18 10.07.2020
236 Clear 30 1016 55 16093 5.7 120 23:38 09.07.2020
237 Clear 30 1016 55 16093 3.6 140 23:19 09.07.2020
238 Clear 30 1016 55 16093 3.6 140 22:56 09.07.2020
239 Clear 30 1016 55 16093 3.6 140 22:38 09.07.2020
240 Clouds 31 1016 52 16093 2.1 240 22:20 09.07.2020
241 Clouds 31 1016 52 16093 2.1 240 21:55 09.07.2020
242 Clouds 31 1016 52 16093 2.1 240 21:36 09.07.2020
243 Clear 31 1016 55 16093 3.1 260 21:18 09.07.2020
244 Clear 31 1016 55 16093 3.1 260 20:41 09.07.2020
245 Clear 31 1016 58 16093 4.1 260 20:23 09.07.2020
246 Clear 31 1016 58 16093 4.1 260 19:55 09.07.2020
247 Clear 31 1016 58 16093 4.1 260 19:37 09.07.2020
248 Clear 31 1017 66 16093 2.6 260 19:18 09.07.2020
249 Clear 30 1017 66 16093 2.6 260 18:41 09.07.2020
250 Rain 30 1017 74 16093 1.5 0 18:19 09.07.2020
251 Rain 30 1017 74 16093 1.5 0 17:55 09.07.2020
252 Rain 29 1017 74 16093 1.5 0 17:37 09.07.2020
253 Clear 29 1017 78 16093 2.6 260 17:18 09.07.2020
254 Clear 28 1017 78 16093 2.6 260 16:44 09.07.2020
255 Clouds 27 1017 74 12874 2.3 167 16:20 09.07.2020
256 Haze 27 1016 83 8047 1.5 0 15:59 09.07.2020
257 Clouds 26 1017 88 16093 2.1 260 15:41 09.07.2020
258 Clouds 26 1017 88 16093 2.1 260 15:23 09.07.2020
259 Clouds 25 1017 88 16093 2.1 260 14:59 09.07.2020
260 Clouds 25 1017 94 16093 2.1 250 14:40 09.07.2020
261 Clouds 24 1016 88 16093 1.5 250 14:22 09.07.2020
262 Clouds 24 1016 88 16093 1.5 250 13:58 09.07.2020
263 Clouds 24 1016 88 16093 1.5 250 13:39 09.07.2020
264 Clouds 24 1016 88 16093 1.5 250 13:20 09.07.2020
265 Clear 23 1016 94 16093 2.01 218 12:43 09.07.2020
266 Clear 23 1015 88 16093 2.44 215 12:24 09.07.2020
267 Clear 23 1015 88 16093 2.44 215 11:59 09.07.2020
268 Clear 23 1015 88 16093 2.44 215 11:41 09.07.2020
269 Clear 23 1015 88 16093 1.5 270 11:23 09.07.2020
270 Clear 23 1015 88 16093 1.5 270 10:58 09.07.2020
271 Clear 23 1015 88 16093 1.5 270 10:40 09.07.2020
272 Clear 23 1015 88 16093 2.72 215 10:22 09.07.2020
273 Clear 24 1015 88 16093 2.72 215 09:55 09.07.2020
274 Clear 24 1015 88 16093 2.97 224 09:37 09.07.2020
275 Clear 24 1015 88 16093 2.1 270 09:18 09.07.2020
276 Clear 24 1015 88 16093 2.1 270 08:43 09.07.2020
277 Clear 24 1015 88 16093 2.1 270 08:24 09.07.2020
278 Clear 24 1015 88 16093 1.5 280 07:45 09.07.2020
279 Clear 24 1015 88 16093 2.6 260 07:22 09.07.2020
280 Clear 24 1015 88 16093 2.6 260 06:50 09.07.2020
281 Clear 25 1015 88 16093 4.27 192 06:19 09.07.2020
282 Clear 25 1015 83 16093 2.1 20 04:29 09.07.2020
283 Clear 25 1015 83 16093 1.5 280 03:48 09.07.2020
284 Clear 26 1015 83 16093 5.03 171 02:20 09.07.2020
285 Clear 26 1015 83 16093 5.03 171 01:32 09.07.2020
286 Rain 26 1015 83 16093 5.79 166 00:49 09.07.2020
287 Rain 26 1016 83 16093 2.6 30 00:24 09.07.2020
288 Rain 25 1016 83 16093 2.6 30 23:46 08.07.2020
289 Rain 25 1016 83 16093 2.6 30 23:28 08.07.2020
290 Rain 27 1016 74 16093 2.1 270 22:58 08.07.2020
291 Rain 27 1016 74 16093 2.1 270 22:40 08.07.2020
292 Thunderstorm 28 1016 65 16093 6.74 159 22:22 08.07.2020
293 Rain 28 1016 65 16093 6.74 159 21:58 08.07.2020
294 Rain 28 1016 65 16093 6.74 159 21:39 08.07.2020
295 Rain 28 1016 70 16093 3.1 210 21:20 08.07.2020
296 Rain 28 1016 70 16093 3.1 210 20:55 08.07.2020
297 Rain 28 1016 70 16093 3.1 210 20:37 08.07.2020
298 Clouds 29 1016 66 16093 3.6 170 20:19 08.07.2020
299 Clouds 30 1016 66 16093 3.6 170 19:43 08.07.2020
300 Clear 30 1017 66 16093 2.6 260 19:23 08.07.2020
301 Clear 30 1017 66 16093 2.6 260 18:57 08.07.2020
302 Clear 30 1017 66 16093 2.6 260 18:39 08.07.2020
303 Squall 29 1017 66 16093 2.1 270 18:20 08.07.2020
304 Squall 29 1017 66 16093 2.1 270 17:56 08.07.2020
305 Clouds 28 1017 69 16093 1.5 230 17:37 08.07.2020
306 Clouds 28 1017 69 16093 1.5 260 17:19 08.07.2020
307 Clouds 27 1017 69 16093 1.5 260 16:54 08.07.2020
308 Clouds 27 1017 74 16093 2.6 230 16:36 08.07.2020
309 Clouds 26 1017 78 16093 2.6 200 16:18 08.07.2020
310 Clouds 26 1017 78 16093 2.6 200 15:56 08.07.2020
311 Clouds 26 1017 78 16093 2.6 200 15:37 08.07.2020
312 Clouds 26 1017 88 16093 1.5 220 15:18 08.07.2020
313 Clouds 25 1017 88 16093 1.5 220 14:42 08.07.2020
314 Clouds 25 1018 88 16093 2.1 230 14:20 08.07.2020
315 Clouds 24 1018 88 16093 2.1 230 13:45 08.07.2020
316 Clouds 24 1018 88 16093 2.1 230 13:27 08.07.2020
317 Clouds 24 1018 88 16093 2.1 220 12:58 08.07.2020
318 Clouds 24 1018 88 16093 1.5 250 12:38 08.07.2020
319 Clouds 24 1017 88 16093 1.5 240 12:19 08.07.2020
320 Clouds 24 1017 88 16093 1.5 240 11:39 08.07.2020
321 Clouds 24 1017 88 16093 4.14 214 11:20 08.07.2020
322 Clouds 24 1017 88 16093 4.14 214 10:56 08.07.2020
323 Clouds 24 1017 88 16093 4.14 214 10:38 08.07.2020
324 Clouds 24 1017 88 16093 1.5 230 10:19 08.07.2020
325 Clouds 24 1017 88 16093 1.5 230 09:43 08.07.2020
326 Clouds 24 1017 88 16093 2.1 240 09:24 08.07.2020
327 Clouds 24 1017 88 16093 2.1 240 08:44 08.07.2020
328 Clouds 24 1018 88 16093 2.1 260 08:25 08.07.2020
329 Clouds 24 1018 88 16093 2.1 260 08:25 08.07.2020
330 Clouds 24 1018 88 16093 2.1 270 07:50 08.07.2020
331 Clouds 24 1018 88 16093 1.5 0 07:25 08.07.2020
332 Clouds 24 1018 88 16093 1.5 0 06:59 08.07.2020
333 Clouds 24 1018 88 16093 1.5 0 06:39 08.07.2020
334 Clouds 24 1018 88 16093 4.16 199 06:20 08.07.2020
335 Clouds 24 1018 83 16093 1.5 180 05:44 08.07.2020
336 Clouds 25 1018 83 16093 2.6 140 04:39 08.07.2020
337 Clouds 25 1018 83 16093 2.1 110 03:25 08.07.2020
338 Clouds 25 1018 78 16093 3.1 0 01:59 08.07.2020
339 Clouds 26 1018 78 16093 3.1 0 01:37 08.07.2020
340 Clouds 26 1018 78 16093 3.1 100 00:46 08.07.2020
341 Clouds 26 1019 74 16093 3.1 0 00:19 08.07.2020
342 Clouds 26 1019 74 16093 3.1 0 23:43 07.07.2020
343 Clouds 26 1019 74 16093 3.1 0 23:43 07.07.2020
344 Clouds 26 1019 74 16093 3.1 0 23:21 07.07.2020
345 Clouds 27 1019 74 16093 3.1 0 22:55 07.07.2020
346 Clouds 27 1019 74 16093 3.1 0 22:37 07.07.2020
347 Clouds 27 1020 69 16093 4.6 100 22:18 07.07.2020
348 Clouds 27 1020 69 16093 4.6 100 21:41 07.07.2020
349 Clouds 27 1020 65 16093 4.6 160 21:22 07.07.2020
350 Clouds 27 1020 69 16093 4.1 120 20:59 07.07.2020
351 Clouds 27 1020 69 16093 4.1 120 20:41 07.07.2020
352 Clouds 27 1020 69 16093 4.1 160 20:23 07.07.2020
353 Clouds 27 1020 69 16093 4.1 160 20:23 07.07.2020
354 Clouds 27 1020 69 16093 3.1 120 19:55 07.07.2020
355 Clouds 27 1020 69 16093 3.1 120 19:37 07.07.2020
356 Clouds 27 1020 69 16093 4.6 150 19:19 07.07.2020
357 Clouds 26 1020 69 16093 4.6 150 18:55 07.07.2020
358 Clouds 26 1020 69 16093 4.6 150 18:37 07.07.2020
359 Clouds 25 1021 73 16093 2.6 50 18:18 07.07.2020
360 Clouds 25 1020 65 16093 2.6 160 17:44 07.07.2020
361 Clouds 25 1020 69 16093 3.6 120 17:23 07.07.2020
362 Clouds 25 1020 69 16093 3.6 120 16:59 07.07.2020
363 Clouds 25 1020 69 16093 3.6 120 16:40 07.07.2020
364 Clouds 24 1020 78 16093 3.1 0 16:22 07.07.2020
365 Clouds 24 1020 78 16093 3.1 0 15:55 07.07.2020
366 Clouds 24 1020 78 16093 3.1 0 15:37 07.07.2020
367 Clouds 24 1020 83 16093 2.6 90 15:18 07.07.2020
368 Clouds 24 1020 83 16093 2.6 90 14:42 07.07.2020
369 Clouds 24 1020 83 16093 2.6 90 14:42 07.07.2020
370 Clouds 24 1020 88 16093 3.1 60 14:24 07.07.2020
371 Clouds 23 1020 88 16093 3.6 50 13:43 07.07.2020
372 Clouds 23 1020 88 16093 4.1 50 13:21 07.07.2020
373 Clouds 23 1020 88 16093 3.1 70 12:57 07.07.2020
374 Clouds 23 1020 88 16093 3.1 70 12:37 07.07.2020
375 Clouds 22 1020 88 16093 2.6 70 12:18 07.07.2020
376 Clouds 22 1020 88 16093 2.6 0 11:43 07.07.2020
377 Clouds 22 1019 83 16093 4.1 50 11:22 07.07.2020
378 Clouds 22 1019 83 16093 4.1 50 10:58 07.07.2020
379 Clouds 22 1019 83 16093 4.1 50 10:40 07.07.2020
380 Clouds 22 1019 88 16093 4.1 50 10:21 07.07.2020
381 Clouds 22 1020 88 16093 4.1 40 09:43 07.07.2020
382 Clouds 22 1020 83 16093 3.6 60 09:22 07.07.2020
383 Clouds 22 1020 88 16093 4.1 60 08:58 07.07.2020
384 Clouds 22 1020 88 16093 4.1 60 08:39 07.07.2020
385 Clouds 22 1020 83 16093 4.1 60 08:19 07.07.2020
386 Clouds 22 1020 83 16093 4.1 60 07:38 07.07.2020
387 Clouds 22 1020 83 16093 3.1 70 07:19 07.07.2020
388 Clouds 22 1020 83 16093 3.1 70 06:46 07.07.2020
389 Clouds 22 1020 88 16093 5.1 60 06:26 07.07.2020
390 Clouds 22 1020 88 16093 5.1 60 05:47 07.07.2020
391 Clouds 23 1019 88 16093 2.6 70 04:58 07.07.2020
392 Clouds 23 1019 88 16093 2.6 90 03:54 07.07.2020
393 Clouds 23 1019 88 16093 2.6 90 03:32 07.07.2020
394 Rain 24 1018 83 16093 2.1 50 01:58 07.07.2020
395 Rain 23 1018 78 16093 2.1 40 01:20 07.07.2020
396 Rain 23 1018 78 16093 2.1 40 00:41 07.07.2020
397 Rain 23 1018 83 16093 9.51 216 00:22 07.07.2020
398 Thunderstorm 22 1019 88 16093 2.1 0 23:44 06.07.2020
399 Rain 23 1019 88 3219 3.1 290 23:26 06.07.2020
400 Rain 23 1019 88 3219 3.1 290 22:59 06.07.2020
401 Rain 24 1018 65 16093 6.2 200 22:40 06.07.2020
402 Thunderstorm 27 1016 40 16093 4.1 120 22:19 06.07.2020
403 Thunderstorm 29 1016 40 16093 4.1 120 21:57 06.07.2020
404 Clear 33 1016 36 16093 4.1 150 21:37 06.07.2020
405 Clear 34 1016 36 16093 1.5 270 21:19 06.07.2020
406 Clear 34 1016 36 16093 1.5 270 21:19 06.07.2020
407 Clear 34 1016 36 16093 1.5 270 20:55 06.07.2020
408 Clear 34 1016 36 16093 1.5 270 20:36 06.07.2020
409 Clear 34 1017 32 16093 1.5 0 20:18 06.07.2020
410 Clear 34 1017 43 16093 3.6 270 19:42 06.07.2020
411 Clear 34 1018 30 16093 2.08 158 19:23 06.07.2020
412 Clear 33 1017 48 16093 2.6 270 18:59 06.07.2020
413 Clear 33 1017 48 16093 2.6 270 18:41 06.07.2020
414 Clear 33 1017 48 16093 3.1 280 18:23 06.07.2020
415 Clear 32 1017 48 16093 3.1 280 17:58 06.07.2020
416 Clear 32 1017 48 16093 3.1 280 17:39 06.07.2020
417 Clear 32 1018 37 16093 0.58 126 17:20 06.07.2020
418 Clear 30 1017 58 16093 2.6 240 16:43 06.07.2020
419 Clear 30 1018 42 16093 2.6 0 16:24 06.07.2020
420 Clear 29 1018 45 16093 1.5 0 15:57 06.07.2020
421 Clear 28 1018 45 16093 1.5 0 15:39 06.07.2020
422 Clear 28 1018 45 16093 1.5 0 15:21 06.07.2020
423 Clear 27 1017 57 16093 1.34 33 14:55 06.07.2020
424 Clear 27 1017 57 16093 1.34 33 14:37 06.07.2020
425 Clear 26 1017 57 16093 1.62 24 14:18 06.07.2020
426 Clear 25 1016 78 16093 1.5 210 13:44 06.07.2020
427 Clear 25 1016 83 16093 0.58 349 13:24 06.07.2020
428 Clear 24 1016 83 16093 0.58 349 12:56 06.07.2020
429 Clear 24 1016 83 16093 0.58 349 12:38 06.07.2020
430 Clear 24 1015 78 16093 1.5 270 12:18 06.07.2020
431 Clear 24 1015 78 16093 1.5 270 11:42 06.07.2020
432 Clear 24 1015 73 16093 1.2 343 11:24 06.07.2020
433 Clear 24 1015 73 16093 1.2 343 10:59 06.07.2020
434 Clear 24 1015 73 16093 1.2 343 10:41 06.07.2020
435 Clear 25 1015 69 16093 2.6 250 10:21 06.07.2020
436 Clear 25 1015 69 16093 2.6 250 09:55 06.07.2020
437 Clear 25 1015 69 16093 2.6 250 09:37 06.07.2020
438 Clear 26 1015 69 16093 1.5 270 09:19 06.07.2020
439 Clear 26 1015 69 16093 1.5 270 08:41 06.07.2020
440 Clear 26 1015 65 16093 2.1 240 08:22 06.07.2020
441 Clear 26 1015 65 16093 2.1 240 07:53 06.07.2020
442 Clear 26 1015 65 16093 2.1 240 07:31 06.07.2020
443 Clear 27 1015 74 16093 0.65 222 06:57 06.07.2020
444 Clear 27 1015 74 16093 0.65 222 06:38 06.07.2020
445 Clear 27 1014 74 16093 0.56 83 05:56 06.07.2020
446 Clear 27 1014 74 16093 1.74 28 05:29 06.07.2020
447 Clear 28 1014 69 16093 1.74 28 04:36 06.07.2020
448 Clear 30 1013 58 16093 1.5 270 02:50 06.07.2020
449 Clear 31 1013 45 16093 3.1 250 02:19 06.07.2020
450 Clear 32 1013 46 16093 2.6 240 00:59 06.07.2020
451 Clear 32 1013 46 16093 2.6 240 00:32 06.07.2020
452 Clear 33 1013 41 16093 1.5 230 23:59 05.07.2020
453 Clear 34 1013 41 16093 1.5 230 23:40 05.07.2020
454 Clear 34 1013 38 16093 2.98 179 23:22 05.07.2020
455 Clear 34 1013 38 16093 2.98 179 22:58 05.07.2020
456 Clear 34 1013 38 16093 2.98 179 22:38 05.07.2020
457 Clear 34 1014 41 16093 1.5 0 22:19 05.07.2020
458 Clear 34 1014 41 16093 1.5 0 21:56 05.07.2020
459 Clear 34 1014 41 16093 1.5 0 21:37 05.07.2020
460 Clear 34 1014 46 16093 1.5 240 21:18 05.07.2020
461 Clear 33 1014 46 16093 1.5 240 20:55 05.07.2020
462 Clear 33 1014 46 16093 1.5 240 20:37 05.07.2020
463 Clear 33 1015 40 16093 1.3 270 20:19 05.07.2020
464 Clear 33 1015 40 16093 1.3 270 19:41 05.07.2020
465 Clear 32 1015 40 16093 1 297 19:21 05.07.2020
466 Clear 31 1015 62 14484 1 297 18:55 05.07.2020
467 Clear 31 1015 62 14484 1 297 18:37 05.07.2020
468 Clear 30 1015 54 12874 1.5 280 18:18 05.07.2020
469 Clear 29 1015 69 14484 2.1 190 17:42 05.07.2020
470 Clear 29 1015 65 12874 1.5 0 17:19 05.07.2020
471 Clouds 28 1015 74 16093 2.1 240 16:58 05.07.2020
472 Clouds 27 1015 74 16093 2.1 240 16:40 05.07.2020
473 Clouds 27 1015 74 16093 2.6 240 16:20 05.07.2020
474 Clouds 25 1015 83 16093 3.1 210 15:40 05.07.2020
475 Clouds 25 1015 88 16093 4.1 220 15:20 05.07.2020
476 Clouds 24 1015 88 16093 4.1 220 14:56 05.07.2020
477 Clouds 24 1015 88 16093 4.1 220 14:38 05.07.2020
478 Clouds 23 1015 83 16093 4.1 230 14:20 05.07.2020
479 Clouds 23 1015 83 16093 4.1 230 13:41 05.07.2020
480 Clouds 23 1015 88 16093 3.1 260 13:23 05.07.2020
481 Clouds 22 1015 88 16093 3.1 260 12:46 05.07.2020
482 Clouds 22 1014 88 16093 3.1 250 12:22 05.07.2020
483 Clouds 22 1014 88 16093 3.1 250 11:57 05.07.2020
484 Clouds 22 1014 88 16093 3.1 250 11:38 05.07.2020
485 Clouds 22 1014 88 16093 3.1 250 11:38 05.07.2020
486 Clouds 22 1014 88 16093 1.5 230 11:20 05.07.2020
487 Rain 22 1014 88 16093 1.5 230 10:57 05.07.2020
488 Rain 22 1014 88 16093 1.5 230 10:38 05.07.2020
489 Rain 22 1014 88 16093 2.95 220 10:19 05.07.2020
490 Rain 22 1014 88 16093 2.95 220 09:42 05.07.2020
491 Clouds 22 1014 88 16093 1.5 210 09:21 05.07.2020
492 Clouds 22 1014 88 16093 1.5 210 08:58 05.07.2020
493 Clouds 22 1014 88 16093 1.5 210 08:38 05.07.2020
494 Clouds 22 1015 88 16093 2.1 250 08:20 05.07.2020
495 Clouds 22 1015 88 16093 2.1 250 07:46 05.07.2020
496 Clouds 22 1015 78 16093 3.1 210 07:27 05.07.2020
497 Clouds 22 1015 78 16093 3.1 210 06:50 05.07.2020
498 Clouds 23 1014 78 14484 2.1 0 05:29 05.07.2020
499 Clear 24 1013 69 16093 3.6 130 03:24 05.07.2020
500 Clear 25 1013 69 16093 3.6 130 02:41 05.07.2020
501 Clear 27 1013 61 16093 3.6 130 01:59 05.07.2020
502 Clear 27 1013 61 16093 3.6 130 01:32 05.07.2020
503 Clouds 28 1013 58 16093 2.6 220 00:58 05.07.2020
504 Clouds 28 1013 58 16093 2.6 220 00:38 05.07.2020
505 Clear 29 1013 51 16093 3.6 180 00:20 05.07.2020
506 Clear 29 1013 51 16093 3.6 180 23:46 04.07.2020
507 Clouds 29 1013 48 16093 2.6 180 23:28 04.07.2020
508 Clouds 30 1013 48 16093 2.6 180 22:57 04.07.2020
509 Clouds 30 1013 48 16093 2.6 180 22:37 04.07.2020
510 Clouds 31 1013 43 16093 2.6 50 22:19 04.07.2020
511 Clouds 31 1013 43 16093 2.6 50 21:42 04.07.2020
512 Clouds 30 1013 43 16093 2.6 50 21:23 04.07.2020
513 Clear 30 1014 54 16093 3.6 60 20:58 04.07.2020
514 Clear 30 1014 54 16093 3.6 60 20:39 04.07.2020
515 Clear 29 1014 58 16093 2.61 84 20:19 04.07.2020
516 Clear 29 1014 58 16093 2.61 84 19:45 04.07.2020
517 Clear 28 1014 58 16093 2.54 49 19:22 04.07.2020
518 Clear 28 1014 61 16093 2.1 0 18:57 04.07.2020
519 Clear 27 1014 61 16093 2.1 0 18:39 04.07.2020
520 Clouds 27 1014 65 16093 1.5 0 18:21 04.07.2020
521 Clouds 26 1014 73 16093 2.1 160 17:44 04.07.2020
522 Clouds 25 1014 73 16093 2.1 160 17:26 04.07.2020
523 Clouds 24 1014 78 16093 2.6 70 16:58 04.07.2020
524 Clouds 23 1014 78 16093 2.6 70 16:38 04.07.2020
525 Clouds 23 1014 83 16093 3.1 80 16:20 04.07.2020
526 Clouds 22 1014 83 16093 3.1 80 15:56 04.07.2020
527 Clouds 22 1014 83 16093 3.1 80 15:37 04.07.2020
528 Clouds 22 1014 83 16093 2.6 80 15:19 04.07.2020
529 Clouds 21 1014 83 16093 2.6 80 14:38 04.07.2020
530 Clouds 21 1014 88 16093 4.1 30 14:20 04.07.2020
531 Clouds 21 1013 88 16093 3.6 70 13:59 04.07.2020
532 Clouds 21 1013 88 16093 3.6 70 13:41 04.07.2020
533 Clouds 21 1013 83 16093 3.6 50 13:18 04.07.2020
534 Clouds 21 1013 83 16093 5.1 50 12:43 04.07.2020
535 Clouds 21 1013 88 16093 4.6 40 12:23 04.07.2020
536 Clouds 21 1013 88 16093 4.6 40 11:59 04.07.2020
537 Clouds 20 1013 88 16093 4.6 40 11:40 04.07.2020
538 Clouds 21 1013 88 16093 4.6 50 11:21 04.07.2020
539 Rain 21 1013 88 16093 4.6 50 10:54 04.07.2020
540 Rain 21 1013 88 16093 4.6 50 10:36 04.07.2020
541 Rain 21 1012 88 16093 5.1 60 10:18 04.07.2020
542 Rain 21 1013 94 8047 4.6 60 09:40 04.07.2020
543 Rain 21 1012 94 8047 3.6 50 09:20 04.07.2020
544 Rain 21 1012 94 8047 3.6 50 08:50 04.07.2020
545 Rain 21 1012 94 8047 3.6 50 08:32 04.07.2020
546 Rain 22 1013 94 9656 1.5 0 07:55 04.07.2020
547 Rain 22 1013 94 9656 1.5 0 07:36 04.07.2020
548 Rain 22 1012 88 14484 2.1 130 06:57 04.07.2020
549 Clouds 22 1012 94 16093 1.5 170 06:23 04.07.2020
550 Clouds 23 1012 94 16093 1.5 170 05:41 04.07.2020
551 Clouds 23 1012 94 16093 2.1 150 05:19 04.07.2020
552 Rain 23 1011 94 16093 1.5 0 03:47 04.07.2020
553 Thunderstorm 24 1012 78 16093 7.2 50 02:40 04.07.2020
554 Clouds 27 1010 65 16093 5.7 60 01:39 04.07.2020
555 Rain 28 1009 62 16093 7.2 40 00:48 04.07.2020
556 Rain 29 1009 62 16093 7.2 40 00:30 04.07.2020
557 Clouds 32 1009 58 16093 6.7 50 23:57 03.07.2020
558 Clouds 33 1009 46 16093 1.5 230 23:38 03.07.2020
559 Clear 33 1009 46 16093 2.6 220 23:18 03.07.2020
560 Clear 33 1009 46 16093 2.6 220 22:41 03.07.2020
561 Clouds 33 1010 46 16093 2.3 278 22:23 03.07.2020
562 Clouds 33 1010 46 16093 2.3 278 21:58 03.07.2020
563 Clouds 33 1010 46 16093 1.28 297 21:37 03.07.2020
564 Clouds 32 1011 43 16093 1.93 292 21:19 03.07.2020
565 Clouds 32 1011 43 16093 1.93 292 21:19 03.07.2020
566 Clouds 32 1011 43 16093 1.93 292 20:42 03.07.2020
567 Clear 31 1011 46 16093 2.18 317 20:24 03.07.2020
568 Clear 32 1011 46 16093 2.18 317 19:55 03.07.2020
569 Clear 32 1011 46 16093 2.18 317 19:37 03.07.2020
570 Clear 31 1011 48 16093 2.1 0 19:18 03.07.2020
571 Clear 31 1011 48 16093 2.1 0 18:42 03.07.2020
572 Clear 31 1011 51 16093 2.81 336 18:23 03.07.2020
573 Clear 31 1011 51 16093 2.81 336 17:56 03.07.2020
574 Clear 30 1011 51 16093 2.81 336 17:37 03.07.2020
575 Clouds 30 1011 58 16093 2.1 160 17:19 03.07.2020
576 Clouds 28 1011 58 16093 2.1 160 16:40 03.07.2020
577 Clouds 28 1011 57 16093 2.8 346 16:20 03.07.2020
578 Clouds 28 1011 57 16093 2.8 346 15:44 03.07.2020
579 Clear 27 1011 61 16093 2.16 345 15:23 03.07.2020
580 Clear 27 1011 61 16093 2.16 345 14:56 03.07.2020
581 Clear 27 1011 61 16093 2.32 321 14:38 03.07.2020
582 Clear 27 1010 65 16093 1.75 2 14:19 03.07.2020
583 Clear 26 1010 65 16093 1.75 2 13:43 03.07.2020
584 Clouds 27 1010 57 16093 3.39 348 13:25 03.07.2020
585 Clouds 26 1010 57 16093 3.39 348 12:45 03.07.2020
586 Clear 26 1009 69 16093 3.48 337 12:24 03.07.2020
587 Clear 26 1009 69 16093 3.48 337 11:58 03.07.2020
588 Clear 26 1009 69 16093 3.48 337 11:40 03.07.2020
589 Clear 26 1009 65 16093 3.02 326 11:21 03.07.2020
590 Clear 26 1009 65 16093 3.02 326 10:55 03.07.2020
591 Clear 26 1009 65 16093 3.02 326 10:37 03.07.2020
592 Clear 26 1009 65 16093 2.1 240 10:18 03.07.2020
593 Clear 26 1009 65 16093 2.1 240 09:54 03.07.2020
594 Clear 26 1009 65 16093 2.1 240 09:36 03.07.2020
595 Clear 26 1009 61 16093 3.4 321 09:18 03.07.2020
596 Clear 26 1009 61 16093 3.4 321 08:39 03.07.2020
597 Clear 26 1009 61 16093 3.26 314 08:18 03.07.2020
598 Clear 26 1009 61 16093 3.26 314 07:48 03.07.2020
599 Clouds 26 1009 61 16093 2.64 331 07:26 03.07.2020
600 Clouds 27 1009 61 16093 2.64 331 06:49 03.07.2020
601 Clear 27 1009 61 16093 3.52 10 06:18 03.07.2020
602 Clouds 28 1009 58 16093 3.42 332 04:53 03.07.2020
603 Clear 29 1009 58 16093 2.37 328 03:28 03.07.2020
604 Clear 30 1008 45 16093 2.37 328 02:47 03.07.2020
605 Clear 31 1008 51 16093 2.98 354 02:25 03.07.2020
606 Clear 32 1008 51 16093 4.54 359 01:28 03.07.2020
607 Clouds 32 1008 52 16093 4.54 359 00:49 03.07.2020
608 Clouds 33 1008 52 16093 5.18 348 00:28 03.07.2020
609 Clouds 33 1008 46 16093 5.18 348 23:47 02.07.2020
610 Clouds 33 1008 46 16093 2.19 298 23:20 02.07.2020
611 Clouds 33 1008 46 16093 2.19 298 22:58 02.07.2020
612 Clouds 33 1008 46 16093 2.19 298 22:40 02.07.2020
613 Clear 33 1009 46 16093 1.78 302 22:20 02.07.2020
614 Clear 33 1009 46 16093 1.78 302 21:56 02.07.2020
615 Clear 33 1009 46 16093 1.6 304 21:38 02.07.2020
616 Clear 33 1009 43 16093 1.94 310 21:18 02.07.2020
617 Clear 32 1009 43 16093 1.94 310 20:57 02.07.2020
618 Clear 33 1009 43 16093 1.94 310 20:39 02.07.2020
619 Clear 33 1010 38 16093 1.5 0 20:18 02.07.2020
620 Clear 32 1010 45 16093 1.56 324 19:42 02.07.2020
621 Clear 31 1011 40 16093 1.5 0 19:23 02.07.2020
622 Clear 31 1011 40 16093 1.5 0 19:23 02.07.2020
623 Clear 31 1011 51 16093 1.5 0 18:58 02.07.2020
624 Clear 30 1011 51 16093 1.5 0 18:40 02.07.2020
625 Clear 30 1011 58 16093 1.43 319 18:21 02.07.2020
626 Clear 29 1011 58 16093 1.43 319 17:54 02.07.2020
627 Clear 29 1011 58 16093 1.43 319 17:36 02.07.2020
628 Clear 28 1011 61 16093 1.56 306 17:18 02.07.2020
629 Clear 27 1011 61 16093 1.56 306 16:41 02.07.2020
630 Clear 26 1012 61 16093 2.1 307 16:20 02.07.2020
631 Clouds 25 1012 69 16093 2.6 320 15:56 02.07.2020
632 Clouds 25 1012 69 16093 2.6 320 15:56 02.07.2020
633 Clouds 25 1012 69 16093 2.6 320 15:37 02.07.2020
634 Clouds 25 1012 69 16093 2.6 320 15:18 02.07.2020
635 Clear 23 1011 78 16093 2.37 318 14:44 02.07.2020
636 Clear 23 1011 78 16093 2.51 344 14:22 02.07.2020
637 Clear 22 1011 78 16093 2.51 344 13:57 02.07.2020
638 Clear 22 1011 78 16093 2.51 344 13:38 02.07.2020
639 Clear 22 1011 88 16093 2.83 353 13:18 02.07.2020
640 Clear 21 1011 88 16093 2.93 1 12:41 02.07.2020
641 Clear 21 1011 88 16093 2.93 1 12:22 02.07.2020
642 Clear 21 1011 88 16093 2.93 1 11:59 02.07.2020
643 Clear 20 1011 88 16093 2.93 1 11:40 02.07.2020
644 Clear 21 1011 83 16093 2.99 357 11:22 02.07.2020
645 Clear 21 1011 83 16093 2.99 357 10:44 02.07.2020
646 Clear 21 1011 83 16093 2.24 338 10:26 02.07.2020
647 Clear 21 1011 77 16093 2.24 338 09:56 02.07.2020
648 Clear 21 1011 77 16093 1.81 319 09:37 02.07.2020
649 Clouds 21 1011 73 16093 2.36 326 09:19 02.07.2020
650 Clouds 21 1011 73 16093 2.36 326 08:42 02.07.2020
651 Clouds 21 1011 78 16093 2.31 293 08:22 02.07.2020
652 Clouds 22 1011 78 16093 2.31 293 07:45 02.07.2020
653 Clouds 22 1011 78 16093 2.53 273 07:27 02.07.2020
654 Clouds 22 1012 83 16093 2.53 273 06:58 02.07.2020
655 Clouds 22 1012 83 16093 2.53 273 06:39 02.07.2020
656 Clear 22 1011 73 16093 2.45 274 06:19 02.07.2020
657 Clear 23 1011 73 16093 2.45 274 05:42 02.07.2020
658 Clouds 23 1011 78 16093 3.09 216 03:35 02.07.2020
659 Clear 24 1011 73 16093 3.09 216 02:59 02.07.2020
660 Clouds 25 1011 69 16093 4.96 184 00:47 02.07.2020
661 Clear 25 1011 69 16093 5.41 176 00:23 02.07.2020
662 Clear 25 1011 69 16093 5.41 176 23:46 01.07.2020
663 Clear 25 1011 69 16093 5.86 177 23:27 01.07.2020
664 Clear 26 1011 61 16093 5.86 177 22:57 01.07.2020
665 Clear 27 1011 61 16093 5.38 176 22:38 01.07.2020
666 Clear 26 1011 57 16093 1.5 0 22:19 01.07.2020
667 Rain 24 1012 83 16093 5.38 176 21:58 01.07.2020
668 Rain 24 1012 83 16093 5.38 176 21:40 01.07.2020
669 Rain 24 1012 64 16093 4.26 176 21:21 01.07.2020
670 Rain 24 1012 64 16093 4.26 176 21:21 01.07.2020
671 Clouds 23 1013 78 16093 1.5 230 20:56 01.07.2020
672 Rain 22 1013 78 16093 1.5 230 20:38 01.07.2020
673 Rain 22 1013 78 16093 1.5 230 20:38 01.07.2020
674 Rain 21 1013 88 16093 2.6 163 20:19 01.07.2020
675 Rain 22 1013 88 16093 2.6 163 19:43 01.07.2020
676 Rain 22 1013 88 4828 1.52 138 19:24 01.07.2020
677 Rain 24 1012 61 16093 3.1 210 18:59 01.07.2020
678 Rain 24 1012 61 16093 3.1 210 18:40 01.07.2020
679 Thunderstorm 25 1013 61 16093 1.16 88 18:21 01.07.2020
680 Thunderstorm 25 1013 69 16093 1.5 210 17:56 01.07.2020
681 Thunderstorm 25 1013 69 16093 1.5 210 17:37 01.07.2020
682 Rain 25 1013 69 16093 1.62 49 17:18 01.07.2020
683 Rain 25 1013 69 16093 1.62 49 16:44 01.07.2020
684 Rain 25 1013 69 16093 2.22 38 16:26 01.07.2020
685 Clouds 23 1013 73 16093 2.22 38 15:43 01.07.2020
686 Clouds 23 1013 83 14484 2.6 70 15:25 01.07.2020
687 Clouds 23 1013 83 14484 2.6 70 14:59 01.07.2020
688 Clouds 22 1013 83 14484 2.6 70 14:41 01.07.2020
689 Clouds 22 1012 83 14484 3.1 60 14:21 01.07.2020
690 Clouds 21 1012 83 14484 3.1 60 13:57 01.07.2020
691 Clouds 21 1012 83 14484 3.1 60 13:38 01.07.2020
692 Clouds 21 1012 83 14484 2.6 70 13:20 01.07.2020
693 Clouds 21 1012 88 16093 2.1 70 12:56 01.07.2020
694 Clear 20 1012 88 16093 2.1 50 12:38 01.07.2020
695 Clear 20 1012 88 16093 2.1 50 12:19 01.07.2020
696 Clear 20 1012 88 16093 2.1 50 11:40 01.07.2020
697 Clear 20 1012 88 16093 2.1 50 11:21 01.07.2020
698 Clear 20 1012 88 16093 2.1 50 10:58 01.07.2020
699 Clear 20 1012 88 16093 2.1 50 10:39 01.07.2020
700 Clear 20 1012 83 16093 2.6 60 10:21 01.07.2020
701 Clear 21 1013 88 16093 1.31 90 09:40 01.07.2020
702 Clear 21 1013 88 16093 1.39 101 09:21 01.07.2020
703 Clouds 21 1013 77 16093 1.39 101 08:59 01.07.2020
704 Clouds 21 1013 77 16093 1.56 121 08:40 01.07.2020
705 Clouds 21 1013 77 16093 1.56 121 08:21 01.07.2020
706 Clear 21 1013 83 16093 1.56 121 07:54 01.07.2020
707 Clear 21 1013 83 16093 1.56 121 07:36 01.07.2020
708 Clear 21 1013 83 16093 1.84 142 07:18 01.07.2020
709 Clear 21 1013 78 16093 1.84 142 06:48 01.07.2020
710 Clear 22 1013 78 16093 2.21 151 06:25 01.07.2020
711 Clouds 22 1013 78 16093 1.5 80 04:30 01.07.2020
712 Clouds 22 1012 83 16093 2.54 152 03:45 01.07.2020
713 Clouds 22 1012 83 16093 3.02 160 03:26 01.07.2020
714 Clouds 23 1012 78 16093 2.57 162 02:36 01.07.2020
715 Rain 23 1012 73 16093 1.5 260 01:45 01.07.2020
716 Rain 24 1012 69 16093 4.1 220 00:41 01.07.2020
717 Rain 24 1012 61 16093 2.1 80 00:23 01.07.2020
718 Rain 24 1012 61 16093 2.1 80 23:41 30.06.2020
719 Rain 24 1013 69 16093 2.1 360 23:22 30.06.2020
720 Rain 25 1012 57 16093 4.6 50 22:56 30.06.2020
721 Rain 25 1012 57 16093 4.6 50 22:38 30.06.2020
722 Rain 25 1012 61 16093 1.47 152 22:18 30.06.2020
723 Clouds 25 1012 61 16093 1.47 152 21:40 30.06.2020
724 Clouds 25 1013 73 16093 1.5 230 21:19 30.06.2020
725 Rain 25 1013 73 16093 1.5 230 20:44 30.06.2020
726 Rain 25 1013 73 16093 1.5 230 20:21 30.06.2020
727 Rain 24 1013 78 11265 4.1 40 20:00 30.06.2020
728 Rain 23 1013 78 11265 4.1 40 19:41 30.06.2020
729 Rain 24 1013 57 16093 3.06 340 19:19 30.06.2020
730 Clouds 24 1013 57 16093 3.06 340 18:43 30.06.2020
731 Clouds 24 1013 64 16093 1.5 0 18:21 30.06.2020
732 Clouds 24 1013 64 16093 1.5 0 17:58 30.06.2020
733 Clouds 24 1013 64 16093 1.5 0 17:37 30.06.2020
734 Rain 24 1013 64 16093 1.78 329 17:18 30.06.2020
735 Rain 24 1013 64 16093 1.78 329 17:18 30.06.2020
736 Rain 24 1013 64 16093 1.78 329 16:43 30.06.2020
737 Rain 24 1013 64 16093 3.1 80 16:23 30.06.2020
738 Rain 23 1013 64 16093 3.1 80 15:57 30.06.2020
739 Clouds 23 1013 69 16093 2.6 270 15:39 30.06.2020
740 Clear 23 1013 78 16093 2.6 0 15:21 30.06.2020
741 Clear 22 1013 78 16093 2.6 0 14:47 30.06.2020
742 Clear 22 1012 83 16093 2.6 0 14:23 30.06.2020
743 Clear 21 1012 83 16093 2.6 0 13:59 30.06.2020
744 Clear 21 1012 83 16093 2.6 0 13:39 30.06.2020
745 Clear 21 1012 83 16093 4.18 16 13:20 30.06.2020
746 Clear 20 1012 83 16093 4.18 16 12:57 30.06.2020
747 Clear 20 1012 83 16093 4.18 16 12:39 30.06.2020
748 Clear 20 1012 83 16093 2.1 270 12:20 30.06.2020
749 Clear 20 1012 83 16093 2.1 270 11:57 30.06.2020
750 Clear 20 1012 83 16093 2.1 270 11:38 30.06.2020
751 Clear 20 1012 83 16093 1.5 250 11:19 30.06.2020
752 Clear 20 1012 83 16093 1.5 250 10:56 30.06.2020
753 Clear 29 1008 65 16093 2.1 250 16:38 28.06.2020
754 Clear 28 1008 61 16093 1.5 0 16:19 28.06.2020
755 Clear 26 1008 83 16093 2.1 260 15:56 28.06.2020
756 Clear 26 1008 83 16093 2.1 260 15:37 28.06.2020
757 Clear 26 1008 69 16093 1.5 260 15:18 28.06.2020
758 Clear 26 1008 69 16093 1.5 260 15:18 28.06.2020
759 Clear 24 1008 88 16093 1.5 240 14:43 28.06.2020
760 Clear 24 1008 88 16093 2.1 280 14:24 28.06.2020
761 Clear 24 1008 88 16093 2.1 280 13:55 28.06.2020
762 Clear 23 1008 88 16093 2.1 280 13:36 28.06.2020
763 Clouds 23 1007 94 16093 1.5 240 13:18 28.06.2020
764 Clouds 23 1007 94 16093 1.5 240 12:55 28.06.2020
765 Clouds 23 1007 94 16093 1.5 240 12:36 28.06.2020
766 Clear 22 1007 94 16093 1.5 200 12:18 28.06.2020
767 Clear 22 1007 94 16093 1.5 200 11:43 28.06.2020
768 Clear 22 1007 88 16093 1.5 250 11:21 28.06.2020
769 Clear 23 1007 88 16093 1.5 250 10:59 28.06.2020
770 Clear 23 1007 88 16093 1.5 250 10:41 28.06.2020
771 Clear 23 1007 88 16093 1.5 250 10:41 28.06.2020
772 Clear 23 1007 88 16093 1.5 230 10:22 28.06.2020
773 Clear 23 1007 88 16093 1.5 230 09:43 28.06.2020
774 Clear 23 1007 88 16093 2.1 210 09:24 28.06.2020
775 Clear 23 1007 88 16093 2.1 210 08:58 28.06.2020
776 Clear 23 1007 88 16093 2.1 210 08:40 28.06.2020
777 Clear 23 1007 88 16093 2.1 270 08:21 28.06.2020
778 Clear 23 1007 88 16093 2.1 270 07:40 28.06.2020
779 Clear 24 1007 88 16093 1.82 269 07:20 28.06.2020
780 Clear 24 1007 88 16093 1.82 269 06:34 28.06.2020
781 Clear 24 1008 83 16093 2.33 281 05:54 28.06.2020
782 Clear 24 1008 83 16093 3.06 277 05:24 28.06.2020
783 Clear 25 1006 74 16093 4.26 274 03:18 28.06.2020
784 Rain 25 1006 78 16093 2.1 250 02:23 28.06.2020
785 Rain 25 1006 78 16093 2.1 250 01:46 28.06.2020
786 Rain 26 1006 78 16093 5.7 270 01:22 28.06.2020
787 Rain 26 1006 78 16093 5.7 270 00:42 28.06.2020
788 Clouds 26 1006 74 16093 2.6 0 00:21 28.06.2020
789 Rain 26 1005 88 16093 5.7 240 23:40 27.06.2020
790 Rain 25 1006 78 16093 2.6 260 23:21 27.06.2020
791 Rain 25 1006 78 16093 2.6 260 22:56 27.06.2020
792 Rain 25 1006 78 16093 2.6 260 22:38 27.06.2020
793 Rain 25 1006 74 9656 6.7 270 22:19 27.06.2020
794 Rain 26 1006 74 9656 6.7 270 21:42 27.06.2020
795 Rain 26 1007 69 16093 4.6 230 21:20 27.06.2020
796 Rain 28 1007 69 16093 4.6 230 20:57 27.06.2020
797 Clouds 28 1008 61 16093 2.1 0 20:37 27.06.2020
798 Clouds 27 1008 65 16093 3.6 230 20:18 27.06.2020
799 Clouds 27 1008 65 16093 3.6 230 19:54 27.06.2020
800 Clouds 27 1008 65 16093 3.6 230 19:36 27.06.2020
801 Rain 27 1009 57 16093 3.1 220 19:18 27.06.2020
802 Clouds 26 1009 73 16093 2.1 240 18:42 27.06.2020
803 Rain 26 1009 57 16093 3.1 220 18:21 27.06.2020
804 Clouds 25 1009 69 16093 1.5 250 17:54 27.06.2020
805 Clouds 25 1009 69 16093 1.5 250 17:36 27.06.2020
806 Clouds 25 1010 64 16093 2.1 280 17:18 27.06.2020
807 Clouds 25 1010 64 16093 2.1 280 16:41 27.06.2020
808 Clouds 25 1011 69 16093 1.5 250 16:23 27.06.2020
809 Clouds 25 1011 69 16093 1.5 250 15:46 27.06.2020
810 Clouds 24 1011 69 16093 1.5 250 15:25 27.06.2020
811 Clouds 24 1012 69 16093 2.1 260 14:59 27.06.2020
812 Clouds 24 1012 69 16093 2.1 260 14:40 27.06.2020
813 Clear 23 1012 73 16093 1.5 210 14:21 27.06.2020
814 Clear 23 1012 73 16093 1.5 210 13:57 27.06.2020
815 Clear 23 1012 73 16093 1.5 210 13:37 27.06.2020
816 Clear 23 1012 68 16093 2.38 221 13:19 27.06.2020
817 Clear 22 1012 68 16093 2.38 221 12:43 27.06.2020
818 Clear 22 1012 68 16093 2.1 280 12:22 27.06.2020
819 Clear 22 1012 68 16093 2.1 280 11:59 27.06.2020
820 Clear 22 1012 68 16093 2.1 280 11:40 27.06.2020
821 Clear 22 1012 73 16093 2.1 200 11:22 27.06.2020
822 Clear 22 1012 73 16093 2.1 200 10:55 27.06.2020
823 Clear 22 1012 73 16093 2.1 200 10:37 27.06.2020
824 Clear 23 1012 64 16093 1.5 230 10:18 27.06.2020
825 Clear 23 1012 64 16093 1.5 230 09:40 27.06.2020
826 Clear 23 1012 60 16093 1.5 270 09:21 27.06.2020
827 Clear 23 1012 60 16093 1.5 270 08:46 27.06.2020
828 Clear 23 1013 60 16093 1.5 230 08:23 27.06.2020
829 Clear 24 1013 60 16093 1.5 230 07:55 27.06.2020
830 Clear 24 1013 60 16093 1.5 230 07:37 27.06.2020
831 Clear 24 1013 57 16093 2.6 270 07:18 27.06.2020
832 Clear 24 1013 57 16093 2.6 270 06:35 27.06.2020
833 Clear 25 1013 47 16093 3.1 270 05:33 27.06.2020
834 Clouds 26 1013 42 16093 2.1 270 04:19 27.06.2020
835 Clouds 26 1013 42 16093 2.1 270 03:51 27.06.2020
836 Clear 28 1013 37 16093 3.6 260 02:48 27.06.2020
837 Clouds 28 1013 35 16093 2.6 0 02:27 27.06.2020
838 Clouds 28 1013 35 16093 2.6 0 01:40 27.06.2020
839 Clouds 29 1013 35 16093 1.5 0 00:52 27.06.2020
840 Clouds 30 1012 33 16093 6.2 260 00:18 27.06.2020
841 Clouds 30 1012 33 16093 6.2 260 23:41 26.06.2020
842 Clouds 30 1013 35 16093 4.1 250 23:21 26.06.2020
843 Clouds 30 1013 35 16093 4.1 250 22:56 26.06.2020
844 Clouds 30 1013 35 16093 4.1 250 22:37 26.06.2020
845 Clouds 30 1013 37 16093 3.1 240 22:18 26.06.2020
846 Clouds 30 1013 37 16093 3.1 240 21:56 26.06.2020
847 Clouds 30 1013 37 16093 3.1 240 21:37 26.06.2020
848 Clouds 30 1014 39 16093 2.6 240 21:18 26.06.2020
849 Clouds 30 1014 39 16093 2.6 240 20:42 26.06.2020
850 Clouds 30 1014 45 16093 2.6 210 20:19 26.06.2020
851 Clouds 29 1014 45 16093 2.6 210 19:43 26.06.2020
852 Clouds 29 1015 42 16093 3.1 0 19:23 26.06.2020
853 Clouds 29 1015 42 16093 3.1 0 18:55 26.06.2020
854 Clouds 29 1015 42 16093 3.1 0 18:37 26.06.2020
855 Clear 28 1015 42 16093 2.1 0 18:18 26.06.2020
856 Clear 28 1015 42 16093 2.1 0 17:43 26.06.2020
857 Clear 27 1016 47 16093 3.1 250 17:24 26.06.2020
858 Clear 26 1016 47 16093 3.1 250 16:48 26.06.2020
859 Clear 26 1016 47 16093 1.5 0 16:26 26.06.2020
860 Clear 25 1015 60 16093 2.6 250 15:55 26.06.2020
861 Clear 25 1015 60 16093 2.6 250 15:37 26.06.2020
862 Clear 24 1016 78 16093 2.6 230 15:18 26.06.2020
863 Clear 24 1016 78 16093 2.6 230 14:55 26.06.2020
864 Clear 23 1016 78 16093 2.6 230 14:37 26.06.2020
865 Clear 24 1016 60 16093 3.08 295 14:19 26.06.2020
866 Clear 22 1016 83 16093 2.1 260 13:43 26.06.2020
867 Clear 22 1015 83 16093 1.5 240 13:19 26.06.2020
868 Clear 21 1015 83 16093 1.5 240 12:42 26.06.2020
869 Clear 21 1015 83 16093 2.1 270 12:24 26.06.2020
870 Clear 21 1015 83 16093 2.1 270 11:59 26.06.2020
871 Clear 21 1015 83 16093 2.1 270 11:41 26.06.2020
872 Clear 21 1015 83 16093 1.5 240 11:22 26.06.2020
873 Clear 21 1015 83 16093 1.5 240 10:58 26.06.2020
874 Clear 21 1015 83 16093 1.5 240 10:58 26.06.2020
875 Clear 21 1015 83 16093 1.5 240 10:40 26.06.2020
876 Clear 21 1015 83 16093 1.5 260 10:19 26.06.2020
877 Clear 21 1015 83 16093 1.5 260 09:54 26.06.2020
878 Clear 21 1015 83 16093 1.5 260 09:36 26.06.2020
879 Clear 21 1015 83 16093 1.5 250 09:18 26.06.2020
880 Clear 22 1015 83 16093 1.5 250 08:43 26.06.2020
881 Clear 22 1015 78 16093 2.72 236 08:25 26.06.2020
882 Clear 22 1015 78 16093 2.72 236 07:45 26.06.2020
883 Clear 22 1015 73 16093 1.5 270 07:23 26.06.2020
884 Clear 22 1015 73 16093 1.5 270 06:48 26.06.2020
885 Clear 22 1015 73 16093 1.5 270 06:29 26.06.2020
886 Clear 23 1015 73 16093 1.5 240 05:52 26.06.2020
887 Clear 24 1015 69 16093 2.6 230 04:55 26.06.2020
888 Clear 25 1015 60 16093 3.6 220 02:29 26.06.2020
889 Clear 26 1015 50 16093 5.1 210 01:34 26.06.2020
890 Clouds 27 1015 42 16093 4.1 200 00:46 26.06.2020
891 Clear 28 1015 39 16093 4.6 190 00:27 26.06.2020
892 Clear 28 1015 39 16093 4.6 190 23:47 25.06.2020
893 Clouds 28 1015 44 16093 1.5 190 23:22 25.06.2020
894 Clouds 28 1015 44 16093 1.5 190 22:58 25.06.2020
895 Clouds 28 1015 44 16093 1.5 190 22:39 25.06.2020
896 Clouds 28 1015 42 16093 4.1 210 22:20 25.06.2020
897 Clouds 29 1015 42 16093 4.1 210 21:57 25.06.2020
898 Clouds 29 1015 42 16093 4.1 210 21:39 25.06.2020
899 Clear 29 1016 39 16093 5.1 220 21:20 25.06.2020
900 Clear 30 1016 39 16093 5.1 220 20:57 25.06.2020
901 Clear 30 1016 39 16093 5.1 220 20:37 25.06.2020
902 Clear 30 1016 39 16093 3.1 220 20:19 25.06.2020
903 Clear 30 1016 39 16093 3.1 220 19:41 25.06.2020
904 Clear 29 1016 39 16093 3.1 220 19:20 25.06.2020
905 Clear 29 1016 39 16093 1.5 0 19:00 25.06.2020
906 Clear 29 1016 39 16093 1.5 0 18:59 25.06.2020
907 Clear 29 1016 39 16093 1.5 0 18:39 25.06.2020
908 Clear 29 1016 30 16093 1.54 222 18:20 25.06.2020
909 Clear 28 1016 44 16093 2.6 210 17:45 25.06.2020
910 Clear 27 1016 39 16093 2.6 250 17:20 25.06.2020
911 Clear 27 1016 39 16093 2.6 250 16:59 25.06.2020
912 Clear 26 1016 39 16093 2.6 250 16:40 25.06.2020
913 Clear 26 1016 47 16093 1.32 319 16:19 25.06.2020
914 Clear 25 1016 47 16093 1.32 319 15:44 25.06.2020
915 Clear 24 1015 53 16093 1.6 345 15:26 25.06.2020
916 Clear 24 1015 53 16093 1.6 345 14:56 25.06.2020
917 Clear 24 1015 53 16093 1.6 345 14:37 25.06.2020
918 Clear 24 1015 53 16093 2.1 270 14:19 25.06.2020
919 Clear 23 1015 53 16093 2.1 270 13:55 25.06.2020
920 Clear 23 1015 53 16093 2.1 270 13:36 25.06.2020
921 Clear 22 1014 68 16093 2.21 315 13:18 25.06.2020
922 Clear 22 1014 68 16093 2.21 315 12:42 25.06.2020
923 Clear 22 1013 68 16093 1.5 210 12:20 25.06.2020
924 Clear 22 1013 68 16093 1.5 210 11:43 25.06.2020
925 Clear 22 1013 64 16093 1.5 180 11:25 25.06.2020
926 Clear 22 1013 64 16093 1.5 180 10:57 25.06.2020
927 Clear 22 1013 64 16093 1.5 180 10:38 25.06.2020
928 Clouds 23 1012 64 16093 2.5 270 10:20 25.06.2020
929 Clouds 23 1012 64 16093 2.61 272 09:41 25.06.2020
930 Clear 23 1012 53 16093 2.1 0 09:22 25.06.2020
931 Clear 23 1012 53 16093 2.1 0 08:47 25.06.2020
932 Clear 23 1012 57 16093 2.6 270 08:20 25.06.2020
933 Clear 24 1012 57 16093 2.6 270 07:46 25.06.2020
934 Clear 24 1011 57 16093 2.6 260 07:27 25.06.2020
935 Clear 24 1011 57 16093 2.6 260 06:53 25.06.2020
936 Clear 24 1011 60 16093 2.6 260 06:27 25.06.2020
937 Clear 25 1011 60 16093 2.6 260 05:51 25.06.2020
938 Clear 26 1010 47 16093 3.6 260 04:29 25.06.2020
939 Clear 26 1009 47 16093 3.6 270 03:35 25.06.2020
940 Clear 27 1009 42 16093 2.6 260 02:43 25.06.2020
941 Clouds 28 1008 39 16093 5.1 260 01:59 25.06.2020
942 Clouds 28 1008 39 16093 5.1 260 01:29 25.06.2020
943 Clouds 29 1007 35 16093 3.6 260 00:47 25.06.2020
944 Clouds 29 1007 35 16093 6.2 260 00:22 25.06.2020
945 Clouds 30 1007 35 16093 6.2 260 23:45 24.06.2020
946 Clouds 30 1007 35 16093 4.1 260 23:26 24.06.2020
947 Clouds 30 1007 35 16093 4.1 260 22:59 24.06.2020
948 Clouds 30 1007 35 16093 4.1 260 22:59 24.06.2020
949 Clouds 30 1007 35 16093 4.1 260 22:41 24.06.2020
950 Clouds 30 1007 35 16093 5.1 250 22:20 24.06.2020
951 Clouds 30 1007 35 16093 5.1 250 21:56 24.06.2020
952 Clouds 30 1007 35 16093 5.1 250 21:37 24.06.2020
953 Clear 30 1007 39 16093 6.2 250 21:19 24.06.2020
954 Clear 30 1007 39 16093 6.2 250 20:58 24.06.2020
955 Clear 30 1007 39 16093 6.2 250 20:39 24.06.2020
956 Clear 29 1007 45 16093 6.7 250 20:20 24.06.2020
957 Clear 28 1007 45 16093 6.7 250 19:57 24.06.2020
958 Clear 29 1007 45 16093 6.7 250 19:38 24.06.2020
959 Clear 29 1007 45 16093 3.1 0 19:19 24.06.2020
960 Clear 28 1007 45 16093 3.1 0 18:58 24.06.2020
961 Clear 28 1007 45 16093 3.1 0 18:39 24.06.2020
962 Clouds 28 1007 58 16093 4.6 260 18:20 24.06.2020
963 Clouds 28 1007 58 16093 4.6 260 17:54 24.06.2020
964 Clouds 27 1007 58 16093 4.6 260 17:36 24.06.2020
965 Clouds 27 1006 65 16093 3.6 250 17:18 24.06.2020
966 Clouds 27 1006 65 16093 3.6 250 16:54 24.06.2020
967 Clouds 27 1006 69 16093 5.1 250 16:36 24.06.2020
968 Clouds 26 1006 74 16093 4.6 260 16:18 24.06.2020
969 Clouds 26 1006 74 16093 4.6 260 15:39 24.06.2020
970 Clouds 26 1006 78 16093 4.1 260 15:20 24.06.2020
971 Clouds 25 1006 78 16093 4.1 260 14:59 24.06.2020
972 Clouds 25 1006 78 16093 4.1 260 14:40 24.06.2020
973 Clouds 25 1005 83 16093 4.1 260 14:22 24.06.2020
974 Clouds 25 1005 83 16093 4.1 260 13:42 24.06.2020
975 Clouds 25 1005 83 16093 4.1 260 13:21 24.06.2020
976 Clouds 24 1005 83 16093 2.1 260 12:45 24.06.2020
977 Clear 24 1004 83 16093 2.6 280 12:22 24.06.2020
978 Clear 24 1004 83 16093 2.6 280 11:59 24.06.2020
979 Clear 24 1004 83 16093 2.6 280 11:41 24.06.2020
980 Clear 24 1004 83 16093 2.6 260 11:23 24.06.2020
981 Clear 24 1004 83 16093 2.6 260 10:54 24.06.2020
982 Clear 24 1004 83 16093 2.6 260 10:36 24.06.2020
983 Clouds 24 1004 83 16093 4.29 206 10:18 24.06.2020
984 Clouds 24 1004 83 16093 4.29 206 09:42 24.06.2020
985 Clear 24 1004 88 16093 1.5 0 09:20 24.06.2020
986 Clear 24 1004 88 16093 1.5 0 08:41 24.06.2020
987 Clear 24 1005 88 16093 1.5 20 08:20 24.06.2020
988 Clear 24 1005 88 16093 1.5 20 07:50 24.06.2020
989 Clear 24 1005 83 16093 4.65 199 07:26 24.06.2020
990 Clear 24 1005 83 16093 4.65 199 06:49 24.06.2020
991 Clear 24 1006 83 16093 4.21 193 06:25 24.06.2020
992 Clear 24 1006 83 16093 4.21 193 05:46 24.06.2020
993 Clear 24 1006 83 16093 1.5 0 04:41 24.06.2020
994 Clear 24 1006 83 16093 1.5 0 03:51 24.06.2020
995 Clear 25 1006 83 16093 1.5 0 03:33 24.06.2020
996 Clouds 26 1006 74 16093 3.1 140 02:41 24.06.2020
997 Clouds 27 1006 69 16093 2.6 0 01:29 24.06.2020
998 Clouds 27 1006 65 16093 3.6 150 00:47 24.06.2020
999 Clear 28 1007 61 16093 5.1 160 00:27 24.06.2020
1000 Clear 28 1007 61 16093 5.1 160 23:44 23.06.2020
1001 Clear 28 1007 61 16093 5.7 160 23:19 23.06.2020
1002 Clear 29 1007 61 16093 5.7 160 22:42 23.06.2020
1003 Clear 29 1008 58 16093 5.7 160 22:19 23.06.2020
1004 Clear 30 1008 58 16093 5.7 160 21:59 23.06.2020
1005 Clear 30 1008 58 16093 5.7 160 21:39 23.06.2020
1006 Clear 30 1008 58 16093 3.6 170 21:19 23.06.2020
1007 Clear 30 1008 58 16093 3.6 170 20:55 23.06.2020
1008 Clear 30 1008 58 16093 3.6 170 20:37 23.06.2020
1009 Clear 30 1009 58 16093 4.1 150 20:18 23.06.2020
1010 Clear 30 1009 58 16093 4.1 150 19:44 23.06.2020
1011 Clear 30 1010 58 16093 3.1 170 19:25 23.06.2020
1012 Clear 29 1010 58 16093 3.1 170 18:42 23.06.2020
1013 Clear 29 1010 58 16093 3.1 170 18:42 23.06.2020
1014 Clear 29 1010 54 16093 2.1 0 18:19 23.06.2020
1015 Clear 29 1010 61 16093 3.6 230 17:57 23.06.2020
1016 Clear 29 1010 61 16093 3.6 230 17:38 23.06.2020
1017 Clouds 29 1011 65 16093 2.6 220 17:20 23.06.2020
1018 Clouds 28 1011 65 16093 2.6 220 16:55 23.06.2020
1019 Clouds 28 1011 65 16093 2.6 220 16:36 23.06.2020
1020 Clear 27 1011 61 16093 2.99 192 16:18 23.06.2020
1021 Clear 27 1011 65 16093 2.99 192 15:43 23.06.2020
1022 Clear 26 1011 88 16093 2.97 211 15:24 23.06.2020
1023 Clear 25 1011 88 16093 2.97 211 14:56 23.06.2020
1024 Clear 25 1011 88 16093 2.97 211 14:38 23.06.2020
1025 Clear 24 1011 88 16093 2.1 250 14:18 23.06.2020
1026 Clear 24 1011 88 16093 2.1 250 13:46 23.06.2020
1027 Clear 24 1011 88 16093 2.1 250 13:26 23.06.2020
1028 Clear 23 1011 83 16093 2.1 270 12:59 23.06.2020
1029 Clear 23 1011 83 16093 2.1 270 12:59 23.06.2020
1030 Clear 23 1011 83 16093 2.1 270 12:40 23.06.2020
1031 Clear 23 1011 78 16093 2.45 184 12:20 23.06.2020
1032 Clear 23 1011 78 16093 2.45 184 11:43 23.06.2020
1033 Clear 23 1011 78 16093 2.48 195 11:23 23.06.2020
1034 Clear 23 1011 78 16093 2.48 195 10:59 23.06.2020
1035 Clear 23 1011 78 16093 2.48 195 10:41 23.06.2020
1036 Clear 23 1011 78 16093 1.5 270 10:22 23.06.2020
1037 Clear 23 1011 78 16093 1.5 270 09:57 23.06.2020
1038 Clear 23 1011 78 16093 1.5 270 09:38 23.06.2020
1039 Clear 24 1012 73 16093 1.5 260 09:20 23.06.2020
1040 Clear 24 1012 73 16093 1.5 260 09:20 23.06.2020
1041 Clear 24 1012 73 16093 1.5 260 08:46 23.06.2020
1042 Clear 24 1012 73 16093 2.6 240 08:26 23.06.2020
1043 Clear 24 1012 73 16093 2.6 240 07:49 23.06.2020
1044 Clear 25 1012 73 16093 2.6 240 07:24 23.06.2020
1045 Clear 25 1012 65 16093 1.5 270 06:53 23.06.2020
1046 Clear 25 1012 69 16093 1.5 280 06:32 23.06.2020
1047 Clear 25 1012 69 16093 1.5 280 05:59 23.06.2020
1048 Clear 25 1012 69 16093 1.5 280 05:26 23.06.2020
1049 Clear 27 1013 65 16093 2.1 180 03:23 23.06.2020
1050 Clear 27 1013 65 16093 2.1 180 02:52 23.06.2020
1051 Clear 28 1013 65 16093 2.1 180 02:33 23.06.2020
1052 Clear 29 1012 58 16093 5.1 160 01:46 23.06.2020
1053 Clear 29 1012 58 16093 5.1 160 01:24 23.06.2020
1054 Clear 30 1012 51 16093 3.6 130 00:46 23.06.2020
1055 Clear 30 1012 51 16093 3.6 130 00:21 23.06.2020
1056 Clear 31 1012 51 16093 6.2 160 23:55 22.06.2020
1057 Clear 30 1012 51 16093 6.2 160 23:55 22.06.2020
1058 Clear 31 1012 51 16093 6.2 160 23:36 22.06.2020
1059 Clear 31 1013 49 16093 3.6 180 23:18 22.06.2020
1060 Clear 31 1013 49 16093 3.6 180 22:54 22.06.2020
1061 Clear 31 1013 49 16093 3.6 180 22:36 22.06.2020
1062 Clear 32 1014 48 16093 3.6 190 22:18 22.06.2020
1063 Clear 32 1014 48 16093 3.6 190 21:41 22.06.2020
1064 Clear 32 1014 46 16093 4.1 230 21:22 22.06.2020
1065 Clear 32 1014 46 16093 4.1 230 20:59 22.06.2020
1066 Clear 32 1014 46 16093 4.1 230 20:41 22.06.2020
1067 Clear 32 1015 46 16093 2.6 240 20:21 22.06.2020
1068 Clear 33 1015 46 16093 2.6 240 19:44 22.06.2020
1069 Clear 32 1015 52 16093 2.1 260 19:20 22.06.2020
1070 Clear 32 1015 52 16093 2.1 260 18:59 22.06.2020
1071 Clear 32 1015 52 16093 2.1 260 18:39 22.06.2020
1072 Clear 32 1015 52 16093 2.1 260 18:21 22.06.2020
1073 Clear 31 1015 62 16093 1.5 200 17:56 22.06.2020
1074 Clear 31 1015 62 16093 1.5 200 17:37 22.06.2020
1075 Clear 31 1015 62 16093 1.5 200 17:19 22.06.2020
1076 Clear 30 1016 58 16093 1.5 0 16:55 22.06.2020
1077 Clear 29 1016 58 16093 1.5 0 16:37 22.06.2020
1078 Clear 28 1016 65 16093 2.15 270 16:18 22.06.2020
1079 Clear 27 1016 65 16093 2.15 270 15:41 22.06.2020
1080 Clear 26 1015 78 16093 2.1 210 15:23 22.06.2020
1081 Clear 25 1016 73 16093 2.41 274 14:54 22.06.2020
1082 Clear 25 1016 83 16093 2.1 240 14:36 22.06.2020
1083 Clear 24 1016 83 16093 2.1 240 14:18 22.06.2020
1084 Clear 23 1016 83 16093 2.1 240 13:39 22.06.2020
1085 Clear 23 1016 83 16093 2.1 240 13:21 22.06.2020
1086 Clear 22 1015 83 16093 2.1 0 12:57 22.06.2020
1087 Clear 22 1015 83 16093 2.1 0 12:39 22.06.2020
1088 Clear 22 1015 83 16093 2.1 0 12:39 22.06.2020
1089 Clear 22 1015 83 16093 2.1 0 12:21 22.06.2020
1090 Clear 22 1015 83 16093 2.1 240 11:37 22.06.2020
1091 Clear 22 1015 83 16093 2.1 240 11:19 22.06.2020
1092 Clear 22 1015 83 16093 1.5 220 10:57 22.06.2020
1093 Clear 22 1015 83 16093 1.5 220 10:38 22.06.2020
1094 Clear 22 1015 83 16093 2.1 250 10:19 22.06.2020
1095 Clear 22 1015 83 16093 2.1 250 09:57 22.06.2020
1096 Clear 22 1015 83 16093 2.1 250 09:38 22.06.2020
1097 Clear 22 1015 83 16093 2.1 250 09:19 22.06.2020
1098 Clear 23 1015 78 16093 1.5 260 08:56 22.06.2020
1099 Clear 23 1015 78 16093 1.5 260 08:37 22.06.2020
1100 Clear 23 1015 78 16093 1.5 260 08:18 22.06.2020
1101 Clear 23 1015 78 16093 2.1 260 07:46 22.06.2020
1102 Clear 23 1015 78 16093 2.1 260 07:25 22.06.2020
1103 Clear 23 1015 83 16093 2.6 230 06:39 22.06.2020
1104 Clear 24 1015 83 16093 2.6 230 06:20 22.06.2020
1105 Clear 24 1015 73 16093 2.1 270 05:42 22.06.2020
1106 Clear 25 1015 73 16093 3.94 179 03:41 22.06.2020
1107 Clear 27 1015 61 16093 2.1 200 01:53 22.06.2020
1108 Clear 28 1015 54 16093 2.6 200 00:58 22.06.2020
1109 Clear 28 1015 54 16093 2.6 200 00:29 22.06.2020
1110 Clear 28 1015 54 16093 1.5 180 23:56 21.06.2020
1111 Clear 29 1015 54 16093 1.5 180 23:37 21.06.2020
1112 Clear 29 1015 54 16093 1.5 180 23:19 21.06.2020
1113 Clear 29 1016 51 16093 2.1 210 22:56 21.06.2020
1114 Clear 29 1016 51 16093 2.1 210 22:36 21.06.2020
1115 Clear 29 1016 51 16093 2.1 210 22:18 21.06.2020
1116 Clear 30 1016 51 16093 3.6 210 21:55 21.06.2020
1117 Clear 30 1016 51 16093 3.6 210 21:37 21.06.2020
1118 Clear 30 1016 51 16093 2.1 230 21:19 21.06.2020
1119 Clear 30 1016 51 16093 2.1 230 20:56 21.06.2020
1120 Clear 30 1016 51 16093 2.1 230 20:36 21.06.2020
1121 Clear 29 1017 51 16093 2.1 240 20:18 21.06.2020
1122 Clear 29 1016 51 16093 2.1 230 20:18 21.06.2020
1123 Clear 29 1017 51 16093 2.1 240 19:41 21.06.2020
1124 Clear 29 1017 51 16093 2.1 240 19:21 21.06.2020
1125 Clear 29 1017 54 16093 3.1 210 18:56 21.06.2020
1126 Clear 28 1017 54 16093 3.1 210 18:38 21.06.2020
1127 Clear 28 1017 54 16093 3.1 210 18:20 21.06.2020
1128 Clear 28 1017 65 16093 2.6 240 17:56 21.06.2020
1129 Clear 27 1017 65 16093 2.6 240 17:38 21.06.2020
1130 Clear 27 1017 65 16093 2.6 240 17:19 21.06.2020
1131 Clouds 26 1018 69 16093 1.5 240 16:40 21.06.2020
1132 Clear 26 1017 78 16093 1.5 200 16:22 21.06.2020
1133 Clear 25 1017 88 16093 2.6 260 15:42 21.06.2020
1134 Clear 24 1017 88 16093 2.6 260 15:24 21.06.2020
1135 Clear 24 1017 83 16093 2.1 250 14:59 21.06.2020
1136 Clear 24 1017 83 16093 2.1 250 14:59 21.06.2020
1137 Clear 23 1017 83 16093 2.1 250 14:38 21.06.2020
1138 Clear 23 1017 83 16093 2.1 250 14:20 21.06.2020
1139 Clear 22 1017 88 16093 1.5 270 13:56 21.06.2020
1140 Clear 22 1017 88 16093 1.5 270 13:38 21.06.2020
1141 Clear 21 1017 83 16093 2.27 204 13:19 21.06.2020
1142 Clear 21 1017 83 16093 2.27 204 12:44 21.06.2020
1143 Clear 21 1017 83 16093 2.12 198 12:25 21.06.2020
1144 Clear 21 1017 83 16093 1.5 270 11:58 21.06.2020
1145 Clear 21 1017 83 16093 1.5 270 11:39 21.06.2020
1146 Clear 21 1017 83 16093 1.5 270 11:21 21.06.2020
1147 Clear 21 1016 83 16093 1.95 194 10:56 21.06.2020
1148 Clear 21 1016 83 16093 1.95 194 10:38 21.06.2020
1149 Clear 21 1016 83 16093 1.52 215 10:20 21.06.2020
1150 Clear 21 1017 83 16093 1.52 215 09:41 21.06.2020
1151 Clear 21 1017 83 16093 2.11 213 09:19 21.06.2020
1152 Clear 22 1017 78 16093 1.5 190 08:56 21.06.2020
1153 Clear 22 1017 78 16093 1.5 190 08:38 21.06.2020
1154 Clear 22 1017 78 16093 1.5 230 08:19 21.06.2020
1155 Clear 22 1017 78 16093 1.5 230 07:41 21.06.2020
1156 Clear 22 1017 78 16093 1.5 230 07:23 21.06.2020
1157 Clear 22 1017 83 16093 2.1 270 06:49 21.06.2020
1158 Clear 22 1017 78 16093 2.1 280 06:18 21.06.2020
1159 Clear 22 1017 78 16093 2.1 280 05:56 21.06.2020
1160 Clear 23 1017 78 16093 1.5 260 03:53 21.06.2020
1161 Clear 24 1017 73 16093 1.5 270 03:18 21.06.2020
1162 Clear 24 1017 73 16093 1.5 270 02:22 21.06.2020
1163 Clear 25 1017 73 16093 1.5 230 01:36 21.06.2020
1164 Clear 25 1017 73 16093 1.5 230 01:18 21.06.2020
1165 Clear 25 1017 69 16093 4.1 170 00:41 21.06.2020
1166 Clear 26 1017 69 16093 4.1 170 00:23 21.06.2020
1167 Clear 27 1017 58 16093 5.1 190 23:45 20.06.2020
1168 Clear 28 1017 58 16093 5.1 190 23:22 20.06.2020
1169 Clear 28 1017 58 16093 4.6 190 22:57 20.06.2020
1170 Clear 28 1017 58 16093 4.6 190 22:39 20.06.2020
1171 Clear 28 1017 58 16093 4.6 190 22:20 20.06.2020
1172 Clear 29 1017 54 16093 3.1 210 21:58 20.06.2020
1173 Clear 29 1017 54 16093 3.1 210 21:39 20.06.2020
1174 Clear 29 1017 54 16093 3.1 220 21:20 20.06.2020
1175 Clear 29 1017 54 16093 3.1 220 21:20 20.06.2020
1176 Clear 29 1017 54 16093 3.1 220 20:58 20.06.2020
1177 Clear 29 1017 54 16093 3.1 220 20:40 20.06.2020
1178 Clear 29 1017 54 16093 3.1 220 20:20 20.06.2020
1179 Clear 29 1018 54 16093 2.1 270 19:57 20.06.2020
1180 Clear 29 1018 54 16093 2.1 270 19:38 20.06.2020
1181 Clear 29 1018 54 16093 2.1 270 19:19 20.06.2020
1182 Clear 28 1019 54 16093 1.5 260 18:42 20.06.2020
1183 Clear 28 1019 54 16093 1.5 260 18:20 20.06.2020
1184 Clear 28 1019 61 16093 2.1 260 17:57 20.06.2020
1185 Clear 27 1019 61 16093 2.1 260 17:39 20.06.2020
1186 Clear 27 1019 61 16093 2.1 260 17:20 20.06.2020
1187 Clear 26 1019 73 16093 1.5 250 16:42 20.06.2020
1188 Clear 26 1020 65 16093 1.18 184 16:19 20.06.2020
1189 Clear 25 1020 69 16093 1.18 184 15:58 20.06.2020
1190 Clear 25 1019 78 16093 2.1 260 15:40 20.06.2020
1191 Clear 24 1019 78 16093 2.1 260 15:18 20.06.2020
1192 Clear 23 1019 78 16093 2.1 260 14:43 20.06.2020
1193 Clear 23 1019 83 16093 1.56 205 14:21 20.06.2020
1194 Clear 22 1019 83 16093 1.56 205 13:46 20.06.2020
1195 Clear 22 1019 83 16093 1.91 202 13:26 20.06.2020
1196 Clear 21 1018 83 16093 1.91 202 12:59 20.06.2020
1197 Clear 21 1018 83 16093 1.91 202 12:40 20.06.2020
1198 Clear 20 1018 83 16093 2.1 260 12:20 20.06.2020
1199 Clear 20 1018 83 16093 2.1 260 11:57 20.06.2020
1200 Clear 20 1018 83 16093 2.1 260 11:37 20.06.2020
1201 Clear 20 1018 83 16093 2.1 260 11:19 20.06.2020
1202 Clear 21 1018 83 16093 1.5 210 10:47 20.06.2020
1203 Clear 21 1018 83 16093 1.5 210 10:22 20.06.2020
1204 Clear 21 1018 83 16093 2.23 205 09:56 20.06.2020
1205 Clear 21 1018 83 16093 1.99 209 09:38 20.06.2020
1206 Clear 21 1018 83 16093 2.64 219 09:20 20.06.2020
1207 Clear 21 1018 78 16093 2.64 219 08:46 20.06.2020
1208 Clear 21 1018 78 16093 3.24 218 08:27 20.06.2020
1209 Clear 22 1019 78 16093 2.1 240 07:52 20.06.2020
1210 Clear 22 1019 78 16093 2.1 240 07:28 20.06.2020
1211 Clear 22 1019 78 16093 2.1 270 06:58 20.06.2020
1212 Clear 23 1019 78 16093 2.1 270 06:24 20.06.2020
1213 Clouds 23 1019 78 16093 2.1 280 05:54 20.06.2020
1214 Clouds 23 1019 78 16093 2.1 280 05:25 20.06.2020
1215 Clouds 23 1019 73 16093 3.1 160 02:53 20.06.2020
1216 Clouds 24 1019 73 16093 3.6 150 01:49 20.06.2020
1217 Clouds 24 1019 73 16093 3.6 150 01:27 20.06.2020
1218 Clear 25 1019 69 16093 4.6 170 00:22 20.06.2020
1219 Clear 26 1019 61 16093 6.7 180 23:58 19.06.2020
1220 Clear 26 1019 61 16093 6.7 180 23:39 19.06.2020
1221 Clear 26 1019 61 16093 6.7 180 23:18 19.06.2020
1222 Clear 26 1019 61 16093 6.7 180 23:18 19.06.2020
1223 Clear 27 1019 57 16093 4.6 190 22:42 19.06.2020
1224 Clear 27 1019 57 16093 4.6 190 22:23 19.06.2020
1225 -273 0 0 0 0 0 21:59 19.06.2020
1226 Clear 27 1019 57 16093 3.1 200 21:59 19.06.2020
1227 Clear 27 1019 57 16093 3.1 200 21:39 19.06.2020
1228 Clear 27 1019 57 16093 3.1 200 21:39 19.06.2020
1229 Clear 27 1019 57 16093 3.1 200 21:18 19.06.2020
1230 Clear 28 1020 57 16093 2.1 200 20:59 19.06.2020
1231 Clear 28 1020 57 16093 2.1 200 20:40 19.06.2020
1232 Clear 27 1020 57 16093 2.1 200 20:21 19.06.2020
1233 Clear 27 1020 57 16093 2.6 260 20:21 19.06.2020
1234 Clear 27 1020 57 16093 2.6 260 20:21 19.06.2020
1235 Clear 27 1020 57 16093 2.1 200 20:21 19.06.2020
1236 Clear 27 1020 57 16093 2.1 200 20:21 19.06.2020
1237 Clear 28 1020 57 16093 2.6 260 19:59 19.06.2020
1238 Clear 27 1020 57 16093 2.6 260 19:41 19.06.2020
1239 Clear 27 1020 57 16093 2.6 260 19:23 19.06.2020
1240 Clear 27 1021 57 16093 2.1 210 18:57 19.06.2020
1241 Clear 27 1021 57 16093 2.1 210 18:38 19.06.2020
1242 Clear 26 1021 61 16093 2.99 182 18:20 19.06.2020
1243 Clear 26 1021 61 16093 2.99 182 17:42 19.06.2020
1244 Clear 26 1021 61 16093 2.46 192 17:23 19.06.2020
1245 Clear 25 1021 73 16093 2.1 170 16:57 19.06.2020
1246 Clear 25 1021 73 16093 2.1 170 16:39 19.06.2020
1247 Clear 24 1021 73 16093 2.1 170 16:20 19.06.2020
1248 Clear 23 1022 73 16093 1.9 202 15:45 19.06.2020
1249 Clear 23 1022 73 16093 1.18 219 15:25 19.06.2020
1250 Clouds 21 1022 93 16093 2.6 200 14:58 19.06.2020
1251 Clouds 21 1022 93 16093 2.6 200 14:39 19.06.2020
1252 Clouds 20 1022 93 16093 2.6 200 14:21 19.06.2020
1253 Clouds 20 1022 93 16093 2.6 200 13:58 19.06.2020
1254 Clouds 19 1022 93 16093 2.1 230 13:40 19.06.2020
1255 Clouds 19 1022 93 16093 2.1 230 13:22 19.06.2020
1256 Clouds 19 1021 100 12874 1.5 230 12:45 19.06.2020
1257 Clouds 18 1021 100 16093 1.5 230 12:21 19.06.2020
1258 Mist 18 1021 100 9656 1.5 220 11:55 19.06.2020
1259 Mist 18 1021 100 9656 1.5 220 11:36 19.06.2020
1260 Mist 18 1020 100 3219 1.5 210 11:18 19.06.2020
1261 Mist 19 1020 100 1609 2.1 260 10:41 19.06.2020
1262 Mist 19 1020 100 1609 2.1 260 10:21 19.06.2020
1263 Mist 19 1020 93 2816 1.5 250 09:55 19.06.2020
1264 Clouds 19 1021 93 11265 2.16 211 09:37 19.06.2020
1265 Clouds 19 1021 93 16093 2.1 193 09:18 19.06.2020
1266 Clouds 19 1021 93 16093 2.1 193 08:41 19.06.2020
1267 Clouds 19 1021 93 16093 2.11 166 08:23 19.06.2020
1268 Clouds 19 1021 93 14484 2.6 170 07:41 19.06.2020
1269 Clouds 19 1021 93 14484 2.6 170 07:22 19.06.2020
1270 Mist 19 1021 93 6437 2.1 150 06:52 19.06.2020
1271 Mist 19 1021 93 3219 2.96 150 06:22 19.06.2020
1272 Clouds 19 1021 93 16093 3.1 170 05:34 19.06.2020
1273 Clouds 20 1021 88 16093 3.1 170 04:21 19.06.2020
1274 Clear 22 1020 78 16093 2.6 80 02:24 19.06.2020
1275 Clouds 24 1021 73 16093 2.1 150 00:46 19.06.2020
1276 Clouds 24 1021 73 16093 2.1 150 00:22 19.06.2020
1277 Clouds 24 1021 73 16093 3.6 160 23:58 18.06.2020
1278 Clouds 25 1021 73 16093 3.6 160 23:40 18.06.2020
1279 Clouds 25 1021 73 16093 3.6 160 23:22 18.06.2020
1280 Clouds 24 1022 78 16093 3.1 270 22:41 18.06.2020
1281 Clouds 24 1022 78 16093 3.1 270 22:41 18.06.2020
1282 Clouds 24 1022 78 16093 3.1 270 22:21 18.06.2020
1283 Clouds 24 1022 73 16093 2.6 210 21:58 18.06.2020
1284 Clouds 24 1022 73 16093 2.6 210 21:58 18.06.2020
1285 Clouds 23 1022 78 16093 3.6 190 21:38 18.06.2020
1286 Clouds 23 1022 78 16093 3.6 190 21:19 18.06.2020
1287 Clouds 23 1022 78 16093 3.1 150 20:44 18.06.2020
1288 Clouds 23 1022 78 16093 3.1 150 20:22 18.06.2020
1289 Rain 22 1022 78 16093 1.5 0 19:59 18.06.2020
1290 Rain 23 1023 78 16093 4.1 120 19:41 18.06.2020
1291 Clouds 23 1023 78 16093 4.1 120 19:20 18.06.2020
1292 Clouds 23 1023 73 16093 3.1 120 18:56 18.06.2020
1293 Clouds 23 1023 69 16093 4.6 120 18:36 18.06.2020
1294 Clouds 22 1023 73 16093 3.1 50 18:18 18.06.2020
1295 Clouds 22 1023 73 16093 3.1 50 17:43 18.06.2020
1296 Clouds 22 1023 78 16093 3.6 30 17:24 18.06.2020
1297 Clouds 22 1023 78 16093 3.6 30 16:55 18.06.2020
1298 Clouds 21 1023 83 16093 3.6 40 16:37 18.06.2020
1299 Clouds 21 1023 83 16093 3.6 40 16:18 18.06.2020
1300 Clouds 20 1023 83 14484 5.1 60 15:40 18.06.2020
1301 Clouds 20 1023 83 14484 5.1 60 15:21 18.06.2020
1302 Clouds 20 1023 88 16093 3.6 30 14:58 18.06.2020
1303 Clouds 20 1023 88 16093 3.6 30 14:58 18.06.2020
1304 Clouds 19 1023 88 16093 3.6 30 14:40 18.06.2020
1305 Clouds 19 1023 88 16093 3.6 30 14:21 18.06.2020
1306 Clouds 19 1023 88 14484 2.6 60 13:56 18.06.2020
1307 Clouds 19 1023 88 14484 2.6 60 13:38 18.06.2020
1308 Clouds 19 1023 88 14484 2.6 60 13:18 18.06.2020
1309 Clouds 19 1023 88 16093 3.1 30 12:55 18.06.2020
1310 Clouds 19 1023 88 16093 3.1 30 12:36 18.06.2020
1311 Clouds 19 1023 88 16093 3.1 30 12:18 18.06.2020
1312 Clouds 19 1022 88 16093 2.1 90 11:44 18.06.2020
1313 Clouds 19 1022 88 16093 3.6 30 11:21 18.06.2020
1314 Clouds 19 1022 88 16093 3.6 30 10:41 18.06.2020
1315 Clouds 19 1022 88 16093 3.1 50 10:20 18.06.2020
1316 Clouds 19 1022 88 16093 3.1 50 09:58 18.06.2020
1317 Clouds 19 1022 88 16093 3.1 50 09:40 18.06.2020
1318 Clouds 19 1022 88 16093 3.1 50 09:21 18.06.2020
1319 Clouds 19 1022 88 16093 3.1 60 08:41 18.06.2020
1320 Clouds 19 1023 88 16093 2.6 50 08:22 18.06.2020
1321 Clouds 18 1023 88 16093 2.6 50 07:58 18.06.2020
1322 Clouds 18 1023 88 16093 2.6 50 07:40 18.06.2020
1323 Clouds 18 1023 88 16093 2.6 50 07:21 18.06.2020
1324 Clouds 19 1023 88 16093 2.6 0 06:22 18.06.2020
1325 Clouds 19 1023 88 16093 4.1 50 04:26 18.06.2020
1326 Clouds 20 1023 82 16093 2.6 90 03:18 18.06.2020
1327 Clouds 20 1024 77 16093 3.6 160 01:39 18.06.2020
1328 Clouds 21 1024 77 16093 3.6 160 01:18 18.06.2020
1329 Clouds 21 1024 77 16093 3.6 180 00:48 18.06.2020
1330 Clouds 21 1024 73 16093 4.1 130 00:24 18.06.2020
1331 Clouds 22 1024 73 16093 3.6 190 23:46 17.06.2020
1332 Clouds 23 1024 73 16093 3.6 190 23:22 17.06.2020
1333 Clouds 23 1023 64 16093 5.7 170 22:59 17.06.2020
1334 Clouds 24 1023 64 16093 5.7 170 22:40 17.06.2020
1335 Clear 25 1023 47 16093 5.7 20 22:21 17.06.2020
1336 Clouds 25 1023 64 16093 5.7 170 22:21 17.06.2020
1337 Clear 25 1023 47 16093 5.7 20 22:21 17.06.2020
1338 Clear 25 1023 47 16093 5.7 20 21:57 17.06.2020
1339 Clear 25 1023 47 16093 5.7 20 21:39 17.06.2020
1340 Clear 25 1023 47 16093 5.7 20 21:20 17.06.2020
1341 Clear 25 1023 50 16093 6.2 50 20:39 17.06.2020
1342 Clear 25 1023 50 16093 6.2 50 20:20 17.06.2020
1343 Clear 25 1024 47 16093 5.1 80 19:59 17.06.2020
1344 Clear 25 1024 47 16093 5.1 80 19:59 17.06.2020
1345 Clear 25 1024 47 16093 5.1 80 19:39 17.06.2020
1346 Clear 25 1024 47 16093 5.1 80 19:19 17.06.2020
1347 Clouds 24 1025 47 16093 5.7 60 18:45 17.06.2020
1348 Clouds 24 1025 47 16093 5.7 60 18:27 17.06.2020
1349 Clouds 24 1025 47 16093 5.7 60 18:27 17.06.2020
1350 Clouds 23 1025 53 16093 6.7 40 17:47 17.06.2020
1351 Clouds 23 1025 53 16093 6.7 40 17:23 17.06.2020
1352 Clear 22 1025 60 16093 5.1 40 16:59 17.06.2020
1353 Clear 22 1025 60 16093 5.1 40 16:40 17.06.2020
1354 Clear 22 1025 60 16093 5.1 40 16:21 17.06.2020
1355 Clear 20 1026 72 16093 5.1 40 15:58 17.06.2020
1356 Clear 20 1027 63 16093 4.13 71 15:39 17.06.2020
1357 Clear 19 1025 77 16093 4.6 40 15:21 17.06.2020
1358 Clear 19 1025 77 16093 4.6 40 15:21 17.06.2020
1359 Clear 19 1025 77 16093 4.6 40 15:21 17.06.2020
1360 Clear 19 1025 77 16093 4.6 40 14:58 17.06.2020
1361 Clear 19 1025 77 16093 4.6 40 14:39 17.06.2020
1362 Clear 18 1025 77 16093 4.6 40 14:19 17.06.2020
1363 Clear 18 1026 77 16093 4.6 40 13:57 17.06.2020
1364 Clear 18 1026 77 16093 4.6 40 13:39 17.06.2020
1365 Clear 18 1026 77 16093 4.6 40 13:21 17.06.2020
1366 Clear 17 1026 77 16093 5.1 40 12:43 17.06.2020
1367 Clear 17 1026 77 16093 5.1 40 12:23 17.06.2020
1368 Clear 17 1025 72 16093 4.1 40 11:58 17.06.2020
1369 Clear 17 1025 72 16093 4.1 40 11:40 17.06.2020
1370 Clear 17 1025 72 16093 5.1 50 11:22 17.06.2020
1371 Clear 17 1025 72 16093 5.1 50 10:39 17.06.2020
1372 Clear 17 1025 72 16093 5.1 50 10:19 17.06.2020
1373 Clear 17 1026 72 16093 4.1 60 09:59 17.06.2020
1374 Clear 17 1026 72 16093 4.1 60 09:58 17.06.2020
1375 Clear 17 1026 72 16093 4.1 60 09:40 17.06.2020
1376 Clear 18 1026 72 16093 4.1 60 09:21 17.06.2020
1377 Clear 18 1026 68 16093 4.1 30 08:55 17.06.2020
1378 Clear 18 1026 68 16093 4.1 30 08:36 17.06.2020
1379 Clear 18 1026 68 16093 4.1 40 08:18 17.06.2020
1380 Clear 18 1026 68 16093 4.1 40 07:42 17.06.2020
1381 Clear 18 1026 68 16093 4.1 40 07:21 17.06.2020
1382 Clear 18 1026 63 16093 3.6 40 06:55 17.06.2020
1383 Clear 19 1026 63 16093 3.6 40 06:37 17.06.2020
1384 Clear 19 1026 63 16093 3.6 40 06:19 17.06.2020
1385 Clear 19 1027 68 16093 2.6 0 05:18 17.06.2020
1386 Clear 20 1026 64 16093 3.1 60 03:28 17.06.2020
1387 Clear 21 1026 56 16093 5.7 140 01:51 17.06.2020
1388 Clear 22 1027 56 16093 4.1 160 00:46 17.06.2020
1389 Clear 23 1027 56 16093 4.1 160 00:23 17.06.2020
1390 Clear 23 1027 53 16093 4.6 130 23:56 16.06.2020
1391 Clear 23 1027 53 16093 4.6 130 23:37 16.06.2020
1392 Clear 24 1027 53 16093 4.6 130 23:19 16.06.2020
1393 Clear 24 1028 53 16093 4.1 160 22:55 16.06.2020
1394 Clear 24 1028 53 16093 4.1 160 22:37 16.06.2020
1395 Clear 24 1028 53 16093 4.1 160 22:18 16.06.2020
1396 Clear 24 1028 41 16093 2.1 0 21:47 16.06.2020
1397 Clear 24 1028 41 16093 2.1 0 21:24 16.06.2020
1398 Clear 24 1028 41 16093 6.7 30 20:58 16.06.2020
1399 Clear 24 1028 41 16093 6.7 30 20:40 16.06.2020
1400 Clear 24 1028 38 16093 6.2 40 20:19 16.06.2020
1401 Clear 24 1028 38 16093 6.2 40 19:58 16.06.2020
1402 Clear 24 1028 38 16093 6.2 40 19:39 16.06.2020
1403 Clear 24 1028 38 16093 6.2 40 19:21 16.06.2020
1404 Clear 24 1029 36 16093 6.7 40 18:55 16.06.2020
1405 Clear 24 1029 36 16093 6.7 40 18:36 16.06.2020
1406 Clear 24 1029 36 16093 6.7 40 18:18 16.06.2020
1407 Clear 23 1029 40 16093 5.7 40 17:54 16.06.2020
1408 Clear 23 1029 40 16093 5.7 40 17:36 16.06.2020
1409 Clear 22 1029 43 16093 5.7 50 17:18 16.06.2020
1410 Clear 22 1029 43 16093 5.7 50 16:42 16.06.2020
1411 Clear 22 1029 43 16093 5.7 50 16:20 16.06.2020
1412 Clear 21 1029 63 16093 4.1 40 15:58 16.06.2020
1413 Clear 20 1029 63 16093 4.1 40 15:40 16.06.2020
1414 Clear 20 1029 63 16093 4.1 40 15:21 16.06.2020
1415 Clear 19 1029 72 16093 3.63 47 14:57 16.06.2020
1416 Clear 19 1029 72 16093 3.69 42 14:38 16.06.2020
1417 Clear 19 1029 72 16093 3.26 31 14:20 16.06.2020
1418 Clear 17 1029 77 16093 1.5 280 13:48 16.06.2020
1419 Clear 17 1029 77 16093 1.5 280 13:26 16.06.2020
1420 Clear 16 1028 72 16093 1.5 280 12:57 16.06.2020
1421 Clear 16 1028 72 16093 1.5 280 12:38 16.06.2020
1422 Clear 16 1028 72 16093 2.84 24 12:20 16.06.2020
1423 Clear 16 1028 72 16093 2.84 24 11:54 16.06.2020
1424 Clear 16 1028 72 16093 2.77 25 11:36 16.06.2020
1425 Clear 16 1028 72 16093 2.84 24 11:36 16.06.2020
1426 Clear 16 1028 72 16093 2.77 25 11:18 16.06.2020
1427 Clear 16 1028 63 16093 2.6 40 10:42 16.06.2020
1428 Clear 16 1028 63 16093 2.6 40 10:21 16.06.2020
1429 Clear 16 1029 63 16093 2.6 40 09:57 16.06.2020
1430 Clear 16 1029 63 16093 2.6 40 09:39 16.06.2020
1431 Clear 17 1029 63 16093 2.6 40 09:21 16.06.2020
1432 Clear 16 1029 72 16093 2.6 50 08:43 16.06.2020
1433 Clear 16 1029 72 16093 2.6 50 08:25 16.06.2020
1434 Clear 17 1029 68 16093 2.6 70 07:47 16.06.2020
1435 Clear 17 1029 68 16093 2.6 70 07:26 16.06.2020
1436 Clear 17 1029 72 16093 1.5 90 06:48 16.06.2020
1437 Clear 17 1029 72 16093 1.5 90 06:26 16.06.2020
1438 Clear 17 1029 72 16093 2.6 150 05:38 16.06.2020
1439 Clear 18 1029 72 16093 2.6 0 04:31 16.06.2020
1440 Clear 18 1029 68 16093 4.6 160 02:59 16.06.2020
1441 Clear 20 1028 60 16093 2.6 170 01:59 16.06.2020
1442 Clear 20 1028 60 16093 2.6 170 01:27 16.06.2020
1443 Clear 22 1028 53 16093 3.1 160 00:43 16.06.2020
1444 Clear 22 1028 53 16093 3.1 160 00:19 16.06.2020
1445 Clouds 23 1028 53 16093 3.1 190 23:42 15.06.2020
1446 Clouds 23 1028 53 16093 3.1 190 23:22 15.06.2020
1447 Clear 23 1029 56 16093 4.1 210 22:55 15.06.2020
1448 Clear 23 1029 56 16093 4.1 210 22:37 15.06.2020
1449 Clear 24 1029 56 16093 4.1 210 22:18 15.06.2020
1450 Clouds 23 1029 68 16093 4.1 260 21:55 15.06.2020
1451 Clouds 23 1029 68 16093 4.1 260 21:37 15.06.2020
1452 Clouds 23 1029 68 16093 4.1 260 21:19 15.06.2020
1453 Clear 23 1029 60 16093 3.1 0 20:55 15.06.2020
1454 Clear 23 1029 60 16093 3.1 0 20:37 15.06.2020
1455 Clear 23 1029 60 16093 3.1 0 20:18 15.06.2020
1456 Clear 23 1030 40 16093 5.7 50 19:54 15.06.2020
1457 Clear 22 1030 40 16093 5.7 50 19:36 15.06.2020
1458 Clear 22 1030 40 16093 5.7 50 19:18 15.06.2020
1459 Clear 22 1030 43 16093 6.7 50 18:43 15.06.2020
1460 Clear 22 1030 43 16093 6.7 50 18:22 15.06.2020
1461 Clear 21 1030 46 16093 6.7 40 17:59 15.06.2020
1462 Clear 21 1030 46 16093 6.7 40 17:41 15.06.2020
1463 Clear 21 1030 52 16093 5.1 60 17:20 15.06.2020
1464 Clear 21 1030 52 16093 5.1 60 16:58 15.06.2020
1465 Clear 20 1030 52 16093 5.1 60 16:39 15.06.2020
1466 Clear 20 1030 52 16093 5.1 60 16:18 15.06.2020
1467 Clear 19 1031 63 16093 6.2 40 15:56 15.06.2020
1468 Clear 19 1031 63 16093 6.2 40 15:36 15.06.2020
1469 Clear 19 1031 63 16093 6.2 40 15:18 15.06.2020
1470 Clear 18 1030 55 16093 5.7 40 14:41 15.06.2020
1471 Clear 17 1030 55 16093 5.7 40 14:20 15.06.2020
1472 Clear 17 1030 63 16093 4.6 40 13:59 15.06.2020
1473 Clear 17 1030 63 16093 4.6 40 13:39 15.06.2020
1474 Clear 16 1029 68 16093 5.7 30 13:20 15.06.2020
1475 Clear 16 1029 68 16093 5.7 30 12:56 15.06.2020
1476 Clear 16 1029 68 16093 5.7 30 12:38 15.06.2020
1477 Clear 16 1029 68 16093 5.7 30 12:19 15.06.2020
1478 Clear 16 1029 72 16093 3.6 30 11:43 15.06.2020
1479 Clear 16 1029 72 16093 3.6 30 11:24 15.06.2020
1480 Clear 16 1029 67 16093 3.1 40 10:44 15.06.2020
1481 Clear 16 1029 67 16093 3.1 40 10:22 15.06.2020
1482 Clear 16 1028 72 16093 3.1 40 09:56 15.06.2020
1483 Clear 16 1028 72 16093 3.1 40 09:38 15.06.2020
1484 Clear 16 1028 72 16093 3.1 40 09:19 15.06.2020
1485 Clear 17 1029 68 16093 2.1 50 08:39 15.06.2020
1486 Clear 17 1029 68 16093 2.1 50 08:21 15.06.2020
1487 Clear 17 1029 68 16093 1.5 60 07:46 15.06.2020
1488 Clear 17 1029 68 16093 1.5 60 07:28 15.06.2020
1489 Clear 17 1029 63 16093 2.1 0 06:49 15.06.2020
1490 Clear 17 1029 63 16093 2.1 0 06:25 15.06.2020
1491 Clear 18 1029 63 16093 2.1 60 05:46 15.06.2020
1492 Clear 18 1029 63 16093 2.1 60 05:26 15.06.2020
1493 Clear 18 1029 63 16093 1.5 130 04:20 15.06.2020
1494 Clear 18 1029 59 16093 3.1 130 03:41 15.06.2020
1495 Clear 19 1028 52 16093 3.6 140 02:54 15.06.2020
1496 Clear 20 1028 56 16093 3.1 130 01:57 15.06.2020
1497 Clear 20 1028 56 16093 3.1 130 01:34 15.06.2020
1498 Clear 21 1028 46 16093 4.1 140 00:59 15.06.2020
1499 Clear 21 1028 46 16093 4.1 140 00:39 15.06.2020
1500 Clear 21 1028 46 16093 4.1 140 00:20 15.06.2020
1501 Clouds 22 1028 46 16093 4.1 150 23:47 14.06.2020
1502 Clouds 22 1028 46 16093 4.1 150 23:25 14.06.2020
1503 Clouds 23 1028 44 16093 3.1 180 22:58 14.06.2020
1504 Clouds 23 1028 44 16093 3.1 180 22:39 14.06.2020
1505 Clouds 23 1028 33 16093 4.48 143 22:20 14.06.2020
1506 Clouds 23 1028 33 16093 4.48 143 21:57 14.06.2020
1507 Clouds 23 1028 33 16093 4.48 143 21:39 14.06.2020
1508 Clear 23 1028 36 16093 3.49 120 21:19 14.06.2020
1509 Clear 23 1028 36 16093 3.49 120 20:58 14.06.2020
1510 Clear 23 1028 36 16093 3.49 120 20:39 14.06.2020
1511 Clear 22 1028 36 16093 2.97 112 20:20 14.06.2020
1512 Clear 22 1028 38 16093 1.5 70 19:59 14.06.2020
1513 Clear 22 1028 38 16093 1.5 70 19:38 14.06.2020
1514 Clear 21 1029 43 16093 2.27 109 19:19 14.06.2020
1515 Clear 21 1029 43 16093 2.27 109 18:57 14.06.2020
1516 Clear 21 1029 43 16093 2.27 109 18:39 14.06.2020
1517 Clear 20 1029 40 16093 2.6 110 18:20 14.06.2020
1518 Clear 20 1029 40 16093 2.6 110 17:58 14.06.2020
1519 Clear 19 1029 48 16093 2.27 73 17:39 14.06.2020
1520 Clear 18 1029 45 16093 3.6 60 17:20 14.06.2020
1521 Clear 18 1029 45 16093 3.6 60 16:55 14.06.2020
1522 Clear 18 1029 45 16093 3.6 60 16:36 14.06.2020
1523 Clear 18 1029 45 16093 3.6 60 16:18 14.06.2020
1524 Clear 16 1029 55 16093 3.6 60 15:41 14.06.2020
1525 Clear 16 1029 55 16093 3.6 60 15:20 14.06.2020
1526 Clear 15 1028 54 16093 5.7 50 14:59 14.06.2020
1527 Clear 14 1028 54 16093 5.7 50 14:40 14.06.2020
1528 Clear 14 1028 54 16093 5.7 50 14:22 14.06.2020
1529 Clear 14 1028 58 16093 5.1 50 13:58 14.06.2020
1530 Clear 13 1028 58 16093 5.1 50 13:39 14.06.2020
1531 Clear 13 1028 58 16093 5.1 50 13:21 14.06.2020
1532 Clear 13 1028 58 16093 5.1 50 13:21 14.06.2020
1533 Clear 13 1027 62 16093 7.2 50 12:56 14.06.2020
1534 Clear 13 1027 62 16093 7.2 50 12:38 14.06.2020
1535 Clear 13 1027 62 16093 7.2 50 12:18 14.06.2020
1536 Clear 13 1027 58 16093 6.2 40 11:56 14.06.2020
1537 Clear 13 1027 58 16093 6.2 40 11:38 14.06.2020
1538 Clear 13 1028 54 16093 5.22 30 11:18 14.06.2020
1539 Clear 13 1028 54 16093 5.22 30 10:42 14.06.2020
1540 Clear 13 1027 47 16093 5.1 29 10:20 14.06.2020
1541 Clear 14 1027 47 16093 5.1 29 09:51 14.06.2020
1542 Clear 14 1027 47 16093 5.29 24 09:26 14.06.2020
1543 Clear 14 1026 55 16093 4.1 50 08:58 14.06.2020
1544 Clear 14 1026 55 16093 4.1 50 08:40 14.06.2020
1545 Clear 15 1026 55 16093 4.1 50 08:18 14.06.2020
1546 Clear 15 1027 41 16093 6.11 30 07:51 14.06.2020
1547 Clear 15 1027 41 16093 6.11 30 07:32 14.06.2020
1548 Clouds 16 1026 51 16093 4.6 50 06:39 14.06.2020
1549 Clear 17 1025 48 16093 7.2 40 05:45 14.06.2020
1550 Clear 17 1025 45 16093 4.6 60 04:59 14.06.2020
1551 Clear 18 1025 45 16093 4.6 60 04:33 14.06.2020
1552 Clear 20 1023 43 16093 4.1 40 03:36 14.06.2020
1553 Clear 21 1022 35 16093 2.1 0 02:31 14.06.2020
1554 Clear 23 1022 35 16093 2.1 130 01:47 14.06.2020
1555 Clear 23 1022 35 16093 2.1 130 01:24 14.06.2020
1556 Clear 24 1022 28 16093 3.79 337 00:40 14.06.2020
1557 Clear 24 1021 33 16093 3.1 0 00:19 14.06.2020
1558 Clear 24 1021 33 16093 3.1 0 23:44 13.06.2020
1559 Clear 24 1021 33 16093 3.1 0 23:24 13.06.2020
1560 Clear 24 1021 36 16093 4.1 260 22:58 13.06.2020
1561 Clear 24 1021 36 16093 4.1 260 22:37 13.06.2020
1562 Clear 24 1021 36 16093 4.1 260 22:18 13.06.2020
1563 Clear 24 1022 33 16093 3.6 230 21:56 13.06.2020
1564 Clear 24 1022 33 16093 3.6 230 21:38 13.06.2020
1565 Clear 24 1022 33 16093 3.6 230 21:20 13.06.2020
1566 Clear 23 1022 38 16093 2.6 0 20:43 13.06.2020
1567 Clear 23 1022 38 16093 2.6 0 20:19 13.06.2020
1568 Clear 23 1022 38 16093 2.1 0 19:57 13.06.2020
1569 Clear 22 1022 38 16093 2.1 0 19:36 13.06.2020
1570 Clear 22 1022 38 16093 2.1 0 19:18 13.06.2020
1571 Clear 22 1023 40 16093 2.1 0 18:55 13.06.2020
1572 Clear 21 1023 40 16093 2.1 0 18:37 13.06.2020
1573 Clear 21 1023 40 16093 2.1 0 18:18 13.06.2020
1574 Clear 20 1023 37 16093 2.51 335 17:42 13.06.2020
1575 Clear 20 1023 37 16093 3.06 350 17:23 13.06.2020
1576 Clear 19 1023 42 16093 1.5 0 16:58 13.06.2020
1577 Clear 19 1023 42 16093 1.5 0 16:40 13.06.2020
1578 Clear 19 1023 42 16093 1.5 0 16:19 13.06.2020
1579 Clear 18 1023 51 16093 2.1 0 15:59 13.06.2020
1580 Clear 18 1023 51 16093 2.1 0 15:39 13.06.2020
1581 Clear 18 1023 51 16093 2.1 0 15:20 13.06.2020
1582 Clear 18 1023 51 16093 2.1 0 15:20 13.06.2020
1583 Clear 17 1022 51 16093 4.1 50 14:43 13.06.2020
1584 Clear 17 1022 51 16093 4.1 50 14:22 13.06.2020
1585 Clear 17 1022 51 16093 2.6 0 13:56 13.06.2020
1586 Clear 17 1022 51 16093 2.6 0 13:37 13.06.2020
1587 Clear 17 1022 51 16093 2.6 0 13:18 13.06.2020
1588 Clear 16 1021 51 16093 4.21 346 12:42 13.06.2020
1589 Clear 16 1021 51 16093 4.85 340 12:24 13.06.2020
1590 Clear 17 1021 52 16093 2.1 0 11:55 13.06.2020
1591 Clear 17 1021 52 16093 2.1 0 11:37 13.06.2020
1592 Clear 17 1020 55 16093 4.1 60 11:18 13.06.2020
1593 Clear 18 1020 55 16093 4.1 60 10:49 13.06.2020
1594 Clear 18 1020 55 16093 4.1 60 10:27 13.06.2020
1595 Clear 19 1019 56 16093 1.5 0 09:56 13.06.2020
1596 Clear 19 1019 56 16093 1.5 0 09:38 13.06.2020
1597 Clouds 20 1019 60 16093 3.1 50 09:19 13.06.2020
1598 Clouds 20 1019 60 16093 3.1 50 08:45 13.06.2020
1599 Clouds 20 1019 60 16093 3.1 50 08:26 13.06.2020
1600 Clouds 21 1018 49 16093 2.6 0 07:45 13.06.2020
1601 Clouds 22 1018 49 16093 2.6 0 07:27 13.06.2020
1602 Clouds 23 1018 49 16093 6.23 348 06:45 13.06.2020
1603 Clouds 23 1018 49 16093 5.94 346 06:26 13.06.2020
1604 Clouds 23 1018 47 16093 2.6 50 05:33 13.06.2020
1605 Clouds 24 1018 44 16093 5.66 343 04:55 13.06.2020
1606 Clouds 25 1017 41 16093 4.73 343 03:46 13.06.2020
1607 Clouds 27 1017 39 16093 4.24 323 02:53 13.06.2020
1608 Clouds 27 1017 39 16093 4.36 307 02:25 13.06.2020
1609 Clouds 28 1016 34 16093 1.5 0 01:26 13.06.2020
1610 Clouds 28 1016 37 16093 3.1 260 00:58 13.06.2020
1611 Clouds 28 1016 37 16093 3.1 260 00:38 13.06.2020
1612 Clouds 28 1016 37 16093 3.1 260 00:19 13.06.2020
1613 Clouds 29 1017 35 16093 3.6 250 23:40 12.06.2020
1614 Clouds 29 1017 35 16093 3.6 250 23:19 12.06.2020
1615 Clouds 29 1017 34 16093 4.1 240 22:56 12.06.2020
1616 Clouds 29 1017 34 16093 4.1 240 22:38 12.06.2020
1617 Clouds 29 1017 37 16093 3.6 250 22:18 12.06.2020
1618 Clouds 29 1017 37 16093 3.6 250 21:44 12.06.2020
1619 Clouds 30 1017 37 16093 3.6 250 21:24 12.06.2020
1620 Clouds 29 1018 28 16093 4.6 250 20:58 12.06.2020
1621 Clouds 29 1018 28 16093 4.6 250 20:39 12.06.2020
1622 Clouds 29 1018 28 16093 4.6 250 20:21 12.06.2020
1623 Clear 29 1018 28 16093 4.1 230 19:47 12.06.2020
1624 Clear 29 1018 28 16093 4.1 230 19:22 12.06.2020
1625 Clear 29 1018 28 16093 4.1 230 19:22 12.06.2020
1626 Clear 29 1019 28 16093 2.6 240 19:00 12.06.2020
1627 Clear 29 1019 28 16093 2.6 240 18:37 12.06.2020
1628 Clear 29 1019 28 16093 2.6 240 18:37 12.06.2020
1629 Clear 28 1019 28 16093 2.6 240 18:18 12.06.2020
1630 Clear 28 1019 32 16093 3.38 292 17:46 12.06.2020
1631 Clear 27 1019 32 16093 3.29 295 17:27 12.06.2020
1632 Clear 27 1019 39 16093 3.1 240 16:58 12.06.2020
1633 Clear 27 1019 39 16093 3.1 240 16:40 12.06.2020
1634 Clear 26 1019 39 16093 3.1 240 16:19 12.06.2020
1635 Clear 26 1020 50 16093 3.27 308 15:45 12.06.2020
1636 Clear 25 1020 60 16093 3.65 324 15:25 12.06.2020
1637 Clear 24 1020 68 16093 2.1 0 14:56 12.06.2020
1638 Clear 23 1020 68 16093 2.1 0 14:38 12.06.2020
1639 Clear 23 1020 68 16093 2.1 0 14:19 12.06.2020
1640 Clouds 22 1020 73 16093 1.5 180 13:41 12.06.2020
1641 Clear 21 1019 77 16093 4.09 343 13:21 12.06.2020
1642 Clear 21 1019 77 16093 4.09 343 12:40 12.06.2020
1643 Clear 21 1019 77 16093 4.32 344 12:20 12.06.2020
1644 Clouds 21 1018 77 16093 2.6 260 11:58 12.06.2020
1645 Clouds 21 1018 77 16093 2.6 260 11:38 12.06.2020
1646 Clouds 21 1018 77 16093 2.6 260 11:19 12.06.2020
1647 Clear 21 1018 94 16093 2.1 230 10:45 12.06.2020
1648 Clear 21 1018 94 16093 2.1 230 10:24 12.06.2020
1649 Clear 21 1018 100 14484 1.5 210 09:46 12.06.2020
1650 Clear 22 1018 100 14484 1.5 210 09:21 12.06.2020
1651 Clear 22 1018 94 16093 2.1 250 08:45 12.06.2020
1652 Clear 22 1018 94 16093 2.1 250 08:25 12.06.2020
1653 Clouds 22 1018 94 16093 2.1 220 07:44 12.06.2020
1654 Clouds 23 1018 94 16093 2.1 220 07:26 12.06.2020
1655 Clouds 23 1019 94 16093 1.5 260 06:56 12.06.2020
1656 Clouds 23 1019 94 16093 2.1 250 06:30 12.06.2020
1657 Clouds 23 1019 88 16093 1.5 260 05:55 12.06.2020
1658 Clouds 23 1019 88 16093 1.5 260 05:37 12.06.2020
1659 Clouds 23 1019 94 16093 1.5 0 05:19 12.06.2020
1660 Clouds 24 1018 94 16093 2.1 290 03:24 12.06.2020
1661 Clouds 25 1017 88 16093 2.77 235 01:56 12.06.2020
1662 Clear 25 1016 83 16093 4.1 160 01:29 12.06.2020
1663 Clear 25 1016 88 16093 1.5 240 00:47 12.06.2020
1664 Clear 24 1016 88 16093 1.5 240 00:26 12.06.2020
1665 Rain 23 1016 88 16093 1.5 0 23:59 11.06.2020
1666 Rain 23 1016 88 16093 1.5 0 23:59 11.06.2020
1667 Rain 23 1016 88 16093 1.5 0 23:41 11.06.2020
1668 Rain 23 1016 88 16093 1.5 0 23:22 11.06.2020
1669 Rain 23 1016 94 16093 6.04 187 22:59 11.06.2020
1670 Rain 23 1016 94 16093 6.04 187 22:39 11.06.2020
1671 Rain 23 1016 94 16093 5.72 202 22:20 11.06.2020
1672 Rain 23 1016 94 16093 5.72 202 22:20 11.06.2020
1673 Rain 22 1016 94 12874 2.1 0 21:57 11.06.2020
1674 Rain 22 1016 88 9656 1.5 0 21:38 11.06.2020
1675 Rain 23 1016 83 16093 2.6 230 21:20 11.06.2020
1676 Rain 24 1016 83 16093 2.6 230 20:45 11.06.2020
1677 Rain 26 1016 73 16093 3.6 170 20:22 11.06.2020
1678 Clouds 28 1016 69 16093 5.1 230 19:58 11.06.2020
1679 Clouds 28 1016 74 16093 4.1 210 19:40 11.06.2020
1680 Clouds 28 1016 74 16093 4.1 210 19:22 11.06.2020
1681 Clouds 28 1016 74 16093 4.1 210 18:42 11.06.2020
1682 Clouds 27 1016 74 16093 6.44 206 18:24 11.06.2020
1683 Clouds 27 1016 83 16093 4.1 240 17:57 11.06.2020
1684 Clouds 26 1016 83 16093 4.1 240 17:38 11.06.2020
1685 Clouds 26 1015 83 16093 3.6 220 17:20 11.06.2020
1686 Clouds 25 1015 83 16093 3.6 220 16:58 11.06.2020
1687 Clouds 25 1015 83 16093 3.6 220 16:40 11.06.2020
1688 Clouds 25 1015 83 16093 8.2 280 16:22 11.06.2020
1689 Clouds 24 1015 83 16093 8.2 280 15:56 11.06.2020
1690 Clouds 24 1015 83 16093 8.2 280 15:38 11.06.2020
1691 Clouds 24 1015 88 16093 3.1 230 15:19 11.06.2020
1692 Clouds 24 1015 88 16093 3.1 230 14:42 11.06.2020
1693 Clouds 23 1015 83 16093 2.6 230 14:21 11.06.2020
1694 Rain 23 1015 83 16093 2.6 230 13:56 11.06.2020
1695 Rain 23 1015 83 16093 2.6 230 13:37 11.06.2020
1696 Rain 22 1015 78 16093 3.1 210 13:19 11.06.2020
1697 Rain 23 1015 78 16093 3.1 210 12:55 11.06.2020
1698 Rain 23 1015 78 16093 3.1 210 12:37 11.06.2020
1699 Clouds 23 1015 78 16093 2.1 250 12:18 11.06.2020
1700 Clouds 23 1015 78 16093 2.1 250 11:56 11.06.2020
1701 Clouds 23 1015 78 16093 2.1 250 11:37 11.06.2020
1702 Clouds 23 1014 78 16093 3.1 210 11:19 11.06.2020
1703 Clouds 23 1014 78 16093 3.1 210 10:54 11.06.2020
1704 Clouds 23 1014 78 16093 3.1 210 10:36 11.06.2020
1705 Clouds 23 1014 83 16093 3.1 240 10:18 11.06.2020
1706 Clouds 23 1014 83 16093 3.1 240 09:40 11.06.2020
1707 Clouds 23 1015 78 16093 6.62 198 09:22 11.06.2020
1708 Clouds 23 1015 78 16093 6.5 192 09:22 11.06.2020
1709 Clouds 24 1015 78 16093 6.5 192 08:43 11.06.2020
1710 Clouds 23 1015 83 16093 6.66 192 08:19 11.06.2020
1711 Clouds 23 1015 83 16093 6.66 192 07:42 11.06.2020
1712 Clouds 23 1015 83 16093 6.7 184 07:24 11.06.2020
1713 Clouds 23 1015 83 16093 6.7 184 06:40 11.06.2020
1714 Clear 23 1015 83 16093 1.5 0 06:21 11.06.2020
1715 Clear 22 1015 83 16093 1.5 0 05:28 11.06.2020
1716 Clear 24 1014 73 16093 7.68 171 03:28 11.06.2020
1717 Clear 25 1014 73 16093 7.68 171 02:50 11.06.2020
1718 Clear 25 1014 73 16093 7.29 168 02:32 11.06.2020
1719 Clear 26 1014 73 16093 3.6 140 01:46 11.06.2020
1720 Clear 26 1014 65 16093 4.1 130 01:22 11.06.2020
1721 Clear 27 1014 65 16093 4.1 130 00:45 11.06.2020
1722 Clear 28 1014 65 16093 4.1 120 00:26 11.06.2020
1723 Clear 28 1014 65 16093 4.1 120 23:44 10.06.2020
1724 Clear 28 1015 65 16093 5.7 120 23:25 10.06.2020
1725 Clear 29 1015 65 16093 5.7 120 22:56 10.06.2020
1726 Clear 28 1015 65 16093 5.7 120 22:38 10.06.2020
1727 Clear 28 1015 65 16093 3.1 0 22:19 10.06.2020
1728 Clear 29 1015 65 16093 3.1 0 21:56 10.06.2020
1729 Clear 29 1015 65 16093 3.1 0 21:38 10.06.2020
1730 Clear 28 1016 61 16093 3.1 0 21:18 10.06.2020
1731 Clear 28 1016 61 16093 3.1 0 21:18 10.06.2020
1732 Clear 29 1016 61 16093 3.1 0 20:56 10.06.2020
1733 Clear 29 1016 61 16093 3.1 0 20:38 10.06.2020
1734 Clear 29 1016 58 16093 3.6 120 20:20 10.06.2020
1735 Clear 28 1016 58 16093 3.6 120 19:41 10.06.2020
1736 Clear 29 1016 58 16093 3.6 120 19:20 10.06.2020
1737 Clear 28 1016 54 16093 4.6 150 18:58 10.06.2020
1738 Clear 28 1016 54 16093 4.6 150 18:40 10.06.2020
1739 Clear 27 1016 54 16093 4.6 150 18:19 10.06.2020
1740 Clear 27 1016 54 16093 3.1 50 17:56 10.06.2020
1741 Clear 27 1016 54 16093 3.1 50 17:37 10.06.2020
1742 Clear 26 1016 57 16093 4.1 40 17:19 10.06.2020
1743 Clear 25 1016 57 16093 4.1 40 16:57 10.06.2020
1744 Clear 25 1016 57 16093 4.1 40 16:39 10.06.2020
1745 Clear 24 1016 68 16093 4.6 40 16:19 10.06.2020
1746 Clear 23 1016 68 16093 4.6 40 15:41 10.06.2020
1747 Clear 23 1016 68 16093 5.1 40 15:22 10.06.2020
1748 Clear 23 1016 68 16093 5.1 40 14:58 10.06.2020
1749 Clear 23 1016 68 16093 5.1 40 14:39 10.06.2020
1750 Clear 23 1015 68 16093 4.6 40 14:20 10.06.2020
1751 Clear 22 1015 68 16093 4.6 40 13:41 10.06.2020
1752 Clear 22 1015 68 16093 0.88 167 13:21 10.06.2020
1753 Clear 22 1015 68 16093 0.88 167 12:45 10.06.2020
1754 Clear 22 1014 64 16093 0.93 182 12:23 10.06.2020
1755 Clear 22 1014 64 16093 0.93 182 11:59 10.06.2020
1756 Clear 22 1014 64 16093 0.93 182 11:40 10.06.2020
1757 Clear 22 1014 68 16093 1.5 250 11:20 10.06.2020
1758 Clear 22 1014 68 16093 1.5 250 10:58 10.06.2020
1759 Clear 23 1014 68 16093 1.5 250 10:39 10.06.2020
1760 Clear 23 1014 68 16093 1.5 250 10:21 10.06.2020
1761 Clear 23 1014 64 16093 2.1 270 09:42 10.06.2020
1762 Clear 23 1014 64 16093 2.1 260 09:23 10.06.2020
1763 Clear 23 1014 64 16093 2.1 260 08:57 10.06.2020
1764 Clear 23 1014 64 16093 2.1 260 08:38 10.06.2020
1765 Clear 24 1014 64 16093 2.6 270 08:20 10.06.2020
1766 Clear 24 1014 64 16093 2.6 270 07:39 10.06.2020
1767 Clear 24 1014 64 16093 2.6 270 07:39 10.06.2020
1768 Clear 24 1014 64 16093 2.6 270 07:21 10.06.2020
1769 Clear 25 1014 64 16093 2.6 270 06:46 10.06.2020
1770 Clear 25 1014 57 16093 3.1 250 06:24 10.06.2020
1771 Clear 26 1014 57 16093 3.1 250 05:58 10.06.2020
1772 Clear 26 1013 57 16093 2.6 260 05:28 10.06.2020
1773 Clear 27 1013 57 16093 2.6 260 04:36 10.06.2020
1774 Clear 28 1013 54 16093 2.6 250 03:33 10.06.2020
1775 Clear 29 1012 45 16093 3.6 260 02:23 10.06.2020
1776 Clear 30 1012 45 16093 3.6 260 01:38 10.06.2020
1777 Clear 31 1012 38 16093 3.6 260 00:40 10.06.2020
1778 Clear 31 1012 38 16093 4.1 260 00:22 10.06.2020
1779 Clear 32 1012 38 16093 4.1 260 23:57 09.06.2020
1780 Clear 32 1012 38 16093 4.1 260 23:39 09.06.2020
1781 Clear 32 1012 38 16093 3.6 220 23:21 09.06.2020
1782 Clear 32 1012 38 16093 3.6 220 22:56 09.06.2020
1783 Clear 32 1012 38 16093 3.6 220 22:38 09.06.2020
1784 Clear 31 1013 37 16093 4.1 240 22:20 09.06.2020
1785 Clear 32 1013 37 16093 4.1 240 21:56 09.06.2020
1786 Clear 31 1013 37 16093 4.1 240 21:38 09.06.2020
1787 Clear 31 1013 37 16093 3.1 210 21:20 09.06.2020
1788 Clear 31 1013 37 16093 3.1 210 20:57 09.06.2020
1789 Clear 31 1013 37 16093 3.1 210 20:38 09.06.2020
1790 Clear 31 1014 35 16093 4.39 236 20:19 09.06.2020
1791 Clear 30 1014 39 16093 3.6 250 19:57 09.06.2020
1792 Clear 30 1014 39 16093 3.6 250 19:38 09.06.2020
1793 Clear 30 1014 39 16093 4.58 239 19:20 09.06.2020
1794 Clear 30 1014 39 16093 4.58 239 19:20 09.06.2020
1795 Clear 29 1015 37 16093 4.58 239 18:56 09.06.2020
1796 Clear 29 1015 44 16093 3.1 250 18:37 09.06.2020
1797 Clear 28 1015 42 16093 4.1 240 18:18 09.06.2020
1798 Clear 28 1015 42 16093 4.1 240 17:55 09.06.2020
1799 Clear 28 1015 42 16093 4.1 240 17:36 09.06.2020
1800 Clear 27 1015 39 16093 4.6 252 17:18 09.06.2020
1801 Clear 26 1015 50 16093 3.1 240 16:42 09.06.2020
1802 Clear 25 1015 49 16093 4.7 251 16:22 09.06.2020
1803 Clear 24 1016 46 16093 4.7 251 15:55 09.06.2020
1804 Clear 24 1016 46 16093 4.7 251 15:37 09.06.2020
1805 Clear 23 1016 46 16093 3.62 255 15:18 09.06.2020
1806 Clear 21 1016 68 16093 2.6 220 14:41 09.06.2020
1807 Clear 21 1016 49 16093 2.74 259 14:21 09.06.2020
1808 Clear 20 1016 72 16093 2.6 250 13:58 09.06.2020
1809 Clear 19 1016 72 16093 2.6 250 13:40 09.06.2020
1810 Clear 19 1016 72 16093 2.6 250 13:21 09.06.2020
1811 Clear 18 1015 72 16093 2.1 250 12:55 09.06.2020
1812 Clear 18 1015 72 16093 2.1 250 12:37 09.06.2020
1813 Clear 18 1015 63 16093 3.1 260 12:18 09.06.2020
1814 Clear 18 1015 63 16093 3.1 260 11:54 09.06.2020
1815 Clear 18 1015 63 16093 3.1 260 11:36 09.06.2020
1816 Clear 18 1015 63 16093 2.6 250 11:18 09.06.2020
1817 Clear 18 1015 63 16093 2.6 250 10:42 09.06.2020
1818 Clear 19 1015 63 16093 2.1 260 10:24 09.06.2020
1819 Clear 19 1015 63 16093 2.1 260 09:44 09.06.2020
1820 Clear 19 1016 68 16093 1.5 210 09:24 09.06.2020
1821 Clear 19 1016 68 16093 1.5 210 08:57 09.06.2020
1822 Clear 19 1016 68 16093 1.5 210 08:38 09.06.2020
1823 Clear 19 1016 60 16093 3.1 270 08:20 09.06.2020
1824 Clear 20 1016 60 16093 3.1 270 07:38 09.06.2020
1825 Clear 20 1016 56 16093 1.75 279 07:20 09.06.2020
1826 Clear 20 1016 56 16093 1.75 279 06:54 09.06.2020
1827 Clear 21 1016 56 16093 1.75 279 06:35 09.06.2020
1828 Clear 21 1015 60 16093 1.61 295 05:35 09.06.2020
1829 Clear 22 1014 56 16093 1.8 293 03:47 09.06.2020
1830 Clear 26 1015 44 16093 1.5 270 01:44 09.06.2020
1831 Clear 26 1015 44 16093 1.5 270 01:19 09.06.2020
1832 Clear 26 1015 32 16093 3.1 230 00:55 09.06.2020
1833 Clear 26 1015 32 16093 3.1 230 00:36 09.06.2020
1834 Clear 27 1015 28 16093 3.1 0 00:18 09.06.2020
1835 Clear 27 1015 28 16093 3.1 0 23:40 08.06.2020
1836 Clear 27 1016 32 16093 2.1 190 23:19 08.06.2020
1837 Clear 27 1016 32 16093 2.1 190 22:54 08.06.2020
1838 Clear 27 1016 32 16093 2.1 190 22:36 08.06.2020
1839 Clear 26 1016 34 16093 2.6 210 22:18 08.06.2020
1840 Clear 26 1016 34 16093 2.6 210 21:54 08.06.2020
1841 Clear 26 1016 34 16093 2.6 210 21:36 08.06.2020
1842 Clear 26 1017 29 16093 4.6 270 21:18 08.06.2020
1843 Clear 26 1017 29 16093 4.6 270 20:54 08.06.2020
1844 Clear 26 1017 29 16093 4.6 270 20:36 08.06.2020
1845 Clear 25 1017 31 16093 4.6 240 20:18 08.06.2020
1846 Clear 25 1017 31 16093 4.6 240 19:41 08.06.2020
1847 Clear 24 1017 31 16093 4.6 240 19:20 08.06.2020
1848 Clear 24 1017 36 16093 4.1 240 18:41 08.06.2020
1849 Clear 23 1018 38 16093 1.5 0 18:20 08.06.2020
1850 Clear 23 1018 38 16093 1.5 0 17:57 08.06.2020
1851 Clear 23 1018 38 16093 1.5 0 17:39 08.06.2020
1852 Clear 23 1018 40 16093 3.1 260 17:21 08.06.2020
1853 Clear 22 1018 40 16093 3.1 260 16:56 08.06.2020
1854 Clear 22 1018 40 16093 3.1 260 16:38 08.06.2020
1855 Clear 22 1018 42 16093 2.89 338 16:20 08.06.2020
1856 Clear 22 1018 42 16093 2.89 338 16:20 08.06.2020
1857 Clear 20 1018 48 16093 2.6 260 15:42 08.06.2020
1858 Clear 19 1018 55 16093 3.1 60 15:21 08.06.2020
1859 Clear 19 1018 55 16093 3.1 60 14:57 08.06.2020
1860 Clear 19 1018 55 16093 3.1 60 14:38 08.06.2020
1861 Clear 18 1017 55 16093 2.6 0 14:18 08.06.2020
1862 Clear 17 1017 55 16093 2.6 0 13:42 08.06.2020
1863 Clear 17 1017 59 16093 2.6 50 13:23 08.06.2020
1864 Clear 16 1017 59 16093 2.6 50 12:42 08.06.2020
1865 Clear 16 1016 52 16093 2.6 0 12:20 08.06.2020
1866 Clear 16 1016 52 16093 2.6 0 12:20 08.06.2020
1867 Clear 16 1016 52 16093 2.6 0 11:59 08.06.2020
1868 Clear 16 1016 52 16093 2.6 0 11:40 08.06.2020
1869 Clear 16 1016 52 16093 1.5 0 11:21 08.06.2020
1870 Clear 16 1016 52 16093 1.5 0 10:57 08.06.2020
1871 Clear 16 1016 52 16093 1.5 0 10:38 08.06.2020
1872 Clear 16 1016 52 16093 1.5 0 10:20 08.06.2020
1873 Clear 17 1016 52 16093 1.5 0 09:57 08.06.2020
1874 Clear 17 1016 52 16093 1.5 0 09:39 08.06.2020
1875 Clear 17 1016 48 16093 1.5 0 09:20 08.06.2020
1876 Clear 18 1016 48 16093 1.5 0 08:41 08.06.2020
1877 Clear 18 1016 48 16093 1.5 270 08:20 08.06.2020
1878 Clear 18 1016 48 16093 1.5 270 07:42 08.06.2020
1879 Clouds 19 1016 49 16093 2.1 0 07:21 08.06.2020
1880 Clouds 19 1016 49 16093 2.1 0 06:43 08.06.2020
1881 Clouds 20 1016 43 16093 3.1 250 06:25 08.06.2020
1882 Clouds 20 1016 43 16093 3.1 250 05:42 08.06.2020
1883 Clouds 22 1014 40 16093 2.1 50 03:43 08.06.2020
1884 Clouds 23 1014 38 16093 6.3 336 02:27 08.06.2020
1885 Clouds 24 1013 36 16093 2.1 80 01:45 08.06.2020
1886 Clouds 24 1014 33 16093 6.55 328 01:25 08.06.2020
1887 Clouds 24 1013 31 16093 6.9 326 00:28 08.06.2020
1888 Clouds 24 1013 31 16093 6.9 326 00:28 08.06.2020
1889 Clear 25 1013 31 16093 6.9 326 23:41 07.06.2020
1890 Clouds 25 1012 29 16093 1.5 0 23:20 07.06.2020
1891 Clouds 25 1012 29 16093 1.5 0 22:59 07.06.2020
1892 Clouds 25 1012 29 16093 1.5 0 22:59 07.06.2020
1893 Clouds 25 1012 29 16093 1.5 0 22:39 07.06.2020
1894 Rain 25 1012 29 16093 6.2 60 22:19 07.06.2020
1895 Rain 25 1012 29 16093 6.2 60 21:58 07.06.2020
1896 Rain 25 1012 29 16093 6.2 60 21:38 07.06.2020
1897 Clouds 25 1013 31 16093 1.5 0 21:19 07.06.2020
1898 Clouds 25 1013 31 16093 1.5 0 20:55 07.06.2020
1899 Clouds 25 1013 31 16093 1.5 0 20:37 07.06.2020
1900 Clouds 25 1013 36 16093 2.1 0 20:18 07.06.2020
1901 Clouds 24 1013 36 16093 2.1 0 19:55 07.06.2020
1902 Clouds 24 1013 36 16093 2.1 0 19:37 07.06.2020
1903 Clouds 24 1013 36 16093 2.1 0 19:18 07.06.2020
1904 Clouds 24 1013 41 16093 1.5 0 18:42 07.06.2020
1905 Clouds 23 1013 44 16093 3.1 0 18:23 07.06.2020
1906 Clouds 23 1013 44 16093 3.1 0 17:59 07.06.2020
1907 Clouds 23 1013 44 16093 3.1 0 17:40 07.06.2020
1908 Clear 22 1013 49 16093 2.6 0 17:22 07.06.2020
1909 Clear 22 1013 49 16093 2.6 0 16:44 07.06.2020
1910 Clear 21 1013 59 16093 2.6 0 16:22 07.06.2020
1911 Clear 20 1013 59 16093 2.6 0 15:45 07.06.2020
1912 Clear 19 1013 63 16093 1.5 0 15:24 07.06.2020
1913 Clear 19 1013 63 16093 1.5 0 15:00 07.06.2020
1914 Clear 19 1013 63 16093 1.5 0 14:38 07.06.2020
1915 Clear 19 1012 63 16093 1.5 0 14:19 07.06.2020
1916 Clear 18 1012 63 16093 1.5 0 13:45 07.06.2020
1917 Clear 18 1012 63 16093 1.5 0 13:45 07.06.2020
1918 Clear 18 1012 63 16093 1.5 0 13:45 07.06.2020
1919 Clear 18 1012 63 16093 1.5 0 13:45 07.06.2020
1920 Clear 18 1012 63 16093 1.5 0 13:20 07.06.2020
1921 Clear 18 1012 63 16093 1.5 0 12:45 07.06.2020
1922 Clear 18 1010 55 16093 2.6 0 12:26 07.06.2020
1923 Clear 18 1010 55 16093 2.6 0 12:26 07.06.2020
1924 Clear 18 1010 55 16093 2.6 0 11:56 07.06.2020
1925 Clear 18 1010 55 16093 2.6 0 11:38 07.06.2020
1926 Clear 18 1010 52 16093 1.5 0 11:20 07.06.2020
1927 Clear 19 1010 52 16093 1.5 0 10:59 07.06.2020
1928 Clear 19 1010 52 16093 1.5 0 10:40 07.06.2020
1929 Clear 20 1010 49 16093 2.1 0 10:19 07.06.2020
1930 Clear 20 1010 49 16093 2.1 0 09:56 07.06.2020
1931 Clear 20 1010 49 16093 2.1 0 09:38 07.06.2020
1932 Clear 21 1010 49 16093 5.51 339 09:19 07.06.2020
1933 Clear 21 1010 49 16093 5.51 326 08:48 07.06.2020
1934 Clear 21 1010 43 16093 5.9 324 08:23 07.06.2020
1935 Clear 22 1010 43 16093 5.9 324 07:49 07.06.2020
1936 Clear 22 1010 43 16093 5.63 328 07:29 07.06.2020
1937 Clear 22 1010 46 16093 2.1 0 06:43 07.06.2020
1938 Clear 23 1009 36 16093 2.6 160 05:41 07.06.2020
1939 Clear 25 1008 36 16093 1.5 0 04:20 07.06.2020
1940 Clear 27 1007 34 16093 8.48 332 02:34 07.06.2020
1941 Clouds 29 1006 37 16093 1.5 0 01:55 07.06.2020
1942 Clouds 29 1006 48 16093 7.61 330 01:25 07.06.2020
1943 Clouds 29 1006 48 16093 7.61 330 00:46 07.06.2020
1944 Clouds 29 1006 51 16093 2.1 0 00:19 07.06.2020
1945 Clouds 29 1006 51 16093 2.1 0 23:57 06.06.2020
1946 Clouds 29 1006 51 16093 2.1 0 23:37 06.06.2020
1947 Clouds 29 1006 45 16093 5.12 305 23:19 06.06.2020
1948 Rain 29 1005 69 16093 2.1 270 22:56 06.06.2020
1949 Rain 29 1005 69 16093 2.1 270 22:37 06.06.2020
1950 Rain 30 1005 69 16093 1.5 0 22:18 06.06.2020
1951 Rain 30 1006 54 16093 5.7 260 21:45 06.06.2020
1952 Rain 30 1006 54 16093 4.1 270 21:22 06.06.2020
1953 Clear 31 1006 54 16093 4.1 270 20:57 06.06.2020
1954 Clouds 31 1006 48 16093 6.7 270 20:38 06.06.2020
1955 Clear 31 1007 58 16093 2.6 230 20:18 06.06.2020
1956 Clear 31 1007 58 16093 2.6 230 20:18 06.06.2020
1957 Clear 31 1007 58 16093 2.6 230 19:57 06.06.2020
1958 Clear 31 1007 58 16093 2.6 230 19:38 06.06.2020
1959 Clouds 31 1008 62 16093 3.36 252 19:19 06.06.2020
1960 Clear 30 1008 65 16093 3.36 252 18:43 06.06.2020
1961 Clear 29 1009 65 16093 2.85 257 18:24 06.06.2020
1962 Clouds 28 1009 69 16093 1.5 240 17:58 06.06.2020
1963 Clouds 28 1009 69 16093 1.5 240 17:58 06.06.2020
1964 Clouds 28 1009 69 16093 1.5 240 17:40 06.06.2020
1965 Clear 27 1009 74 14484 2.47 250 17:19 06.06.2020
1966 Clear 28 1009 74 14484 2.47 250 17:19 06.06.2020
1967 Clear 27 1009 78 12874 2.47 250 16:48 06.06.2020
1968 Clear 26 1009 78 12874 2.37 249 16:23 06.06.2020
1969 Clouds 25 1009 88 16093 1.5 260 15:58 06.06.2020
1970 Mist 25 1010 88 9656 2.37 249 15:40 06.06.2020
1971 Clouds 24 1009 94 12874 2.1 250 15:20 06.06.2020
1972 Clouds 23 1009 94 12874 2.1 250 14:54 06.06.2020
1973 Clouds 23 1009 94 12874 2.1 250 14:36 06.06.2020
1974 Clouds 23 1009 94 11265 1.5 260 14:18 06.06.2020
1975 Clouds 22 1009 100 12874 1.5 260 13:41 06.06.2020
1976 Mist 22 1009 94 6437 3 258 13:19 06.06.2020
1977 Mist 21 1009 94 6437 3 258 12:55 06.06.2020
1978 Mist 21 1009 94 2012 3 258 12:37 06.06.2020
1979 Clouds 21 1009 100 16093 2.59 242 12:18 06.06.2020
1980 Clouds 21 1009 100 16093 2.59 242 11:40 06.06.2020
1981 Clouds 21 1009 100 16093 2.4 238 11:21 06.06.2020
1982 Clouds 21 1009 100 16093 2.4 238 10:59 06.06.2020
1983 Clouds 21 1009 100 16093 2.4 238 10:40 06.06.2020
1984 Rain 21 1009 100 16093 3.37 229 10:22 06.06.2020
1985 Rain 21 1009 100 16093 1.5 280 09:59 06.06.2020
1986 Rain 21 1009 100 16093 1.5 280 09:41 06.06.2020
1987 Rain 22 1010 100 16093 1.5 290 09:22 06.06.2020
1988 Rain 22 1010 100 16093 1.5 290 08:45 06.06.2020
1989 Rain 22 1010 88 1207 2.6 200 08:24 06.06.2020
1990 Rain 22 1010 88 1207 2.6 200 07:56 06.06.2020
1991 Rain 22 1011 100 16093 3.85 195 07:37 06.06.2020
1992 Rain 22 1011 100 16093 3.98 206 07:19 06.06.2020
1993 Rain 22 1012 94 16093 1.5 270 06:43 06.06.2020
1994 Rain 22 1012 94 16093 3.99 206 06:24 06.06.2020
1995 Rain 22 1012 94 16093 2.1 290 05:32 06.06.2020
1996 Rain 22 1012 88 16093 2.1 290 04:49 06.06.2020
1997 Rain 22 1012 94 16093 2.6 280 03:29 06.06.2020
1998 Rain 22 1012 94 16093 1.5 340 01:59 06.06.2020
1999 Rain 22 1013 94 8047 1.48 106 01:21 06.06.2020
2000 Rain 22 1012 78 14484 3.6 170 00:56 06.06.2020
2001 Rain 23 1012 78 14484 3.6 170 00:38 06.06.2020
2002 Rain 23 1012 69 16093 3.6 170 00:20 06.06.2020
2003 Clouds 24 1012 69 16093 3.6 170 23:40 05.06.2020
2004 Rain 25 1013 83 14484 0.93 204 23:20 05.06.2020
2005 Clouds 25 1012 61 16093 2.1 240 22:56 05.06.2020
2006 Clouds 25 1013 69 16093 0.93 204 22:38 05.06.2020
2007 Clouds 26 1013 69 16093 2.1 250 22:19 05.06.2020
2008 Clouds 26 1013 69 16093 2.1 250 21:43 05.06.2020
2009 Clear 26 1013 69 16093 2.1 240 21:23 05.06.2020
2010 Clear 26 1013 69 16093 2.1 240 21:23 05.06.2020
2011 Clear 26 1013 69 16093 2.1 240 20:59 05.06.2020
2012 Clear 25 1013 69 16093 2.1 240 20:41 05.06.2020
2013 Clear 25 1013 69 16093 2.1 240 20:21 05.06.2020
2014 Clouds 25 1013 69 16093 2.1 250 19:44 05.06.2020
2015 Clouds 25 1014 88 16093 1.5 250 19:24 05.06.2020
2016 Clouds 24 1014 88 16093 1.5 250 18:59 05.06.2020
2017 Clouds 24 1014 88 16093 1.5 250 18:39 05.06.2020
2018 Clouds 24 1014 88 16093 1.5 250 18:20 05.06.2020
2019 Clouds 24 1013 78 16093 5.1 240 17:59 05.06.2020
2020 Clouds 24 1013 83 16093 4.1 230 17:40 05.06.2020
2021 Clouds 23 1014 88 14484 3.65 238 17:20 05.06.2020
2022 Clouds 23 1014 88 16093 2.1 260 16:43 05.06.2020
2023 Clouds 22 1014 88 16093 2.6 250 16:25 05.06.2020
2024 Clouds 22 1014 88 16093 2.6 250 15:59 05.06.2020
2025 Clouds 22 1014 88 16093 2.6 250 15:38 05.06.2020
2026 Clouds 22 1014 88 16093 2.1 260 15:20 05.06.2020
2027 Clouds 22 1014 88 16093 2.1 260 14:57 05.06.2020
2028 Clouds 21 1014 88 16093 2.1 260 14:39 05.06.2020
2029 Clouds 21 1013 94 16093 1.5 250 14:21 05.06.2020
2030 Clouds 21 1013 94 16093 1.5 250 13:44 05.06.2020
2031 Clouds 21 1013 94 16093 1.5 250 13:26 05.06.2020
2032 Clouds 21 1011 88 16093 4.6 160 12:56 05.06.2020
2033 Clouds 21 1011 88 16093 4.6 160 12:37 05.06.2020
2034 Clouds 21 1012 88 16093 3.1 270 12:18 05.06.2020
2035 Clouds 21 1012 88 16093 3.1 270 11:42 05.06.2020
2036 Rain 21 1013 88 16093 3.1 280 11:23 05.06.2020
2037 Rain 21 1013 88 16093 3.1 280 10:58 05.06.2020
2038 Rain 21 1013 88 16093 3.1 280 10:39 05.06.2020
2039 Rain 21 1012 94 16093 1.5 260 10:19 05.06.2020
2040 Rain 21 1012 94 16093 1.5 260 09:57 05.06.2020
2041 Rain 21 1012 94 16093 1.5 260 09:37 05.06.2020
2042 Rain 21 1013 94 16093 1.1 318 09:19 05.06.2020
2043 Rain 21 1013 94 16093 1.1 318 08:57 05.06.2020
2044 Rain 21 1013 94 16093 1.1 318 08:38 05.06.2020
2045 Rain 21 1013 88 4828 1.11 1 08:18 05.06.2020
2046 Rain 21 1014 88 9656 1.5 160 07:48 05.06.2020
2047 Rain 21 1014 88 9656 1.5 160 07:30 05.06.2020
2048 Thunderstorm 24 1013 64 16093 2.1 280 06:45 05.06.2020
2049 Clear 24 1012 64 16093 2.6 270 05:23 05.06.2020
2050 Clear 25 1012 64 16093 2.6 270 04:27 05.06.2020
2051 Clear 24 1012 69 16093 1.5 0 03:29 05.06.2020
2052 Clear 25 1012 69 16093 4.68 162 02:29 05.06.2020
2053 Clear 26 1012 61 16093 3.6 180 01:58 05.06.2020
2054 Clear 27 1011 51 16093 2.1 0 01:30 05.06.2020
2055 Clear 27 1011 51 16093 2.1 0 00:43 05.06.2020
2056 Clouds 28 1012 51 16093 3.6 150 00:22 05.06.2020
2057 Clouds 29 1012 51 16093 3.6 150 23:48 04.06.2020
2058 Clouds 29 1012 51 16093 3.6 150 23:48 04.06.2020
2059 Clouds 29 1012 51 16093 3.6 150 23:29 04.06.2020
2060 Clear 29 1012 45 16093 3.1 170 22:57 04.06.2020
2061 Clear 29 1012 45 16093 3.1 170 22:39 04.06.2020
2062 Clear 29 1012 40 16093 2.1 250 22:21 04.06.2020
2063 Clear 30 1012 40 16093 2.1 250 21:58 04.06.2020
2064 Clear 30 1012 40 16093 2.1 250 21:38 04.06.2020
2065 Clear 30 1012 40 16093 2.1 250 21:38 04.06.2020
2066 Clear 30 1012 42 16093 1.5 240 21:20 04.06.2020
2067 Clear 30 1012 42 16093 1.5 240 20:57 04.06.2020
2068 Clear 30 1012 42 16093 1.5 240 20:38 04.06.2020
2069 Clear 30 1013 42 16093 4.61 192 20:19 04.06.2020
2070 Rain 28 1013 51 16093 2.1 260 19:55 04.06.2020
2071 Rain 28 1013 51 16093 2.1 260 19:36 04.06.2020
2072 Rain 28 1013 51 16093 2.1 260 19:18 04.06.2020
2073 Clear 29 1012 48 16093 2.93 215 18:38 04.06.2020
2074 Clear 28 1013 45 16093 1.99 248 18:20 04.06.2020
2075 Clear 27 1013 61 16093 1.5 190 17:56 04.06.2020
2076 Clear 27 1013 61 16093 1.5 190 17:38 04.06.2020
2077 Clear 27 1013 57 16093 1.99 260 17:19 04.06.2020
2078 Clear 26 1013 69 16093 1.99 260 16:41 04.06.2020
2079 Clear 26 1013 69 16093 1.93 273 16:20 04.06.2020
2080 Clear 24 1012 69 16093 1.93 273 15:46 04.06.2020
2081 Clear 23 1012 83 16093 1.5 220 15:27 04.06.2020
2082 Clear 22 1012 73 16093 1.93 279 14:56 04.06.2020
2083 Clear 22 1012 73 16093 1.93 279 14:38 04.06.2020
2084 Clear 21 1011 88 16093 2.6 240 14:19 04.06.2020
2085 Clear 21 1011 88 16093 2.6 240 13:42 04.06.2020
2086 Clear 20 1011 88 16093 2.6 240 13:21 04.06.2020
2087 Clear 19 1010 88 16093 3.1 210 12:59 04.06.2020
2088 Clear 19 1010 88 16093 3.1 210 12:41 04.06.2020
2089 Clear 19 1009 88 16093 2.1 270 12:23 04.06.2020
2090 Clear 19 1009 88 16093 2.1 270 11:58 04.06.2020
2091 Clear 19 1009 88 16093 2.1 270 11:38 04.06.2020
2092 Clear 19 1008 82 16093 2.6 200 11:20 04.06.2020
2093 Clear 19 1008 82 16093 2.6 200 10:56 04.06.2020
2094 Clear 19 1008 82 16093 2.6 200 10:37 04.06.2020
2095 Clouds 19 1008 77 16093 3 289 10:18 04.06.2020
2096 Clouds 20 1008 77 16093 3 289 09:42 04.06.2020
2097 Clouds 20 1008 88 16093 1.5 0 09:23 04.06.2020
2098 Clouds 20 1008 88 16093 1.5 0 08:46 04.06.2020
2099 Clouds 20 1008 88 16093 1.5 0 08:26 04.06.2020
2100 Clouds 20 1007 93 16093 1.5 260 07:48 04.06.2020
2101 Clouds 20 1007 93 16093 1.5 260 07:28 04.06.2020
2102 Clouds 20 1007 93 16093 3.81 283 06:44 04.06.2020
2103 Clouds 20 1007 93 16093 3.81 283 06:44 04.06.2020
2104 Clouds 20 1007 93 16093 3.26 276 06:25 04.06.2020
2105 Clear 20 1006 88 16093 3.26 276 05:39 04.06.2020
2106 Rain 20 1006 83 16093 1.5 270 05:20 04.06.2020
2107 Rain 23 1004 69 16093 1.5 260 03:25 04.06.2020
2108 Clear 26 1003 65 16093 3.6 270 01:57 04.06.2020
2109 Clear 26 1003 65 16093 3.6 270 01:20 04.06.2020
2110 Clouds 27 1004 65 16093 6.2 270 00:49 04.06.2020
2111 Clouds 27 1003 61 16093 6.7 240 23:55 03.06.2020
2112 Clouds 27 1003 65 16093 4.1 250 23:36 03.06.2020
2113 Clouds 27 1003 65 16093 4.1 250 23:36 03.06.2020
2114 Clear 26 1003 73 16093 5.7 260 23:18 03.06.2020
2115 Clear 26 1003 73 16093 5.7 260 22:40 03.06.2020
2116 Rain 24 1004 83 16093 5.7 270 22:19 03.06.2020
2117 Rain 24 1004 83 16093 5.7 270 22:19 03.06.2020
2118 Rain 24 1004 83 16093 5.7 270 22:19 03.06.2020
2119 Rain 23 1004 83 16093 5.7 270 21:58 03.06.2020
2120 Rain 23 1004 83 16093 5.7 270 21:40 03.06.2020
2121 Rain 22 1003 78 8047 2.6 270 21:21 03.06.2020
2122 Rain 23 1003 78 8047 2.6 270 21:21 03.06.2020
2123 Rain 22 1003 78 8047 2.6 270 20:57 03.06.2020
2124 Rain 22 1003 78 8047 2.6 270 20:38 03.06.2020
2125 Rain 23 1004 57 16093 4.6 270 20:20 03.06.2020
2126 Rain 24 1004 57 16093 4.6 270 19:56 03.06.2020
2127 Clear 25 1004 57 16093 4.6 270 19:37 03.06.2020
2128 Rain 25 1004 57 16093 4.6 270 19:37 03.06.2020
2129 Clear 26 1004 57 16093 4.6 270 19:19 03.06.2020
2130 Clear 26 1004 64 16093 3.6 280 18:55 03.06.2020
2131 Clear 26 1004 64 16093 3.6 280 18:37 03.06.2020
2132 Clear 25 1004 64 16093 3.6 280 18:18 03.06.2020
2133 Rain 25 1004 64 16093 2.6 250 17:42 03.06.2020
2134 Clear 25 1004 64 16093 4.16 270 17:21 03.06.2020
2135 Clear 23 1004 73 16093 2.1 260 16:55 03.06.2020
2136 Clear 23 1004 73 16093 2.1 260 16:37 03.06.2020
2137 Clear 22 1005 73 16093 4.4 271 16:18 03.06.2020
2138 Clear 22 1005 73 16093 4.4 271 16:18 03.06.2020
2139 Clear 21 1005 77 16093 4.4 271 15:41 03.06.2020
2140 Clear 21 1005 77 16093 4.3 264 15:21 03.06.2020
2141 Clouds 20 1005 88 16093 2.6 270 14:59 03.06.2020
2142 Clouds 20 1005 88 16093 2.6 270 14:40 03.06.2020
2143 Clear 19 1005 93 16093 4.1 290 14:21 03.06.2020
2144 Rain 18 1005 93 16093 4.1 290 13:39 03.06.2020
2145 Rain 17 1006 93 16093 4.1 290 13:20 03.06.2020
2146 Clouds 17 1006 93 16093 4.1 290 12:43 03.06.2020
2147 Rain 17 1006 93 16093 2.6 230 12:22 03.06.2020
2148 Rain 16 1006 93 16093 2.6 230 11:57 03.06.2020
2149 Rain 16 1006 93 16093 2.6 230 11:39 03.06.2020
2150 Rain 16 1006 88 14484 1.5 220 11:21 03.06.2020
2151 Rain 16 1007 93 4023 3.05 239 10:42 03.06.2020
2152 Rain 16 1007 87 12874 2.6 260 10:24 03.06.2020
2153 Rain 16 1007 77 16093 3.6 230 09:45 03.06.2020
2154 Rain 16 1008 72 16093 3.1 250 09:22 03.06.2020
2155 Rain 16 1008 72 16093 3.1 250 08:59 03.06.2020
2156 Rain 16 1008 72 16093 3.1 250 08:40 03.06.2020
2157 Rain 17 1008 72 16093 3.1 250 08:20 03.06.2020
2158 Rain 17 1009 68 16093 3.1 250 07:43 03.06.2020
2159 Rain 18 1009 63 16093 3.6 250 07:22 03.06.2020
2160 Rain 19 1010 55 16093 2.6 250 06:54 03.06.2020
2161 Clouds 19 1010 55 16093 2.6 250 06:33 03.06.2020
2162 Clouds 19 1011 52 16093 2.6 260 05:49 03.06.2020
2163 Clouds 20 1011 52 16093 4.6 270 05:21 03.06.2020
2164 Clouds 21 1011 49 16093 4.6 270 03:52 03.06.2020
2165 Clouds 21 1011 46 16093 4.6 270 03:23 03.06.2020
2166 Clouds 21 1011 49 16093 5.1 270 02:24 03.06.2020
2167 Clouds 22 1011 49 16093 3.6 250 00:56 03.06.2020
2168 Clouds 22 1011 49 16093 3.6 250 00:37 03.06.2020
2169 Clouds 22 1012 43 16093 3.6 250 00:18 03.06.2020
2170 Clouds 22 1012 43 16093 3.6 250 23:38 02.06.2020
2171 Clouds 22 1013 43 16093 3.6 250 23:20 02.06.2020
2172 Clouds 22 1013 43 16093 3.6 250 22:39 02.06.2020
2173 Clouds 22 1014 38 16093 4.6 250 22:19 02.06.2020
2174 Clouds 22 1014 38 16093 4.6 250 21:57 02.06.2020
2175 Clouds 22 1014 38 16093 4.6 250 21:39 02.06.2020
2176 Clouds 23 1015 35 16093 5.1 260 21:20 02.06.2020
2177 Clouds 23 1015 35 16093 5.1 260 20:58 02.06.2020
2178 Clouds 23 1015 35 16093 5.1 260 20:40 02.06.2020
2179 Clouds 23 1016 40 16093 3.1 260 20:21 02.06.2020
2180 Clouds 22 1016 40 16093 3.1 260 19:45 02.06.2020
2181 Clouds 21 1017 43 16093 4.1 270 19:26 02.06.2020
2182 Clouds 21 1017 43 16093 4.1 270 18:59 02.06.2020
2183 Clouds 21 1017 43 16093 4.1 270 18:40 02.06.2020
2184 Clouds 21 1017 43 16093 1.5 260 18:20 02.06.2020
2185 Clouds 21 1017 43 16093 1.5 260 17:59 02.06.2020
2186 Clouds 21 1017 43 16093 1.5 260 17:40 02.06.2020
2187 Clear 20 1018 52 16093 1.5 220 17:21 02.06.2020
2188 Clear 20 1018 52 16093 1.5 220 16:56 02.06.2020
2189 Clear 20 1018 52 16093 1.5 220 16:37 02.06.2020
2190 Clear 20 1018 52 16093 1.5 260 16:19 02.06.2020
2191 Clear 19 1018 52 16093 1.5 260 15:41 02.06.2020
2192 Clear 18 1018 55 16093 2.09 276 15:22 02.06.2020
2193 Clear 17 1018 55 16093 2.09 276 14:48 02.06.2020
2194 Clear 17 1018 55 16093 2.79 279 14:28 02.06.2020
2195 Clear 16 1019 59 16093 2.6 260 13:57 02.06.2020
2196 Clear 16 1019 59 16093 2.6 260 13:37 02.06.2020
2197 Clouds 15 1019 67 16093 2.1 210 13:19 02.06.2020
2198 Clouds 15 1019 67 16093 2.1 210 12:57 02.06.2020
2199 Clouds 15 1019 67 16093 2.1 210 12:39 02.06.2020
2200 Clear 15 1019 55 16093 1.5 0 12:20 02.06.2020
2201 Clear 15 1019 55 16093 1.5 0 11:55 02.06.2020
2202 Clear 15 1019 55 16093 1.5 0 11:36 02.06.2020
2203 Clear 15 1018 63 16093 2.6 230 11:18 02.06.2020
2204 Clear 15 1018 63 16093 2.6 230 10:46 02.06.2020
2205 Clear 15 1018 63 16093 2.6 230 10:28 02.06.2020
2206 Clear 15 1019 59 16093 3.71 269 09:56 02.06.2020
2207 Clear 15 1019 59 16093 3.71 269 09:37 02.06.2020
2208 Clouds 15 1019 48 16093 1.5 300 09:19 02.06.2020
2209 Clouds 16 1019 48 16093 1.5 300 08:46 02.06.2020
2210 Clouds 16 1019 48 16093 1.5 300 08:20 02.06.2020
2211 Clear 16 1019 51 16093 2.32 252 07:44 02.06.2020
2212 Clouds 16 1020 45 16093 1.5 50 07:25 02.06.2020
2213 Clouds 16 1020 45 16093 1.5 50 06:43 02.06.2020
2214 Clouds 17 1020 37 16093 0.78 209 05:57 02.06.2020
2215 Clouds 18 1020 42 16093 4.6 50 04:58 02.06.2020
2216 Clouds 19 1019 32 16093 1.5 0 03:22 02.06.2020
2217 Clouds 21 1019 30 16093 2.54 312 02:25 02.06.2020
2218 Clear 21 1018 28 16093 3.1 250 01:21 02.06.2020
2219 Clouds 22 1019 27 16093 4.85 277 00:25 02.06.2020
2220 Clouds 22 1019 27 16093 4.85 277 23:56 01.06.2020
2221 Clouds 22 1019 27 16093 4.89 267 23:37 01.06.2020
2222 Clouds 21 1019 30 16093 3.1 0 23:18 01.06.2020
2223 Clouds 22 1019 30 16093 3.1 0 22:41 01.06.2020
2224 Clouds 21 1020 35 16093 3.6 240 22:21 01.06.2020
2225 Clouds 21 1020 35 16093 3.6 240 21:58 01.06.2020
2226 Clouds 21 1020 35 16093 3.6 240 21:40 01.06.2020
2227 Clouds 21 1021 32 16093 5.7 260 21:19 01.06.2020
2228 Clouds 20 1021 32 16093 5.7 260 20:56 01.06.2020
2229 Clouds 20 1021 32 16093 5.7 260 20:38 01.06.2020
2230 Clouds 19 1022 34 16093 2.1 0 20:19 01.06.2020
2231 Clouds 19 1022 34 16093 2.1 0 19:55 01.06.2020
2232 Clouds 19 1022 34 16093 2.1 0 19:37 01.06.2020
2233 Clouds 19 1022 34 16093 2.1 0 19:19 01.06.2020
2234 Clouds 18 1023 32 16093 3.6 240 18:55 01.06.2020
2235 Clouds 18 1023 32 16093 3.6 240 18:37 01.06.2020
2236 Clouds 18 1024 36 16093 4.1 250 18:18 01.06.2020
2237 Clouds 17 1024 36 16093 4.1 250 17:40 01.06.2020
2238 Clear 17 1025 36 16093 2.1 0 17:19 01.06.2020
2239 Clear 16 1025 36 16093 2.1 0 16:42 01.06.2020
2240 Clear 16 1025 36 16093 2.1 0 16:22 01.06.2020
2241 Clouds 15 1025 47 16093 2.6 250 15:59 01.06.2020
2242 Clouds 15 1025 47 16093 2.6 250 15:39 01.06.2020
2243 Clear 14 1025 54 16093 1.5 0 15:20 01.06.2020
2244 Clear 14 1025 54 16093 1.5 0 14:58 01.06.2020
2245 Clear 14 1025 54 16093 1.5 0 14:40 01.06.2020
2246 Clear 13 1025 50 16093 2.1 290 14:21 01.06.2020
2247 Clear 13 1025 50 16093 2.1 290 13:55 01.06.2020
2248 Clear 12 1025 50 16093 2.1 290 13:37 01.06.2020
2249 Clear 12 1025 50 16093 2.1 290 13:18 01.06.2020
2250 Clear 11 1024 54 16093 2.1 0 12:54 01.06.2020
2251 Clear 11 1024 54 16093 2.1 0 12:36 01.06.2020
2252 Clear 11 1024 54 16093 2.1 0 12:18 01.06.2020
2253 Clear 11 1023 50 16093 2.6 280 11:39 01.06.2020
2254 Clear 11 1023 50 16093 2.6 280 11:21 01.06.2020
2255 Clear 11 1023 50 16093 2.1 250 10:57 01.06.2020
2256 Clear 12 1023 50 16093 2.1 250 10:37 01.06.2020
2257 Clear 12 1023 50 16093 2.1 250 10:18 01.06.2020
2258 Clear 12 1023 50 16093 2.6 230 09:55 01.06.2020
2259 Clear 12 1023 50 16093 2.6 230 09:37 01.06.2020
2260 Clear 12 1023 50 16093 2.6 230 09:19 01.06.2020
2261 Clear 13 1023 47 16093 1.5 0 08:41 01.06.2020
2262 Clear 13 1023 47 16093 1.5 0 08:22 01.06.2020
2263 Clear 13 1023 47 16093 3.6 100 07:44 01.06.2020
2264 Clear 13 1023 47 16093 3.6 100 07:25 01.06.2020
2265 Clear 14 1023 44 16093 2.1 0 06:52 01.06.2020
2266 Clear 14 1022 38 16093 2.6 0 06:20 01.06.2020
2267 Clear 14 1022 38 16093 2.6 0 05:49 01.06.2020
2268 Clear 16 1021 36 16093 7 342 04:18 01.06.2020
2269 Clear 17 1020 36 16093 3.1 0 03:44 01.06.2020
2270 Clouds 17 1019 34 16093 1.5 0 02:59 01.06.2020
2271 Clouds 19 1019 30 16093 2.6 0 01:47 01.06.2020
2272 Clouds 19 1019 30 16093 2.6 0 01:27 01.06.2020
2273 Clouds 20 1018 30 16093 6.63 330 00:57 01.06.2020
2274 Clouds 20 1018 30 16093 6.63 330 00:57 01.06.2020
2275 Clouds 20 1018 30 16093 7.43 328 00:38 01.06.2020
2276 Clouds 20 1018 30 16093 7.43 328 00:20 01.06.2020
2277 Clouds 20 1019 32 16093 7.43 328 23:54 31.05.2020
2278 Clouds 20 1019 32 16093 7.43 328 23:36 31.05.2020
2279 Clouds 20 1019 28 16093 7 331 23:18 31.05.2020
2280 Clouds 21 1018 28 16093 1.5 0 22:42 31.05.2020
2281 Clouds 21 1018 28 16093 1.5 0 22:42 31.05.2020
2282 Clouds 21 1018 28 16093 1.5 0 22:24 31.05.2020
2283 Clear 21 1018 28 16093 2.6 0 21:57 31.05.2020
2284 Clear 21 1018 28 16093 2.6 0 21:39 31.05.2020
2285 Clear 21 1018 28 16093 2.6 0 21:21 31.05.2020
2286 Clear 21 1018 28 16093 2.6 0 20:48 31.05.2020
2287 Clear 21 1018 28 16093 2.6 0 20:25 31.05.2020
2288 Clear 20 1018 30 16093 3.1 0 19:57 31.05.2020
2289 Clear 20 1018 30 16093 3.1 0 19:39 31.05.2020
2290 Clear 20 1018 30 16093 3.1 0 19:21 31.05.2020
2291 Clear 20 1019 30 16093 2.6 0 18:58 31.05.2020
2292 Clear 20 1019 30 16093 2.6 0 18:40 31.05.2020
2293 Clear 19 1019 31 16093 4.88 333 18:21 31.05.2020
2294 Clear 19 1019 32 16093 4.6 250 17:43 31.05.2020
2295 Clear 19 1019 32 16093 4.6 250 17:24 31.05.2020
2296 Clear 18 1019 34 16093 2.1 0 16:42 31.05.2020
2297 Clear 17 1019 38 16093 4.88 343 16:22 31.05.2020
2298 Clear 17 1019 41 16093 3.1 0 15:57 31.05.2020
2299 Clear 17 1019 41 16093 3.1 0 15:38 31.05.2020
2300 Clear 16 1019 41 16093 3.1 0 15:20 31.05.2020
2301 Clear 15 1019 58 16093 2.6 0 14:45 31.05.2020
2302 Clear 15 1019 58 16093 2.6 0 14:20 31.05.2020
2303 Clear 14 1018 58 16093 2.1 0 13:56 31.05.2020
2304 Clear 14 1018 58 16093 2.1 0 13:37 31.05.2020
2305 Clear 14 1018 58 16093 2.1 0 13:19 31.05.2020
2306 Clear 14 1017 54 16093 2.1 0 12:55 31.05.2020
2307 Clear 14 1017 54 16093 2.1 0 12:37 31.05.2020
2308 Clear 14 1017 54 16093 2.1 0 12:18 31.05.2020
2309 Clear 14 1016 51 16093 1.5 0 11:47 31.05.2020
2310 Clear 15 1016 51 16093 1.5 0 11:23 31.05.2020
2311 Clear 15 1015 48 16093 2.1 0 10:56 31.05.2020
2312 Clear 16 1015 48 16093 2.1 0 10:38 31.05.2020
2313 Clear 16 1015 48 16093 2.1 0 10:18 31.05.2020
2314 Clear 17 1015 48 16093 7.22 330 09:42 31.05.2020
2315 Clear 17 1015 48 16093 7.64 326 09:22 31.05.2020
2316 Clear 18 1014 52 16093 1.5 0 08:57 31.05.2020
2317 Clear 18 1014 52 16093 1.5 0 08:37 31.05.2020
2318 Clear 19 1014 56 16093 2.1 0 08:19 31.05.2020
2319 Clear 19 1014 56 16093 2.1 0 07:42 31.05.2020
2320 Clear 20 1014 56 16093 2.1 0 07:20 31.05.2020
2321 Clear 20 1014 49 16093 1.5 180 06:53 31.05.2020
2322 Clear 21 1014 49 16093 1.5 180 06:31 31.05.2020
2323 Clouds 22 1013 49 16093 3.6 260 05:43 31.05.2020
2324 Clouds 23 1013 46 16093 3.6 270 04:29 31.05.2020
2325 Clouds 24 1012 44 16093 2.6 260 03:48 31.05.2020
2326 Clouds 25 1012 38 16093 4.1 270 02:59 31.05.2020
2327 Clear 26 1011 34 16093 3.6 270 01:49 31.05.2020
2328 Clear 26 1011 34 16093 3.6 270 01:27 31.05.2020
2329 Clear 27 1011 34 16093 3.6 260 00:31 31.05.2020
2330 Clouds 28 1011 32 16093 5.1 250 23:57 30.05.2020
2331 Clouds 28 1011 32 16093 5.1 250 23:38 30.05.2020
2332 Clouds 28 1011 32 16093 5.1 250 23:19 30.05.2020
2333 Clouds 28 1011 30 16093 1.53 283 22:41 30.05.2020
2334 Clouds 28 1011 30 16093 2.72 314 22:23 30.05.2020
2335 Clear 28 1012 34 16093 2.1 0 21:56 30.05.2020
2336 Clear 28 1012 34 16093 2.1 0 21:38 30.05.2020
2337 Clear 27 1012 34 16093 2.1 0 21:20 30.05.2020
2338 Clear 27 1012 39 16093 2.6 0 20:56 30.05.2020
2339 Clear 27 1012 39 16093 2.6 0 20:38 30.05.2020
2340 Clear 27 1012 39 16093 2.6 0 20:20 30.05.2020
2341 Clear 26 1013 41 16093 4.1 250 19:43 30.05.2020
2342 Clear 26 1013 41 16093 4.1 250 19:22 30.05.2020
2343 Clear 25 1013 44 16093 3.1 0 18:54 30.05.2020
2344 Clear 25 1013 44 16093 3.1 0 18:36 30.05.2020
2345 Clear 24 1014 46 16093 3.76 310 18:18 30.05.2020
2346 Clear 23 1013 50 16093 2.1 0 17:38 30.05.2020
2347 Clear 23 1013 50 16093 2.1 0 17:19 30.05.2020
2348 Clear 22 1013 64 16093 4.08 308 16:44 30.05.2020
2349 Clear 22 1013 64 16093 3.79 314 16:23 30.05.2020
2350 Clouds 22 1013 73 16093 1.5 280 15:58 30.05.2020
2351 Clouds 22 1013 73 16093 1.5 280 15:39 30.05.2020
2352 Clouds 21 1013 73 16093 1.5 280 15:21 30.05.2020
2353 Clouds 21 1013 77 16093 2.1 0 14:42 30.05.2020
2354 Rain 21 1013 77 16093 2.1 0 14:22 30.05.2020
2355 Clear 21 1013 88 16093 3.1 260 13:42 30.05.2020
2356 Clear 20 1013 88 16093 3.1 260 13:20 30.05.2020
2357 Clear 20 1012 88 16093 2.6 240 12:42 30.05.2020
2358 Clear 20 1012 88 16093 2.6 240 12:20 30.05.2020
2359 Clouds 20 1012 88 16093 3.1 0 11:56 30.05.2020
2360 Clouds 20 1012 88 16093 3.1 0 11:38 30.05.2020
2361 Clouds 20 1012 93 16093 2.6 240 11:20 30.05.2020
2362 Clouds 20 1012 93 16093 2.6 240 10:40 30.05.2020
2363 Clouds 20 1012 93 16093 2.6 240 10:21 30.05.2020
2364 Rain 20 1012 88 16093 4.04 243 09:49 30.05.2020
2365 Rain 20 1012 88 16093 3.8 222 09:31 30.05.2020
2366 Rain 21 1012 88 16093 2.1 190 08:51 30.05.2020
2367 Rain 21 1013 88 14484 3.6 260 08:51 30.05.2020
2368 Rain 21 1013 88 14484 3.6 260 08:32 30.05.2020
2369 Clouds 21 1012 88 16093 2.6 0 07:45 30.05.2020
2370 Clouds 21 1012 88 16093 2.6 290 07:24 30.05.2020
2371 Clouds 20 1012 83 16093 1.5 0 06:51 30.05.2020
2372 Clouds 21 1012 83 16093 1.5 0 06:23 30.05.2020
2373 Rain 21 1012 77 16093 5.43 205 05:49 30.05.2020
2374 Rain 23 1013 78 16093 4.69 204 03:46 30.05.2020
2375 Rain 24 1013 73 16093 5.1 270 02:31 30.05.2020
2376 Clear 26 1013 69 16093 2.6 270 01:50 30.05.2020
2377 Clouds 27 1013 74 16093 2.1 250 00:40 30.05.2020
2378 Clear 27 1013 61 16093 4.6 180 00:21 30.05.2020
2379 Clear 27 1013 61 16093 4.6 180 23:58 29.05.2020
2380 Clear 27 1013 61 16093 4.6 180 23:38 29.05.2020
2381 Clouds 27 1013 61 16093 1.5 0 23:19 29.05.2020
2382 Clouds 27 1013 61 16093 1.5 0 22:41 29.05.2020
2383 Clouds 27 1013 61 16093 1.5 0 22:21 29.05.2020
2384 Clouds 26 1014 61 16093 5.52 176 21:59 29.05.2020
2385 Clouds 27 1014 61 16093 6 189 21:39 29.05.2020
2386 Clouds 27 1014 61 16093 6.44 172 21:20 29.05.2020
2387 Rain 27 1015 61 16093 1.5 0 20:55 29.05.2020
2388 Clouds 27 1015 61 16093 2.1 0 20:37 29.05.2020
2389 Clouds 27 1015 61 16093 2.1 0 20:18 29.05.2020
2390 Clouds 27 1016 65 16093 3.1 150 19:42 29.05.2020
2391 Clouds 27 1016 65 16093 3.1 150 19:23 29.05.2020
2392 Clouds 26 1017 73 16093 1.5 150 18:47 29.05.2020
2393 Clouds 26 1017 73 16093 1.5 150 18:22 29.05.2020
2394 Clouds 25 1017 83 16093 4.24 192 17:58 29.05.2020
2395 Clouds 25 1017 83 16093 4.24 192 17:39 29.05.2020
2396 Clouds 24 1018 88 16093 2.1 240 17:20 29.05.2020
2397 Clouds 24 1018 88 16093 2.1 240 16:46 29.05.2020
2398 Clouds 24 1018 88 16093 2.1 240 16:28 29.05.2020
2399 Clouds 23 1018 94 16093 1.5 260 15:59 29.05.2020
2400 Clouds 23 1018 94 16093 1.5 260 15:40 29.05.2020
2401 Clouds 22 1018 94 16093 1.5 260 15:21 29.05.2020
2402 Clouds 22 1018 88 16093 2.1 240 14:54 29.05.2020
2403 Clouds 22 1018 88 16093 2.1 260 14:36 29.05.2020
2404 Clouds 22 1018 88 16093 2.1 0 14:18 29.05.2020
2405 Clouds 21 1018 88 16093 2.1 0 13:41 29.05.2020
2406 Clouds 21 1018 88 16093 2.1 0 13:21 29.05.2020
2407 Clouds 20 1018 88 16093 4.25 193 12:46 29.05.2020
2408 Clouds 20 1018 88 16093 3.73 197 12:26 29.05.2020
2409 Clouds 20 1018 88 16093 3.73 197 12:26 29.05.2020
2410 Clouds 20 1018 88 16093 3.73 197 11:59 29.05.2020
2411 Clouds 20 1018 88 16093 1.5 0 11:41 29.05.2020
2412 Clouds 20 1018 88 16093 1.5 0 11:22 29.05.2020
2413 Mist 20 1018 94 8047 2.6 290 10:43 29.05.2020
2414 Mist 20 1018 94 8047 2.6 290 10:23 29.05.2020
2415 Clouds 19 1018 93 16093 2.96 193 09:56 29.05.2020
2416 Clouds 19 1018 93 16093 2.96 193 09:38 29.05.2020
2417 Clouds 20 1018 93 16093 3.02 182 09:19 29.05.2020
2418 Clouds 19 1018 93 16093 3.15 177 08:46 29.05.2020
2419 Clouds 19 1018 93 16093 3.59 182 08:22 29.05.2020
2420 Clouds 19 1018 93 16093 2.1 30 07:47 29.05.2020
2421 Clouds 19 1019 93 14484 1.5 340 07:29 29.05.2020
2422 Clouds 19 1019 93 16093 4.04 181 06:55 29.05.2020
2423 Clouds 19 1019 93 16093 4.64 177 06:37 29.05.2020
2424 Clouds 19 1019 93 16093 4.64 177 06:18 29.05.2020
2425 Mist 19 1019 93 9656 5.06 174 05:24 29.05.2020
2426 Clouds 22 1019 83 16093 3.1 170 01:48 29.05.2020
2427 Clouds 22 1019 83 16093 3.1 170 01:27 29.05.2020
2428 Clouds 22 1019 83 16093 2.1 160 00:50 29.05.2020
2429 Clouds 23 1019 83 16093 2.1 160 00:28 29.05.2020
2430 Clouds 23 1020 83 16093 4.1 160 23:41 28.05.2020
2431 Clouds 23 1020 83 16093 4.1 160 23:20 28.05.2020
2432 Clouds 23 1020 78 16093 5.1 170 22:59 28.05.2020
2433 Clouds 23 1020 78 16093 5.1 170 22:40 28.05.2020
2434 Clouds 23 1020 78 16093 5.1 170 22:21 28.05.2020
2435 Clouds 24 1021 78 16093 5.7 170 21:55 28.05.2020
2436 Clouds 24 1021 78 16093 5.7 170 21:37 28.05.2020
2437 Clouds 23 1021 78 16093 5.7 170 21:18 28.05.2020
2438 Clouds 23 1021 78 16093 3.6 170 20:55 28.05.2020
2439 Clouds 24 1021 78 16093 3.6 170 20:55 28.05.2020
2440 Clouds 24 1021 78 16093 4.1 170 20:36 28.05.2020
2441 Clouds 24 1021 78 16093 4.6 190 20:18 28.05.2020
2442 Clouds 24 1022 73 16093 4.6 180 19:43 28.05.2020
2443 Clouds 24 1022 73 16093 2.6 150 19:20 28.05.2020
2444 Clouds 25 1022 73 16093 4.6 180 19:20 28.05.2020
2445 Clouds 24 1022 73 16093 2.6 150 18:57 28.05.2020
2446 Clouds 24 1022 73 16093 2.6 150 18:39 28.05.2020
2447 Clouds 24 1022 73 16093 2.6 150 18:20 28.05.2020
2448 Clouds 23 1022 78 16093 3.1 0 17:40 28.05.2020
2449 Clouds 22 1023 83 16093 2.1 150 17:22 28.05.2020
2450 Clouds 22 1023 83 16093 2.1 150 16:55 28.05.2020
2451 Clouds 22 1023 83 16093 2.1 150 16:36 28.05.2020
2452 Clouds 21 1023 83 16093 2.1 150 16:18 28.05.2020
2453 Clouds 21 1023 88 16093 4.1 150 15:40 28.05.2020
2454 Clouds 20 1023 88 16093 4.1 150 15:22 28.05.2020
2455 Clouds 19 1023 93 16093 4.54 165 14:43 28.05.2020
2456 Clouds 19 1023 93 16093 3.72 165 14:24 28.05.2020
2457 Clouds 18 1023 93 16093 3.72 165 13:49 28.05.2020
2458 Clouds 18 1023 93 16093 3.36 167 13:30 28.05.2020
2459 Mist 18 1023 93 4828 3.36 167 12:59 28.05.2020
2460 Mist 18 1023 93 4828 3.36 167 12:38 28.05.2020
2461 Mist 18 1023 93 4828 3.04 165 12:18 28.05.2020
2462 Clouds 18 1023 93 16093 3.04 165 11:42 28.05.2020
2463 Clouds 18 1023 93 16093 2.98 173 11:24 28.05.2020
2464 Mist 18 1023 93 6437 2.98 173 10:56 28.05.2020
2465 Mist 18 1023 93 6437 2.98 173 10:38 28.05.2020
2466 Mist 17 1023 93 6437 2.97 177 10:18 28.05.2020
2467 Clouds 17 1023 93 14484 2.8 166 09:39 28.05.2020
2468 Mist 17 1023 93 9656 2.47 168 09:19 28.05.2020
2469 Mist 17 1023 93 9656 2.47 168 08:47 28.05.2020
2470 Clouds 17 1024 93 14484 2.4 170 08:26 28.05.2020
2471 Clouds 17 1024 93 16093 2.4 170 07:45 28.05.2020
2472 Clouds 17 1024 93 16093 2.38 173 07:26 28.05.2020
2473 Clouds 17 1024 93 16093 2.38 173 06:56 28.05.2020
2474 Clear 17 1024 93 16093 2.38 173 06:37 28.05.2020
2475 Clouds 17 1024 93 16093 2.72 177 05:41 28.05.2020
2476 Clouds 17 1024 93 16093 3.23 172 04:54 28.05.2020
2477 Clouds 17 1024 93 16093 4.07 169 04:27 28.05.2020
2478 Clouds 18 1023 88 16093 4.07 169 03:45 28.05.2020
2479 Clouds 18 1023 88 16093 2.6 0 02:45 28.05.2020
2480 Clouds 19 1023 82 16093 2.6 120 01:51 28.05.2020
2481 Clouds 21 1023 73 16093 5.19 162 00:54 28.05.2020
2482 Clouds 21 1023 73 16093 5.26 159 00:26 28.05.2020
2483 Clear 22 1023 68 16093 4.6 150 23:58 27.05.2020
2484 Clear 21 1023 68 16093 4.6 150 23:39 27.05.2020
2485 Clear 22 1023 68 16093 4.6 150 23:20 27.05.2020
2486 Clear 23 1023 69 16093 2.6 160 22:56 27.05.2020
2487 Clear 23 1023 69 16093 2.6 160 22:38 27.05.2020
2488 Clear 24 1023 69 16093 2.6 160 22:19 27.05.2020
2489 Clear 24 1023 64 16093 2.1 170 21:41 27.05.2020
2490 Clear 24 1023 64 16093 2.1 170 21:23 27.05.2020
2491 Clear 25 1024 64 16093 3.6 230 20:59 27.05.2020
2492 Clear 25 1024 64 16093 3.6 230 20:41 27.05.2020
2493 Clear 25 1024 64 16093 3.6 230 20:41 27.05.2020
2494 Clear 26 1024 64 16093 3.6 230 20:21 27.05.2020
2495 Clear 25 1024 69 16093 3.6 260 19:57 27.05.2020
2496 Clear 25 1024 69 16093 3.6 260 19:39 27.05.2020
2497 Clear 24 1024 69 16093 3.6 260 19:18 27.05.2020
2498 Clear 24 1025 64 16093 4.54 159 18:40 27.05.2020
2499 Clear 23 1025 73 16093 3.1 270 18:19 27.05.2020
2500 Clear 23 1025 73 16093 3.1 270 18:19 27.05.2020
2501 Clear 23 1025 68 16093 3.87 163 17:56 27.05.2020
2502 Clear 22 1025 68 16093 3.87 163 17:37 27.05.2020
2503 Haze 21 1025 82 8047 2.6 270 17:18 27.05.2020
2504 Haze 21 1025 82 8047 2.6 270 16:54 27.05.2020
2505 Haze 20 1025 82 8047 2.6 270 16:36 27.05.2020
2506 Haze 20 1025 82 8047 2.6 270 16:18 27.05.2020
2507 Clouds 18 1025 88 16093 2.1 270 15:40 27.05.2020
2508 Clouds 18 1025 93 11265 1.5 260 15:21 27.05.2020
2509 Fog 17 1025 87 402 2.57 171 14:43 27.05.2020
2510 Fog 17 1025 87 402 2.06 177 14:21 27.05.2020
2511 Fog 16 1025 93 402 1.5 260 13:55 27.05.2020
2512 Fog 16 1025 93 402 1.5 260 13:36 27.05.2020
2513 Fog 15 1025 93 402 1.5 260 13:18 27.05.2020
2514 Mist 15 1024 93 9656 1.54 170 12:40 27.05.2020
2515 Mist 15 1024 93 9656 1.58 177 12:22 27.05.2020
2516 Clouds 15 1024 87 16093 1.5 30 11:40 27.05.2020
2517 Clouds 15 1024 87 16093 1.5 30 11:22 27.05.2020
2518 Clouds 16 1024 87 16093 2.6 40 10:59 27.05.2020
2519 Clouds 15 1024 87 16093 1.5 140 10:40 27.05.2020
2520 Clouds 16 1024 87 16093 1.5 140 10:22 27.05.2020
2521 Mist 16 1024 87 9656 1.5 0 09:42 27.05.2020
2522 Mist 16 1024 87 9656 1.5 0 09:23 27.05.2020
2523 Clouds 16 1024 87 16093 3.1 170 08:58 27.05.2020
2524 Clouds 16 1023 87 16093 1.5 110 08:40 27.05.2020
2525 Clouds 15 1023 87 16093 1.5 110 08:22 27.05.2020
2526 Clouds 15 1023 87 16093 1.5 110 08:22 27.05.2020
2527 Clouds 16 1023 87 16093 2.22 175 07:51 27.05.2020
2528 Clouds 16 1023 87 16093 2.31 169 07:33 27.05.2020
2529 Clouds 16 1023 87 16093 2.31 169 06:55 27.05.2020
2530 Clouds 16 1023 87 16093 2.92 171 06:24 27.05.2020
2531 Clouds 16 1023 87 16093 2.92 171 05:50 27.05.2020
2532 Clouds 17 1023 87 16093 3.14 165 05:23 27.05.2020
2533 Clear 18 1023 82 16093 3.1 0 02:51 27.05.2020
2534 Clear 18 1023 82 16093 3.1 0 02:25 27.05.2020
2535 Clear 21 1022 77 16093 4.1 130 01:31 27.05.2020
2536 Clear 22 1022 68 16093 3.6 150 00:47 27.05.2020
2537 Clear 22 1022 68 16093 3.6 150 00:21 27.05.2020
2538 Clear 23 1022 64 16093 4.1 120 23:58 26.05.2020
2539 Clear 23 1022 64 16093 4.1 120 23:39 26.05.2020
2540 Clear 23 1022 64 16093 4.1 120 23:21 26.05.2020
2541 Clear 24 1023 60 16093 3.6 150 22:57 26.05.2020
2542 Clear 24 1023 60 16093 3.6 150 22:37 26.05.2020
2543 Clear 24 1023 60 16093 3.6 150 22:19 26.05.2020
2544 Clear 24 1023 64 16093 2.6 260 21:55 26.05.2020
2545 Clear 24 1023 64 16093 2.6 260 21:36 26.05.2020
2546 Clear 24 1023 68 16093 3.1 270 21:18 26.05.2020
2547 Clear 24 1023 68 16093 3.1 270 20:41 26.05.2020
2548 Clear 23 1023 68 16093 3.1 270 20:20 26.05.2020
2549 Clear 23 1024 73 16093 2.6 250 19:41 26.05.2020
2550 Clear 23 1024 73 16093 2.6 250 19:22 26.05.2020
2551 Clear 22 1024 68 16093 3.6 260 18:59 26.05.2020
2552 Clear 22 1024 68 16093 3.6 260 18:39 26.05.2020
2553 Clear 22 1024 68 16093 3.6 260 18:21 26.05.2020
2554 Clouds 21 1024 82 16093 2.6 270 17:42 26.05.2020
2555 Clouds 20 1024 82 16093 2.6 270 17:24 26.05.2020
2556 Mist 19 1024 88 4828 2.6 260 16:55 26.05.2020
2557 Mist 18 1024 88 4828 2.6 260 16:36 26.05.2020
2558 Mist 18 1024 88 4828 2.6 260 16:18 26.05.2020
2559 Mist 17 1024 93 4828 1.5 260 15:41 26.05.2020
2560 Mist 16 1024 87 2012 2.6 270 15:20 26.05.2020
2561 Mist 16 1024 87 2012 2.6 270 14:56 26.05.2020
2562 Mist 16 1024 87 1207 2.1 260 14:37 26.05.2020
2563 Mist 16 1024 87 4828 1.5 230 14:19 26.05.2020
2564 Mist 15 1024 93 3219 1.5 200 13:41 26.05.2020
2565 Mist 15 1024 93 3219 1.5 200 13:23 26.05.2020
2566 Mist 15 1024 93 1609 1.5 250 12:57 26.05.2020
2567 Mist 15 1024 93 1207 0.91 184 12:38 26.05.2020
2568 Mist 15 1024 93 1207 0.91 184 12:19 26.05.2020
2569 Mist 15 1023 93 1609 0.91 184 11:41 26.05.2020
2570 Mist 15 1023 93 1609 0.64 193 11:21 26.05.2020
2571 Mist 14 1023 100 3219 1.5 250 10:57 26.05.2020
2572 Mist 14 1023 100 2414 1.5 270 10:38 26.05.2020
2573 Mist 14 1023 100 2816 2.1 270 10:18 26.05.2020
2574 Clouds 14 1023 93 12874 2.6 280 09:39 26.05.2020
2575 Clouds 14 1023 93 12874 2.6 280 09:19 26.05.2020
2576 Clouds 14 1023 93 11265 1.5 250 08:42 26.05.2020
2577 Clouds 14 1023 93 11265 1.5 250 08:22 26.05.2020
2578 Clouds 15 1023 93 16093 2.1 170 07:44 26.05.2020
2579 Clouds 15 1023 93 16093 2.1 170 07:24 26.05.2020
2580 Mist 15 1023 93 9656 3.1 180 06:54 26.05.2020
2581 Clouds 15 1023 87 16093 1.5 280 06:35 26.05.2020
2582 Clear 15 1023 82 16093 2.1 180 05:48 26.05.2020
2583 Clear 16 1023 82 16093 2.1 180 05:28 26.05.2020
2584 Clear 16 1023 87 16093 2.31 154 04:50 26.05.2020
2585 Clear 16 1023 87 16093 2.45 159 04:31 26.05.2020
2586 Clear 16 1022 82 16093 2.45 159 03:52 26.05.2020
2587 Clear 17 1022 77 16093 2.48 163 02:44 26.05.2020
2588 Clear 19 1022 72 16093 1.5 270 01:48 26.05.2020
2589 Clear 19 1022 72 16093 1.5 270 01:21 26.05.2020
2590 Clear 21 1022 64 16093 4.1 280 00:37 26.05.2020
2591 Clear 21 1022 64 16093 4.1 280 00:18 26.05.2020
2592 Clear 22 1022 56 16093 1.5 100 23:55 25.05.2020
2593 Clear 22 1022 56 16093 1.5 100 23:36 25.05.2020
2594 Clear 22 1022 56 16093 1.5 100 23:18 25.05.2020
2595 Clouds 22 1023 56 16093 2.6 250 22:54 25.05.2020
2596 Clouds 22 1023 56 16093 2.6 250 22:36 25.05.2020
2597 Clouds 22 1023 56 16093 2.6 250 22:18 25.05.2020
2598 Clouds 23 1023 56 16093 1.5 280 21:54 25.05.2020
2599 Clouds 22 1024 60 16093 3.1 50 21:36 25.05.2020
2600 Clouds 22 1024 60 16093 3.1 50 21:18 25.05.2020
2601 Clouds 21 1024 64 16093 2.6 60 20:42 25.05.2020
2602 Clouds 20 1024 64 16093 2.6 60 20:21 25.05.2020
2603 Clouds 20 1024 64 16093 1.5 280 19:59 25.05.2020
2604 Clouds 20 1024 64 16093 1.5 280 19:59 25.05.2020
2605 Clouds 19 1024 64 16093 1.5 280 19:39 25.05.2020
2606 Clouds 19 1024 64 16093 1.5 280 19:18 25.05.2020
2607 Clouds 18 1024 68 16093 2.29 159 18:54 25.05.2020
2608 Clouds 18 1024 68 16093 2.29 159 18:36 25.05.2020
2609 Rain 18 1024 68 16093 1.62 145 18:18 25.05.2020
2610 Clouds 17 1024 77 16093 3.1 70 17:41 25.05.2020
2611 Clouds 17 1024 77 16093 3.1 70 17:23 25.05.2020
2612 Clouds 16 1024 77 16093 3.1 60 16:56 25.05.2020
2613 Clouds 16 1024 82 16093 3.1 60 16:38 25.05.2020
2614 Clouds 15 1024 82 16093 3.6 60 16:19 25.05.2020
2615 Clouds 15 1024 82 16093 3.1 60 16:19 25.05.2020
2616 Clouds 15 1024 82 16093 3.6 60 15:44 25.05.2020
2617 Clouds 15 1024 82 16093 3.6 60 15:19 25.05.2020
2618 Clouds 14 1024 87 16093 4.1 60 14:58 25.05.2020
2619 Clouds 14 1024 87 16093 4.1 60 14:38 25.05.2020
2620 Clouds 14 1024 87 16093 3.1 60 14:19 25.05.2020
2621 Clouds 14 1024 87 16093 3.1 60 13:40 25.05.2020
2622 Clouds 14 1024 87 16093 3.1 60 13:21 25.05.2020
2623 Clouds 13 1023 93 16093 3.6 30 12:58 25.05.2020
2624 Clouds 13 1023 93 16093 3.6 30 12:39 25.05.2020
2625 Clouds 13 1023 93 16093 3.6 30 12:20 25.05.2020
2626 Clouds 13 1023 93 16093 3.6 30 12:20 25.05.2020
2627 Mist 13 1023 87 9656 4.1 40 11:40 25.05.2020
2628 Mist 13 1023 87 9656 4.1 40 11:21 25.05.2020
2629 Clouds 13 1023 87 11265 5.1 30 10:57 25.05.2020
2630 Clouds 13 1023 87 11265 5.1 30 10:39 25.05.2020
2631 Clouds 14 1023 87 11265 5.1 30 10:20 25.05.2020
2632 Mist 14 1023 87 8047 4.1 40 09:55 25.05.2020
2633 Mist 14 1023 87 8047 4.1 40 09:36 25.05.2020
2634 Mist 14 1023 87 8047 4.1 40 09:18 25.05.2020
2635 Clouds 14 1023 82 16093 4.1 50 08:40 25.05.2020
2636 Clouds 14 1023 82 16093 4.1 50 08:21 25.05.2020
2637 Clouds 14 1024 82 16093 2.6 60 07:56 25.05.2020
2638 Clouds 14 1024 82 16093 2.6 60 07:38 25.05.2020
2639 Clouds 14 1024 82 16093 2.6 60 07:38 25.05.2020
2640 Clouds 14 1024 82 16093 2.6 60 07:18 25.05.2020
2641 Clouds 14 1024 82 16093 2.6 60 06:38 25.05.2020
2642 Clouds 14 1024 82 16093 2.6 60 06:19 25.05.2020
2643 Clear 15 1024 72 16093 4.1 70 03:31 25.05.2020
2644 Clear 16 1024 67 16093 3.1 110 02:52 25.05.2020
2645 Clear 16 1024 67 16093 3.1 110 02:34 25.05.2020
2646 Clear 17 1024 72 16093 3.6 160 01:42 25.05.2020
2647 Clear 18 1024 60 16093 3.6 150 00:49 25.05.2020
2648 Clear 19 1024 60 16093 3.6 150 00:31 25.05.2020
2649 Clouds 19 1024 63 16093 3.1 220 23:59 24.05.2020
2650 Clouds 19 1024 63 16093 3.1 220 23:39 24.05.2020
2651 Clouds 19 1024 63 16093 3.1 220 23:39 24.05.2020
2652 Clouds 20 1024 63 16093 3.1 220 23:21 24.05.2020
2653 Clouds 20 1024 56 16093 2.6 250 22:58 24.05.2020
2654 Clouds 20 1024 56 16093 2.6 250 22:39 24.05.2020
2655 Clouds 20 1024 56 16093 2.6 250 22:18 24.05.2020
2656 Clouds 20 1025 56 16093 3.1 50 21:55 24.05.2020
2657 Clouds 19 1025 56 16093 3.1 50 21:37 24.05.2020
2658 Clouds 19 1025 59 16093 3.6 20 21:18 24.05.2020
2659 Clouds 18 1025 59 16093 3.6 20 20:43 24.05.2020
2660 Clouds 18 1025 59 16093 3.6 20 20:21 24.05.2020
2661 Clouds 18 1025 63 16093 4.1 50 19:58 24.05.2020
2662 Clouds 18 1025 63 16093 4.1 50 19:40 24.05.2020
2663 Clouds 18 1025 63 16093 4.1 50 19:19 24.05.2020
2664 Clouds 17 1026 63 16093 4.6 50 18:54 24.05.2020
2665 Clouds 17 1025 63 16093 5.7 60 18:36 24.05.2020
2666 Clouds 16 1025 63 16093 5.7 60 18:18 24.05.2020
2667 Clouds 15 1026 63 16093 6.2 30 17:40 24.05.2020
2668 Clouds 15 1026 63 16093 6.2 30 17:21 24.05.2020
2669 Clouds 14 1026 71 16093 4.1 60 16:57 24.05.2020
2670 Clouds 14 1026 71 16093 4.1 60 16:38 24.05.2020
2671 Clouds 14 1026 71 16093 4.1 60 16:38 24.05.2020
2672 Clouds 13 1026 71 16093 4.6 60 16:20 24.05.2020
2673 Clouds 13 1026 71 16093 4.6 60 15:57 24.05.2020
2674 Clouds 12 1026 71 16093 4.6 60 15:38 24.05.2020
2675 Clouds 12 1024 76 16093 7.2 40 15:19 24.05.2020
2676 Clouds 12 1024 76 16093 7.2 40 14:46 24.05.2020
2677 Clouds 12 1024 76 16093 7.2 40 14:24 24.05.2020
2678 Clear 12 1024 66 16093 8.2 40 13:59 24.05.2020
2679 Clear 12 1024 66 16093 8.2 40 13:41 24.05.2020
2680 Clouds 12 1024 62 16093 7.7 40 13:21 24.05.2020
2681 Clouds 12 1024 62 16093 7.7 40 12:59 24.05.2020
2682 Clouds 12 1024 54 16093 5.86 50 12:40 24.05.2020
2683 Clouds 12 1023 58 16093 6.2 40 12:22 24.05.2020
2684 Clouds 12 1023 58 16093 6.2 40 11:59 24.05.2020
2685 Clouds 12 1023 58 16093 6.2 40 11:41 24.05.2020
2686 Clouds 12 1023 58 16093 6.2 40 11:22 24.05.2020
2687 Clouds 13 1023 58 16093 6.2 30 10:58 24.05.2020
2688 Clouds 13 1023 58 16093 6.2 30 10:39 24.05.2020
2689 Clouds 13 1023 62 16093 7.2 30 10:21 24.05.2020
2690 Clouds 13 1023 62 16093 7.2 30 09:41 24.05.2020
2691 Clouds 13 1022 71 16093 5.7 40 09:19 24.05.2020
2692 Clouds 13 1022 71 16093 5.7 40 08:57 24.05.2020
2693 Clouds 13 1022 71 16093 5.7 40 08:39 24.05.2020
2694 Clouds 13 1022 71 12874 3.1 20 08:21 24.05.2020
2695 Clouds 13 1022 71 12874 3.1 20 07:51 24.05.2020
2696 Clouds 13 1022 71 12874 3.1 20 07:26 24.05.2020
2697 Clouds 13 1022 67 16093 5.7 50 06:57 24.05.2020
2698 Clouds 14 1022 67 16093 5.7 50 06:36 24.05.2020
2699 Clouds 14 1021 67 16093 7.2 60 05:21 24.05.2020
2700 Clouds 14 1019 71 16093 7.2 40 03:42 24.05.2020
2701 Clouds 14 1019 71 16093 8.7 40 02:47 24.05.2020
2702 Rain 14 1018 72 16093 8.7 40 01:59 24.05.2020
2703 Clouds 15 1018 77 16093 7.2 40 00:42 24.05.2020
2704 Clouds 16 1018 77 16093 7.2 40 00:23 24.05.2020
2705 Rain 16 1018 77 16093 8.2 40 23:54 23.05.2020
2706 Rain 16 1017 82 16093 9.8 30 23:36 23.05.2020
2707 Rain 19 1016 88 16093 5.7 30 23:18 23.05.2020
2708 Clouds 19 1016 88 16093 5.7 30 22:55 23.05.2020
2709 Clouds 20 1016 88 16093 5.7 30 22:36 23.05.2020
2710 Clouds 20 1016 88 16093 5.7 30 22:18 23.05.2020
2711 Rain 19 1016 93 16093 4.1 40 21:42 23.05.2020
2712 Rain 19 1016 93 16093 4.1 40 21:21 23.05.2020
2713 Rain 19 1016 93 16093 2.6 30 20:59 23.05.2020
2714 Rain 19 1016 93 16093 2.6 30 20:39 23.05.2020
2715 Rain 18 1016 93 16093 2.6 30 20:20 23.05.2020
2716 Rain 18 1016 100 16093 3.1 40 19:58 23.05.2020
2717 Rain 18 1016 100 16093 3.1 40 19:40 23.05.2020
2718 Rain 18 1016 100 16093 3.1 40 19:19 23.05.2020
2719 Rain 17 1016 93 4828 2.1 280 18:41 23.05.2020
2720 Rain 17 1016 93 4828 2.1 280 18:41 23.05.2020
2721 Rain 17 1016 93 4828 2.1 280 18:22 23.05.2020
2722 Rain 17 1016 93 2012 2.05 338 17:58 23.05.2020
2723 Rain 17 1016 93 2012 2.05 338 17:58 23.05.2020
2724 Mist 17 1016 93 2012 2.05 338 17:40 23.05.2020
2725 Rain 17 1016 100 1609 2.15 301 17:20 23.05.2020
2726 Rain 17 1016 100 1609 2.15 301 16:59 23.05.2020
2727 Rain 17 1016 93 6437 2.1 270 16:41 23.05.2020
2728 Rain 17 1016 93 6437 2.1 270 16:20 23.05.2020
2729 Clouds 17 1016 93 14484 1.28 281 15:56 23.05.2020
2730 Clouds 17 1016 93 14484 1.28 281 15:38 23.05.2020
2731 Clouds 17 1016 93 14484 0.53 339 15:20 23.05.2020
2732 Rain 17 1015 93 4828 2.6 40 14:41 23.05.2020
2733 Rain 17 1015 93 4828 2.6 40 14:23 23.05.2020
2734 Mist 17 1015 93 3219 2.6 40 13:42 23.05.2020
2735 Mist 17 1015 93 3219 2.6 40 13:19 23.05.2020
2736 Mist 17 1015 93 3219 2.1 30 12:59 23.05.2020
2737 Mist 17 1015 100 4828 0.79 86 12:41 23.05.2020
2738 Mist 17 1015 100 4828 0.59 77 12:19 23.05.2020
2739 Mist 17 1015 100 6437 1.5 90 11:57 23.05.2020
2740 Mist 17 1015 100 6437 1.5 90 11:37 23.05.2020
2741 Mist 17 1015 93 4828 2.6 50 11:18 23.05.2020
2742 Mist 16 1015 93 4828 2.6 50 10:54 23.05.2020
2743 Mist 16 1015 93 4828 2.6 50 10:36 23.05.2020
2744 Mist 16 1015 93 4828 2.6 50 10:18 23.05.2020
2745 Mist 17 1016 93 9656 2.1 40 09:41 23.05.2020
2746 Mist 17 1016 93 9656 2.1 40 09:23 23.05.2020
2747 Clouds 17 1016 93 16093 5.1 40 08:56 23.05.2020
2748 Clouds 17 1016 93 16093 5.1 40 08:37 23.05.2020
2749 Clouds 17 1016 93 16093 5.1 40 08:18 23.05.2020
2750 Clouds 17 1017 93 16093 2.6 30 07:43 23.05.2020
2751 Clouds 17 1017 93 16093 2.6 30 07:22 23.05.2020
2752 Clouds 17 1017 93 16093 2.77 150 06:42 23.05.2020
2753 Clouds 17 1017 93 16093 1.5 150 05:51 23.05.2020
2754 Clouds 18 1018 93 16093 3.32 153 03:52 23.05.2020
2755 Clouds 18 1018 93 16093 3.74 160 03:23 23.05.2020
2756 Clouds 18 1018 93 16093 1.5 150 02:33 23.05.2020
2757 Rain 18 1018 88 8047 3.51 163 01:48 23.05.2020
2758 Rain 18 1018 88 8047 3.19 162 01:18 23.05.2020
2759 Rain 19 1019 82 6437 3.19 162 00:42 23.05.2020
2760 Rain 19 1019 64 16093 3.8 169 23:59 22.05.2020
2761 Rain 20 1019 64 16093 3.8 169 23:41 22.05.2020
2762 Rain 21 1019 64 16093 4.49 176 23:22 22.05.2020
2763 Clouds 22 1019 60 16093 4.1 180 22:58 22.05.2020
2764 Clouds 22 1019 60 16093 4.1 180 22:40 22.05.2020
2765 Clouds 22 1019 60 16093 4.1 180 22:20 22.05.2020
2766 Clouds 23 1020 56 16093 3.6 180 21:47 22.05.2020
2767 Clouds 23 1020 56 16093 3.6 180 21:23 22.05.2020
2768 Clouds 24 1020 50 16093 2.6 210 20:59 22.05.2020
2769 Clouds 23 1020 50 16093 2.6 210 20:59 22.05.2020
2770 Clouds 23 1020 50 16093 2.6 210 20:40 22.05.2020
2771 Clouds 24 1020 50 16093 2.6 210 20:20 22.05.2020
2772 Clear 24 1021 53 16093 2.6 260 19:44 22.05.2020
2773 Clear 24 1021 53 16093 2.6 260 19:26 22.05.2020
2774 Clouds 23 1022 56 16093 2.1 270 18:55 22.05.2020
2775 Clouds 22 1022 56 16093 2.1 270 18:37 22.05.2020
2776 Clouds 23 1022 56 16093 2.1 270 18:37 22.05.2020
2777 Clouds 22 1022 60 16093 2.6 250 18:19 22.05.2020
2778 Clouds 22 1022 60 16093 2.6 250 17:40 22.05.2020
2779 Clear 21 1023 68 16093 2.1 250 17:20 22.05.2020
2780 Clear 20 1023 68 16093 2.1 250 16:57 22.05.2020
2781 Clear 20 1023 68 16093 2.1 250 16:39 22.05.2020
2782 Clear 20 1023 68 16093 2.1 250 16:39 22.05.2020
2783 Clear 20 1023 68 16093 2.1 250 16:19 22.05.2020
2784 Clear 18 1023 77 16093 2.1 270 15:56 22.05.2020
2785 Clear 18 1023 77 16093 2.1 270 15:38 22.05.2020
2786 Clear 17 1023 77 16093 2.1 270 15:18 22.05.2020
2787 Clear 16 1023 77 16093 2.01 183 14:40 22.05.2020
2788 Clear 16 1023 77 16093 1.07 201 14:21 22.05.2020
2789 Clear 15 1023 82 16093 1.07 201 13:42 22.05.2020
2790 Clear 13 1024 87 16093 0.8 221 13:19 22.05.2020
2791 Clear 13 1024 87 16093 0.8 221 12:43 22.05.2020
2792 Clear 12 1024 87 16093 0.77 234 12:25 22.05.2020
2793 Clear 12 1024 87 16093 0.77 234 11:55 22.05.2020
2794 Clear 12 1024 87 16093 0.77 234 11:36 22.05.2020
2795 Clear 12 1024 87 16093 0.87 249 11:18 22.05.2020
2796 Clouds 12 1024 87 16093 0.87 249 10:40 22.05.2020
2797 Clouds 12 1024 87 16093 1.21 234 10:22 22.05.2020
2798 Clear 13 1025 87 16093 1.21 234 09:59 22.05.2020
2799 Clear 13 1025 87 16093 1.21 234 09:59 22.05.2020
2800 Clear 12 1025 87 16093 1.21 234 09:40 22.05.2020
2801 Clear 13 1025 87 16093 1.06 229 09:18 22.05.2020
2802 Clear 12 1025 82 16093 2.6 260 08:43 22.05.2020
2803 Clear 12 1025 82 16093 2.6 260 08:20 22.05.2020
2804 Clear 13 1025 82 16093 1.5 280 07:54 22.05.2020
2805 Clear 13 1025 82 16093 1.5 280 07:24 22.05.2020
2806 Clear 12 1025 82 16093 1.5 260 06:55 22.05.2020
2807 Clear 13 1025 82 16093 1.5 260 06:35 22.05.2020
2808 Clear 13 1026 82 16093 2.03 197 05:38 22.05.2020
2809 Clear 13 1026 82 16093 1.5 160 04:51 22.05.2020
2810 Clear 13 1026 82 16093 1.5 160 04:20 22.05.2020
2811 Clear 13 1026 71 16093 3.67 183 03:47 22.05.2020
2812 Clear 13 1026 71 16093 1.5 0 02:59 22.05.2020
2813 Clear 15 1026 67 16093 3.6 160 01:53 22.05.2020
2814 Clear 15 1026 67 16093 3.6 160 01:25 22.05.2020
2815 Clear 16 1027 55 16093 3.6 190 00:46 22.05.2020
2816 Clear 16 1027 55 16093 3.6 190 00:27 22.05.2020
2817 Clear 17 1027 52 16093 4.1 150 23:42 21.05.2020
2818 Clear 17 1027 52 16093 4.1 150 23:24 21.05.2020
2819 Clear 18 1028 48 16093 2.1 0 22:58 21.05.2020
2820 Clear 18 1028 48 16093 2.1 0 22:38 21.05.2020
2821 Clear 18 1028 48 16093 2.1 0 22:20 21.05.2020
2822 Clear 19 1029 48 16093 3.1 190 21:58 21.05.2020
2823 Clear 19 1029 48 16093 3.1 190 21:39 21.05.2020
2824 Clear 19 1029 48 16093 3.1 170 21:19 21.05.2020
2825 Clear 19 1029 48 16093 3.1 170 20:43 21.05.2020
2826 Clear 19 1029 48 16093 3.1 170 20:22 21.05.2020
2827 Clear 19 1029 45 16093 3.6 120 19:41 21.05.2020
2828 Clear 18 1030 45 16093 3.1 190 19:21 21.05.2020
2829 Clear 18 1030 45 16093 3.1 190 18:59 21.05.2020
2830 Clear 17 1030 45 16093 3.1 190 18:39 21.05.2020
2831 Clear 17 1030 45 16093 3.1 190 18:19 21.05.2020
2832 Clear 17 1030 51 16093 3.1 250 17:58 21.05.2020
2833 Clear 17 1030 51 16093 3.1 250 17:39 21.05.2020
2834 Clear 16 1030 51 16093 3.1 250 17:21 21.05.2020
2835 Clear 15 1030 63 16093 3.1 40 16:46 21.05.2020
2836 Clear 14 1030 63 16093 3.1 40 16:24 21.05.2020
2837 Clear 13 1030 76 16093 2.1 0 15:47 21.05.2020
2838 Clear 12 1030 76 16093 2.1 0 15:24 21.05.2020
2839 Clear 12 1030 81 16093 2.1 40 14:57 21.05.2020
2840 Clear 11 1030 81 16093 2.1 40 14:38 21.05.2020
2841 Clear 11 1030 81 16093 2.1 40 14:18 21.05.2020
2842 Clear 10 1030 76 16093 3.1 50 13:41 21.05.2020
2843 Clear 10 1030 76 16093 3.1 50 13:22 21.05.2020
2844 Clouds 9 1030 81 16093 2.1 50 12:57 21.05.2020
2845 Clouds 9 1030 81 16093 2.1 50 12:37 21.05.2020
2846 Clouds 9 1030 81 16093 2.1 50 12:18 21.05.2020
2847 Clouds 9 1030 76 16093 2.6 30 11:42 21.05.2020
2848 Clouds 9 1030 76 16093 2.6 30 11:23 21.05.2020
2849 Clear 9 1030 71 16093 2.6 20 10:58 21.05.2020
2850 Clear 9 1030 71 16093 2.6 20 10:39 21.05.2020
2851 Clear 9 1030 71 16093 2.6 20 10:19 21.05.2020
2852 Clear 9 1030 66 16093 2.6 40 09:54 21.05.2020
2853 Clear 8 1030 66 16093 2.6 40 09:36 21.05.2020
2854 Clear 9 1030 66 16093 3.6 40 09:18 21.05.2020
2855 Clear 9 1030 66 16093 3.6 40 08:42 21.05.2020
2856 Clear 9 1031 62 16093 3.6 50 08:23 21.05.2020
2857 Clear 10 1031 62 16093 3.6 50 07:44 21.05.2020
2858 Clear 10 1031 66 16093 3.48 96 07:25 21.05.2020
2859 Clear 10 1031 62 16093 3.1 70 06:52 21.05.2020
2860 Clear 10 1031 62 16093 3.6 70 05:54 21.05.2020
2861 Clear 11 1031 58 16093 4.6 70 04:58 21.05.2020
2862 Clear 12 1031 50 16093 4.1 60 03:22 21.05.2020
2863 Clear 12 1031 50 16093 4.1 60 03:22 21.05.2020
2864 Clear 12 1031 43 16093 3.1 0 02:45 21.05.2020
2865 Clear 13 1031 43 16093 3.1 0 02:25 21.05.2020
2866 Clear 14 1030 41 16093 4.1 70 01:45 21.05.2020
2867 Clear 14 1030 41 16093 4.1 70 01:19 21.05.2020
2868 Clear 15 1030 36 16093 5.7 140 00:48 21.05.2020
2869 Clear 15 1030 36 16093 5.7 140 00:23 21.05.2020
2870 Clear 16 1030 31 16093 5.1 140 23:43 20.05.2020
2871 Clear 17 1030 31 16093 5.1 140 23:20 20.05.2020
2872 Clear 18 1031 36 16093 4.1 130 22:58 20.05.2020
2873 Clear 18 1031 36 16093 4.1 130 22:39 20.05.2020
2874 Clear 18 1031 36 16093 4.1 130 22:20 20.05.2020
2875 Clear 18 1031 29 16093 5.1 140 21:40 20.05.2020
2876 Clear 18 1031 29 16093 5.1 140 21:22 20.05.2020
2877 Clear 18 1031 39 16093 4.1 60 20:45 20.05.2020
2878 Clear 18 1031 39 16093 4.1 60 20:26 20.05.2020
2879 Clear 17 1031 39 16093 3.6 40 19:59 20.05.2020
2880 Clear 17 1031 39 16093 3.6 40 19:38 20.05.2020
2881 Clear 17 1031 39 16093 3.6 40 19:20 20.05.2020
2882 Clear 16 1032 45 16093 5.1 80 18:50 20.05.2020
2883 Clear 16 1032 45 16093 5.1 80 18:31 20.05.2020
2884 Clear 15 1031 48 16093 7.7 50 17:57 20.05.2020
2885 Clear 15 1031 48 16093 7.7 50 17:37 20.05.2020
2886 Clear 15 1031 48 16093 7.7 50 17:19 20.05.2020
2887 Clear 14 1031 48 16093 4.1 50 16:41 20.05.2020
2888 Clear 14 1031 48 16093 4.1 50 16:22 20.05.2020
2889 Clear 13 1031 54 16093 7.7 40 15:56 20.05.2020
2890 Clear 13 1031 54 16093 7.7 40 15:38 20.05.2020
2891 Clear 13 1031 54 16093 7.7 40 15:20 20.05.2020
2892 Clear 13 1030 54 16093 6.2 30 14:42 20.05.2020
2893 Clear 12 1030 54 16093 6.2 30 14:20 20.05.2020
2894 Clear 12 1030 58 16093 6.2 50 13:41 20.05.2020
2895 Clear 11 1030 58 16093 6.2 50 13:19 20.05.2020
2896 Clear 11 1029 54 16093 6.2 40 12:57 20.05.2020
2897 Clear 11 1029 54 16093 6.2 40 12:37 20.05.2020
2898 Clear 11 1028 54 16093 5.1 40 12:19 20.05.2020
2899 Clear 11 1028 54 16093 5.1 40 11:36 20.05.2020
2900 Clear 11 1028 54 16093 5.1 30 11:18 20.05.2020
2901 Clear 11 1028 54 16093 5.1 40 11:18 20.05.2020
2902 Clear 11 1028 54 16093 5.1 30 10:42 20.05.2020
2903 Clear 11 1028 54 16093 5.1 30 10:20 20.05.2020
2904 Clear 11 1028 54 16093 5.1 40 09:44 20.05.2020
2905 Clear 11 1028 54 16093 5.1 40 09:21 20.05.2020
2906 Clear 11 1028 54 16093 5.1 70 08:57 20.05.2020
2907 Clear 12 1028 54 16093 5.1 70 08:39 20.05.2020
2908 Clear 12 1028 54 16093 5.1 70 08:18 20.05.2020
2909 Clear 12 1028 54 16093 6.2 50 07:46 20.05.2020
2910 Clear 12 1028 54 16093 6.2 50 07:20 20.05.2020
2911 Clear 12 1028 50 16093 6.7 50 06:42 20.05.2020
2912 Clear 13 1029 54 16093 6.2 50 05:24 20.05.2020
2913 Clear 13 1029 54 16093 6.2 60 04:33 20.05.2020
2914 Clear 13 1028 50 16093 6.2 50 03:51 20.05.2020
2915 Clear 14 1028 47 16093 5.1 70 02:31 20.05.2020
2916 Clear 16 1027 41 16093 4.6 90 01:30 20.05.2020
2917 Clear 16 1026 39 16093 6.2 70 00:45 20.05.2020
2918 Clear 17 1026 39 16093 6.2 70 00:24 20.05.2020
2919 Clear 18 1026 36 16093 5.7 100 23:43 19.05.2020
2920 Clear 18 1026 36 16093 5.7 100 23:20 19.05.2020
2921 Clear 19 1026 39 16093 4.1 130 22:56 19.05.2020
2922 Clear 19 1026 39 16093 4.1 130 22:38 19.05.2020
2923 Clear 19 1025 32 16093 6.2 60 22:20 19.05.2020
2924 Clear 19 1026 39 16093 4.1 130 22:20 19.05.2020
2925 Clear 19 1025 32 16093 6.2 60 21:58 19.05.2020
2926 Clear 19 1025 32 16093 6.2 60 21:38 19.05.2020
2927 Clear 19 1025 29 16093 7.7 40 21:20 19.05.2020
2928 Clear 19 1025 29 16093 7.7 40 20:58 19.05.2020
2929 Clear 19 1025 29 16093 7.7 40 20:39 19.05.2020
2930 Clear 19 1025 28 16093 7.7 40 20:21 19.05.2020
2931 Clear 19 1025 32 16093 7.7 40 19:55 19.05.2020
2932 Clear 19 1025 32 16093 7.7 40 19:37 19.05.2020
2933 Clear 19 1025 32 16093 7.7 40 19:37 19.05.2020
2934 Clear 18 1025 32 16093 7.7 40 19:19 19.05.2020
2935 Clear 18 1025 32 16093 8.7 40 18:42 19.05.2020
2936 Clear 18 1026 31 16093 8.72 71 18:20 19.05.2020
2937 Clear 18 1025 34 16093 9.3 40 17:44 19.05.2020
2938 Clear 17 1025 34 16093 9.3 40 17:22 19.05.2020
2939 Clear 17 1024 39 16093 8.7 30 16:59 19.05.2020
2940 Clear 17 1024 39 16093 8.7 30 16:39 19.05.2020
2941 Clear 17 1024 39 16093 8.7 30 16:21 19.05.2020
2942 Clear 16 1023 47 16093 8.2 30 15:56 19.05.2020
2943 Clear 16 1023 47 16093 8.2 30 15:37 19.05.2020
2944 Clear 15 1022 47 16093 8.2 30 15:19 19.05.2020
2945 Clear 15 1022 47 16093 8.2 30 14:43 19.05.2020
2946 Clear 15 1022 47 16093 8.2 30 14:21 19.05.2020
2947 Clear 14 1021 50 16093 7.7 30 13:59 19.05.2020
2948 Clear 14 1021 50 16093 7.7 30 13:40 19.05.2020
2949 Clear 14 1021 50 16093 7.7 30 13:22 19.05.2020
2950 Clear 14 1021 54 16093 6.2 30 12:59 19.05.2020
2951 Clear 13 1021 54 16093 6.2 30 12:40 19.05.2020
2952 Clear 13 1020 62 16093 8.2 30 12:22 19.05.2020
2953 Clear 14 1020 62 16093 8.2 30 11:58 19.05.2020
2954 Clear 14 1020 62 16093 8.2 30 11:39 19.05.2020
2955 Clear 14 1020 62 16093 8.2 30 11:21 19.05.2020
2956 Clear 14 1020 67 16093 6.7 40 10:46 19.05.2020
2957 Clear 14 1020 67 16093 6.7 40 10:28 19.05.2020
2958 Clear 14 1019 67 16093 6.2 30 09:58 19.05.2020
2959 Clear 14 1019 67 16093 6.2 30 09:40 19.05.2020
2960 Clear 14 1019 67 16093 6.2 30 09:22 19.05.2020
2961 Clear 14 1019 71 16093 5.7 30 08:43 19.05.2020
2962 Clear 14 1019 71 16093 5.7 30 08:24 19.05.2020
2963 Clear 14 1019 76 16093 5.7 30 07:44 19.05.2020
2964 Clear 14 1019 76 16093 5.7 30 07:26 19.05.2020
2965 Clear 14 1020 71 16093 5.1 30 06:51 19.05.2020
2966 Clear 15 1020 71 16093 5.1 30 06:25 19.05.2020
2967 Clear 15 1020 67 16093 5.7 40 05:41 19.05.2020
2968 Clouds 15 1020 63 16093 5.7 40 04:56 19.05.2020
2969 Clouds 16 1020 63 16093 5.7 40 04:32 19.05.2020
2970 Clear 18 1019 48 16093 4.6 50 01:32 19.05.2020
2971 Clear 19 1019 52 16093 4.1 80 00:47 19.05.2020
2972 Clear 19 1019 52 16093 4.1 80 00:25 19.05.2020
2973 Clear 20 1020 49 16093 3.6 90 23:58 18.05.2020
2974 Clear 20 1020 49 16093 3.6 90 23:39 18.05.2020
2975 Clear 20 1020 49 16093 3.6 90 23:19 18.05.2020
2976 Clear 21 1020 43 16093 4.6 80 22:41 18.05.2020
2977 Clear 20 1020 43 16093 4.6 80 22:22 18.05.2020
2978 Clear 20 1020 46 16093 2.6 90 21:58 18.05.2020
2979 Clear 20 1020 46 16093 2.6 90 21:39 18.05.2020
2980 Clear 20 1020 46 16093 2.6 90 21:19 18.05.2020
2981 Clear 20 1021 43 16093 4.6 50 20:56 18.05.2020
2982 Clear 20 1021 43 16093 4.6 50 20:36 18.05.2020
2983 Clouds 20 1021 45 16093 3.1 30 20:18 18.05.2020
2984 Clouds 19 1021 45 16093 3.1 30 19:41 18.05.2020
2985 Clouds 19 1021 45 16093 3.1 30 19:19 18.05.2020
2986 Rain 19 1022 52 16093 2.6 60 18:46 18.05.2020
2987 Rain 18 1022 52 16093 2.6 60 18:25 18.05.2020
2988 Clouds 17 1022 52 16093 4.6 40 17:55 18.05.2020
2989 Clouds 17 1022 52 16093 4.6 40 17:37 18.05.2020
2990 Clouds 16 1022 59 16093 5.1 40 17:18 18.05.2020
2991 Clouds 16 1022 59 16093 5.1 40 16:55 18.05.2020
2992 Clouds 15 1022 59 16093 5.1 40 16:36 18.05.2020
2993 Clouds 15 1022 59 16093 5.1 40 16:18 18.05.2020
2994 Clouds 15 1022 71 16093 4.6 50 15:42 18.05.2020
2995 Clouds 14 1022 71 16093 4.6 50 15:23 18.05.2020
2996 Clouds 14 1022 67 16093 5.1 40 14:59 18.05.2020
2997 Clouds 14 1022 67 16093 5.1 40 14:39 18.05.2020
2998 Clouds 14 1022 67 16093 5.1 40 14:21 18.05.2020
2999 Clouds 13 1022 71 16093 4.6 40 13:54 18.05.2020
3000 Clouds 13 1022 71 16093 4.6 40 13:36 18.05.2020
3001 Clouds 13 1022 71 16093 2.6 60 13:18 18.05.2020
3002 Clouds 13 1022 71 16093 2.6 60 12:54 18.05.2020
3003 Clouds 13 1022 71 16093 2.6 60 12:36 18.05.2020
3004 Clouds 13 1022 71 16093 2.6 60 12:36 18.05.2020
3005 Clouds 13 1021 66 16093 2.6 50 12:18 18.05.2020
3006 Clouds 13 1021 66 16093 2.6 50 11:42 18.05.2020
3007 Clouds 13 1021 66 16093 2.6 50 11:23 18.05.2020
3008 Clouds 13 1022 71 16093 3.6 160 10:47 18.05.2020
3009 Clouds 13 1022 71 16093 3.6 160 10:27 18.05.2020
3010 Clouds 13 1022 71 16093 2.75 78 09:54 18.05.2020
3011 Clouds 13 1022 71 16093 2.75 78 09:36 18.05.2020
3012 Clouds 13 1022 71 16093 2.6 40 09:18 18.05.2020
3013 Clouds 13 1022 71 16093 2.6 40 08:42 18.05.2020
3014 Clouds 13 1022 71 16093 2.6 40 08:42 18.05.2020
3015 Clouds 13 1022 71 16093 2.6 40 08:23 18.05.2020
3016 Clouds 13 1023 71 16093 2.6 50 07:48 18.05.2020
3017 Clouds 13 1023 71 16093 2.6 50 07:26 18.05.2020
3018 Clouds 13 1023 71 16093 2.6 70 06:48 18.05.2020
3019 Clouds 13 1023 71 16093 2.6 70 06:25 18.05.2020
3020 Clouds 13 1024 71 16093 3.6 60 05:46 18.05.2020
3021 Clouds 13 1024 76 16093 2.6 160 04:26 18.05.2020
3022 Clouds 13 1024 71 16093 1.5 130 03:30 18.05.2020
3023 Clouds 15 1024 62 16093 3.1 170 01:58 18.05.2020
3024 Clouds 15 1024 63 16093 2.1 120 00:50 18.05.2020
3025 Clouds 16 1024 63 16093 2.1 120 00:22 18.05.2020
3026 Clear 16 1024 51 16093 3.1 140 23:56 17.05.2020
3027 Clear 17 1024 51 16093 3.1 140 23:38 17.05.2020
3028 Clear 17 1024 51 16093 3.1 140 23:19 17.05.2020
3029 Clear 17 1025 45 16093 3.6 200 22:55 17.05.2020
3030 Clear 18 1025 45 16093 3.6 200 22:36 17.05.2020
3031 Clear 18 1025 45 16093 3.6 200 22:18 17.05.2020
3032 Clear 18 1025 48 16093 6.2 180 21:42 17.05.2020
3033 Clear 18 1025 48 16093 6.2 180 21:20 17.05.2020
3034 Clear 19 1025 45 16093 4.6 180 20:59 17.05.2020
3035 Clear 19 1025 45 16093 4.6 180 20:40 17.05.2020
3036 Clear 19 1025 45 16093 4.6 180 20:20 17.05.2020
3037 Clouds 19 1026 45 16093 4.1 150 19:55 17.05.2020
3038 Clouds 19 1026 45 16093 4.1 150 19:37 17.05.2020
3039 Clouds 19 1026 45 16093 4.1 150 19:18 17.05.2020
3040 Clear 19 1026 39 16093 5.1 150 18:39 17.05.2020
3041 Clear 19 1026 39 16093 5.1 150 18:21 17.05.2020
3042 Clouds 18 1026 48 16093 2.6 150 17:56 17.05.2020
3043 Clouds 18 1026 48 16093 2.6 150 17:37 17.05.2020
3044 Clouds 17 1026 52 16093 3.6 110 17:18 17.05.2020
3045 Clouds 17 1026 52 16093 3.6 110 16:40 17.05.2020
3046 Clouds 17 1026 52 16093 3.6 110 16:20 17.05.2020
3047 Clouds 17 1026 52 16093 3.6 110 16:20 17.05.2020
3048 Clear 15 1027 62 16093 3.1 40 15:57 17.05.2020
3049 Clear 15 1027 62 16093 3.1 40 15:38 17.05.2020
3050 Clear 15 1027 62 16093 3.1 40 15:20 17.05.2020
3051 Clear 14 1026 67 16093 4.6 40 14:43 17.05.2020
3052 Clear 14 1026 67 16093 4.6 40 14:24 17.05.2020
3053 Clouds 14 1026 71 16093 3.6 60 13:59 17.05.2020
3054 Clouds 13 1026 71 16093 3.6 60 13:40 17.05.2020
3055 Clouds 13 1026 71 16093 3.6 60 13:40 17.05.2020
3056 Clouds 13 1025 71 16093 3.6 70 13:19 17.05.2020
3057 Clear 18 1022 55 16093 3.35 181 04:47 17.05.2020
3058 Clear 20 1020 49 16093 3.74 174 02:46 17.05.2020
3059 Clear 21 1020 46 16093 2.6 220 02:20 17.05.2020
3060 Clear 22 1020 46 16093 2.6 220 01:47 17.05.2020
3061 Clear 24 1019 41 16093 2.6 260 00:40 17.05.2020
3062 Clear 25 1019 41 16093 1.5 250 00:21 17.05.2020
3063 Clear 24 1019 41 16093 1.5 250 23:40 16.05.2020
3064 Clear 25 1019 41 16093 1.5 250 23:21 16.05.2020
3065 Clear 25 1019 36 16093 2.93 161 22:58 16.05.2020
3066 Clear 24 1019 36 16093 2.93 161 22:40 16.05.2020
3067 Clear 25 1019 36 16093 2.72 160 22:20 16.05.2020
3068 Clear 24 1019 38 16093 3.1 260 21:55 16.05.2020
3069 Clear 24 1019 38 16093 3.1 260 21:37 16.05.2020
3070 Clear 24 1019 38 16093 3.1 260 21:18 16.05.2020
3071 Clear 24 1019 38 16093 1.5 0 20:54 16.05.2020
3072 Clear 24 1019 38 16093 1.5 0 20:36 16.05.2020
3073 Clear 24 1019 38 16093 1.5 0 20:18 16.05.2020
3074 Clear 23 1019 40 16093 2.1 0 19:40 16.05.2020
3075 Clear 23 1019 40 16093 2.1 0 19:22 16.05.2020
3076 Clear 22 1018 46 16093 2.22 338 18:55 16.05.2020
3077 Clear 22 1018 46 16093 3.08 340 18:36 16.05.2020
3078 Clear 22 1018 46 16093 3.08 340 18:18 16.05.2020
3079 Clear 21 1018 49 16093 1.5 0 17:41 16.05.2020
3080 Clear 20 1018 52 16093 2.6 0 17:20 16.05.2020
3081 Clear 20 1018 52 16093 2.6 0 17:20 16.05.2020
3082 Clear 20 1018 52 16093 2.6 0 16:43 16.05.2020
3083 Clear 20 1018 52 16093 2.6 0 16:24 16.05.2020
3084 Clear 19 1017 63 16093 5.47 343 15:59 16.05.2020
3085 Clear 19 1017 63 16093 5.47 343 15:41 16.05.2020
3086 Clear 18 1017 63 16093 5.86 337 15:21 16.05.2020
3087 Clear 18 1016 68 16093 1.5 0 14:56 16.05.2020
3088 Clear 18 1016 68 16093 1.5 0 14:37 16.05.2020
3089 Clear 18 1016 68 16093 1.5 0 14:19 16.05.2020
3090 Clouds 18 1015 72 16093 1.5 0 13:42 16.05.2020
3091 Clouds 18 1015 72 16093 1.5 0 13:24 16.05.2020
3092 Clouds 18 1014 77 16093 5 324 12:59 16.05.2020
3093 Clouds 18 1014 77 16093 5 324 12:40 16.05.2020
3094 Clouds 18 1014 77 16093 5.23 322 12:19 16.05.2020
3095 Rain 19 1013 77 16093 5.23 322 11:42 16.05.2020
3096 Rain 19 1013 77 16093 5.99 323 11:23 16.05.2020
3097 Rain 19 1013 82 16093 1.5 0 10:58 16.05.2020
3098 Rain 20 1012 88 16093 2.1 250 10:39 16.05.2020
3099 Rain 20 1012 88 16093 2.1 250 10:21 16.05.2020
3100 Clouds 20 1012 73 16093 1.5 0 09:47 16.05.2020
3101 Clouds 20 1012 73 16093 1.5 0 09:29 16.05.2020
3102 Clouds 21 1012 73 16093 4.6 260 08:59 16.05.2020
3103 Clouds 21 1012 73 16093 4.6 260 08:40 16.05.2020
3104 Clouds 21 1012 73 16093 4.6 260 08:19 16.05.2020
3105 Rain 21 1012 73 16093 4.6 260 07:43 16.05.2020
3106 Rain 21 1012 73 16093 4.6 260 07:23 16.05.2020
3107 Rain 22 1011 68 16093 2.1 0 06:48 16.05.2020
3108 Rain 22 1011 68 16093 2.1 0 06:24 16.05.2020
3109 Rain 23 1011 60 16093 4.6 270 05:49 16.05.2020
3110 Rain 23 1011 60 16093 4.6 270 05:27 16.05.2020
3111 Clear 26 1009 53 16093 5.7 250 03:34 16.05.2020
3112 Clear 26 1010 44 16093 6.7 270 02:52 16.05.2020
3113 Clear 27 1010 39 16093 3.1 0 02:20 16.05.2020
3114 Clear 28 1010 44 16093 3.6 200 01:44 16.05.2020
3115 Clear 28 1010 44 16093 6.7 260 01:18 16.05.2020
3116 Clear 28 1011 50 16093 4.6 250 00:42 16.05.2020
3117 Clear 29 1012 39 16093 2.1 0 00:21 16.05.2020
3118 Clear 29 1012 39 16093 2.1 0 23:40 15.05.2020
3119 Clear 29 1012 39 16093 2.1 0 23:20 15.05.2020
3120 Clear 29 1012 39 16093 2.1 0 23:20 15.05.2020
3121 Clouds 29 1012 39 16093 3.1 0 22:57 15.05.2020
3122 Clouds 29 1012 39 16093 3.1 0 22:38 15.05.2020
3123 Clouds 29 1012 39 16093 3.1 0 22:18 15.05.2020
3124 Clear 29 1013 47 16093 4.6 260 21:40 15.05.2020
3125 Clouds 29 1013 48 16093 6.14 230 21:21 15.05.2020
3126 Clear 28 1014 44 16093 5.1 230 20:58 15.05.2020
3127 Clear 28 1014 44 16093 5.1 230 20:40 15.05.2020
3128 Clear 28 1014 44 16093 5.1 230 20:22 15.05.2020
3129 Clear 27 1014 53 16093 3.1 260 19:56 15.05.2020
3130 Clear 27 1014 53 16093 3.1 260 19:37 15.05.2020
3131 Clear 26 1014 53 16093 3.1 260 19:19 15.05.2020
3132 Clouds 25 1016 53 16093 5.35 244 18:43 15.05.2020
3133 Clouds 25 1016 53 16093 4.74 249 18:24 15.05.2020
3134 Clear 24 1016 64 16093 3.6 250 17:40 15.05.2020
3135 Clear 24 1016 64 16093 3.6 250 17:19 15.05.2020
3136 Clouds 22 1017 77 16093 3.1 230 16:57 15.05.2020
3137 Clouds 22 1017 77 16093 3.1 230 16:38 15.05.2020
3138 Rain 18 1017 82 12874 2.1 220 16:19 15.05.2020
3139 Clouds 19 1017 77 16093 2.1 280 15:55 15.05.2020
3140 Clouds 19 1017 77 16093 2.1 280 15:37 15.05.2020
3141 Rain 18 1017 77 16093 2.6 260 15:18 15.05.2020
3142 Clouds 18 1017 82 16093 3.6 250 14:42 15.05.2020
3143 Clouds 17 1017 82 16093 3.6 250 14:24 15.05.2020
3144 Clouds 16 1016 82 16093 2.1 280 13:58 15.05.2020
3145 Clouds 16 1016 82 16093 2.1 280 13:39 15.05.2020
3146 Clouds 16 1015 82 16093 2.6 270 13:20 15.05.2020
3147 Clouds 16 1015 82 16093 2.6 270 12:40 15.05.2020
3148 Clouds 16 1015 82 16093 2.6 270 12:40 15.05.2020
3149 Rain 16 1015 82 16093 2.6 270 12:19 15.05.2020
3150 Rain 16 1015 82 16093 2.6 270 12:19 15.05.2020
3151 Rain 16 1015 77 16093 2.1 260 11:57 15.05.2020
3152 Rain 16 1015 77 16093 2.1 260 11:39 15.05.2020
3153 Rain 16 1015 77 16093 2.1 260 11:21 15.05.2020
3154 Rain 16 1016 77 16093 3.1 270 10:59 15.05.2020
3155 Rain 16 1016 77 16093 3.1 270 10:40 15.05.2020
3156 Rain 16 1016 77 16093 3.1 270 10:21 15.05.2020
3157 Clouds 16 1016 72 16093 3.1 280 09:58 15.05.2020
3158 Clouds 16 1016 72 16093 3.1 280 09:37 15.05.2020
3159 Clouds 16 1016 72 16093 2.6 280 09:18 15.05.2020
3160 Clouds 16 1016 72 16093 2.6 280 08:56 15.05.2020
3161 Clouds 16 1016 72 16093 2.6 280 08:37 15.05.2020
3162 Clouds 16 1016 72 16093 2.6 280 08:18 15.05.2020
3163 Clouds 16 1018 67 16093 2.6 270 07:42 15.05.2020
3164 Clouds 16 1018 67 16093 2.6 270 07:24 15.05.2020
3165 Clouds 16 1018 67 16093 1.5 0 06:38 15.05.2020
3166 Clouds 17 1019 67 16093 2.1 250 05:49 15.05.2020
3167 Clouds 17 1019 63 16093 2.6 240 04:27 15.05.2020
3168 Clouds 17 1019 59 16093 2.6 230 03:45 15.05.2020
3169 Clouds 17 1019 52 16093 2.6 250 02:30 15.05.2020
3170 Clouds 17 1020 55 16093 5.24 177 01:20 15.05.2020
3171 Clouds 17 1020 52 16093 2.1 140 00:48 15.05.2020
3172 Clouds 17 1020 52 16093 2.1 140 00:29 15.05.2020
3173 Clear 17 1021 48 16093 4.6 140 23:44 14.05.2020
3174 Clear 18 1021 48 16093 4.6 140 23:24 14.05.2020
3175 Clear 18 1022 48 16093 2.6 0 22:59 14.05.2020
3176 Clear 18 1022 48 16093 2.6 0 22:40 14.05.2020
3177 Clear 18 1023 36 16093 2.6 130 22:19 14.05.2020
3178 Clear 18 1023 36 16093 2.6 130 21:57 14.05.2020
3179 Clear 18 1023 36 16093 2.6 130 21:39 14.05.2020
3180 Clear 18 1023 36 16093 2.6 130 21:19 14.05.2020
3181 Clear 18 1024 36 16093 2.6 110 20:55 14.05.2020
3182 Clear 18 1024 36 16093 2.6 110 20:55 14.05.2020
3183 Clear 18 1024 36 16093 2.6 110 20:36 14.05.2020
3184 Clear 18 1025 27 16093 5.1 170 20:18 14.05.2020
3185 Clear 18 1025 27 16093 5.1 170 19:41 14.05.2020
3186 Clear 17 1025 27 16093 5.1 170 19:21 14.05.2020
3187 Clear 17 1026 27 16093 2.6 190 18:58 14.05.2020
3188 Clear 17 1026 27 16093 2.6 190 18:38 14.05.2020
3189 Clear 17 1026 27 16093 2.6 190 18:20 14.05.2020
3190 Clear 17 1027 34 16093 2.1 200 17:59 14.05.2020
3191 Clear 17 1027 34 16093 2.1 200 17:38 14.05.2020
3192 Clear 17 1027 34 16093 2.1 200 17:19 14.05.2020
3193 Clear 16 1027 23 16093 3.56 168 16:59 14.05.2020
3194 Clear 16 1027 23 16093 3.56 168 16:39 14.05.2020
3195 Clear 15 1027 23 16093 1.87 122 16:20 14.05.2020
3196 Clear 14 1028 37 16093 2.6 40 15:57 14.05.2020
3197 Clear 14 1028 37 16093 2.6 40 15:39 14.05.2020
3198 Clear 12 1028 39 16093 3.1 40 15:19 14.05.2020
3199 Clear 12 1028 39 16093 3.1 40 14:56 14.05.2020
3200 Clear 12 1028 44 16093 3.1 40 14:37 14.05.2020
3201 Clear 12 1028 44 16093 3.1 40 14:19 14.05.2020
3202 Clear 10 1028 53 16093 1.58 41 13:55 14.05.2020
3203 Clear 10 1028 53 16093 1.58 41 13:37 14.05.2020
3204 Clear 9 1027 61 16093 1.82 28 13:18 14.05.2020
3205 Clear 9 1027 61 16093 1.82 28 12:55 14.05.2020
3206 Clear 8 1027 61 16093 2.18 25 12:36 14.05.2020
3207 Clear 8 1027 57 16093 2.18 25 12:18 14.05.2020
3208 Clear 8 1027 57 16093 1.97 18 11:42 14.05.2020
3209 Clear 8 1027 57 16093 1.97 18 11:24 14.05.2020
3210 Clear 9 1027 48 16093 2.1 270 10:58 14.05.2020
3211 Clear 9 1027 48 16093 2.1 270 10:40 14.05.2020
3212 Clear 9 1027 46 16093 2.1 270 10:21 14.05.2020
3213 Clear 9 1027 34 16093 1.77 10 09:43 14.05.2020
3214 Clear 9 1027 34 16093 1.28 6 09:24 14.05.2020
3215 Clear 9 1027 43 16093 2.6 270 08:56 14.05.2020
3216 Clear 10 1027 43 16093 2.6 270 08:37 14.05.2020
3217 Clear 10 1027 43 16093 2.6 270 08:18 14.05.2020
3218 Clear 10 1026 45 16093 2.6 270 07:44 14.05.2020
3219 Clear 11 1026 44 16093 2.6 270 07:21 14.05.2020
3220 Clear 11 1026 71 16093 1.72 12 06:43 14.05.2020
3221 Clear 11 1026 71 16093 2.66 3 06:23 14.05.2020
3222 Clear 12 1026 66 16093 2.66 3 05:37 14.05.2020
3223 Clear 12 1026 62 16093 3.29 353 04:45 14.05.2020
3224 Clear 13 1025 66 16093 4 357 03:39 14.05.2020
3225 Clear 14 1025 66 16093 4.1 354 03:19 14.05.2020
3226 Clear 14 1025 58 16093 2.6 150 02:35 14.05.2020
3227 Clear 15 1024 50 16093 3.1 130 01:49 14.05.2020
3228 Clear 17 1024 25 16093 1.5 0 00:53 14.05.2020
3229 Clear 18 1024 25 16093 1.5 0 00:27 14.05.2020
3230 Clouds 18 1023 22 16093 2.1 0 23:45 13.05.2020
3231 Clouds 18 1023 22 16093 2.1 0 23:25 13.05.2020
3232 Clouds 18 1024 25 16093 5.1 260 23:00 13.05.2020
3233 Clouds 17 1024 25 16093 5.1 260 22:41 13.05.2020
3234 Clouds 17 1024 25 16093 5.1 260 22:22 13.05.2020
3235 Clear 17 1024 23 16093 3.1 260 21:59 13.05.2020
3236 Clear 17 1024 23 16093 3.1 260 21:39 13.05.2020
3237 Clear 17 1024 23 16093 3.1 260 21:19 13.05.2020
3238 Clear 16 1025 25 16093 2.6 0 20:55 13.05.2020
3239 Clear 16 1025 25 16093 2.6 0 20:37 13.05.2020
3240 Clear 16 1025 25 16093 2.6 0 20:19 13.05.2020
3241 Clear 15 1026 25 16093 4.1 260 19:42 13.05.2020
3242 Clear 15 1026 25 16093 4.1 260 19:23 13.05.2020
3243 Clear 14 1026 28 16093 3.1 0 18:44 13.05.2020
3244 -273 0 0 0 0 0 18:22 13.05.2020
3245 Clear 13 1027 26 16093 3.1 240 18:21 13.05.2020
3246 Clear 13 1026 28 16093 3.1 0 18:21 13.05.2020
3247 Clear 12 1027 26 16093 3.1 240 17:39 13.05.2020
3248 Clear 12 1027 26 16093 3.1 240 17:20 13.05.2020
3249 Clear 11 1027 29 16093 3.1 230 16:56 13.05.2020
3250 Clear 11 1027 29 16093 3.1 230 16:38 13.05.2020
3251 Clear 10 1027 29 16093 3.1 230 16:18 13.05.2020
3252 Clear 9 1027 45 16093 3.1 0 15:42 13.05.2020
3253 Clear 8 1027 45 16093 3.1 0 15:20 13.05.2020
3254 Clear 8 1027 48 16093 2.1 0 14:58 13.05.2020
3255 Clear 7 1027 48 16093 2.1 0 14:40 13.05.2020
3256 Clear 7 1027 48 16093 2.1 0 14:22 13.05.2020
3257 Clear 6 1026 52 16093 2.6 0 13:57 13.05.2020
3258 Clear 6 1026 52 16093 2.6 0 13:39 13.05.2020
3259 Clear 6 1026 52 16093 2.6 0 13:20 13.05.2020
3260 Clear 5 1026 52 16093 2.1 250 12:56 13.05.2020
3261 Clear 5 1026 52 16093 2.1 250 12:37 13.05.2020
3262 Clear 5 1025 48 16093 2.1 0 12:18 13.05.2020
3263 Clear 5 1025 48 16093 2.1 0 11:54 13.05.2020
3264 Clear 5 1025 48 16093 2.1 0 11:36 13.05.2020
3265 Clear 6 1025 48 16093 2.1 0 11:18 13.05.2020
3266 Clear 6 1024 48 16093 2.1 0 10:55 13.05.2020
3267 Clear 6 1024 48 16093 2.1 0 10:37 13.05.2020
3268 Clear 6 1024 48 16093 2.1 0 10:18 13.05.2020
3269 Clear 7 1024 49 16093 2.1 270 09:41 13.05.2020
3270 Clear 7 1024 49 16093 2.1 270 09:22 13.05.2020
3271 Clear 7 1023 49 16093 1.5 0 08:54 13.05.2020
3272 Clear 7 1023 49 16093 1.5 0 08:36 13.05.2020
3273 Clear 7 1023 49 16093 1.5 0 08:18 13.05.2020
3274 Clear 8 1023 45 16093 3.6 200 07:42 13.05.2020
3275 Clear 9 1023 45 16093 3.6 200 07:24 13.05.2020
3276 Clouds 10 1022 40 16093 2.1 280 06:47 13.05.2020
3277 Clouds 11 1021 34 16093 1.5 0 05:59 13.05.2020
3278 Clouds 12 1020 28 16093 1.5 0 04:49 13.05.2020
3279 Clouds 12 1019 32 16093 5.45 297 03:26 13.05.2020
3280 Clouds 13 1018 24 16093 1.5 0 02:27 13.05.2020
3281 Clouds 14 1017 19 16093 5.76 291 01:36 13.05.2020
3282 Clear 15 1017 19 16093 3.6 350 00:47 13.05.2020
3283 Clouds 15 1016 19 16093 2.1 0 00:20 13.05.2020
3284 Clouds 15 1016 19 16093 1.5 0 23:40 12.05.2020
3285 Clouds 15 1016 19 16093 1.5 0 23:40 12.05.2020
3286 Clouds 15 1016 19 16093 1.5 0 23:40 12.05.2020
3287 Clouds 15 1016 19 16093 1.5 0 23:21 12.05.2020
3288 Clear 15 1016 15 16093 5.7 290 22:58 12.05.2020
3289 Clear 15 1016 15 16093 5.7 290 22:39 12.05.2020
3290 Clear 15 1016 15 16093 5.7 290 22:21 12.05.2020
3291 Clear 15 1016 19 16093 1.5 0 21:55 12.05.2020
3292 Clear 15 1016 19 16093 1.5 0 21:37 12.05.2020
3293 Clear 15 1016 19 16093 1.5 0 21:18 12.05.2020
3294 Clear 15 1016 25 16093 2.1 0 20:57 12.05.2020
3295 Clear 14 1017 17 16093 6.7 270 20:38 12.05.2020
3296 Clear 14 1017 24 16093 2.1 0 20:20 12.05.2020
3297 Clear 14 1016 30 16093 3.6 250 19:56 12.05.2020
3298 Clear 14 1016 30 16093 3.6 250 19:37 12.05.2020
3299 Clear 13 1017 30 16093 3.1 0 19:19 12.05.2020
3300 Clear 13 1017 30 16093 3.1 0 18:43 12.05.2020
3301 Clear 13 1017 30 16093 3.1 0 18:24 12.05.2020
3302 Clouds 12 1017 32 16093 2.1 0 17:58 12.05.2020
3303 Clouds 12 1017 32 16093 2.1 0 17:39 12.05.2020
3304 Clear 11 1018 29 16093 6.7 280 17:21 12.05.2020
3305 Clear 11 1018 32 16093 2.1 0 16:43 12.05.2020
3306 Clouds 11 1018 29 16093 10.3 310 16:23 12.05.2020
3307 Clear 10 1018 39 16093 2.1 0 15:56 12.05.2020
3308 Clear 10 1018 39 16093 2.1 0 15:37 12.05.2020
3309 Clear 9 1018 39 16093 2.1 0 15:18 12.05.2020
3310 Clear 9 1018 39 16093 2.1 0 15:18 12.05.2020
3311 Clouds 8 1017 53 16093 4.1 270 14:55 12.05.2020
3312 Clouds 8 1017 55 16093 4.1 270 14:36 12.05.2020
3313 Clouds 8 1017 62 16093 4.1 270 14:18 12.05.2020
3314 Clouds 8 1017 61 16093 2.6 0 13:57 12.05.2020
3315 Clouds 8 1017 61 16093 2.6 0 13:39 12.05.2020
3316 Clouds 8 1017 61 16093 2.6 0 13:19 12.05.2020
3317 Clouds 7 1016 65 16093 2.6 0 12:57 12.05.2020
3318 Clouds 6 1016 65 16093 2.6 0 12:39 12.05.2020
3319 Clouds 6 1016 65 16093 2.6 0 12:21 12.05.2020
3320 Clouds 7 1016 65 16093 7.32 311 11:57 12.05.2020
3321 Clouds 6 1016 65 16093 7.32 311 11:38 12.05.2020
3322 Clouds 7 1016 65 16093 6.95 312 11:20 12.05.2020
3323 Clouds 7 1015 65 16093 1.5 0 10:56 12.05.2020
3324 Clouds 7 1016 64 16093 2.6 280 10:38 12.05.2020
3325 Clouds 6 1015 70 16093 2.1 0 10:19 12.05.2020
3326 Clouds 7 1015 70 16093 2.1 0 09:57 12.05.2020
3327 Clouds 7 1015 70 16093 2.1 0 09:38 12.05.2020
3328 Clouds 7 1015 70 16093 2.1 0 09:20 12.05.2020
3329 Clear 7 1015 65 16093 6.82 308 08:42 12.05.2020
3330 Clear 7 1015 65 16093 6.81 312 08:22 12.05.2020
3331 Clear 7 1015 61 16093 1.5 0 07:58 12.05.2020
3332 Clear 7 1015 61 16093 1.5 0 07:40 12.05.2020
3333 Clear 7 1015 61 16093 1.5 0 07:20 12.05.2020
3334 Clear 7 1015 61 16093 2.6 0 06:38 12.05.2020
3335 Clear 7 1015 61 16093 2.6 0 06:20 12.05.2020
3336 Clear 8 1014 57 16093 1.5 0 05:46 12.05.2020
3337 Clouds 9 1014 61 16093 2.1 0 04:41 12.05.2020
3338 Clouds 10 1013 57 16093 3.1 0 03:24 12.05.2020
3339 Clouds 11 1011 58 16093 1.5 0 02:28 12.05.2020
3340 Clouds 12 1010 54 16093 2.1 0 01:56 12.05.2020
3341 Rain 12 1010 62 16093 5.7 260 01:20 12.05.2020
3342 Rain 13 1010 62 16093 5.7 260 00:25 12.05.2020
3343 Clouds 13 1009 50 16093 13.4 260 23:58 11.05.2020
3344 Clouds 13 1009 50 16093 13.4 260 23:40 11.05.2020
3345 Rain 14 1009 50 16093 6.2 260 23:20 11.05.2020
3346 Rain 14 1009 50 16093 6.2 260 22:58 11.05.2020
3347 Clouds 15 1009 50 16093 6.2 260 22:40 11.05.2020
3348 Clouds 15 1009 50 16093 6.2 260 22:19 11.05.2020
3349 Rain 15 1009 41 16093 2.6 260 21:57 11.05.2020
3350 Rain 15 1009 41 16093 2.6 260 21:38 11.05.2020
3351 Rain 16 1009 41 16093 2.6 260 21:19 11.05.2020
3352 Rain 16 1009 41 16093 2.6 260 21:19 11.05.2020
3353 Rain 15 1009 71 16093 2.6 230 20:57 11.05.2020
3354 Rain 15 1009 71 16093 2.6 230 20:38 11.05.2020
3355 Rain 14 1010 71 16093 5.1 230 20:19 11.05.2020
3356 Rain 14 1010 71 16093 5.1 230 19:54 11.05.2020
3357 Rain 14 1010 71 16093 5.1 230 19:36 11.05.2020
3358 Rain 14 1010 71 16093 5.1 230 19:18 11.05.2020
3359 Clouds 13 1011 66 16093 3.1 260 18:55 11.05.2020
3360 Clouds 13 1011 66 16093 3.1 260 18:36 11.05.2020
3361 Clouds 13 1011 71 16093 2.6 240 18:18 11.05.2020
3362 Clouds 13 1011 66 16093 3.1 260 18:18 11.05.2020
3363 Clouds 13 1011 71 16093 2.6 240 17:41 11.05.2020
3364 Rain 12 1012 76 16093 1.5 0 17:22 11.05.2020
3365 Rain 12 1012 76 16093 1.5 0 16:59 11.05.2020
3366 Rain 11 1012 76 16093 1.5 0 16:39 11.05.2020
3367 Rain 11 1013 76 16093 5.7 240 16:21 11.05.2020
3368 Rain 11 1013 76 16093 5.7 240 15:57 11.05.2020
3369 Rain 11 1013 76 16093 5.7 240 15:39 11.05.2020
3370 Clouds 11 1013 76 16093 5.7 240 15:18 11.05.2020
3371 Clouds 11 1012 71 16093 4.6 250 14:42 11.05.2020
3372 Clouds 11 1012 71 16093 4.6 250 14:42 11.05.2020
3373 Clouds 11 1012 71 16093 4.6 250 14:23 11.05.2020
3374 Clear 11 1012 71 16093 2.1 260 13:59 11.05.2020
3375 Clear 11 1012 71 16093 2.1 260 13:41 11.05.2020
3376 Clear 10 1012 71 16093 2.1 260 13:19 11.05.2020
3377 Clouds 10 1012 76 16093 4.28 232 12:58 11.05.2020
3378 Clouds 10 1012 76 16093 4.28 232 12:39 11.05.2020
3379 Clouds 9 1012 76 16093 3.09 219 12:21 11.05.2020
3380 Clouds 9 1012 71 16093 2.1 280 11:56 11.05.2020
3381 Clouds 9 1012 71 16093 2.1 280 11:37 11.05.2020
3382 Clouds 9 1012 71 16093 2.1 280 11:19 11.05.2020
3383 Clear 10 1013 66 16093 2.6 280 10:55 11.05.2020
3384 Clear 10 1013 66 16093 2.6 280 10:36 11.05.2020
3385 Clear 10 1014 62 16093 2.6 250 10:18 11.05.2020
3386 Clear 10 1014 62 16093 2.6 250 09:54 11.05.2020
3387 Clear 10 1014 62 16093 2.6 250 09:36 11.05.2020
3388 Clear 10 1014 62 16093 2.6 250 09:18 11.05.2020
3389 Clear 11 1015 58 16093 3.1 260 08:39 11.05.2020
3390 Clear 11 1015 58 16093 3.1 260 08:19 11.05.2020
3391 Clear 11 1015 54 16093 4.1 260 07:50 11.05.2020
3392 Clear 11 1015 54 16093 4.1 260 07:32 11.05.2020
3393 Clear 11 1015 54 16093 4.1 260 07:32 11.05.2020
3394 Clear 12 1016 47 16093 3.6 250 06:55 11.05.2020
3395 Clear 12 1016 47 16093 3.6 250 06:31 11.05.2020
3396 Clear 13 1016 47 16093 5.1 250 05:44 11.05.2020
3397 Clear 13 1016 47 16093 5.1 250 05:19 11.05.2020
3398 Clear 14 1015 44 16093 4.1 260 03:47 11.05.2020
3399 Clear 15 1015 38 16093 6.7 240 02:35 11.05.2020
3400 Clear 16 1015 43 16093 6.2 260 01:55 11.05.2020
3401 Clear 17 1015 41 16093 7.2 260 00:54 11.05.2020
3402 Clear 18 1015 37 16093 7.2 260 00:28 11.05.2020
3403 Clear 18 1015 37 16093 6.2 250 23:59 10.05.2020
3404 Clear 18 1015 35 16093 6.2 250 23:39 10.05.2020
3405 Clear 18 1015 35 16093 6.2 250 23:19 10.05.2020
3406 Clear 18 1016 29 16093 6.7 260 22:54 10.05.2020
3407 Clear 18 1016 29 16093 6.7 260 22:36 10.05.2020
3408 Clear 17 1017 27 16093 7.2 260 22:18 10.05.2020
3409 Clear 17 1017 27 16093 7.2 260 21:41 10.05.2020
3410 Clear 17 1017 27 16093 7.2 260 21:18 10.05.2020
3411 Clear 17 1018 31 16093 9.3 250 20:42 10.05.2020
3412 Clear 17 1018 31 16093 9.3 250 20:24 10.05.2020
3413 Clear 16 1018 29 16093 8.7 270 19:56 10.05.2020
3414 Clear 16 1018 29 16093 8.7 270 19:38 10.05.2020
3415 Clear 15 1019 33 16093 7.7 260 19:20 10.05.2020
3416 Clear 16 1018 29 16093 8.7 270 19:20 10.05.2020
3417 Clear 15 1019 33 16093 7.7 260 18:55 10.05.2020
3418 Clear 15 1019 33 16093 7.7 260 18:36 10.05.2020
3419 Clear 14 1019 33 16093 7.7 260 18:18 10.05.2020
3420 Clear 13 1020 35 16093 7.2 260 17:57 10.05.2020
3421 Clear 13 1020 35 16093 7.2 260 17:39 10.05.2020
3422 Clear 12 1020 40 16093 6.7 270 17:20 10.05.2020
3423 Clear 11 1020 40 16093 6.7 270 16:44 10.05.2020
3424 Clear 11 1020 40 16093 6.7 270 16:21 10.05.2020
3425 Clear 9 1020 45 16093 7.2 260 15:58 10.05.2020
3426 Clear 9 1020 45 16093 7.2 260 15:40 10.05.2020
3427 Clear 8 1020 48 16093 6.7 270 15:22 10.05.2020
3428 Clear 7 1020 48 16093 6.7 270 14:56 10.05.2020
3429 Clear 7 1020 48 16093 6.7 270 14:38 10.05.2020
3430 Clear 6 1020 48 16093 6.7 270 14:19 10.05.2020
3431 Clear 5 1020 60 16093 6.7 260 13:58 10.05.2020
3432 Clear 5 1020 60 16093 6.7 260 13:37 10.05.2020
3433 Clear 4 1019 60 16093 7.2 260 13:19 10.05.2020
3434 Clear 4 1019 60 16093 7.2 260 12:56 10.05.2020
3435 Clear 4 1019 60 16093 7.2 260 12:37 10.05.2020
3436 Clear 4 1018 55 16093 6.7 260 12:19 10.05.2020
3437 Clear 4 1018 55 16093 6.7 260 11:54 10.05.2020
3438 Clear 4 1018 55 16093 6.7 260 11:36 10.05.2020
3439 Clear 4 1018 55 16093 6.7 260 11:18 10.05.2020
3440 Clear 4 1019 52 16093 6.2 270 10:42 10.05.2020
3441 Clear 4 1019 52 16093 6.2 270 10:24 10.05.2020
3442 Clouds 4 1019 52 16093 6.7 260 09:56 10.05.2020
3443 Clouds 4 1019 52 16093 6.7 260 09:38 10.05.2020
3444 Clouds 4 1019 52 16093 6.7 260 09:19 10.05.2020
3445 Clear 4 1019 48 16093 6.2 260 08:44 10.05.2020
3446 Clear 5 1019 48 16093 6.2 260 08:23 10.05.2020
3447 Clear 5 1020 52 16093 6.2 270 07:44 10.05.2020
3448 Clear 5 1020 52 16093 6.2 270 07:19 10.05.2020
3449 Clouds 5 1019 56 16093 5.7 270 06:52 10.05.2020
3450 Clouds 5 1019 56 16093 5.7 270 06:30 10.05.2020
3451 Clear 5 1019 52 16093 1.5 0 05:48 10.05.2020
3452 Clouds 6 1018 48 16093 2.6 0 04:50 10.05.2020
3453 Clouds 6 1018 48 16093 2.6 0 04:31 10.05.2020
3454 Clouds 6 1017 52 16093 1.5 0 03:54 10.05.2020
3455 Clouds 6 1017 52 16093 1.5 0 03:36 10.05.2020
3456 Clouds 6 1015 56 16093 1.5 0 02:41 10.05.2020
3457 Clouds 6 1015 56 16093 1.5 0 02:19 10.05.2020
3458 Clouds 6 1014 48 16093 4.1 270 01:42 10.05.2020
3459 Clouds 6 1014 48 16093 4.1 270 01:19 10.05.2020
3460 Clouds 7 1014 45 16093 2.1 0 00:54 10.05.2020
3461 Clouds 7 1014 45 16093 2.1 0 00:24 10.05.2020
3462 Clouds 7 1012 36 16093 4.1 250 23:59 09.05.2020
3463 Clouds 8 1012 36 16093 4.1 250 23:39 09.05.2020
3464 Clouds 8 1012 36 16093 6.7 270 23:20 09.05.2020
3465 Clouds 8 1012 36 16093 6.7 270 22:43 09.05.2020
3466 Clouds 8 1012 36 16093 6.7 270 22:24 09.05.2020
3467 Clouds 8 1012 31 16093 9.3 260 21:58 09.05.2020
3468 Clouds 8 1012 31 16093 9.3 260 21:40 09.05.2020
3469 Clouds 8 1012 31 16093 9.3 260 21:21 09.05.2020
3470 Clouds 8 1012 34 16093 3.1 0 20:58 09.05.2020
3471 Clouds 8 1012 33 16093 4.1 300 20:38 09.05.2020
3472 Clouds 8 1012 30 16093 5.7 300 20:20 09.05.2020
3473 Clouds 8 1012 34 16093 2.6 0 19:56 09.05.2020
3474 Clouds 8 1012 34 16093 2.6 0 19:38 09.05.2020
3475 Clouds 8 1012 42 16093 2.1 0 19:19 09.05.2020
3476 Clouds 7 1012 42 16093 2.1 0 18:44 09.05.2020
3477 Clouds 7 1012 42 16093 2.1 0 18:26 09.05.2020
3478 Rain 6 1012 42 16093 3.1 0 17:56 09.05.2020
3479 Clear 6 1012 38 16093 5.1 290 17:36 09.05.2020
3480 Clear 5 1011 45 16093 2.6 0 17:18 09.05.2020
3481 Clouds 4 1011 38 16093 10.8 290 16:41 09.05.2020
3482 Clouds 4 1011 55 16093 2.1 0 16:19 09.05.2020
3483 Clouds 3 1011 55 16093 2.1 0 15:45 09.05.2020
3484 Clouds 3 1011 44 16093 5.1 280 15:26 09.05.2020
3485 Clear 3 1010 55 16093 3.6 20 14:59 09.05.2020
3486 Clear 2 1010 55 16093 3.6 20 14:40 09.05.2020
3487 Clear 2 1010 55 16093 3.6 20 14:19 09.05.2020
3488 Clear 2 1009 55 16093 3.6 290 13:57 09.05.2020
3489 Clear 2 1009 55 16093 3.6 290 13:39 09.05.2020
3490 Clear 2 1009 55 16093 3.6 290 13:20 09.05.2020
3491 Clear 1 1009 55 16093 2.6 0 12:42 09.05.2020
3492 Clear 1 1009 55 16093 2.6 0 12:22 09.05.2020
3493 Clear 2 1008 59 16093 1.5 0 11:56 09.05.2020
3494 Clear 2 1008 59 16093 1.5 0 11:37 09.05.2020
3495 Clouds 2 1007 69 16093 1.5 0 11:18 09.05.2020
3496 Clouds 2 1007 69 16093 1.5 0 10:43 09.05.2020
3497 Clouds 2 1007 69 16093 1.5 0 10:25 09.05.2020
3498 Clouds 3 1005 74 16093 2.1 0 09:57 09.05.2020
3499 Clouds 3 1005 74 16093 2.1 0 09:38 09.05.2020
3500 Clouds 3 1005 80 16093 3.6 300 09:19 09.05.2020
3501 Clouds 3 1005 80 16093 3.6 300 08:51 09.05.2020
3502 Rain 3 1005 80 16093 3.6 300 08:31 09.05.2020
3503 Rain 2 1004 86 9656 4.6 310 07:50 09.05.2020
3504 Rain 2 1004 86 9656 4.6 310 07:31 09.05.2020
3505 Rain 3 1003 86 8047 6.2 290 06:54 09.05.2020
3506 Rain 5 1002 93 16093 2.1 0 06:25 09.05.2020
3507 Rain 6 1002 93 16093 10.06 322 05:46 09.05.2020
3508 Rain 7 1003 93 6437 1.5 30 03:59 09.05.2020
3509 Mist 7 1003 93 6437 1.5 30 03:38 09.05.2020
3510 Rain 7 1004 75 12874 2.6 80 02:42 09.05.2020
3511 Rain 8 1004 70 16093 2.1 100 01:54 09.05.2020
3512 Rain 8 1004 70 16093 2.1 100 01:24 09.05.2020
3513 Rain 9 1005 61 16093 3.1 110 00:55 09.05.2020
3514 Rain 9 1005 61 16093 3.1 110 00:37 09.05.2020
3515 Rain 9 1006 70 16093 3.6 120 23:54 08.05.2020
3516 Rain 9 1006 70 16093 3.6 120 23:36 08.05.2020
3517 Rain 9 1007 76 16093 2.1 0 23:18 08.05.2020
3518 Rain 9 1007 76 16093 2.1 0 22:54 08.05.2020
3519 Rain 9 1007 76 16093 2.1 30 22:36 08.05.2020
3520 Rain 9 1007 76 16093 2.1 30 22:18 08.05.2020
3521 Rain 9 1009 70 16093 2.1 250 21:42 08.05.2020
3522 Rain 9 1009 70 16093 2.1 250 21:19 08.05.2020
3523 Rain 9 1009 70 11265 4.41 147 20:59 08.05.2020
3524 Rain 9 1009 70 11265 4.41 147 20:40 08.05.2020
3525 Rain 9 1009 70 11265 3.59 144 20:22 08.05.2020
3526 Rain 10 1010 53 16093 2.6 230 19:46 08.05.2020
3527 Rain 10 1010 53 16093 2.6 230 19:24 08.05.2020
3528 Clouds 11 1011 40 16093 2.6 280 18:58 08.05.2020
3529 Clouds 11 1011 40 16093 2.6 280 18:40 08.05.2020
3530 Clouds 11 1011 40 16093 2.6 280 18:22 08.05.2020
3531 Clouds 12 1011 37 16093 1.5 140 17:42 08.05.2020
3532 Clouds 12 1011 37 16093 1.5 140 17:19 08.05.2020
3533 Clouds 11 1012 40 16093 3.6 250 16:54 08.05.2020
3534 Clouds 11 1012 40 16093 3.6 250 16:36 08.05.2020
3535 Clouds 11 1012 40 16093 3.6 250 16:18 08.05.2020
3536 Clouds 10 1012 40 16093 3.6 230 15:42 08.05.2020
3537 Clouds 10 1012 40 16093 3.6 230 15:20 08.05.2020
3538 Clouds 10 1012 39 16093 3.1 260 14:55 08.05.2020
3539 Clouds 10 1012 39 16093 3.1 260 14:37 08.05.2020
3540 Clouds 9 1012 39 16093 3.1 260 14:18 08.05.2020
3541 Clouds 9 1012 39 16093 1.5 270 13:41 08.05.2020
3542 Clouds 9 1012 39 16093 1.5 270 13:20 08.05.2020
3543 Clouds 9 1012 34 16093 2.1 240 12:56 08.05.2020
3544 Clouds 9 1012 34 16093 2.1 240 12:38 08.05.2020
3545 Clouds 9 1012 34 16093 2.1 240 12:20 08.05.2020
3546 Clouds 9 1011 34 16093 3.04 326 12:20 08.05.2020
3547 Clouds 9 1011 34 16093 3.04 326 11:44 08.05.2020
3548 Clouds 10 1011 34 16093 4.04 322 11:23 08.05.2020
3549 Clouds 10 1011 43 16093 1.5 0 10:59 08.05.2020
3550 Clouds 10 1011 43 16093 1.5 0 10:40 08.05.2020
3551 Clouds 10 1011 54 16093 4.32 314 10:19 08.05.2020
3552 Clouds 11 1011 54 16093 4.32 314 09:56 08.05.2020
3553 Clouds 11 1011 54 16093 4.32 314 09:38 08.05.2020
3554 Clouds 11 1011 54 16093 5.46 316 09:18 08.05.2020
3555 Clouds 12 1010 54 16093 2.1 180 08:42 08.05.2020
3556 Clouds 12 1010 54 16093 2.1 180 08:22 08.05.2020
3557 Clouds 14 1010 47 16093 2.6 0 07:43 08.05.2020
3558 Clouds 14 1010 47 16093 2.6 0 07:24 08.05.2020
3559 Clouds 15 1009 38 16093 2.1 0 06:51 08.05.2020
3560 Clouds 15 1009 38 16093 2.1 0 06:24 08.05.2020
3561 Clouds 15 1009 44 16093 5.7 260 05:51 08.05.2020
3562 Clouds 15 1009 44 16093 4.1 260 04:38 08.05.2020
3563 Clouds 17 1008 36 16093 6.2 270 02:34 08.05.2020
3564 Clouds 17 1007 29 16093 6.7 270 01:56 08.05.2020
3565 Clouds 18 1007 29 16093 6.7 270 01:28 08.05.2020
3566 Rain 19 1007 22 16093 6.2 260 00:53 08.05.2020
3567 Rain 18 1007 22 16093 6.2 260 00:32 08.05.2020
3568 Clouds 19 1007 16 16093 4.1 250 23:59 07.05.2020
3569 Clouds 19 1007 16 16093 4.1 250 23:40 07.05.2020
3570 Clouds 19 1007 17 16093 6.06 256 23:22 07.05.2020
3571 Clouds 19 1007 19 16093 6.2 260 22:57 07.05.2020
3572 Clouds 20 1007 19 16093 6.2 260 22:39 07.05.2020
3573 Clouds 19 1007 22 16093 3.1 0 22:19 07.05.2020
3574 Clouds 19 1007 22 16093 3.1 0 21:55 07.05.2020
3575 Clouds 19 1007 22 16093 3.1 0 21:37 07.05.2020
3576 Clouds 18 1007 22 16093 3.1 0 21:19 07.05.2020
3577 Clear 18 1008 20 16093 6.2 250 20:42 07.05.2020
3578 Clouds 18 1008 23 16093 4.1 250 20:23 07.05.2020
3579 Clouds 18 1008 23 16093 4.1 250 19:58 07.05.2020
3580 Clouds 18 1008 23 16093 4.1 250 19:40 07.05.2020
3581 Clear 17 1009 27 16093 2.1 0 19:21 07.05.2020
3582 Clear 17 1009 27 16093 2.1 0 18:45 07.05.2020
3583 Clear 16 1009 27 16093 2.1 0 18:27 07.05.2020
3584 Clear 15 1009 36 16093 1.5 0 17:57 07.05.2020
3585 Clear 15 1009 36 16093 1.5 0 17:37 07.05.2020
3586 Clear 15 1009 36 16093 1.5 0 17:18 07.05.2020
3587 Clear 14 1009 41 16093 1.5 0 16:40 07.05.2020
3588 Clear 14 1009 41 16093 1.5 0 16:18 07.05.2020
3589 Clear 12 1009 53 16093 2.6 250 15:56 07.05.2020
3590 Clear 12 1009 53 16093 2.6 250 15:37 07.05.2020
3591 Clear 11 1009 53 16093 2.6 250 15:18 07.05.2020
3592 Clear 11 1009 61 16093 5.75 332 15:18 07.05.2020
3593 Clear 10 1009 61 16093 5.75 332 14:45 07.05.2020
3594 Clouds 9 1008 66 16093 1.5 0 14:22 07.05.2020
3595 Clouds 9 1008 66 16093 1.5 0 14:22 07.05.2020
3596 Clouds 9 1008 66 16093 1.5 0 13:54 07.05.2020
3597 Clouds 9 1008 66 16093 1.5 0 13:36 07.05.2020
3598 Clouds 9 1008 66 16093 1.5 0 13:18 07.05.2020
3599 Clouds 8 1008 66 16093 2.1 230 12:39 07.05.2020
3600 Clouds 8 1008 66 16093 2.1 230 12:19 07.05.2020
3601 Clouds 8 1007 66 16093 1.5 0 11:39 07.05.2020
3602 Clouds 8 1007 70 16093 2.1 250 11:21 07.05.2020
3603 Clouds 8 1007 70 16093 2.1 250 10:55 07.05.2020
3604 Clouds 8 1007 70 16093 2.1 250 10:37 07.05.2020
3605 Clouds 8 1007 70 16093 2.1 250 10:18 07.05.2020
3606 Clouds 8 1008 76 16093 2.6 250 09:39 07.05.2020
3607 Clouds 8 1008 81 16093 2.6 240 09:19 07.05.2020
3608 Clouds 8 1008 81 16093 2.6 240 08:45 07.05.2020
3609 Clouds 8 1008 81 16093 2.6 240 08:23 07.05.2020
3610 Clouds 8 1008 81 16093 3.1 250 07:58 07.05.2020
3611 Clouds 8 1008 81 16093 3.1 250 07:40 07.05.2020
3612 Clouds 8 1008 81 16093 3.1 250 07:20 07.05.2020
3613 Clouds 8 1009 81 16093 3.1 260 06:38 07.05.2020
3614 Clouds 8 1009 87 16093 2.6 250 06:19 07.05.2020
3615 Clouds 8 1010 81 16093 3.6 260 04:41 07.05.2020
3616 Clouds 8 1010 87 16093 1.5 0 03:40 07.05.2020
3617 Clouds 8 1010 87 16093 1.5 0 03:18 07.05.2020
3618 Rain 8 1009 87 16093 2.1 0 02:36 07.05.2020
3619 Rain 8 1009 81 16093 1.5 150 01:38 07.05.2020
3620 Rain 8 1009 81 16093 1.5 150 01:20 07.05.2020
3621 Rain 8 1009 81 16093 3.1 30 00:43 07.05.2020
3622 Rain 8 1009 81 16093 3.1 30 00:23 07.05.2020
3623 Rain 9 1009 76 16093 5.1 70 23:45 06.05.2020
3624 Rain 8 1009 76 16093 5.1 70 23:23 06.05.2020
3625 Rain 9 1009 76 16093 5.1 60 22:56 06.05.2020
3626 Rain 9 1009 76 16093 2.6 10 22:38 06.05.2020
3627 Rain 9 1009 76 16093 2.6 10 22:38 06.05.2020
3628 Rain 9 1009 76 16093 2.6 10 22:38 06.05.2020
3629 Rain 9 1009 76 16093 2.6 10 22:19 06.05.2020
3630 Rain 9 1009 81 14484 4.1 40 21:56 06.05.2020
3631 Rain 9 1010 76 12874 3.6 90 21:37 06.05.2020
3632 Rain 10 1009 62 16093 6.2 30 21:18 06.05.2020
3633 Rain 10 1009 62 16093 2.6 40 20:42 06.05.2020
3634 Rain 10 1009 62 16093 2.6 40 20:22 06.05.2020
3635 Rain 10 1009 62 16093 2.6 40 20:22 06.05.2020
3636 Rain 10 1009 66 16093 3.1 30 19:57 06.05.2020
3637 Rain 10 1010 71 16093 3.1 40 19:38 06.05.2020
3638 Rain 10 1010 71 16093 3.1 40 19:19 06.05.2020
3639 Rain 10 1010 71 16093 5.1 40 18:58 06.05.2020
3640 Clouds 11 1010 71 16093 5.1 40 18:38 06.05.2020
3641 Clouds 11 1010 71 16093 5.1 40 18:20 06.05.2020
3642 Clouds 11 1011 62 16093 6.7 50 17:58 06.05.2020
3643 Clouds 11 1011 62 16093 6.7 50 17:39 06.05.2020
3644 Clouds 11 1011 54 16093 6.7 50 17:21 06.05.2020
3645 Clouds 11 1012 57 16093 3.6 50 16:58 06.05.2020
3646 Clouds 11 1012 57 16093 3.6 50 16:40 06.05.2020
3647 Clouds 11 1011 54 16093 6.7 50 16:20 06.05.2020
3648 Clouds 11 1012 54 16093 6.7 40 15:58 06.05.2020
3649 Clouds 11 1012 54 16093 6.7 40 15:40 06.05.2020
3650 Clouds 11 1012 57 16093 6.7 50 15:20 06.05.2020
3651 Clouds 10 1012 57 16093 6.7 50 14:42 06.05.2020
3652 Clouds 10 1012 57 16093 6.7 50 14:42 06.05.2020
3653 Clouds 10 1012 57 16093 6.7 50 14:19 06.05.2020
3654 Clouds 10 1012 57 16093 6.2 50 13:59 06.05.2020
3655 Clouds 10 1012 57 16093 6.2 50 13:40 06.05.2020
3656 Clouds 10 1012 57 16093 6.2 50 13:22 06.05.2020
3657 Clouds 10 1011 62 16093 6.2 40 12:54 06.05.2020
3658 Clouds 10 1011 62 16093 6.2 40 12:36 06.05.2020
3659 Clouds 10 1011 62 16093 6.2 40 12:18 06.05.2020
3660 Clouds 10 1011 66 16093 6.2 30 11:40 06.05.2020
3661 Clouds 10 1012 71 16093 3.6 20 11:21 06.05.2020
3662 Clouds 10 1012 71 16093 3.6 20 10:56 06.05.2020
3663 Clouds 10 1012 71 16093 3.6 20 10:37 06.05.2020
3664 Clear 10 1012 66 16093 4.1 30 10:18 06.05.2020
3665 Clear 10 1013 62 16093 3.04 91 09:41 06.05.2020
3666 Clear 10 1013 46 16093 2.6 130 09:22 06.05.2020
3667 Clear 11 1013 46 16093 2.6 130 08:45 06.05.2020
3668 Clear 11 1013 50 16093 3.84 85 08:23 06.05.2020
3669 Clear 11 1013 46 16093 2.6 130 08:23 06.05.2020
3670 Clear 11 1013 50 16093 3.84 85 07:59 06.05.2020
3671 Clear 11 1013 50 16093 3.84 85 07:39 06.05.2020
3672 Clear 11 1013 50 16093 4.17 80 07:20 06.05.2020
3673 Clear 12 1013 43 16093 4.17 80 06:51 06.05.2020
3674 Clear 12 1013 43 16093 4.74 67 06:22 06.05.2020
3675 Clear 12 1012 41 16093 1.5 290 05:54 06.05.2020
3676 Clear 12 1012 41 16093 1.5 290 05:36 06.05.2020
3677 Clear 13 1012 35 16093 3.39 50 04:38 06.05.2020
3678 Clear 14 1012 30 16093 1.5 0 03:40 06.05.2020
3679 Clear 14 1012 30 16093 1.5 0 03:20 06.05.2020
3680 Clear 15 1012 26 16093 1.12 237 02:30 06.05.2020
3681 Clear 16 1011 25 16093 2.1 0 01:54 06.05.2020
3682 Clear 17 1011 25 16093 2.1 0 01:31 06.05.2020
3683 Clear 17 1011 18 16093 2.1 0 00:53 06.05.2020
3684 Clear 17 1011 18 16093 2.1 0 00:26 06.05.2020
3685 Clear 17 1011 18 16093 3.6 240 23:56 05.05.2020
3686 Clear 17 1011 18 16093 3.6 240 23:37 05.05.2020
3687 Clear 17 1011 18 16093 2.6 0 23:18 05.05.2020
3688 Clear 17 1011 18 16093 2.6 0 22:41 05.05.2020
3689 Clear 16 1012 21 16093 2.1 0 22:19 05.05.2020
3690 Clear 17 1011 18 16093 2.6 0 22:19 05.05.2020
3691 Clear 16 1012 21 16093 2.1 0 21:57 05.05.2020
3692 Clear 16 1012 21 16093 2.1 0 21:38 05.05.2020
3693 Clear 16 1012 21 16093 2.1 0 21:38 05.05.2020
3694 Clear 15 1013 18 16093 2.1 0 21:20 05.05.2020
3695 Clear 15 1013 18 16093 2.1 0 20:57 05.05.2020
3696 Clear 16 1013 18 16093 2.1 0 20:39 05.05.2020
3697 Clear 15 1013 18 16093 2.1 0 20:18 05.05.2020
3698 Clear 15 1012 21 16093 1.5 0 19:54 05.05.2020
3699 Clear 15 1012 21 16093 1.5 0 19:36 05.05.2020
3700 Clear 14 1014 22 16093 4.1 260 19:18 05.05.2020
3701 Clear 14 1014 22 16093 4.1 260 19:18 05.05.2020
3702 Clear 14 1014 22 16093 4.1 260 18:42 05.05.2020
3703 Clear 14 1014 22 16093 4.1 260 18:20 05.05.2020
3704 Clear 13 1014 28 16093 2.1 0 17:59 05.05.2020
3705 Clear 13 1014 28 16093 2.1 0 17:41 05.05.2020
3706 Clear 12 1014 28 16093 2.1 0 17:23 05.05.2020
3707 Clear 11 1014 34 16093 3.6 250 16:56 05.05.2020
3708 Clear 11 1014 31 16093 5.35 325 16:36 05.05.2020
3709 Clear 10 1014 39 16093 4.1 290 16:18 05.05.2020
3710 Clear 10 1014 39 16093 4.1 290 16:18 05.05.2020
3711 Clear 10 1014 49 16093 3.6 250 15:41 05.05.2020
3712 Clear 9 1014 49 16093 3.6 250 15:22 05.05.2020
3713 Clear 9 1014 49 16093 3.6 250 14:58 05.05.2020
3714 Clear 9 1014 49 16093 3.6 250 14:39 05.05.2020
3715 Clear 9 1014 49 16093 3.6 250 14:39 05.05.2020
3716 Clear 9 1014 49 16093 3.6 250 14:21 05.05.2020
3717 Clear 8 1014 52 16093 1.5 0 13:58 05.05.2020
3718 Clear 8 1014 52 16093 1.5 0 13:39 05.05.2020
3719 Clear 8 1014 52 16093 1.5 0 13:21 05.05.2020
3720 Clear 8 1014 55 16093 2.1 0 12:58 05.05.2020
3721 Clear 8 1014 55 16093 2.1 0 12:39 05.05.2020
3722 Clear 8 1013 57 16093 1.5 0 12:20 05.05.2020
3723 Clear 8 1013 57 16093 1.5 0 12:20 05.05.2020
3724 Clear 8 1013 57 16093 1.5 0 11:55 05.05.2020
3725 Clear 8 1013 57 16093 1.5 0 11:36 05.05.2020
3726 Clear 8 1013 56 16093 1.5 0 11:18 05.05.2020
3727 Clear 8 1013 57 16093 3.1 250 10:39 05.05.2020
3728 Clear 8 1013 57 16093 3.1 250 10:19 05.05.2020
3729 Clear 8 1013 57 16093 3.1 250 10:19 05.05.2020
3730 Clear 9 1012 57 16093 2.1 270 09:59 05.05.2020
3731 Clear 9 1012 57 16093 2.1 270 09:59 05.05.2020
3732 Clear 9 1012 57 16093 2.1 270 09:40 05.05.2020
3733 Clear 9 1012 57 16093 2.1 270 09:40 05.05.2020
3734 Clear 9 1014 53 16093 6.73 314 09:22 05.05.2020
3735 Clear 9 1014 53 16093 6.73 314 08:41 05.05.2020
3736 Clear 9 1014 53 16093 6.92 315 08:21 05.05.2020
3737 Clouds 9 1013 50 16093 1.5 0 07:58 05.05.2020
3738 Clouds 10 1013 50 16093 1.5 0 07:39 05.05.2020
3739 Clouds 10 1013 50 16093 1.5 0 07:19 05.05.2020
3740 Clear 10 1013 50 16093 1.5 0 06:49 05.05.2020
3741 Clear 10 1013 50 16093 1.5 0 06:23 05.05.2020
3742 Clouds 10 1013 50 16093 7.01 322 05:39 05.05.2020
3743 Clouds 12 1013 46 16093 3.6 310 03:36 05.05.2020
3744 Clear 13 1009 44 16093 2.1 0 02:18 05.05.2020
3745 Clouds 15 1008 44 16093 2.6 0 00:54 05.05.2020
3746 Clouds 15 1008 44 16093 2.6 0 00:22 05.05.2020
3747 Clouds 16 1008 36 16093 4.6 300 23:46 04.05.2020
3748 Clouds 17 1007 36 16093 1.5 0 23:23 04.05.2020
3749 Clouds 17 1007 36 16093 1.5 0 22:57 04.05.2020
3750 Clouds 17 1007 36 16093 1.5 0 22:38 04.05.2020
3751 Clouds 17 1007 36 16093 3.1 0 22:20 04.05.2020
3752 Clouds 17 1007 36 16093 3.1 0 21:56 04.05.2020
3753 Clouds 17 1007 36 16093 3.1 0 21:56 04.05.2020
3754 Clouds 17 1007 36 16093 3.1 0 21:35 04.05.2020
3755 Clouds 18 1005 32 16093 1.5 0 21:03 04.05.2020
3756 Clouds 18 1005 32 16093 1.5 0 21:03 04.05.2020
3757 Clouds 18 1005 32 16093 1.5 0 21:03 04.05.2020
3758 Clouds 18 1005 32 16093 1.5 0 21:03 04.05.2020
3759 Clouds 18 1005 32 16093 1.5 0 21:03 04.05.2020
3760 Clouds 18 1005 32 16093 1.5 0 20:38 04.05.2020
3761 Clouds 19 1005 32 16093 1.5 0 20:18 04.05.2020
3762 Clouds 20 1004 32 16093 3.1 0 19:43 04.05.2020
3763 Clouds 21 1004 32 16093 3.1 0 19:23 04.05.2020
3764 Clouds 21 1004 32 16093 3.1 0 19:23 04.05.2020
3765 Clouds 21 1005 30 16093 7.54 320 18:59 04.05.2020
3766 Clouds 22 1004 31 16093 2.6 240 18:38 04.05.2020
3767 Clouds 22 1004 31 16093 2.6 240 18:19 04.05.2020
3768 Clouds 22 1004 31 16093 2.6 240 18:19 04.05.2020
3769 Clear 21 1005 30 16093 1.5 240 17:56 04.05.2020
3770 Clear 21 1005 30 16093 1.5 240 17:37 04.05.2020
3771 Clear 21 1005 30 16093 1.5 240 17:19 04.05.2020
3772 Clear 20 1005 32 16093 2.1 240 16:43 04.05.2020
3773 Clear 20 1005 32 16093 2.1 240 16:23 04.05.2020
3774 Clouds 18 1005 42 16093 5.6 325 15:58 04.05.2020
3775 Clouds 18 1005 42 16093 5.6 325 15:39 04.05.2020
3776 Clouds 18 1005 48 16093 2.6 260 15:20 04.05.2020
3777 Clouds 18 1005 48 16093 2.6 260 14:48 04.05.2020
3778 Clouds 18 1005 48 16093 2.6 260 14:48 04.05.2020
3779 Clouds 18 1005 48 16093 2.6 260 14:48 04.05.2020
3780 Clouds 18 1005 48 16093 2.6 260 14:20 04.05.2020
3781 Clouds 17 1004 55 16093 1.5 70 13:21 04.05.2020
3782 Clouds 17 1004 55 16093 1.5 70 12:43 04.05.2020
3783 Clouds 17 1004 55 16093 1.5 70 12:43 04.05.2020
3784 Clouds 17 1004 55 16093 1.5 70 12:43 04.05.2020
3785 Clouds 17 1004 55 16093 1.5 70 12:43 04.05.2020
3786 Clouds 17 1004 55 16093 1.5 70 12:43 04.05.2020
3787 Clear 18 1003 52 16093 3.6 60 10:43 04.05.2020
3788 Clear 18 1003 52 16093 3.6 60 10:43 04.05.2020
3789 Clear 18 1003 52 16093 3.6 60 10:43 04.05.2020
3790 Clear 18 1003 52 16093 3.6 60 10:43 04.05.2020
3791 Clear 18 1003 52 16093 3.6 60 10:42 04.05.2020
3792 Clouds 20 1003 52 16093 2.6 50 09:26 04.05.2020
3793 Clouds 20 1003 52 16093 2.6 50 09:26 04.05.2020
3794 Clouds 20 1003 52 16093 2.6 50 09:26 04.05.2020
3795 Clouds 20 1003 52 16093 2.6 50 09:26 04.05.2020
3796 Clouds 20 1003 52 16093 2.6 50 09:26 04.05.2020
3797 Clouds 20 1004 68 16093 3.1 190 07:53 04.05.2020
3798 Clouds 20 1004 68 16093 3.1 190 07:33 04.05.2020
3799 Clouds 20 1004 68 16093 3.1 190 07:33 04.05.2020
3800 Clouds 20 1004 68 16093 3.1 190 07:33 04.05.2020
3801 Clear 21 1005 43 16093 3.1 270 05:24 04.05.2020
3802 Clear 21 1005 43 16093 3.1 270 04:49 04.05.2020
3803 Clear 23 1004 46 16093 2.6 250 02:42 04.05.2020
3804 Clear 25 1005 33 16093 2.1 0 01:22 04.05.2020
3805 Clouds 26 1004 28 16093 5.7 260 00:18 04.05.2020
3806 Clouds 27 1004 34 16093 4.6 250 23:42 03.05.2020
3807 Clouds 27 1004 34 16093 4.6 250 23:42 03.05.2020
3808 Clear 27 1005 31 16093 2.6 290 23:23 03.05.2020
3809 Clouds 26 1005 36 16093 4.6 250 22:43 03.05.2020
3810 Clouds 26 1005 36 16093 4.6 250 22:43 03.05.2020
3811 Clouds 26 1005 36 16093 4.6 250 22:43 03.05.2020
3812 Clouds 26 1005 36 16093 4.6 250 22:25 03.05.2020
3813 Clouds 26 1005 36 16093 4.6 250 22:25 03.05.2020
3814 Clouds 26 1007 34 16093 2.6 0 21:43 03.05.2020
3815 Clouds 25 1006 44 16093 3.6 260 21:22 03.05.2020
3816 Clear 25 1007 46 16093 4.1 220 20:58 03.05.2020
3817 Clear 25 1007 46 16093 4.1 220 20:58 03.05.2020
3818 Clear 25 1007 46 16093 4.1 220 20:58 03.05.2020
3819 Clear 25 1007 46 16093 4.1 220 20:58 03.05.2020
3820 Clear 25 1007 46 16093 4.1 220 20:58 03.05.2020
3821 Clear 24 1007 46 16093 4.1 220 20:39 03.05.2020
3822 Clear 24 1007 46 16093 4.1 220 20:20 03.05.2020
3823 Clear 23 1007 60 16093 2.6 250 20:20 03.05.2020
3824 Clear 24 1007 46 16093 4.1 220 20:20 03.05.2020
3825 Clear 23 1007 60 16093 2.6 250 19:47 03.05.2020
3826 Clear 23 1007 60 16093 2.6 250 19:29 03.05.2020
3827 Clear 21 1009 68 16093 3.1 260 18:56 03.05.2020
3828 Clear 21 1009 68 16093 3.1 260 18:56 03.05.2020
3829 Rain 21 1009 68 16093 3.1 260 18:37 03.05.2020
3830 Clear 20 1009 72 16093 3.1 260 18:18 03.05.2020
3831 Clear 20 1009 72 16093 3.1 260 18:18 03.05.2020
3832 Rain 20 1009 68 16093 3.1 260 18:18 03.05.2020
3833 Clear 20 1009 72 16093 3.1 260 18:18 03.05.2020
3834 Clear 20 1009 72 16093 3.1 260 18:18 03.05.2020
3835 Clear 19 1009 72 16093 3.1 260 17:40 03.05.2020
3836 Clear 19 1009 72 16093 3.1 260 17:40 03.05.2020
3837 Clear 19 1009 72 16093 3.1 260 17:40 03.05.2020
3838 Clear 18 1009 72 16093 3.1 260 17:21 03.05.2020
3839 Clear 17 1010 77 16093 3.1 260 16:45 03.05.2020
3840 Clear 16 1010 77 16093 3.1 260 16:20 03.05.2020
3841 Clear 15 1011 82 16093 2.6 250 15:58 03.05.2020
3842 Clear 15 1011 82 16093 2.6 250 15:58 03.05.2020
3843 Clear 15 1011 82 16093 2.6 250 15:40 03.05.2020
3844 Clear 14 1011 82 16093 2.6 250 15:20 03.05.2020
3845 Rain 14 1011 87 16093 3.1 240 14:58 03.05.2020
3846 Rain 14 1011 87 16093 3.1 240 14:40 03.05.2020
3847 Rain 14 1011 87 16093 3.1 240 14:40 03.05.2020
3848 Clouds 13 1011 82 16093 1.5 250 14:21 03.05.2020
3849 Clouds 13 1011 82 16093 1.5 250 13:54 03.05.2020
3850 Rain 13 1011 76 16093 4.61 205 13:21 03.05.2020
3851 Rain 13 1011 76 16093 4.61 205 13:21 03.05.2020
3852 Rain 13 1011 76 16093 4.61 205 13:21 03.05.2020
3853 Rain 13 1011 76 16093 4.61 205 13:21 03.05.2020
3854 Clouds 13 1011 82 16093 1.5 250 13:20 03.05.2020
3855 Rain 13 1011 76 16093 4.61 205 12:44 03.05.2020
3856 Rain 13 1011 76 16093 3.1 240 12:18 03.05.2020
3857 Rain 13 1011 76 16093 3.1 240 11:56 03.05.2020
3858 Rain 13 1011 76 16093 3.1 240 11:37 03.05.2020
3859 Rain 13 1011 76 16093 3.1 240 11:19 03.05.2020
3860 Rain 15 1011 55 16093 2.6 280 10:46 03.05.2020
3861 Rain 15 1011 55 16093 2.6 280 10:46 03.05.2020
3862 Rain 15 1011 55 16093 2.6 280 10:46 03.05.2020
3863 Rain 15 1011 55 16093 2.6 280 10:46 03.05.2020
3864 Clouds 16 1011 48 16093 2.1 240 09:58 03.05.2020
3865 Clouds 17 1011 48 16093 2.1 240 09:36 03.05.2020
3866 Clouds 16 1011 48 16093 2.1 240 09:36 03.05.2020
3867 Clouds 17 1012 48 16093 2.6 270 08:56 03.05.2020
3868 Clouds 17 1012 48 16093 2.6 270 08:56 03.05.2020
3869 Clouds 17 1012 48 16093 2.6 270 08:56 03.05.2020
3870 Clouds 17 1012 48 16093 2.6 270 08:26 03.05.2020
3871 Clouds 18 1013 45 16093 5.1 270 07:40 03.05.2020
3872 Clouds 18 1013 42 16093 2.6 0 06:21 03.05.2020
3873 Clouds 18 1014 42 16093 3.1 260 05:49 03.05.2020
3874 Clear 18 1014 42 16093 3.6 260 04:56 03.05.2020
3875 Clear 18 1014 42 16093 3.6 260 04:27 03.05.2020
3876 Clouds 19 1014 37 16093 4.1 260 03:25 03.05.2020
3877 Clouds 19 1014 37 16093 4.1 260 03:25 03.05.2020
3878 Clear 20 1013 34 16093 6.2 270 02:25 03.05.2020
3879 Clear 21 1012 32 16093 4.6 270 01:46 03.05.2020
3880 Clear 22 1012 32 16093 4.6 270 01:27 03.05.2020
3881 Clear 22 1013 25 16093 4.78 267 00:56 03.05.2020
3882 Clear 22 1013 25 16093 4.78 267 00:37 03.05.2020
3883 Clear 23 1013 27 16093 3.6 260 00:19 03.05.2020
3884 Clear 23 1013 25 16093 5.9 275 00:19 03.05.2020
3885 Clear 23 1013 27 16093 3.6 260 23:43 02.05.2020
3886 Clear 23 1013 27 16093 3.6 260 23:25 02.05.2020
3887 Clear 23 1013 27 16093 2.1 0 22:44 02.05.2020
3888 Clear 22 1014 27 16093 5.22 285 22:24 02.05.2020
3889 Clear 22 1014 27 16093 5.22 285 21:58 02.05.2020
3890 Clear 22 1014 27 16093 4.47 279 21:40 02.05.2020
3891 Clear 22 1014 27 16093 3.74 286 21:19 02.05.2020
3892 Clear 22 1015 28 16093 3.74 286 20:57 02.05.2020
3893 Clear 22 1015 28 16093 4.16 304 20:37 02.05.2020
3894 Clear 22 1015 28 16093 4.16 304 20:19 02.05.2020
3895 Clear 21 1016 30 16093 2.6 0 19:57 02.05.2020
3896 Clear 21 1016 30 16093 2.6 0 19:38 02.05.2020
3897 Clear 21 1016 30 16093 2.6 0 19:19 02.05.2020
3898 Clear 20 1016 37 16093 3.1 0 18:56 02.05.2020
3899 Clear 20 1016 37 16093 3.1 0 18:37 02.05.2020
3900 Clear 19 1016 37 16093 3.1 0 18:19 02.05.2020
3901 Clear 19 1016 37 16093 4.38 323 17:55 02.05.2020
3902 Clear 19 1016 37 16093 4.38 323 17:37 02.05.2020
3903 Clear 18 1016 37 16093 4.99 331 17:19 02.05.2020
3904 Clear 17 1016 39 16093 4.99 331 16:43 02.05.2020
3905 Clear 17 1016 39 16093 4.99 331 16:43 02.05.2020
3906 Clear 17 1016 39 16093 5.22 333 16:25 02.05.2020
3907 Clear 15 1016 54 16093 5.22 333 15:55 02.05.2020
3908 Clear 15 1016 54 16093 5.22 333 15:36 02.05.2020
3909 Clear 13 1016 58 16093 1.5 0 15:18 02.05.2020
3910 Clear 13 1016 58 16093 1.5 0 14:41 02.05.2020
3911 Clear 13 1016 58 16093 1.5 0 14:22 02.05.2020
3912 Clear 12 1015 62 16093 1.5 0 13:57 02.05.2020
3913 Clear 12 1015 62 16093 1.5 0 13:37 02.05.2020
3914 Clear 11 1015 62 16093 1.5 0 13:18 02.05.2020
3915 Clear 11 1014 62 16093 4.57 320 12:40 02.05.2020
3916 Clear 11 1014 62 16093 4.07 333 12:20 02.05.2020
3917 Clear 11 1012 58 16093 1.5 0 11:56 02.05.2020
3918 Clear 11 1012 58 16093 1.5 0 11:38 02.05.2020
3919 Clear 11 1012 58 16093 1.5 0 11:19 02.05.2020
3920 Clear 12 1012 58 16093 2.6 0 10:40 02.05.2020
3921 Clear 12 1012 58 16093 2.6 0 10:40 02.05.2020
3922 Clear 12 1012 58 16093 2.6 0 10:22 02.05.2020
3923 Clear 12 1011 54 16093 5.11 336 09:59 02.05.2020
3924 Clear 12 1011 54 16093 5.11 336 09:40 02.05.2020
3925 Clear 12 1011 54 16093 5.8 336 09:21 02.05.2020
3926 Clear 13 1010 58 16093 1.5 0 08:55 02.05.2020
3927 Clear 13 1010 58 16093 1.5 0 08:37 02.05.2020
3928 Clear 13 1010 58 16093 1.5 0 08:18 02.05.2020
3929 Clear 14 1009 67 16093 1.5 0 07:42 02.05.2020
3930 Clear 14 1009 67 16093 1.5 0 07:22 02.05.2020
3931 Rain 15 1009 62 16093 6.52 334 06:42 02.05.2020
3932 Clouds 16 1008 63 16093 7.44 330 05:28 02.05.2020
3933 Clouds 16 1007 59 16093 1.5 0 04:30 02.05.2020
3934 Clouds 16 1007 63 16093 6.15 326 03:50 02.05.2020
3935 Clear 17 1006 59 16093 4.89 328 02:42 02.05.2020
3936 Clouds 17 1006 55 16093 3.88 9 01:58 02.05.2020
3937 Clouds 18 1006 55 16093 3.18 11 01:27 02.05.2020
3938 Clouds 18 1005 59 16093 2.1 0 00:43 02.05.2020
3939 Clouds 19 1005 59 16093 2.1 0 00:22 02.05.2020
3940 Clouds 19 1005 63 16093 1.42 335 23:55 01.05.2020
3941 Clouds 19 1005 63 16093 1.42 335 23:37 01.05.2020
3942 Clouds 19 1005 63 16093 1.14 266 23:18 01.05.2020
3943 Rain 18 1005 82 16093 2.6 250 22:39 01.05.2020
3944 Rain 18 1005 82 16093 2.6 250 22:20 01.05.2020
3945 Rain 18 1005 82 16093 2.6 260 21:58 01.05.2020
3946 Rain 17 1005 82 16093 2.6 260 21:39 01.05.2020
3947 Rain 17 1005 82 16093 2.6 260 21:20 01.05.2020
3948 Rain 17 1005 82 16093 2.1 240 20:58 01.05.2020
3949 Rain 17 1005 82 16093 2.1 240 20:58 01.05.2020
3950 Rain 17 1005 82 16093 2.1 240 20:40 01.05.2020
3951 Clouds 16 1005 82 16093 2.1 240 20:20 01.05.2020
3952 Clouds 16 1005 77 16093 1.5 230 19:58 01.05.2020
3953 Clouds 16 1005 82 16093 1.99 195 19:40 01.05.2020
3954 Clouds 16 1006 87 16093 3.82 171 19:20 01.05.2020
3955 Clouds 15 1006 87 16093 1.5 270 18:56 01.05.2020
3956 Rain 15 1006 93 16093 2.1 260 18:37 01.05.2020
3957 Rain 14 1006 93 16093 2.1 170 18:19 01.05.2020
3958 Rain 14 1006 93 9656 4.34 163 17:40 01.05.2020
3959 Rain 13 1006 100 12874 3.49 164 17:22 01.05.2020
3960 Rain 13 1006 100 12874 3.49 164 16:57 01.05.2020
3961 Rain 13 1006 100 12874 3.49 164 16:57 01.05.2020
3962 Rain 13 1006 93 3219 3.49 164 16:39 01.05.2020
3963 Rain 13 1006 93 3219 3.65 165 16:20 01.05.2020
3964 Rain 13 1006 93 6437 3.65 165 15:57 01.05.2020
3965 Rain 13 1006 93 4828 1.5 0 15:39 01.05.2020
3966 Rain 12 1007 100 4828 3.78 165 15:19 01.05.2020
3967 Rain 12 1007 100 3219 3.78 165 14:44 01.05.2020
3968 Mist 12 1007 100 3219 5.01 160 14:25 01.05.2020
3969 Rain 12 1006 93 4828 2.1 50 13:57 01.05.2020
3970 Rain 12 1006 93 4828 2.1 50 13:38 01.05.2020
3971 Rain 12 1006 93 4828 2.1 50 13:38 01.05.2020
3972 Rain 12 1006 93 16093 2.6 40 13:20 01.05.2020
3973 Rain 12 1006 93 16093 2.6 40 12:55 01.05.2020
3974 Rain 12 1006 93 16093 2.6 40 12:37 01.05.2020
3975 Rain 12 1006 93 16093 2.6 40 12:18 01.05.2020
3976 Rain 12 1006 93 16093 2.6 40 12:18 01.05.2020
3977 Clouds 12 1006 93 14484 1.5 0 11:42 01.05.2020
3978 Clouds 12 1006 93 14484 1.5 0 11:23 01.05.2020
3979 Clouds 12 1006 93 12874 2.1 0 10:58 01.05.2020
3980 Clouds 12 1006 93 16093 3.1 60 10:39 01.05.2020
3981 Rain 12 1006 93 16093 3.1 60 10:20 01.05.2020
3982 Rain 12 1008 100 16093 4.44 140 09:44 01.05.2020
3983 Rain 12 1008 100 16093 5.16 170 09:20 01.05.2020
3984 Rain 12 1008 100 16093 2.6 0 08:58 01.05.2020
3985 Rain 12 1008 100 16093 2.6 0 08:40 01.05.2020
3986 Rain 12 1008 100 16093 2.6 0 08:21 01.05.2020
3987 Rain 13 1009 93 16093 2.6 190 07:44 01.05.2020
3988 Rain 13 1009 93 16093 2.6 190 07:22 01.05.2020
3989 Rain 13 1009 93 12874 1.5 0 06:42 01.05.2020
3990 Rain 13 1010 93 16093 9.27 159 05:35 01.05.2020
3991 Rain 13 1010 93 9656 4.6 130 04:47 01.05.2020
3992 Rain 14 1010 93 9656 5.1 120 03:24 01.05.2020
3993 Rain 14 1010 82 14484 8.2 70 02:45 01.05.2020
3994 Clouds 14 1012 87 14484 6.7 100 02:24 01.05.2020
3995 Clouds 14 1012 87 14484 6.7 100 01:28 01.05.2020
3996 Clouds 14 1012 87 12874 5.1 90 00:59 01.05.2020
3997 Clouds 14 1013 87 14484 7.2 90 00:37 01.05.2020
3998 Clouds 14 1013 87 14484 7.2 90 00:18 01.05.2020
3999 Clouds 14 1013 82 14484 5.1 90 23:55 30.04.2020
4000 Clouds 14 1014 82 14484 5.7 70 23:37 30.04.2020
4001 Clouds 14 1014 82 14484 5.7 70 23:37 30.04.2020
4002 Clouds 15 1015 82 16093 8.2 110 23:18 30.04.2020
4003 Clouds 15 1015 82 16093 8.2 110 22:41 30.04.2020
4004 Clouds 15 1015 82 16093 8.2 110 22:21 30.04.2020
4005 Rain 15 1015 87 16093 6.7 110 21:56 30.04.2020
4006 Rain 15 1015 87 16093 6.7 110 21:38 30.04.2020
4007 Rain 15 1016 87 16093 5.1 120 21:19 30.04.2020
4008 Rain 15 1016 87 16093 5.1 120 20:54 30.04.2020
4009 Rain 15 1016 87 16093 5.1 130 20:36 30.04.2020
4010 Rain 15 1016 87 16093 5.1 130 20:18 30.04.2020
4011 Clouds 15 1017 93 16093 8.7 130 19:42 30.04.2020
4012 Clouds 14 1017 93 16093 8.7 130 19:24 30.04.2020
4013 Rain 14 1017 87 12874 4.1 130 18:56 30.04.2020
4014 Rain 13 1018 93 12874 4.6 110 18:37 30.04.2020
4015 Rain 13 1018 93 11265 4.1 120 18:19 30.04.2020
4016 Rain 13 1018 93 11265 4.1 120 17:56 30.04.2020
4017 Rain 13 1018 93 11265 4.1 120 17:38 30.04.2020
4018 Rain 13 1018 93 11265 4.1 120 17:19 30.04.2020
4019 Rain 13 1018 93 6437 3.1 0 16:54 30.04.2020
4020 Rain 13 1018 93 6437 3.1 0 16:36 30.04.2020
4021 Rain 13 1018 93 6437 3.1 0 16:18 30.04.2020
4022 Rain 12 1019 93 11265 5.1 70 15:44 30.04.2020
4023 Rain 11 1019 100 8047 3.1 0 15:23 30.04.2020
4024 Rain 11 1019 93 12874 4.1 60 14:43 30.04.2020
4025 Rain 11 1019 93 12874 4.1 60 14:22 30.04.2020
4026 Rain 11 1020 93 11265 5.7 60 13:59 30.04.2020
4027 Clouds 11 1020 93 11265 5.7 60 13:41 30.04.2020
4028 Rain 11 1020 93 11265 5.7 60 13:23 30.04.2020
4029 Rain 11 1020 87 11265 6.7 40 12:59 30.04.2020
4030 Rain 10 1020 87 16093 5.7 40 12:41 30.04.2020
4031 Rain 10 1020 87 16093 5.7 40 12:19 30.04.2020
4032 Rain 10 1020 87 14484 6.2 40 11:38 30.04.2020
4033 Rain 10 1020 87 14484 6.2 40 11:19 30.04.2020
4034 Rain 10 1020 87 16093 4.6 40 10:59 30.04.2020
4035 Rain 10 1020 81 9656 6.2 40 10:40 30.04.2020
4036 Rain 10 1020 81 9656 6.2 40 10:21 30.04.2020
4037 Rain 10 1021 81 16093 5.7 70 09:56 30.04.2020
4038 Rain 10 1021 81 16093 5.7 70 09:38 30.04.2020
4039 Rain 10 1021 81 16093 6.7 50 09:19 30.04.2020
4040 Rain 10 1022 81 14484 6.2 50 08:45 30.04.2020
4041 Rain 10 1022 81 14484 6.2 50 08:26 30.04.2020
4042 Rain 10 1023 76 16093 5.1 90 07:44 30.04.2020
4043 Rain 11 1023 76 16093 5.1 90 07:26 30.04.2020
4044 Clouds 11 1022 76 16093 8.7 50 06:55 30.04.2020
4045 Clouds 11 1022 76 16093 8.7 50 06:29 30.04.2020
4046 Clouds 10 1023 76 16093 7.7 70 05:46 30.04.2020
4047 Clouds 10 1023 71 16093 8.2 50 04:43 30.04.2020
4048 Clouds 10 1023 71 16093 8.2 50 04:23 30.04.2020
4049 Rain 10 1023 76 16093 7.7 60 02:48 30.04.2020
4050 Rain 10 1023 76 16093 7.7 60 02:27 30.04.2020
4051 Rain 11 1023 76 16093 8.2 50 01:37 30.04.2020
4052 Rain 11 1024 66 16093 8.2 50 00:53 30.04.2020
4053 Clouds 12 1024 66 16093 8.7 50 00:24 30.04.2020
4054 Clouds 12 1024 66 16093 8.7 50 23:58 29.04.2020
4055 Clouds 12 1024 66 16093 8.7 50 23:40 29.04.2020
4056 Clouds 12 1024 66 16093 8.7 50 23:22 29.04.2020
4057 Clouds 12 1024 71 16093 5.1 70 22:58 29.04.2020
4058 Clouds 13 1024 71 16093 5.1 70 22:38 29.04.2020
4059 Clouds 13 1024 71 16093 5.1 70 22:19 29.04.2020
4060 Clouds 13 1024 66 16093 6.2 90 21:38 29.04.2020
4061 Clouds 13 1024 66 16093 5.7 90 21:20 29.04.2020
4062 Clouds 13 1024 66 16093 5.7 90 20:58 29.04.2020
4063 Clouds 13 1024 66 16093 5.7 90 20:39 29.04.2020
4064 Clouds 13 1024 66 16093 5.7 90 20:19 29.04.2020
4065 Clouds 13 1024 66 16093 5.7 70 19:54 29.04.2020
4066 Clouds 13 1024 66 16093 5.7 70 19:36 29.04.2020
4067 Clouds 12 1024 66 16093 5.7 70 19:18 29.04.2020
4068 Clouds 12 1024 71 16093 3.6 100 18:41 29.04.2020
4069 Clouds 11 1024 71 16093 3.6 100 18:20 29.04.2020
4070 Clouds 11 1024 81 16093 5.1 40 17:55 29.04.2020
4071 Clouds 10 1024 81 16093 5.1 40 17:37 29.04.2020
4072 Clouds 10 1023 87 16093 6.2 40 17:18 29.04.2020
4073 Clouds 10 1023 87 16093 6.2 40 16:37 29.04.2020
4074 Clouds 10 1023 87 16093 6.2 40 16:19 29.04.2020
4075 Clouds 10 1023 87 16093 6.2 40 16:19 29.04.2020
4076 Clouds 9 1023 87 16093 6.7 40 15:57 29.04.2020
4077 Clouds 9 1023 87 16093 7.2 40 15:38 29.04.2020
4078 Clouds 9 1023 87 16093 7.2 40 15:20 29.04.2020
4079 Clouds 9 1023 87 16093 7.2 40 14:45 29.04.2020
4080 Clouds 9 1023 87 16093 7.2 40 14:27 29.04.2020
4081 Clouds 9 1022 87 16093 4.6 30 13:59 29.04.2020
4082 Clouds 9 1022 87 16093 4.6 30 13:59 29.04.2020
4083 Clouds 9 1022 87 16093 4.6 30 13:40 29.04.2020
4084 Clouds 9 1022 87 16093 5.7 40 13:20 29.04.2020
4085 Clouds 9 1022 87 16093 5.7 40 12:57 29.04.2020
4086 Clouds 9 1022 87 16093 5.7 40 12:38 29.04.2020
4087 Clouds 9 1022 87 16093 3.6 60 12:18 29.04.2020
4088 Clouds 9 1022 87 16093 5.7 40 12:18 29.04.2020
4089 Clouds 9 1022 87 16093 3.6 60 11:40 29.04.2020
4090 Clouds 9 1022 87 16093 3.6 60 11:20 29.04.2020
4091 Clear 9 1021 81 16093 3.6 30 10:57 29.04.2020
4092 Clear 9 1021 81 16093 3.6 30 10:37 29.04.2020
4093 Clear 9 1021 76 16093 2.1 30 10:19 29.04.2020
4094 Clear 9 1021 76 16093 2.1 30 09:42 29.04.2020
4095 Clear 10 1021 76 16093 2.1 30 09:23 29.04.2020
4096 Clear 9 1021 76 16093 2.6 40 08:56 29.04.2020
4097 Clear 9 1021 76 16093 2.6 40 08:56 29.04.2020
4098 Clear 10 1021 76 16093 2.6 40 08:37 29.04.2020
4099 Clear 10 1021 76 16093 2.6 40 08:19 29.04.2020
4100 Clear 10 1021 76 16093 2.6 40 07:41 29.04.2020
4101 Clear 10 1021 76 16093 2.6 40 07:23 29.04.2020
4102 Clear 10 1021 76 16093 2.1 30 06:50 29.04.2020
4103 Clear 11 1021 76 16093 2.1 30 06:30 29.04.2020
4104 Clear 11 1021 76 16093 2.1 30 06:30 29.04.2020
4105 Clear 12 1020 66 16093 2.03 263 05:21 29.04.2020
4106 Clear 12 1020 66 16093 2.03 263 04:39 29.04.2020
4107 Clear 12 1020 54 16093 1.5 170 04:18 29.04.2020
4108 Clear 14 1019 50 16093 1.2 241 02:42 29.04.2020
4109 Clear 15 1019 44 16093 2.1 120 01:44 29.04.2020
4110 Clear 16 1019 44 16093 2.1 120 01:23 29.04.2020
4111 Clear 18 1018 39 16093 2.96 182 00:41 29.04.2020
4112 Clear 18 1018 39 16093 2.96 182 00:19 29.04.2020
4113 Clear 18 1018 39 16093 2.96 182 00:19 29.04.2020
4114 Clear 19 1018 39 16093 2.1 0 23:50 28.04.2020
4115 Clear 19 1018 34 16093 2.1 0 23:24 28.04.2020
4116 Clear 19 1018 25 16093 2.07 199 22:57 28.04.2020
4117 Clear 19 1018 25 16093 2.07 199 22:37 28.04.2020
4118 Clear 19 1018 25 16093 1.69 246 22:18 28.04.2020
4119 Clear 18 1019 27 16093 2.6 0 21:56 28.04.2020
4120 Clear 18 1019 27 16093 2.6 0 21:37 28.04.2020
4121 Clear 18 1019 27 16093 2.6 0 21:37 28.04.2020
4122 Clear 18 1019 27 16093 2.6 0 21:19 28.04.2020
4123 Clear 17 1019 31 16093 2.6 0 20:55 28.04.2020
4124 Clear 17 1019 31 16093 2.6 0 20:37 28.04.2020
4125 Clear 16 1020 33 16093 1.5 0 20:19 28.04.2020
4126 Clear 16 1020 33 16093 1.5 0 19:43 28.04.2020
4127 Clear 15 1021 41 16093 4.6 250 19:22 28.04.2020
4128 Clear 15 1021 41 16093 4.6 250 18:59 28.04.2020
4129 Clear 15 1021 41 16093 4.6 250 18:59 28.04.2020
4130 Clear 15 1021 41 16093 4.6 250 18:40 28.04.2020
4131 Clear 14 1021 41 16093 4.6 250 18:19 28.04.2020
4132 Clear 13 1021 43 16093 4.1 230 17:58 28.04.2020
4133 Clear 13 1021 43 16093 4.1 230 17:37 28.04.2020
4134 Clear 12 1021 46 16093 2.1 0 17:18 28.04.2020
4135 Clear 11 1021 46 16093 2.1 0 16:43 28.04.2020
4136 Clear 11 1021 46 16093 2.1 0 16:24 28.04.2020
4137 Clear 10 1021 66 16093 3.1 250 15:58 28.04.2020
4138 Clear 9 1021 66 16093 3.1 250 15:40 28.04.2020
4139 Clear 9 1021 66 16093 3.1 250 15:21 28.04.2020
4140 Clear 9 1021 66 16093 3.1 250 15:21 28.04.2020
4141 Clear 8 1022 70 16093 2.6 0 14:59 28.04.2020
4142 Clear 8 1022 70 16093 2.6 0 14:41 28.04.2020
4143 Clear 7 1022 70 16093 2.6 0 14:21 28.04.2020
4144 Clear 6 1021 75 16093 2.1 220 13:58 28.04.2020
4145 Clear 6 1021 75 16093 2.1 220 13:38 28.04.2020
4146 Clear 6 1021 75 16093 1.5 260 13:20 28.04.2020
4147 Clear 5 1021 75 16093 1.5 260 12:57 28.04.2020
4148 Clear 5 1021 75 16093 1.5 260 12:37 28.04.2020
4149 Clouds 5 1020 75 16093 2.1 250 12:19 28.04.2020
4150 Clouds 5 1020 75 16093 2.1 250 11:40 28.04.2020
4151 Clouds 5 1020 75 16093 2.1 250 11:20 28.04.2020
4152 Clouds 6 1020 75 16093 2.1 250 10:55 28.04.2020
4153 Clouds 6 1020 75 16093 2.1 250 10:37 28.04.2020
4154 Clear 6 1019 70 16093 2.6 270 10:18 28.04.2020
4155 Clear 6 1019 70 16093 2.6 270 09:42 28.04.2020
4156 Clear 6 1019 70 16093 2.6 270 09:24 28.04.2020
4157 Clouds 6 1019 75 16093 3.1 70 08:49 28.04.2020
4158 Clouds 6 1019 75 16093 3.1 70 08:30 28.04.2020
4159 Clouds 6 1019 75 16093 2.1 220 07:58 28.04.2020
4160 Clouds 7 1019 75 16093 2.1 220 07:39 28.04.2020
4161 Clouds 7 1019 75 16093 2.1 220 07:18 28.04.2020
4162 Clouds 7 1019 75 16093 4.1 100 06:28 28.04.2020
4163 Clouds 7 1019 75 16093 2.1 0 05:47 28.04.2020
4164 Clouds 7 1019 75 16093 2.1 0 05:29 28.04.2020
4165 Clouds 7 1019 70 16093 2.6 0 04:33 28.04.2020
4166 Clouds 8 1018 65 16093 4.6 350 02:37 28.04.2020
4167 Clouds 8 1017 61 16093 2.1 0 01:27 28.04.2020
4168 Rain 9 1016 61 16093 5.1 350 00:59 28.04.2020
4169 Rain 9 1016 61 16093 5.1 350 00:29 28.04.2020
4170 Clouds 9 1015 61 16093 2.6 0 23:48 27.04.2020
4171 Clouds 9 1015 61 16093 2.6 0 23:26 27.04.2020
4172 Clouds 9 1014 61 16093 4.1 50 22:58 27.04.2020
4173 Rain 10 1014 57 16093 1.5 0 22:40 27.04.2020
4174 Rain 10 1014 57 16093 1.5 0 22:22 27.04.2020
4175 Clouds 10 1014 61 16093 1.5 0 21:57 27.04.2020
4176 Clouds 10 1014 61 16093 1.5 0 21:38 27.04.2020
4177 Clouds 10 1014 61 16093 1.5 0 21:38 27.04.2020
4178 Clouds 10 1014 61 16093 1.5 0 21:19 27.04.2020
4179 Clouds 9 1013 70 16093 2.6 150 20:56 27.04.2020
4180 Rain 9 1013 70 16093 1.5 0 20:38 27.04.2020
4181 Clouds 9 1013 66 16093 2.6 40 20:19 27.04.2020
4182 Clouds 9 1013 66 16093 2.1 0 19:40 27.04.2020
4183 Clouds 8 1013 66 16093 2.1 0 19:22 27.04.2020
4184 Clouds 8 1013 70 16093 2.6 0 18:59 27.04.2020
4185 Clouds 8 1013 70 16093 2.6 0 18:40 27.04.2020
4186 Clouds 8 1013 70 16093 2.1 0 18:20 27.04.2020
4187 Clouds 8 1013 70 16093 2.1 0 17:58 27.04.2020
4188 Clouds 8 1013 70 16093 2.1 0 17:40 27.04.2020
4189 Clouds 7 1012 81 16093 2.1 0 17:19 27.04.2020
4190 Clouds 7 1012 81 16093 2.1 0 16:41 27.04.2020
4191 Clouds 7 1012 81 16093 2.1 0 16:22 27.04.2020
4192 Clouds 6 1012 75 16093 2.6 0 15:57 27.04.2020
4193 Clouds 6 1012 81 12874 6.7 360 15:38 27.04.2020
4194 Clouds 6 1012 80 16093 2.1 0 15:20 27.04.2020
4195 Clouds 6 1012 81 16093 3.1 0 14:58 27.04.2020
4196 Clouds 6 1012 81 16093 3.1 0 14:58 27.04.2020
4197 Clouds 6 1012 81 16093 3.1 0 14:40 27.04.2020
4198 Clouds 6 1012 81 16093 3.1 0 14:19 27.04.2020
4199 Clouds 5 1011 81 16093 4.6 70 13:57 27.04.2020
4200 Clouds 5 1011 81 16093 4.6 70 13:36 27.04.2020
4201 Clouds 5 1011 81 16093 4.6 70 13:18 27.04.2020
4202 Clouds 5 1011 86 16093 4.1 340 12:43 27.04.2020
4203 Clouds 5 1011 86 16093 4.1 340 12:21 27.04.2020
4204 Clouds 4 1010 86 16093 5.1 10 11:43 27.04.2020
4205 Clouds 4 1010 86 16093 5.1 10 11:22 27.04.2020
4206 Clouds 4 1010 86 16093 3.1 0 10:59 27.04.2020
4207 Clouds 5 1010 86 16093 3.6 50 10:41 27.04.2020
4208 Clouds 5 1010 86 16093 3.6 50 10:23 27.04.2020
4209 Clouds 5 1010 93 16093 1.5 0 09:58 27.04.2020
4210 Clouds 5 1009 87 16093 1.5 0 09:39 27.04.2020
4211 Clouds 5 1010 93 12874 2.6 0 09:18 27.04.2020
4212 Clouds 5 1010 93 12874 2.6 0 08:46 27.04.2020
4213 Clouds 5 1010 93 12874 2.6 0 08:27 27.04.2020
4214 Clouds 6 1010 87 16093 4.1 40 07:45 27.04.2020
4215 Clouds 6 1010 87 16093 4.1 40 07:24 27.04.2020
4216 Mist 6 1009 87 8047 4.6 20 06:58 27.04.2020
4217 Clouds 6 1009 87 14484 3.6 20 06:30 27.04.2020
4218 Rain 6 1009 87 14484 3.6 20 05:56 27.04.2020
4219 Rain 6 1008 87 9656 3.6 40 05:18 27.04.2020
4220 Clouds 6 1009 81 16093 4.1 10 04:39 27.04.2020
4221 Rain 7 1008 93 14484 4.6 40 03:45 27.04.2020
4222 Rain 7 1008 93 14484 4.6 40 03:45 27.04.2020
4223 Rain 7 1008 93 6437 3.1 20 02:32 27.04.2020
4224 Rain 8 1007 93 8047 6.2 30 01:20 27.04.2020
4225 Rain 8 1007 93 14484 6.7 30 00:40 27.04.2020
4226 Rain 8 1007 93 14484 6.7 30 00:40 27.04.2020
4227 Rain 8 1007 93 14484 6.7 30 00:18 27.04.2020
4228 Rain 8 1006 93 4828 9.8 30 23:55 26.04.2020
4229 Rain 8 1007 93 4828 9.3 40 23:37 26.04.2020
4230 Rain 8 1007 93 4828 9.3 40 23:18 26.04.2020
4231 Rain 8 1007 93 11265 8.7 40 22:54 26.04.2020
4232 Rain 8 1007 93 11265 8.7 40 22:36 26.04.2020
4233 Rain 8 1008 87 8047 9.8 30 22:18 26.04.2020
4234 Mist 8 1008 87 8047 9.8 30 21:54 26.04.2020
4235 Rain 8 1008 87 8047 9.8 30 21:36 26.04.2020
4236 Rain 8 1008 87 8047 9.8 30 21:18 26.04.2020
4237 Rain 9 1009 87 11265 9.8 40 20:39 26.04.2020
4238 Rain 9 1009 87 11265 9.8 40 20:20 26.04.2020
4239 Rain 9 1009 87 6437 8.2 30 19:58 26.04.2020
4240 Mist 9 1012 87 6437 8.2 50 19:38 26.04.2020
4241 Mist 9 1012 87 6437 8.2 50 19:19 26.04.2020
4242 Rain 9 1012 76 16093 7.2 30 18:44 26.04.2020
4243 Rain 9 1012 71 16093 5.7 30 18:25 26.04.2020
4244 Rain 9 1012 71 16093 5.7 30 17:56 26.04.2020
4245 Rain 9 1012 71 16093 5.7 30 17:38 26.04.2020
4246 Clouds 10 1013 66 16093 6.2 30 17:18 26.04.2020
4247 Clouds 10 1013 66 16093 6.2 30 16:40 26.04.2020
4248 Clouds 10 1013 66 16093 6.2 30 16:22 26.04.2020
4249 Clouds 9 1014 76 16093 6.2 50 15:59 26.04.2020
4250 Clouds 9 1014 76 16093 6.2 50 15:40 26.04.2020
4251 Clouds 9 1014 76 16093 6.2 50 15:21 26.04.2020
4252 Clouds 9 1016 66 16093 3.1 60 14:57 26.04.2020
4253 Clouds 9 1016 66 16093 3.1 60 14:38 26.04.2020
4254 Clouds 9 1016 66 16093 3.1 60 14:18 26.04.2020
4255 Clouds 9 1015 70 16093 5.7 30 13:55 26.04.2020
4256 Clouds 9 1015 70 16093 5.7 30 13:37 26.04.2020
4257 Clouds 9 1016 76 16093 5.1 30 13:18 26.04.2020
4258 Clouds 9 1016 76 16093 5.1 30 12:40 26.04.2020
4259 Clouds 9 1016 76 16093 5.1 30 12:40 26.04.2020
4260 Clouds 9 1016 76 16093 5.1 30 12:21 26.04.2020
4261 Clouds 9 1017 81 16093 4.6 40 11:59 26.04.2020
4262 Clouds 9 1017 81 16093 4.6 40 11:40 26.04.2020
4263 Clouds 9 1017 81 16093 4.6 40 11:21 26.04.2020
4264 Clouds 9 1017 81 16093 4.6 40 11:21 26.04.2020
4265 Clouds 9 1016 76 16093 5.1 50 10:56 26.04.2020
4266 Clouds 9 1016 76 16093 5.1 50 10:38 26.04.2020
4267 Clouds 9 1016 76 16093 5.1 50 10:20 26.04.2020
4268 Rain 9 1018 76 16093 3.1 50 09:40 26.04.2020
4269 Rain 9 1018 76 16093 3.1 50 09:22 26.04.2020
4270 Rain 9 1018 76 16093 2.1 120 08:58 26.04.2020
4271 Rain 9 1018 76 16093 2.1 120 08:40 26.04.2020
4272 Clear 9 1019 76 16093 2.6 0 08:20 26.04.2020
4273 Clear 9 1019 76 16093 2.6 0 07:46 26.04.2020
4274 Clear 9 1019 76 16093 2.6 0 07:21 26.04.2020
4275 Clear 9 1019 71 16093 2.1 0 06:44 26.04.2020
4276 Clear 9 1019 66 16093 4.31 142 05:59 26.04.2020
4277 Clear 10 1019 66 16093 4.31 142 05:41 26.04.2020
4278 Clear 10 1019 66 16093 4.31 142 05:22 26.04.2020
4279 Clear 10 1020 57 16093 3.6 190 04:23 26.04.2020
4280 Clear 11 1019 40 16093 2.6 150 02:53 26.04.2020
4281 Clear 11 1019 40 16093 2.6 150 02:32 26.04.2020
4282 Clear 12 1019 35 16093 4.1 170 01:52 26.04.2020
4283 Clear 12 1019 35 16093 4.1 170 01:27 26.04.2020
4284 Clear 14 1019 30 16093 3.6 180 00:40 26.04.2020
4285 Clear 14 1019 30 16093 3.6 180 00:19 26.04.2020
4286 Clear 15 1018 39 16093 3.6 170 23:39 25.04.2020
4287 Clear 16 1018 39 16093 3.6 170 23:21 25.04.2020
4288 Clear 16 1018 36 16093 3.1 150 22:59 25.04.2020
4289 Clear 16 1018 36 16093 3.1 150 22:40 25.04.2020
4290 Clouds 17 1018 42 16093 2.6 190 22:19 25.04.2020
4291 Clouds 17 1018 42 16093 2.6 190 21:56 25.04.2020
4292 Clouds 17 1018 42 16093 2.6 190 21:37 25.04.2020
4293 Clear 17 1019 51 16093 3.6 230 21:18 25.04.2020
4294 Clear 17 1019 51 16093 3.6 230 20:42 25.04.2020
4295 Clear 17 1019 51 16093 3.6 230 20:22 25.04.2020
4296 Clear 17 1019 55 16093 3.1 210 19:59 25.04.2020
4297 Clear 17 1019 55 16093 3.1 210 19:38 25.04.2020
4298 Clear 17 1019 55 16093 3.1 210 19:20 25.04.2020
4299 Clear 16 1018 58 16093 3.1 240 18:43 25.04.2020
4300 Clear 16 1018 58 16093 3.1 240 18:22 25.04.2020
4301 Clear 15 1018 58 16093 3.1 240 17:59 25.04.2020
4302 Clear 15 1018 58 16093 3.1 240 17:39 25.04.2020
4303 Clear 15 1018 58 16093 3.1 240 17:21 25.04.2020
4304 Clear 15 1018 58 16093 3.1 240 17:21 25.04.2020
4305 Clouds 14 1018 66 16093 2.6 230 16:59 25.04.2020
4306 Clouds 13 1018 66 16093 2.6 230 16:41 25.04.2020
4307 Clouds 12 1018 66 16093 2.6 230 16:21 25.04.2020
4308 Clouds 11 1018 71 16093 1.25 69 15:55 25.04.2020
4309 Clouds 10 1018 71 16093 2 341 15:37 25.04.2020
4310 Clouds 10 1018 71 16093 2 341 15:18 25.04.2020
4311 Clear 9 1018 81 16093 2 341 14:56 25.04.2020
4312 Clear 9 1018 81 16093 2 341 14:37 25.04.2020
4313 Clear 8 1018 81 16093 2.19 355 14:18 25.04.2020
4314 Clouds 7 1017 93 16093 2.19 355 13:41 25.04.2020
4315 Clouds 7 1017 93 16093 2.19 355 13:19 25.04.2020
4316 -273 0 0 0 0 0 12:56 25.04.2020
4317 Clouds 6 1016 93 16093 2.19 355 12:38 25.04.2020
4318 Clouds 6 1016 93 16093 2.19 355 12:38 25.04.2020
4319 Clouds 6 1016 93 16093 1.16 10 12:19 25.04.2020
4320 Clear 6 1016 87 16093 1.16 10 11:43 25.04.2020
4321 Clear 6 1015 93 16093 1.16 10 11:25 25.04.2020
4322 Clear 6 1015 87 16093 1.16 10 10:59 25.04.2020
4323 Clear 6 1015 87 16093 1.16 10 10:41 25.04.2020
4324 Clear 6 1015 93 16093 1.16 10 10:21 25.04.2020
4325 Clear 6 1014 93 16093 1.16 10 09:45 25.04.2020
4326 Clear 6 1014 93 16093 2.59 360 09:26 25.04.2020
4327 Clouds 6 1014 93 16093 2.59 360 08:57 25.04.2020
4328 Clouds 6 1014 93 16093 2.59 360 08:38 25.04.2020
4329 Clouds 6 1014 93 16093 2.59 360 08:20 25.04.2020
4330 Clouds 6 1013 87 16093 2.33 357 07:45 25.04.2020
4331 Clear 6 1013 87 16093 2.33 357 07:23 25.04.2020
4332 Clouds 7 1013 81 16093 1.5 270 06:44 25.04.2020
4333 Clear 7 1013 87 16093 1.5 0 05:48 25.04.2020
4334 Clear 7 1013 87 16093 1.5 0 05:30 25.04.2020
4335 Clear 8 1012 87 16093 2.1 60 04:29 25.04.2020
4336 Rain 9 1010 87 16093 3.1 50 02:44 25.04.2020
4337 Rain 9 1010 87 16093 3.1 50 02:19 25.04.2020
4338 Rain 9 1008 87 16093 4.6 50 01:50 25.04.2020
4339 Rain 9 1008 87 16093 4.6 50 01:27 25.04.2020
4340 Rain 10 1008 87 16093 4.04 3 00:50 25.04.2020
4341 Rain 9 1008 87 16093 5.75 19 00:31 25.04.2020
4342 Rain 9 1007 87 12874 2.6 60 23:43 24.04.2020
4343 Rain 9 1007 87 16093 4.6 40 23:22 24.04.2020
4344 Rain 9 1007 87 16093 4.6 40 22:56 24.04.2020
4345 Clouds 9 1007 87 16093 4.6 40 22:38 24.04.2020
4346 Clouds 9 1007 87 16093 4.6 40 22:19 24.04.2020
4347 Clouds 9 1006 87 16093 3.6 40 21:55 24.04.2020
4348 Clouds 9 1006 87 16093 3.6 40 21:36 24.04.2020
4349 Rain 9 1006 87 16093 3.6 40 21:18 24.04.2020
4350 Rain 9 1006 93 16093 6.7 40 20:54 24.04.2020
4351 Rain 9 1006 93 16093 6.7 40 20:36 24.04.2020
4352 Rain 9 1006 93 16093 6.7 40 20:18 24.04.2020
4353 Rain 9 1005 87 11265 3.6 30 19:39 24.04.2020
4354 Rain 8 1005 87 11265 3.6 30 19:20 24.04.2020
4355 Rain 8 1005 87 16093 5.7 30 18:44 24.04.2020
4356 Rain 8 1005 87 16093 5.7 30 18:26 24.04.2020
4357 Rain 8 1005 93 16093 9.3 40 17:55 24.04.2020
4358 Rain 8 1005 93 16093 9.3 40 17:37 24.04.2020
4359 Rain 8 1005 93 16093 9.3 40 17:19 24.04.2020
4360 Rain 7 1006 93 11265 6.7 50 16:57 24.04.2020
4361 Rain 7 1006 93 11265 6.7 50 16:39 24.04.2020
4362 Rain 7 1006 93 11265 6.7 50 16:20 24.04.2020
4363 Rain 7 1007 100 2012 4.1 40 15:42 24.04.2020
4364 Rain 7 1007 93 3219 3.1 50 15:21 24.04.2020
4365 Rain 7 1007 93 3219 3.1 50 15:21 24.04.2020
4366 Rain 7 1007 93 3219 3.1 50 14:56 24.04.2020
4367 Rain 7 1007 93 3219 3.1 50 14:37 24.04.2020
4368 Rain 6 1007 93 12874 4.1 50 14:18 24.04.2020
4369 Clouds 6 1007 93 16093 6.2 30 13:41 24.04.2020
4370 Rain 6 1007 93 16093 6.7 30 13:21 24.04.2020
4371 Rain 6 1007 93 16093 6.7 30 12:58 24.04.2020
4372 Rain 6 1007 93 16093 6.7 30 12:40 24.04.2020
4373 Rain 6 1008 93 12874 5.7 30 12:20 24.04.2020
4374 Rain 6 1008 93 12874 5.7 30 11:55 24.04.2020
4375 Rain 6 1008 93 12874 5.7 30 11:36 24.04.2020
4376 Rain 6 1008 93 12874 5.7 30 11:18 24.04.2020
4377 Rain 6 1009 93 9656 6.2 30 10:38 24.04.2020
4378 Rain 6 1009 93 9656 6.2 30 10:20 24.04.2020
4379 Rain 6 1010 93 9656 4.6 30 09:57 24.04.2020
4380 Rain 6 1010 93 9656 4.6 30 09:39 24.04.2020
4381 Rain 6 1011 87 12874 5.1 30 09:20 24.04.2020
4382 Rain 6 1011 87 12874 5.1 30 08:43 24.04.2020
4383 Rain 6 1011 87 12874 5.1 30 08:23 24.04.2020
4384 Rain 6 1012 87 9656 5.7 30 07:59 24.04.2020
4385 Rain 6 1013 81 16093 4.6 30 07:41 24.04.2020
4386 Rain 6 1013 81 16093 4.6 30 07:22 24.04.2020
4387 Rain 6 1014 81 12874 4.1 50 06:48 24.04.2020
4388 Rain 6 1015 81 12874 2.1 60 06:30 24.04.2020
4389 Rain 7 1015 81 11265 1.5 0 05:40 24.04.2020
4390 Clouds 8 1015 49 16093 2.6 150 03:41 24.04.2020
4391 Clear 8 1016 53 16093 2.1 120 02:56 24.04.2020
4392 Clear 8 1016 53 16093 2.1 120 02:37 24.04.2020
4393 Clouds 8 1016 45 16093 2.6 150 01:47 24.04.2020
4394 Clouds 9 1017 45 16093 3.6 170 00:56 24.04.2020
4395 Clouds 9 1017 46 16093 3.1 180 00:20 24.04.2020
4396 Clouds 9 1017 46 16093 3.1 180 23:54 23.04.2020
4397 Clouds 10 1017 46 16093 3.1 180 23:36 23.04.2020
4398 Clouds 10 1017 46 16093 3.1 180 23:18 23.04.2020
4399 Clear 10 1017 27 16093 1.5 230 22:54 23.04.2020
4400 Clear 10 1017 27 16093 1.5 230 22:36 23.04.2020
4401 Clear 10 1017 27 16093 1.5 230 22:18 23.04.2020
4402 Clear 10 1018 34 16093 1.5 210 21:54 23.04.2020
4403 Clear 10 1018 34 16093 1.5 210 21:36 23.04.2020
4404 Clear 10 1018 34 16093 1.5 210 21:18 23.04.2020
4405 Clouds 9 1018 31 16093 1.71 127 20:41 23.04.2020
4406 Clouds 9 1018 31 16093 1.71 127 20:22 23.04.2020
4407 Clouds 9 1018 31 16093 1.71 127 20:22 23.04.2020
4408 Clouds 9 1019 34 16093 1.71 127 19:57 23.04.2020
4409 Clouds 9 1019 34 16093 1.71 127 19:39 23.04.2020
4410 Clouds 8 1019 34 16093 1.71 127 19:21 23.04.2020
4411 Clouds 8 1020 39 16093 1.71 127 18:56 23.04.2020
4412 Clouds 8 1020 39 16093 1.71 127 18:36 23.04.2020
4413 Clouds 7 1020 39 16093 1.29 326 18:18 23.04.2020
4414 Clouds 7 1019 45 16093 2.1 230 17:55 23.04.2020
4415 Clouds 7 1019 45 16093 2.1 230 17:36 23.04.2020
4416 Clouds 7 1019 45 16093 2.1 230 17:18 23.04.2020
4417 Rain 6 1020 48 16093 2.1 230 16:43 23.04.2020
4418 Rain 6 1020 48 16093 2.1 230 16:19 23.04.2020
4419 Clouds 5 1020 48 16093 1.5 0 15:43 23.04.2020
4420 Clouds 5 1020 48 16093 1.5 0 15:23 23.04.2020
4421 Clouds 5 1020 48 16093 1.5 0 15:23 23.04.2020
4422 Clouds 5 1019 41 16093 2.1 240 14:59 23.04.2020
4423 Clouds 5 1019 41 16093 2.1 240 14:39 23.04.2020
4424 Clouds 5 1019 41 16093 2.1 240 14:39 23.04.2020
4425 Clouds 5 1019 41 16093 2.1 240 14:21 23.04.2020
4426 Clouds 5 1019 41 16093 3.1 250 13:57 23.04.2020
4427 Clouds 5 1019 41 16093 3.1 250 13:38 23.04.2020
4428 Clouds 5 1019 41 16093 3.1 250 13:19 23.04.2020
4429 Clouds 4 1017 38 16093 2.39 255 12:55 23.04.2020
4430 Clouds 4 1017 38 16093 2.39 255 12:37 23.04.2020
4431 Clear 4 1018 38 16093 3.13 323 12:18 23.04.2020
4432 Clear 4 1018 38 16093 3.13 323 11:43 23.04.2020
4433 Clear 4 1018 38 16093 3.13 323 11:25 23.04.2020
4434 Clouds 4 1017 38 16093 1.5 0 10:56 23.04.2020
4435 Clouds 4 1017 38 16093 1.5 0 10:56 23.04.2020
4436 Clouds 4 1017 38 16093 1.5 0 10:38 23.04.2020
4437 Clear 4 1018 35 16093 1.5 0 10:19 23.04.2020
4438 Clear 4 1018 35 16093 1.5 0 09:37 23.04.2020
4439 Clear 5 1018 35 16093 1.5 0 09:18 23.04.2020
4440 Clear 5 1018 35 16093 1.5 0 08:46 23.04.2020
4441 Clear 5 1018 35 16093 1.5 0 08:27 23.04.2020
4442 Clear 5 1018 36 16093 5.8 308 07:44 23.04.2020
4443 Clear 5 1018 36 16093 5.8 308 07:24 23.04.2020
4444 Clear 5 1017 33 16093 2.1 240 06:57 23.04.2020
4445 Clear 6 1017 33 16093 2.1 240 06:39 23.04.2020
4446 Clear 6 1016 39 16093 1.5 0 05:32 23.04.2020
4447 Clear 7 1016 26 16093 6.76 327 04:54 23.04.2020
4448 Clear 9 1014 29 16093 4.1 280 02:41 23.04.2020
4449 Clear 9 1014 29 16093 4.1 280 02:22 23.04.2020
4450 Clear 9 1013 19 16093 4.6 300 01:35 23.04.2020
4451 Clear 10 1012 18 16093 7.71 287 00:49 23.04.2020
4452 Clear 11 1012 18 16093 8.94 279 00:25 23.04.2020
4453 Clear 11 1012 18 16093 4.6 270 23:53 22.04.2020
4454 Clear 11 1012 18 16093 4.6 270 23:26 22.04.2020
4455 Clear 11 1011 18 16093 3.1 0 22:59 22.04.2020
4456 Clear 11 1011 18 16093 3.1 0 22:39 22.04.2020
4457 Clouds 11 1011 23 16093 8.7 290 22:19 22.04.2020
4458 Clouds 10 1012 21 16093 6.2 300 21:57 22.04.2020
4459 Clouds 10 1012 21 16093 6.2 300 21:39 22.04.2020
4460 Clouds 10 1012 21 16093 6.2 300 21:20 22.04.2020
4461 Clouds 10 1012 21 16093 6.2 300 21:20 22.04.2020
4462 Clouds 10 1012 27 16093 4.1 260 20:55 22.04.2020
4463 Clouds 10 1012 21 16093 7.2 290 20:37 22.04.2020
4464 Clouds 9 1011 24 16093 12.9 300 20:18 22.04.2020
4465 Clouds 9 1011 24 16093 12.9 300 20:18 22.04.2020
4466 Clouds 9 1012 29 16093 3.6 280 19:55 22.04.2020
4467 Clouds 9 1012 29 16093 3.6 280 19:36 22.04.2020
4468 Clouds 8 1012 29 16093 6.7 260 19:18 22.04.2020
4469 Clouds 8 1012 29 16093 6.7 260 18:55 22.04.2020
4470 Clouds 8 1012 29 16093 6.7 260 18:55 22.04.2020
4471 Clear 7 1012 26 16093 4.6 280 18:37 22.04.2020
4472 Clouds 7 1012 33 16093 3.1 0 18:19 22.04.2020
4473 Clouds 7 1012 33 16093 3.1 0 17:42 22.04.2020
4474 Clouds 6 1012 39 16093 2.1 0 17:24 22.04.2020
4475 Clouds 6 1012 39 16093 2.1 0 16:56 22.04.2020
4476 Clouds 5 1012 32 16093 4.6 270 16:36 22.04.2020
4477 Clouds 5 1012 44 16093 2.6 0 16:18 22.04.2020
4478 Clouds 5 1012 44 16093 2.6 0 15:40 22.04.2020
4479 Clouds 4 1012 44 16093 2.6 0 15:21 22.04.2020
4480 Clouds 4 1012 48 16093 6.2 260 14:56 22.04.2020
4481 Clouds 4 1012 48 16093 6.2 260 14:37 22.04.2020
4482 Clouds 3 1012 48 16093 6.2 260 14:19 22.04.2020
4483 Clear 3 1011 47 16093 3.1 0 13:44 22.04.2020
4484 Clouds 2 1010 47 16093 7.95 288 13:20 22.04.2020
4485 Clouds 2 1010 47 16093 7.95 288 12:54 22.04.2020
4486 Clouds 2 1010 47 16093 7.95 288 12:54 22.04.2020
4487 Clouds 2 1010 47 16093 7.95 288 12:36 22.04.2020
4488 Clouds 2 1010 47 16093 8.68 293 12:18 22.04.2020
4489 Clouds 2 1009 40 16093 3.1 0 11:40 22.04.2020
4490 Clouds 3 1009 40 16093 8.68 293 11:20 22.04.2020
4491 Clouds 3 1009 40 16093 8.68 293 11:20 22.04.2020
4492 Clouds 3 1009 40 16093 8.68 293 10:57 22.04.2020
4493 Clouds 3 1009 40 16093 8.68 293 10:38 22.04.2020
4494 Clouds 3 1008 44 16093 4.1 310 10:18 22.04.2020
4495 Clouds 3 1008 44 16093 2.1 0 09:39 22.04.2020
4496 Clear 3 1008 38 16093 4.6 280 09:20 22.04.2020
4497 Clear 3 1008 38 16093 4.6 280 08:55 22.04.2020
4498 Clear 3 1008 38 16093 4.6 280 08:37 22.04.2020
4499 Clear 4 1008 38 16093 4.6 280 08:18 22.04.2020
4500 Clear 4 1008 52 16093 2.1 0 07:51 22.04.2020
4501 Clear 4 1008 52 16093 2.1 0 07:23 22.04.2020
4502 Clouds 4 1007 45 16093 8.94 297 06:52 22.04.2020
4503 Clear 5 1007 60 16093 1.5 0 05:47 22.04.2020
4504 Clear 5 1007 60 16093 1.5 0 05:27 22.04.2020
4505 Clear 5 1007 60 16093 1.5 0 05:27 22.04.2020
4506 Clear 6 1006 56 16093 2.6 0 04:18 22.04.2020
4507 Clear 7 1003 49 16093 3.1 0 02:40 22.04.2020
4508 Clouds 10 1001 50 16093 4.6 300 01:44 22.04.2020
4509 Rain 11 1001 37 16093 1.5 0 01:24 22.04.2020
4510 Rain 12 999 50 16093 5.1 250 00:47 22.04.2020
4511 Rain 12 999 50 16093 5.1 250 00:22 22.04.2020
4512 Clouds 13 998 71 16093 4.6 260 23:59 21.04.2020
4513 Clouds 13 998 71 16093 4.6 260 23:40 21.04.2020
4514 Rain 12 997 81 16093 4.6 260 23:18 21.04.2020
4515 Rain 11 997 81 16093 4.6 260 22:40 21.04.2020
4516 Rain 11 997 81 16093 4.6 260 22:21 21.04.2020
4517 Rain 10 997 81 16093 3.1 250 21:59 21.04.2020
4518 Rain 10 997 81 8047 1.5 0 21:40 21.04.2020
4519 Rain 9 997 81 8047 1.5 0 21:22 21.04.2020
4520 Rain 11 997 71 6437 3.6 340 20:55 21.04.2020
4521 Rain 14 997 71 16093 4.6 230 20:36 21.04.2020
4522 Rain 14 997 71 16093 4.6 230 20:18 21.04.2020
4523 Rain 13 999 76 16093 6.7 270 19:40 21.04.2020
4524 Rain 12 999 76 16093 6.7 270 19:19 21.04.2020
4525 Rain 12 999 76 9656 6.7 260 18:57 21.04.2020
4526 Rain 13 999 71 16093 3.1 180 18:38 21.04.2020
4527 Rain 14 999 71 16093 3.1 180 18:19 21.04.2020
4528 Clouds 14 1000 67 16093 3.1 150 17:55 21.04.2020
4529 Clouds 14 1000 67 16093 3.1 150 17:37 21.04.2020
4530 Clouds 15 1000 67 16093 3.1 150 17:18 21.04.2020
4531 Clouds 14 1001 67 16093 5.1 230 16:39 21.04.2020
4532 Clouds 13 1003 76 16093 3.6 220 16:19 21.04.2020
4533 Clouds 12 1003 76 16093 3.6 220 15:57 21.04.2020
4534 Clouds 12 1003 76 16093 3.6 220 15:39 21.04.2020
4535 Clouds 11 1003 76 16093 3.6 220 15:21 21.04.2020
4536 Clouds 10 1003 87 16093 3.6 210 14:57 21.04.2020
4537 Clouds 10 1003 87 16093 3.6 210 14:57 21.04.2020
4538 Clouds 9 1003 87 16093 3.6 210 14:39 21.04.2020
4539 Clouds 9 1004 81 16093 2.1 210 14:20 21.04.2020
4540 Clouds 8 1004 81 16093 2.1 210 13:41 21.04.2020
4541 Clouds 8 1004 81 16093 2.1 210 13:22 21.04.2020
4542 Clouds 7 1004 75 16093 1.5 210 12:55 21.04.2020
4543 Clouds 7 1004 75 16093 1.5 210 12:37 21.04.2020
4544 Clouds 7 1004 75 16093 1.5 210 12:18 21.04.2020
4545 Clear 7 1004 70 16093 4.45 197 11:55 21.04.2020
4546 Clear 7 1004 70 16093 4.45 197 11:36 21.04.2020
4547 Clear 7 1004 70 16093 4.45 197 11:18 21.04.2020
4548 Clouds 7 1005 65 16093 3.1 220 11:18 21.04.2020
4549 Clouds 7 1005 65 16093 3.1 220 10:55 21.04.2020
4550 Clouds 7 1005 65 16093 3.1 220 10:37 21.04.2020
4551 Clear 7 1006 65 16093 2.6 260 10:19 21.04.2020
4552 Clear 7 1006 65 16093 2.6 260 09:37 21.04.2020
4553 Clear 7 1006 65 16093 2.6 260 09:19 21.04.2020
4554 Clear 7 1006 65 16093 2.6 240 08:57 21.04.2020
4555 Clear 7 1006 65 16093 2.6 240 08:38 21.04.2020
4556 Clear 7 1006 65 16093 2.6 240 08:19 21.04.2020
4557 Clear 8 1006 61 16093 2.1 260 07:43 21.04.2020
4558 Clear 8 1006 61 16093 2.1 260 07:22 21.04.2020
4559 Clear 8 1006 57 16093 2.6 270 06:47 21.04.2020
4560 Clear 8 1006 57 16093 3.1 0 06:20 21.04.2020
4561 Clear 9 1006 57 16093 3.1 0 05:48 21.04.2020
4562 Clear 9 1005 49 16093 1.5 240 04:20 21.04.2020
4563 Clear 9 1005 49 16093 2.37 224 03:42 21.04.2020
4564 Clear 12 1003 32 16093 1.42 338 01:46 21.04.2020
4565 Clear 12 1003 32 16093 1.42 338 01:25 21.04.2020
4566 Clear 13 1003 30 16093 1.42 338 00:37 21.04.2020
4567 Clear 13 1003 32 16093 2.09 9 23:45 20.04.2020
4568 Clear 13 1003 32 16093 2.09 9 23:25 20.04.2020
4569 Clear 13 1003 35 16093 2.09 9 22:58 20.04.2020
4570 Clear 13 1003 35 16093 2.09 9 22:39 20.04.2020
4571 Clear 13 1003 35 16093 2.09 9 22:20 20.04.2020
4572 Clear 13 1003 35 16093 2.09 9 22:20 20.04.2020
4573 Clear 13 1003 30 16093 2.1 150 21:58 20.04.2020
4574 Clear 13 1003 30 16093 2.1 150 21:39 20.04.2020
4575 Clear 12 1003 37 16093 1.5 0 21:19 20.04.2020
4576 Clear 12 1003 37 16093 1.5 0 20:58 20.04.2020
4577 Clear 12 1003 37 16093 1.5 0 20:39 20.04.2020
4578 Clear 12 1003 37 16093 1.5 0 20:19 20.04.2020
4579 Clear 11 1004 45 16093 4.1 60 19:58 20.04.2020
4580 Clear 11 1004 45 16093 4.1 60 19:39 20.04.2020
4581 Clear 11 1004 45 16093 4.1 60 19:19 20.04.2020
4582 Clear 10 1005 53 16093 2.1 0 18:43 20.04.2020
4583 Clear 10 1005 53 16093 2.1 0 18:24 20.04.2020
4584 Clear 10 1005 53 16093 4.1 60 17:58 20.04.2020
4585 Clear 10 1005 53 16093 4.1 60 17:40 20.04.2020
4586 Clouds 10 1005 57 16093 4.6 70 17:21 20.04.2020
4587 Clouds 10 1005 57 16093 4.6 70 16:59 20.04.2020
4588 Clouds 10 1005 57 16093 4.6 70 16:40 20.04.2020
4589 Clouds 10 1005 57 16093 4.6 70 16:19 20.04.2020
4590 Clear 10 1005 62 16093 4.6 50 15:55 20.04.2020
4591 Clear 10 1005 62 16093 4.6 50 15:36 20.04.2020
4592 Clear 10 1005 62 16093 4.6 50 15:18 20.04.2020
4593 Clear 11 1006 62 16093 3.6 40 14:40 20.04.2020
4594 Clouds 11 1005 62 16093 3.6 60 14:19 20.04.2020
4595 Clouds 11 1005 62 16093 3.6 60 13:56 20.04.2020
4596 Clouds 11 1005 62 16093 3.6 60 13:56 20.04.2020
4597 Clouds 11 1005 62 16093 3.6 60 13:56 20.04.2020
4598 Clouds 11 1005 62 16093 3.6 60 13:37 20.04.2020
4599 Clouds 11 1005 62 16093 3.6 60 13:37 20.04.2020
4600 Clouds 11 1005 62 16093 3.6 60 13:19 20.04.2020
4601 Clouds 11 1005 62 16093 1.5 0 12:43 20.04.2020
4602 Clouds 11 1005 62 16093 1.5 0 12:22 20.04.2020
4603 Clouds 11 1005 54 16093 3.83 350 11:54 20.04.2020
4604 Clouds 11 1005 54 16093 3.83 350 11:36 20.04.2020
4605 Clouds 11 1005 50 16093 1.5 90 11:18 20.04.2020
4606 Clouds 12 1005 50 16093 1.5 90 10:54 20.04.2020
4607 Clouds 12 1005 50 16093 1.5 90 10:36 20.04.2020
4608 Clouds 12 1005 50 16093 1.5 90 10:18 20.04.2020
4609 Clouds 12 1005 50 16093 4.08 351 09:41 20.04.2020
4610 Clouds 12 1005 50 16093 2.6 291 09:23 20.04.2020
4611 Clouds 12 1006 50 16093 2.6 291 08:56 20.04.2020
4612 Clouds 12 1006 50 16093 2.6 291 08:38 20.04.2020
4613 Clouds 12 1006 50 16093 2.6 291 08:18 20.04.2020
4614 Clouds 12 1006 47 16093 3.1 270 07:42 20.04.2020
4615 Clouds 12 1007 47 16093 2.6 270 07:20 20.04.2020
4616 Clouds 12 1007 47 16093 2.6 270 06:38 20.04.2020
4617 Clear 13 1007 47 16093 3.1 250 05:58 20.04.2020
4618 Clouds 13 1007 47 16093 3.6 270 04:49 20.04.2020
4619 Clouds 14 1007 47 16093 4.6 260 02:52 20.04.2020
4620 Clouds 14 1007 47 16093 4.6 260 02:33 20.04.2020
4621 Clouds 15 1007 44 16093 6.7 250 01:30 20.04.2020
4622 Clouds 15 1008 44 16093 6.2 250 00:47 20.04.2020
4623 Clouds 15 1008 44 16093 6.2 250 00:22 20.04.2020
4624 Clear 15 1008 44 16093 7.2 250 23:40 19.04.2020
4625 Clear 16 1008 44 16093 7.2 250 23:21 19.04.2020
4626 Clear 16 1008 38 16093 6.7 240 22:59 19.04.2020
4627 Clear 16 1008 38 16093 6.7 240 22:38 19.04.2020
4628 Clear 16 1008 38 16093 6.7 240 22:19 19.04.2020
4629 Clear 16 1009 38 16093 5.7 220 21:43 19.04.2020
4630 Clear 16 1009 38 16093 5.7 220 21:25 19.04.2020
4631 Clear 16 1010 38 16093 5.7 230 20:59 19.04.2020
4632 Clear 16 1010 38 16093 5.7 230 20:41 19.04.2020
4633 Clear 16 1010 38 16093 5.7 230 20:20 19.04.2020
4634 Clear 15 1011 38 16093 6.2 260 19:57 19.04.2020
4635 Clear 15 1011 38 16093 6.2 260 19:39 19.04.2020
4636 Clear 15 1011 38 16093 6.2 260 19:21 19.04.2020
4637 Clear 14 1013 41 16093 6.2 260 18:57 19.04.2020
4638 Clear 14 1013 41 16093 6.2 260 18:39 19.04.2020
4639 Clear 14 1013 41 16093 6.2 260 18:19 19.04.2020
4640 Clear 13 1013 47 16093 5.1 240 17:56 19.04.2020
4641 Clear 12 1013 47 16093 5.1 240 17:38 19.04.2020
4642 Clear 12 1013 47 16093 5.1 240 17:20 19.04.2020
4643 Clear 11 1014 50 16093 5.1 260 16:56 19.04.2020
4644 Clear 11 1014 50 16093 5.1 260 16:36 19.04.2020
4645 Clear 11 1014 50 16093 5.1 260 16:18 19.04.2020
4646 Clear 9 1015 61 16093 5.1 260 15:42 19.04.2020
4647 Clear 8 1015 61 16093 5.1 260 15:21 19.04.2020
4648 Clear 7 1015 70 16093 5.1 260 14:54 19.04.2020
4649 Clear 6 1015 70 16093 5.1 260 14:36 19.04.2020
4650 Clear 6 1015 64 16093 3.6 270 14:18 19.04.2020
4651 Clear 5 1015 64 16093 3.6 270 13:39 19.04.2020
4652 Clear 4 1014 69 16093 3.1 270 13:19 19.04.2020
4653 Clear 4 1014 69 16093 3.1 270 12:49 19.04.2020
4654 Clear 4 1014 69 16093 3.1 270 12:25 19.04.2020
4655 Clear 4 1014 69 16093 3.1 270 12:25 19.04.2020
4656 Clear 4 1015 64 16093 4.1 260 11:56 19.04.2020
4657 Clear 4 1015 64 16093 4.1 260 11:37 19.04.2020
4658 Clear 4 1015 64 16093 4.1 260 11:18 19.04.2020
4659 Clear 4 1015 60 16093 2.6 280 10:55 19.04.2020
4660 Clear 4 1015 60 16093 2.6 280 10:37 19.04.2020
4661 Clear 5 1015 60 16093 2.6 280 10:18 19.04.2020
4662 Clear 5 1015 60 16093 1.5 260 09:44 19.04.2020
4663 Clear 5 1015 60 16093 1.5 260 09:25 19.04.2020
4664 Clear 5 1015 56 16093 2.6 260 08:41 19.04.2020
4665 Clear 5 1015 56 16093 2.6 260 08:41 19.04.2020
4666 Clear 5 1015 56 16093 2.6 260 08:22 19.04.2020
4667 Clear 5 1015 52 16093 2.1 250 07:59 19.04.2020
4668 Clear 5 1015 52 16093 2.1 250 07:41 19.04.2020
4669 Clear 5 1014 56 16093 2.1 250 07:21 19.04.2020
4670 Clear 5 1014 56 16093 2.1 250 06:28 19.04.2020
4671 Clear 6 1014 52 16093 3.6 250 05:47 19.04.2020
4672 Clear 6 1014 52 16093 6.35 319 04:43 19.04.2020
4673 Clouds 7 1013 49 16093 2.1 0 02:59 19.04.2020
4674 Clouds 7 1013 49 16093 2.1 0 02:21 19.04.2020
4675 Clouds 7 1012 61 16093 1.5 0 01:38 19.04.2020
4676 Clouds 8 1011 65 16093 1.5 0 00:48 19.04.2020
4677 Clouds 8 1011 65 16093 1.5 0 00:25 19.04.2020
4678 Clouds 8 1010 64 16093 5.82 345 23:47 18.04.2020
4679 Clouds 8 1010 66 16093 1.5 0 23:22 18.04.2020
4680 Clouds 8 1009 70 16093 2.1 0 22:59 18.04.2020
4681 Clouds 8 1009 70 16093 3.1 50 22:40 18.04.2020
4682 Clouds 8 1008 70 16093 2.6 190 22:21 18.04.2020
4683 Clouds 8 1008 70 16093 2.6 190 21:56 18.04.2020
4684 Clouds 8 1008 70 16093 2.6 190 21:37 18.04.2020
4685 Clouds 7 1008 75 16093 8.72 344 21:19 18.04.2020
4686 Clouds 7 1008 75 16093 8.72 344 20:42 18.04.2020
4687 Clouds 7 1008 87 16093 4.1 60 20:22 18.04.2020
4688 Clouds 7 1008 87 16093 4.1 60 19:59 18.04.2020
4689 Clouds 7 1008 87 16093 4.1 60 19:38 18.04.2020
4690 Clouds 7 1008 87 16093 4.1 60 19:19 18.04.2020
4691 Rain 6 1008 93 16093 2.6 50 18:38 18.04.2020
4692 Rain 6 1008 93 16093 2.6 50 18:20 18.04.2020
4693 Rain 6 1008 93 11265 5.1 40 17:55 18.04.2020
4694 Rain 6 1008 93 11265 5.1 40 17:36 18.04.2020
4695 Rain 6 1008 93 11265 5.1 40 17:18 18.04.2020
4696 Rain 6 1007 93 6437 4.81 309 16:42 18.04.2020
4697 Rain 7 1007 93 11265 4.6 60 16:22 18.04.2020
4698 Rain 7 1007 93 12874 3.1 50 15:40 18.04.2020
4699 Rain 7 1007 93 12874 3.1 50 15:22 18.04.2020
4700 Rain 7 1007 93 16093 2.6 50 14:54 18.04.2020
4701 Rain 7 1007 93 16093 2.6 40 14:36 18.04.2020
4702 Rain 7 1007 93 16093 2.6 40 14:18 18.04.2020
4703 Rain 7 1007 93 16093 3.1 60 13:42 18.04.2020
4704 Rain 7 1007 93 16093 5.7 60 13:20 18.04.2020
4705 Rain 6 1007 93 16093 5.7 60 12:43 18.04.2020
4706 Rain 6 1007 93 16093 5.7 60 12:24 18.04.2020
4707 Rain 6 1008 93 12874 3.1 40 11:57 18.04.2020
4708 Rain 6 1008 93 11265 3.1 50 11:39 18.04.2020
4709 Rain 6 1009 93 16093 3.6 20 11:20 18.04.2020
4710 Rain 6 1009 93 16093 3.6 20 10:42 18.04.2020
4711 Rain 6 1009 93 16093 3.6 20 10:22 18.04.2020
4712 Rain 6 1010 93 14484 5.1 50 09:59 18.04.2020
4713 Rain 6 1010 93 14484 5.1 50 09:40 18.04.2020
4714 Rain 6 1010 93 14484 5.1 50 09:20 18.04.2020
4715 Rain 6 1012 87 4828 3.6 60 08:43 18.04.2020
4716 Rain 6 1011 87 11265 3.6 40 08:22 18.04.2020
4717 Rain 6 1011 87 11265 3.6 40 08:22 18.04.2020
4718 Rain 6 1013 81 14484 3.6 30 07:48 18.04.2020
4719 Rain 6 1013 81 14484 3.6 30 07:28 18.04.2020
4720 Rain 6 1013 81 16093 3.6 50 06:49 18.04.2020
4721 Rain 7 1015 75 16093 1.5 70 05:49 18.04.2020
4722 Rain 7 1017 70 16093 4.1 170 04:56 18.04.2020
4723 Rain 7 1017 70 16093 4.1 170 04:31 18.04.2020
4724 Rain 7 1018 75 16093 4.1 190 03:34 18.04.2020
4725 Rain 7 1018 70 16093 4.36 180 02:42 18.04.2020
4726 Rain 7 1018 70 16093 5.43 177 02:21 18.04.2020
4727 Rain 6 1019 70 16093 3.6 230 01:45 18.04.2020
4728 Rain 6 1019 70 16093 3.6 230 01:22 18.04.2020
4729 Clouds 7 1020 52 16093 2.6 260 00:37 18.04.2020
4730 Clouds 7 1020 52 16093 2.6 260 00:18 18.04.2020
4731 Clouds 8 1020 52 16093 5.1 270 23:41 17.04.2020
4732 Clouds 8 1020 52 16093 5.1 270 23:20 17.04.2020
4733 Clouds 8 1020 52 16093 5.1 270 23:20 17.04.2020
4734 Clouds 9 1021 42 16093 8.2 230 22:59 17.04.2020
4735 Clouds 9 1021 42 16093 8.2 230 22:40 17.04.2020
4736 Clouds 9 1021 42 16093 8.2 230 22:20 17.04.2020
4737 Clouds 10 1022 31 16093 7.2 260 21:58 17.04.2020
4738 Clouds 10 1022 31 16093 7.2 260 21:40 17.04.2020
4739 Clouds 10 1023 31 16093 7.7 250 21:20 17.04.2020
4740 Clouds 10 1023 31 16093 7.7 250 20:56 17.04.2020
4741 Clouds 10 1023 31 16093 7.7 250 20:37 17.04.2020
4742 Clouds 10 1023 29 16093 6.2 240 20:18 17.04.2020
4743 Clouds 10 1023 29 16093 6.2 240 19:55 17.04.2020
4744 Clouds 10 1023 29 16093 6.2 240 19:37 17.04.2020
4745 Clouds 9 1023 29 16093 6.2 240 19:18 17.04.2020
4746 Clear 9 1025 34 16093 5.1 230 18:40 17.04.2020
4747 Clear 9 1025 34 16093 5.1 230 18:20 17.04.2020
4748 Clear 8 1026 31 16093 2.1 0 17:38 17.04.2020
4749 Clear 7 1027 39 16093 5.7 250 17:20 17.04.2020
4750 Clear 7 1027 39 16093 5.7 250 16:59 17.04.2020
4751 Clear 7 1027 39 16093 5.7 250 16:41 17.04.2020
4752 Clear 7 1027 39 16093 5.7 250 16:21 17.04.2020
4753 Clear 6 1027 41 16093 4.6 270 15:39 17.04.2020
4754 Clear 6 1027 41 16093 4.6 270 15:21 17.04.2020
4755 Clear 4 1027 55 16093 4.1 250 14:54 17.04.2020
4756 Clear 4 1027 55 16093 4.1 250 14:36 17.04.2020
4757 Clear 4 1027 55 16093 4.1 250 14:18 17.04.2020
4758 Clear 2 1027 59 16093 3.1 260 13:40 17.04.2020
4759 Clear 1 1027 59 16093 3.1 260 13:20 17.04.2020
4760 Clear 1 1026 59 16093 3.6 250 12:48 17.04.2020
4761 Clear 1 1026 59 16093 3.6 250 12:27 17.04.2020
4762 Clear 1 1025 59 16093 3.1 250 11:59 17.04.2020
4763 Clear 1 1025 59 16093 3.1 250 11:40 17.04.2020
4764 Clear 1 1025 59 16093 3.1 250 11:19 17.04.2020
4765 Clear 0 1025 60 16093 3.6 260 10:40 17.04.2020
4766 Clear 0 1025 60 16093 3.6 260 10:20 17.04.2020
4767 Clear 1 1025 55 16093 3.6 260 09:55 17.04.2020
4768 Clear 1 1025 55 16093 3.6 260 09:37 17.04.2020
4769 Clear 1 1025 55 16093 3.6 260 09:18 17.04.2020
4770 Clouds 1 1026 55 0 0.89 273 08:46 17.04.2020
4771 Clear 1 1025 55 16093 2.6 260 08:27 17.04.2020
4772 Clear 1 1025 55 16093 2.6 260 07:57 17.04.2020
4773 Clear 2 1025 55 16093 2.6 260 07:39 17.04.2020
4774 Clear 2 1025 55 16093 2.6 260 07:18 17.04.2020
4775 Clear 2 1024 55 16093 2.1 0 06:44 17.04.2020
4776 Clear 3 1024 52 16093 1.5 0 05:58 17.04.2020
4777 Clouds 5 1021 42 16093 5.7 260 03:24 17.04.2020
4778 Clouds 5 1021 42 16093 5.7 260 02:52 17.04.2020
4779 Clouds 7 1020 22 16093 2.1 0 01:46 17.04.2020
4780 Clouds 7 1020 22 16093 2.1 0 01:22 17.04.2020
4781 Clouds 8 1020 22 16093 3.6 340 00:21 17.04.2020
4782 Clouds 8 1020 25 16093 3.1 0 23:55 16.04.2020
4783 Clouds 8 1020 25 16093 3.1 0 23:37 16.04.2020
4784 Clouds 8 1020 20 16093 2.6 0 23:19 16.04.2020
4785 Clouds 8 1020 20 16093 4.6 280 22:40 16.04.2020
4786 Clouds 8 1020 26 16093 1.5 0 22:22 16.04.2020
4787 Clouds 8 1020 26 16093 1.5 0 21:59 16.04.2020
4788 Clouds 8 1020 26 16093 1.5 0 21:40 16.04.2020
4789 Clouds 8 1019 27 16093 3.6 320 21:19 16.04.2020
4790 Clouds 8 1019 27 16093 3.6 320 20:43 16.04.2020
4791 Clouds 8 1019 27 16093 5.1 270 20:23 16.04.2020
4792 Clouds 8 1019 27 16093 5.1 270 19:59 16.04.2020
4793 Clouds 8 1020 26 16093 6.7 300 19:39 16.04.2020
4794 Clouds 8 1020 26 16093 6.7 300 19:20 16.04.2020
4795 Clouds 8 1019 31 16093 3.6 310 18:56 16.04.2020
4796 Clouds 8 1019 31 16093 3.6 310 18:38 16.04.2020
4797 Clouds 8 1019 31 16093 3.6 310 18:20 16.04.2020
4798 Clouds 7 1019 31 16093 2.6 0 17:45 16.04.2020
4799 Clouds 7 1020 39 16093 2.1 0 17:25 16.04.2020
4800 Clouds 7 1020 39 16093 2.1 0 16:59 16.04.2020
4801 Clouds 7 1020 39 16093 2.1 0 16:41 16.04.2020
4802 Clear 6 1019 48 16093 1.5 0 16:19 16.04.2020
4803 Clear 6 1019 48 16093 1.5 0 15:42 16.04.2020
4804 Clouds 5 1019 56 16093 2.1 0 15:19 16.04.2020
4805 Clouds 5 1019 56 16093 2.1 0 14:58 16.04.2020
4806 Clouds 5 1019 56 16093 2.1 0 14:39 16.04.2020
4807 Clouds 5 1018 69 16093 1.5 0 14:19 16.04.2020
4808 Clouds 5 1018 69 16093 1.5 0 13:56 16.04.2020
4809 Clouds 5 1018 69 16093 1.5 0 13:36 16.04.2020
4810 Clouds 5 1016 56 16093 6.7 260 13:18 16.04.2020
4811 Clouds 5 1016 56 16093 6.7 260 12:56 16.04.2020
4812 Clouds 5 1016 56 16093 6.7 260 12:56 16.04.2020
4813 Clouds 6 1016 56 16093 6.7 260 12:37 16.04.2020
4814 Clouds 6 1016 52 16093 6.2 270 12:18 16.04.2020
4815 Clouds 6 1016 52 16093 6.2 270 11:54 16.04.2020
4816 Clouds 6 1016 52 16093 6.2 270 11:36 16.04.2020
4817 Clouds 6 1016 52 16093 6.2 270 11:18 16.04.2020
4818 Clouds 6 1016 52 16093 6.2 270 10:39 16.04.2020
4819 Clouds 6 1015 49 16093 6.7 260 10:19 16.04.2020
4820 Clouds 7 1015 49 16093 6.7 260 09:58 16.04.2020
4821 Clouds 7 1015 49 16093 6.7 260 09:38 16.04.2020
4822 Clouds 7 1015 49 16093 5.7 260 09:19 16.04.2020
4823 Clouds 7 1015 49 16093 5.7 260 09:19 16.04.2020
4824 Clouds 7 1015 49 16093 5.7 260 08:42 16.04.2020
4825 Clear 7 1015 49 16093 6.2 240 08:23 16.04.2020
4826 Clear 6 1015 49 16093 6.2 240 07:46 16.04.2020
4827 Clear 6 1016 39 16093 6.2 260 07:28 16.04.2020
4828 Clear 6 1016 39 16093 6.2 260 07:28 16.04.2020
4829 Clear 7 1016 39 16093 6.2 260 06:46 16.04.2020
4830 Clear 7 1015 42 16093 5.1 240 06:27 16.04.2020
4831 Clear 7 1015 42 16093 5.1 240 05:59 16.04.2020
4832 Clear 7 1016 42 16093 4.6 240 04:44 16.04.2020
4833 Clouds 7 1015 26 16093 2.1 0 03:25 16.04.2020
4834 Clear 8 1014 21 16093 4.34 261 02:55 16.04.2020
4835 Clear 8 1014 21 16093 4.34 261 02:33 16.04.2020
4836 Clear 10 1013 18 16093 2.6 0 01:22 16.04.2020
4837 Clouds 10 1013 25 16093 3.1 0 00:39 16.04.2020
4838 Clear 11 1013 20 16093 3.1 0 00:18 16.04.2020
4839 Clouds 11 1012 18 16093 3.1 0 23:43 15.04.2020
4840 Clear 11 1013 25 16093 5.1 260 23:24 15.04.2020
4841 Clear 11 1013 25 16093 5.1 260 22:58 15.04.2020
4842 Clear 11 1013 25 16093 5.1 260 22:37 15.04.2020
4843 Clouds 11 1013 27 16093 1.5 0 22:19 15.04.2020
4844 Clouds 11 1013 27 16093 1.5 0 21:54 15.04.2020
4845 Clouds 11 1013 27 16093 1.5 0 21:36 15.04.2020
4846 Clouds 10 1014 27 16093 1.5 0 21:18 15.04.2020
4847 Clouds 10 1014 27 16093 1.5 0 20:54 15.04.2020
4848 Clouds 10 1014 27 16093 1.5 0 20:36 15.04.2020
4849 Clear 10 1014 23 16093 2.6 0 20:18 15.04.2020
4850 Clouds 10 1014 23 16093 1.5 0 19:40 15.04.2020
4851 Clouds 10 1014 23 16093 1.5 0 19:20 15.04.2020
4852 Clear 9 1015 29 16093 3.6 250 18:41 15.04.2020
4853 Clear 9 1016 33 16093 2.1 260 18:23 15.04.2020
4854 Clear 8 1016 34 16093 3.6 250 17:58 15.04.2020
4855 Clear 8 1016 34 16093 3.6 250 17:39 15.04.2020
4856 Clear 8 1016 36 16093 2.6 0 17:20 15.04.2020
4857 Clear 7 1016 36 16093 2.6 0 16:56 15.04.2020
4858 Clear 6 1016 36 16093 2.6 0 16:37 15.04.2020
4859 Clouds 6 1016 48 16093 3.1 0 16:19 15.04.2020
4860 Clouds 6 1016 48 16093 3.1 0 15:57 15.04.2020
4861 Clouds 5 1016 48 16093 3.1 0 15:38 15.04.2020
4862 Clouds 5 1016 48 16093 1.5 0 15:19 15.04.2020
4863 Clouds 5 1016 48 16093 2.6 0 14:57 15.04.2020
4864 Clouds 5 1016 48 16093 2.6 0 14:38 15.04.2020
4865 Clouds 5 1016 48 16093 2.1 0 14:20 15.04.2020
4866 Clouds 5 1016 48 16093 2.1 0 13:57 15.04.2020
4867 Clouds 5 1016 48 16093 2.1 0 13:38 15.04.2020
4868 Clouds 5 1015 65 16093 1.5 0 13:19 15.04.2020
4869 Clouds 5 1015 65 16093 1.5 0 12:42 15.04.2020
4870 Clouds 5 1015 65 16093 3.1 250 12:23 15.04.2020
4871 Clouds 5 1015 65 16093 3.1 250 12:23 15.04.2020
4872 Clouds 5 1015 65 16093 3.1 250 11:59 15.04.2020
4873 Clouds 5 1015 65 16093 3.1 250 11:59 15.04.2020
4874 Clouds 5 1015 65 16093 3.1 250 11:40 15.04.2020
4875 Clouds 5 1015 65 16093 1.5 0 11:22 15.04.2020
4876 Clouds 6 1015 65 16093 1.5 0 10:56 15.04.2020
4877 Clouds 6 1015 65 16093 1.5 0 10:36 15.04.2020
4878 Rain 6 1016 65 16093 1.5 0 10:18 15.04.2020
4879 Clouds 6 1016 65 16093 2.1 0 09:54 15.04.2020
4880 Clouds 6 1016 65 16093 2.1 0 09:36 15.04.2020
4881 Clouds 7 1015 61 16093 3.1 0 09:18 15.04.2020
4882 Clouds 7 1015 61 16093 3.1 0 08:40 15.04.2020
4883 Clouds 8 1016 57 16093 4.4 288 08:19 15.04.2020
4884 Clouds 8 1016 57 16093 4.4 288 07:54 15.04.2020
4885 Clouds 8 1016 57 16093 4.4 288 07:32 15.04.2020
4886 Clouds 9 1016 53 16093 3.1 0 06:34 15.04.2020
4887 Clouds 9 1016 66 16093 2.6 240 05:51 15.04.2020
4888 Clouds 9 1016 66 16093 3.1 200 05:20 15.04.2020
4889 Clouds 10 1016 66 16093 3.1 200 04:44 15.04.2020
4890 Clouds 10 1017 57 16093 4.1 200 03:40 15.04.2020
4891 Clouds 10 1015 50 16093 3.6 190 03:18 15.04.2020
4892 Clouds 10 1015 50 16093 3.6 190 02:30 15.04.2020
4893 Clouds 11 1017 50 16093 4.1 210 01:44 15.04.2020
4894 Clouds 11 1017 35 16093 4.1 240 01:19 15.04.2020
4895 Clouds 12 1014 37 16093 4.6 210 00:37 15.04.2020
4896 Clouds 12 1015 30 16093 2.1 260 00:18 15.04.2020
4897 Clear 13 1016 30 16093 3.28 181 23:54 14.04.2020
4898 Clear 13 1016 30 16093 3.28 181 23:36 14.04.2020
4899 Clear 13 1016 30 16093 3.28 181 23:36 14.04.2020
4900 Clear 13 1016 30 16093 3.28 181 23:18 14.04.2020
4901 Clear 13 1017 30 16093 3.1 280 22:55 14.04.2020
4902 Clear 13 1017 38 16093 1.5 210 22:36 14.04.2020
4903 Clear 13 1017 38 16093 1.5 210 22:18 14.04.2020
4904 Clear 14 1017 38 16093 1.5 210 21:55 14.04.2020
4905 Clear 14 1017 38 16093 1.5 210 21:36 14.04.2020
4906 Clear 13 1018 33 16093 3.1 200 21:18 14.04.2020
4907 Clear 13 1018 33 16093 3.1 200 20:40 14.04.2020
4908 Clear 13 1018 33 16093 3.1 200 20:40 14.04.2020
4909 Clear 13 1018 35 16093 3.1 0 20:22 14.04.2020
4910 Clear 13 1018 35 16093 3.1 0 19:58 14.04.2020
4911 Clear 12 1018 35 16093 3.1 0 19:39 14.04.2020
4912 Clouds 12 1020 34 16093 3.1 0 19:20 14.04.2020
4913 Clouds 12 1020 34 16093 3.1 0 18:56 14.04.2020
4914 Clouds 12 1020 34 16093 3.1 0 18:38 14.04.2020
4915 Clear 11 1019 34 16093 3.6 250 18:19 14.04.2020
4916 Clear 11 1019 34 16093 3.6 250 17:56 14.04.2020
4917 Clear 11 1019 34 16093 3.6 250 17:37 14.04.2020
4918 Clear 10 1019 37 16093 1.5 0 17:19 14.04.2020
4919 Clear 10 1019 37 16093 1.5 0 16:41 14.04.2020
4920 Clouds 10 1019 46 16093 2.1 0 16:23 14.04.2020
4921 Clouds 10 1019 46 16093 2.1 0 15:58 14.04.2020
4922 Clouds 10 1019 46 16093 2.1 0 15:39 14.04.2020
4923 Clear 9 1019 49 16093 2.1 0 15:20 14.04.2020
4924 Clear 9 1019 49 16093 2.1 0 14:58 14.04.2020
4925 Clear 9 1019 49 16093 2.1 0 14:40 14.04.2020
4926 Clear 8 1017 58 16093 2.1 270 14:21 14.04.2020
4927 Clear 8 1017 58 16093 2.1 270 13:56 14.04.2020
4928 Clear 8 1016 58 16093 1.5 0 13:37 14.04.2020
4929 Clear 8 1016 58 16093 1.5 0 13:19 14.04.2020
4930 Clear 7 1016 58 16093 1.5 0 12:41 14.04.2020
4931 Clear 8 1016 57 16093 2.6 0 12:21 14.04.2020
4932 Clear 8 1016 57 16093 2.6 0 12:21 14.04.2020
4933 Clear 8 1016 57 16093 2.6 0 11:55 14.04.2020
4934 Clear 8 1016 57 16093 2.6 0 11:37 14.04.2020
4935 Clear 8 1016 57 16093 2.6 0 11:18 14.04.2020
4936 Clear 9 1016 57 16093 2.6 0 10:43 14.04.2020
4937 Clear 9 1016 57 16093 3.1 0 10:23 14.04.2020
4938 Clear 9 1015 50 16093 5.1 300 09:55 14.04.2020
4939 Clear 9 1015 50 16093 5.1 300 09:37 14.04.2020
4940 Clear 10 1015 50 16093 5.1 300 09:18 14.04.2020
4941 Clear 10 1014 54 16093 2.1 0 08:41 14.04.2020
4942 Clear 11 1013 54 16093 3.1 0 08:22 14.04.2020
4943 Clear 11 1013 54 16093 3.1 0 07:53 14.04.2020
4944 Clear 9 1015 62 0 7.11 304 07:30 14.04.2020
4945 Clear 13 1012 54 16093 7.11 304 06:49 14.04.2020
4946 Clear 14 1012 47 16093 5.7 280 06:24 14.04.2020
4947 Clear 12 1012 63 0 8.98 299 03:52 14.04.2020
4948 Clouds 18 1004 72 16093 7.7 260 02:56 14.04.2020
4949 Rain 18 1002 88 16093 3.6 280 01:49 14.04.2020
4950 Rain 18 1000 93 16093 6.2 270 01:24 14.04.2020
4951 Rain 17 1000 93 16093 6.2 270 00:39 14.04.2020
4952 Rain 17 998 93 11265 4.1 260 00:19 14.04.2020
4953 Rain 17 998 93 11265 4.1 260 23:44 13.04.2020
4954 Rain 16 998 93 16093 5.1 220 23:26 13.04.2020
4955 Rain 16 998 93 16093 5.1 220 22:59 13.04.2020
4956 Rain 16 998 93 16093 5.1 220 22:41 13.04.2020
4957 Rain 16 999 93 9656 4.6 210 22:22 13.04.2020
4958 Rain 15 999 93 9656 4.6 210 21:56 13.04.2020
4959 Rain 15 999 93 9656 4.6 210 21:37 13.04.2020
4960 Rain 15 999 93 9656 4.6 210 21:37 13.04.2020
4961 Rain 15 999 93 9656 4.6 210 21:37 13.04.2020
4962 Rain 15 999 93 8047 5.1 200 21:37 13.04.2020
4963 Rain 15 999 93 9656 4.6 210 21:37 13.04.2020
4964 Rain 15 999 93 8047 5.1 200 21:19 13.04.2020
4965 Rain 16 1001 93 9656 7.7 200 20:55 13.04.2020
4966 Rain 16 1001 93 9656 7.7 200 20:37 13.04.2020
4967 Rain 16 1003 93 11265 3.6 210 20:18 13.04.2020
4968 Rain 15 1003 93 11265 3.6 210 19:39 13.04.2020
4969 Rain 15 1003 93 11265 3.6 210 19:39 13.04.2020
4970 Rain 15 1005 100 9656 7.7 200 19:20 13.04.2020
4971 Rain 15 1005 100 9656 7.7 200 18:59 13.04.2020
4972 Rain 15 1005 100 9656 7.7 200 18:39 13.04.2020
4973 Rain 15 1006 93 4828 3.1 0 18:20 13.04.2020
4974 Rain 15 1006 93 4828 3.1 0 17:58 13.04.2020
4975 Rain 15 1006 93 4828 3.1 0 17:39 13.04.2020
4976 Rain 15 1008 93 4828 8.2 190 17:20 13.04.2020
4977 Rain 15 1008 93 4828 8.2 190 16:59 13.04.2020
4978 Rain 15 1008 93 4828 8.2 190 16:41 13.04.2020
4979 Rain 15 1010 93 8047 7.2 180 16:21 13.04.2020
4980 Rain 15 1010 93 8047 7.2 180 15:59 13.04.2020
4981 Rain 14 1010 93 8047 7.2 180 15:41 13.04.2020
4982 Rain 14 1011 100 6437 5.1 180 15:23 13.04.2020
4983 Rain 14 1011 100 6437 5.1 180 14:56 13.04.2020
4984 Rain 14 1011 100 6437 5.1 180 14:38 13.04.2020
4985 Rain 13 1013 93 8047 3.1 210 14:20 13.04.2020
4986 Rain 13 1013 93 8047 3.1 210 13:55 13.04.2020
4987 Rain 13 1013 93 8047 3.1 210 13:55 13.04.2020
4988 Rain 13 1013 93 8047 3.1 210 13:37 13.04.2020
4989 Rain 12 1013 93 16093 3.1 0 13:18 13.04.2020
4990 Rain 12 1013 93 16093 2.1 0 12:56 13.04.2020
4991 Rain 12 1013 93 16093 2.1 0 12:38 13.04.2020
4992 Rain 12 1013 93 16093 1.5 0 12:19 13.04.2020
4993 Rain 12 1015 93 12874 1.5 0 11:43 13.04.2020
4994 Rain 12 1015 93 14484 2.6 0 11:19 13.04.2020
4995 Rain 13 1015 93 16093 3.1 270 10:56 13.04.2020
4996 Rain 13 1015 93 16093 3.1 270 10:38 13.04.2020
4997 Rain 13 1016 93 16093 2.6 230 10:20 13.04.2020
4998 Rain 13 1016 93 16093 3.6 210 09:55 13.04.2020
4999 Rain 13 1016 93 16093 3.6 210 09:36 13.04.2020
5000 Rain 13 1017 82 16093 3.6 250 09:18 13.04.2020
5001 Rain 13 1017 82 16093 3.6 250 08:43 13.04.2020
5002 Rain 13 1018 71 16093 9.19 175 08:25 13.04.2020
5003 Rain 14 1018 71 16093 9.19 175 07:42 13.04.2020
5004 Rain 14 1018 71 16093 1.5 0 07:24 13.04.2020
5005 Clouds 14 1018 71 16093 1.5 0 06:47 13.04.2020
5006 Clouds 14 1019 67 16093 7.29 179 06:26 13.04.2020
5007 Clouds 14 1019 67 16093 7.29 179 05:38 13.04.2020
5008 Clear 14 1020 67 16093 7.29 179 05:18 13.04.2020
5009 Clear 14 1020 62 16093 2.1 0 04:24 13.04.2020
5010 Clear 14 1020 62 16093 2.1 0 03:50 13.04.2020
5011 Clear 14 1020 62 16093 2.1 0 03:31 13.04.2020
5012 Clear 14 1019 58 16093 8.06 180 02:39 13.04.2020
5013 Clear 15 1019 42 16093 4.1 190 01:45 13.04.2020
5014 Clear 15 1019 42 16093 4.6 190 01:25 13.04.2020
5015 Clear 16 1019 42 16093 4.6 190 00:44 13.04.2020
5016 Clear 16 1020 55 16093 2.1 120 00:23 13.04.2020
5017 Clear 17 1020 55 16093 2.1 120 23:55 12.04.2020
5018 Clear 16 1020 55 16093 2.1 120 23:36 12.04.2020
5019 Clouds 16 1020 59 16093 2.1 0 23:18 12.04.2020
5020 Clouds 16 1020 59 16093 2.1 0 22:39 12.04.2020
5021 Clouds 16 1021 62 16093 3.6 120 22:19 12.04.2020
5022 Clouds 16 1021 62 16093 3.6 120 21:57 12.04.2020
5023 Clouds 16 1021 62 16093 3.6 120 21:37 12.04.2020
5024 Clouds 15 1022 62 16093 4.1 130 21:18 12.04.2020
5025 Clouds 14 1022 62 16093 4.1 130 20:42 12.04.2020
5026 Clouds 15 1022 54 16093 3.6 130 20:23 12.04.2020
5027 Clouds 14 1022 54 16093 3.6 130 19:57 12.04.2020
5028 Clouds 14 1022 54 16093 3.6 130 19:39 12.04.2020
5029 Clouds 14 1022 54 16093 3.6 130 19:19 12.04.2020
5030 Clear 14 1023 41 16093 4.1 150 18:56 12.04.2020
5031 Clear 15 1023 41 16093 4.1 150 18:37 12.04.2020
5032 Clear 14 1023 41 16093 4.1 150 18:18 12.04.2020
5033 Clear 14 1023 36 16093 4.6 180 17:41 12.04.2020
5034 Clouds 14 1023 41 16093 2.1 130 17:23 12.04.2020
5035 Clouds 14 1023 41 16093 2.1 130 16:59 12.04.2020
5036 Clouds 13 1023 41 16093 2.1 130 16:39 12.04.2020
5037 Clouds 12 1023 34 16093 3.1 160 16:20 12.04.2020
5038 Clouds 11 1023 34 16093 3.1 160 15:49 12.04.2020
5039 Clouds 10 1023 34 16093 3.1 160 15:31 12.04.2020
5040 Clouds 8 1023 55 16093 1.5 50 14:56 12.04.2020
5041 Clouds 7 1023 57 16093 1.5 50 14:37 12.04.2020
5042 Clear 6 1022 52 16093 1.5 50 14:19 12.04.2020
5043 Clear 4 1022 52 16093 1.5 50 13:43 12.04.2020
5044 Clear 4 1022 61 16093 3.3 130 13:25 12.04.2020
5045 Clear 4 1022 61 16093 3.3 130 13:25 12.04.2020
5046 Clear 4 1022 61 16093 3.3 130 12:56 12.04.2020
5047 Clear 3 1022 61 16093 3.3 130 12:38 12.04.2020
5048 Clear 3 1021 61 16093 2.97 140 12:19 12.04.2020
5049 Clear 3 1021 61 16093 2.97 140 11:57 12.04.2020
5050 Clear 3 1021 61 16093 2.97 140 11:37 12.04.2020
5051 Clear 3 1021 36 16093 1.5 90 11:18 12.04.2020
5052 Clear 3 1021 36 16093 1.5 90 11:18 12.04.2020
5053 Clear 3 1020 45 16093 2.1 90 10:55 12.04.2020
5054 Clear 3 1020 45 16093 2.1 90 10:55 12.04.2020
5055 Clear 3 1020 36 16093 2.1 0 10:37 12.04.2020
5056 Clear 3 1020 61 16093 2.97 140 10:18 12.04.2020
5057 Clear 4 1020 61 16093 2.97 140 09:54 12.04.2020
5058 Clear 3 1020 61 16093 1.62 19 09:36 12.04.2020
5059 Clear 3 1020 65 16093 1.5 230 09:18 12.04.2020
5060 Clear 3 1020 65 16093 1.5 230 09:18 12.04.2020
5061 Clear 3 1020 65 16093 1.5 230 08:46 12.04.2020
5062 Clear 4 1020 65 16093 1.5 230 08:27 12.04.2020
5063 Clear 5 1019 57 16093 0.63 29 07:45 12.04.2020
5064 Clear 5 1018 34 16093 0.63 29 07:19 12.04.2020
5065 Clear 5 1018 34 16093 0.63 29 06:36 12.04.2020
5066 Clear 6 1018 39 16093 1.5 230 06:00 12.04.2020
5067 Clear 6 1018 39 16093 1.5 230 05:41 12.04.2020
5068 Clear 8 1016 34 16093 3.6 260 03:48 12.04.2020
5069 Clear 9 1015 30 16093 3.6 280 03:25 12.04.2020
5070 Clear 10 1015 30 16093 3.6 280 02:35 12.04.2020
5071 Clear 11 1014 25 16093 4.6 280 01:53 12.04.2020
5072 Clear 11 1014 25 16093 4.6 280 01:21 12.04.2020
5073 Clouds 12 1014 23 16093 4.6 270 00:42 12.04.2020
5074 Clouds 12 1014 23 16093 4.6 270 00:21 12.04.2020
5075 Clouds 12 1013 24 16093 5.1 270 23:47 11.04.2020
5076 Clouds 12 1012 28 16093 6.7 260 23:26 11.04.2020
5077 Clouds 12 1012 28 16093 6.7 260 22:58 11.04.2020
5078 Clouds 12 1012 28 16093 6.7 260 22:37 11.04.2020
5079 Clouds 12 1013 28 16093 5.7 260 22:18 11.04.2020
5080 Clouds 12 1013 28 16093 5.7 260 21:55 11.04.2020
5081 Clouds 12 1013 28 16093 5.7 260 21:36 11.04.2020
5082 Clouds 12 1013 30 16093 4.1 250 21:18 11.04.2020
5083 Clouds 11 1013 30 16093 4.1 250 20:55 11.04.2020
5084 Clouds 11 1013 30 16093 4.1 250 20:37 11.04.2020
5085 Clear 11 1013 30 16093 2.6 0 20:19 11.04.2020
5086 Clear 11 1013 30 16093 2.6 0 20:19 11.04.2020
5087 Clear 10 1013 30 16093 2.6 0 19:56 11.04.2020
5088 Clouds 10 1013 24 16093 7.7 270 19:37 11.04.2020
5089 Clear 10 1013 32 16093 2.6 0 19:18 11.04.2020
5090 Clear 10 1013 32 16093 2.6 0 18:55 11.04.2020
5091 Clear 9 1013 32 16093 2.6 0 18:37 11.04.2020
5092 Clear 9 1014 34 16093 3.1 0 18:18 11.04.2020
5093 Clear 9 1014 34 16093 3.1 0 17:57 11.04.2020
5094 Clear 8 1014 31 16093 2.6 0 17:37 11.04.2020
5095 Clear 8 1014 36 16093 2.1 0 17:19 11.04.2020
5096 Clear 7 1014 36 16093 2.1 0 16:42 11.04.2020
5097 Clear 7 1014 42 16093 3.1 0 16:21 11.04.2020
5098 Clear 6 1014 42 16093 3.1 0 15:42 11.04.2020
5099 Clear 6 1014 51 16093 5.1 260 15:21 11.04.2020
5100 Clear 5 1014 51 16093 5.1 260 14:59 11.04.2020
5101 Clear 5 1014 51 16093 5.1 260 14:40 11.04.2020
5102 Clear 4 1013 48 16093 3.1 260 14:22 11.04.2020
5103 Clear 4 1013 48 16093 3.1 260 13:55 11.04.2020
5104 Clear 3 1013 48 16093 3.1 260 13:36 11.04.2020
5105 Clear 3 1011 48 16093 1.5 0 13:18 11.04.2020
5106 Clear 3 1011 48 16093 1.5 0 12:39 11.04.2020
5107 Clear 3 1010 44 16093 2.1 0 12:18 11.04.2020
5108 Clear 3 1010 44 16093 2.1 0 11:55 11.04.2020
5109 Clear 3 1010 44 16093 2.1 0 11:37 11.04.2020
5110 Clear 3 1010 44 16093 5.1 280 11:18 11.04.2020
5111 Clear 4 1010 44 16093 5.7 280 10:42 11.04.2020
5112 Clear 4 1010 44 16093 5.7 280 10:42 11.04.2020
5113 Clear 4 1010 44 16093 5.7 280 10:22 11.04.2020
5114 Clouds 4 1009 48 16093 1.5 0 09:58 11.04.2020
5115 Clouds 4 1009 48 16093 1.5 0 09:39 11.04.2020
5116 Clear 4 1009 52 16093 8.59 303 09:20 11.04.2020
5117 Clear 5 1009 52 16093 8.59 303 08:46 11.04.2020
5118 Clear 5 1009 52 16093 8.59 303 08:27 11.04.2020
5119 Clouds 5 1008 45 16093 4.1 290 07:50 11.04.2020
5120 Clear 5 1008 48 16093 8.59 303 07:28 11.04.2020
5121 Clear 6 1008 48 16093 8.59 303 06:49 11.04.2020
5122 Clouds 6 1007 52 16093 9.46 304 06:18 11.04.2020
5123 Clouds 6 1006 63 16093 9.46 304 05:24 11.04.2020
5124 Clouds 6 1005 52 16093 9.46 304 03:40 11.04.2020
5125 Clouds 7 1002 45 16093 2.6 0 01:59 11.04.2020
5126 Clouds 7 1000 49 16093 3.6 290 01:24 11.04.2020
5127 Clouds 7 1000 49 16093 3.6 290 00:44 11.04.2020
5128 Clouds 7 999 42 16093 1.5 0 00:20 11.04.2020
5129 Clouds 7 999 42 16093 1.5 0 00:20 11.04.2020
5130 Clouds 8 999 42 16093 1.5 0 23:58 10.04.2020
5131 Clouds 8 999 42 16093 1.5 0 23:39 10.04.2020
5132 Clouds 8 997 42 16093 2.1 0 23:19 10.04.2020
5133 Clouds 8 997 42 16093 2.1 0 23:19 10.04.2020
5134 Clouds 8 997 42 16093 2.1 0 22:44 10.04.2020
5135 Clouds 8 997 49 16093 3.6 290 22:22 10.04.2020
5136 Clouds 8 997 49 16093 3.6 290 22:22 10.04.2020
5137 Clouds 8 997 49 16093 3.6 290 21:59 10.04.2020
5138 Clouds 8 997 49 16093 3.6 290 21:41 10.04.2020
5139 Rain 8 996 42 16093 2.6 0 21:20 10.04.2020
5140 Rain 8 996 42 16093 2.6 0 20:55 10.04.2020
5141 Rain 8 996 42 16093 2.6 0 20:37 10.04.2020
5142 Clouds 8 996 42 16093 6.7 270 20:18 10.04.2020
5143 Clouds 8 996 42 16093 6.7 270 19:41 10.04.2020
5144 Clouds 8 996 42 16093 6.7 270 19:22 10.04.2020
5145 Clouds 8 996 42 16093 5.1 270 18:58 10.04.2020
5146 Clouds 8 996 42 16093 5.1 270 18:40 10.04.2020
5147 Clouds 8 996 48 16093 4.1 300 18:22 10.04.2020
5148 Clouds 7 996 48 16093 4.1 300 17:59 10.04.2020
5149 Clouds 7 996 48 16093 4.1 300 17:40 10.04.2020
5150 Clouds 7 996 48 16093 5.1 260 17:21 10.04.2020
5151 Clouds 7 996 48 16093 5.1 260 16:59 10.04.2020
5152 Clouds 6 996 48 16093 5.1 260 16:41 10.04.2020
5153 Clouds 6 995 52 16093 5.1 270 16:21 10.04.2020
5154 Clouds 6 995 52 16093 5.1 270 15:58 10.04.2020
5155 Clouds 6 995 52 16093 5.1 270 15:38 10.04.2020
5156 Clear 6 995 60 16093 9.3 270 15:20 10.04.2020
5157 Clear 5 995 60 16093 9.3 270 14:58 10.04.2020
5158 Clear 5 995 60 16093 9.3 270 14:39 10.04.2020
5159 Clear 5 995 65 16093 7.7 270 14:20 10.04.2020
5160 Rain 4 995 65 16093 7.7 270 13:45 10.04.2020
5161 Rain 4 995 65 16093 4.6 260 13:22 10.04.2020
5162 Rain 3 995 65 16093 4.6 260 12:55 10.04.2020
5163 Clear 3 995 65 16093 4.6 260 12:37 10.04.2020
5164 Rain 3 995 66 16093 1.5 0 12:19 10.04.2020
5165 Rain 3 995 66 16093 1.5 0 11:42 10.04.2020
5166 Rain 3 995 66 16093 2.1 0 11:24 10.04.2020
5167 Rain 3 995 66 16093 2.1 0 10:57 10.04.2020
5168 Rain 4 995 66 16093 2.1 0 10:38 10.04.2020
5169 Rain 4 994 70 16093 8.7 260 10:19 10.04.2020
5170 Clouds 5 994 70 16093 8.7 260 09:43 10.04.2020
5171 Clouds 5 994 70 16093 6.2 260 09:21 10.04.2020
5172 Clouds 5 994 70 16093 6.2 260 08:48 10.04.2020
5173 Rain 5 995 70 16093 5.7 270 08:27 10.04.2020
5174 Rain 5 995 70 16093 5.7 270 08:27 10.04.2020
5175 Rain 5 995 70 16093 5.7 270 07:55 10.04.2020
5176 Rain 5 995 70 16093 5.7 270 07:37 10.04.2020
5177 Clouds 6 995 52 16093 4.6 270 07:19 10.04.2020
5178 Clouds 6 995 52 16093 4.6 270 06:38 10.04.2020
5179 Clear 7 995 52 16093 3.1 0 06:19 10.04.2020
5180 Clear 7 995 52 16093 3.1 0 05:30 10.04.2020
5181 Clear 8 995 45 16093 2.1 0 04:55 10.04.2020
5182 Clear 8 995 43 16093 2.6 0 03:36 10.04.2020
5183 Clear 9 994 37 16093 2.1 0 02:52 10.04.2020
5184 Clear 9 994 37 16093 2.1 0 02:34 10.04.2020
5185 Clear 9 994 39 16093 4.1 290 01:50 10.04.2020
5186 Clouds 10 993 40 16093 3.1 0 01:28 10.04.2020
5187 Clouds 10 993 40 16093 3.1 0 00:47 10.04.2020
5188 Clouds 11 993 40 16093 6.7 300 00:21 10.04.2020
5189 Clouds 12 992 44 16093 2.6 0 23:44 09.04.2020
5190 Clouds 12 992 44 16093 2.6 0 23:44 09.04.2020
5191 Clouds 12 990 66 16093 2.6 0 23:24 09.04.2020
5192 Clouds 12 990 66 16093 2.6 0 22:59 09.04.2020
5193 Clouds 12 990 66 16093 2.6 0 22:59 09.04.2020
5194 Clouds 12 990 66 16093 2.6 0 22:40 09.04.2020
5195 Rain 12 990 76 16093 2.1 0 22:22 09.04.2020
5196 Rain 12 990 76 16093 2.1 0 21:42 09.04.2020
5197 Rain 11 988 81 16093 2.1 0 21:24 09.04.2020
5198 Rain 11 988 81 16093 2.1 0 20:56 09.04.2020
5199 Thunderstorm 12 988 81 4828 4.1 260 20:38 09.04.2020
5200 Rain 12 988 87 16093 2.1 280 20:19 09.04.2020
5201 Rain 14 988 87 16093 2.1 280 19:40 09.04.2020
5202 Clouds 14 989 87 16093 1.5 170 19:22 09.04.2020
5203 Clouds 13 989 87 16093 1.5 170 18:43 09.04.2020
5204 Clouds 12 992 81 16093 3.6 160 18:22 09.04.2020
5205 Clouds 12 992 81 16093 3.6 160 17:59 09.04.2020
5206 Clouds 12 992 81 16093 3.6 160 17:59 09.04.2020
5207 Clouds 11 992 81 16093 3.6 160 17:39 09.04.2020
5208 Rain 11 994 87 16093 3.6 150 17:21 09.04.2020
5209 Rain 11 994 87 16093 3.6 150 16:41 09.04.2020
5210 Rain 11 997 81 16093 3.1 0 16:20 09.04.2020
5211 Rain 10 997 81 16093 3.1 0 15:57 09.04.2020
5212 Rain 10 997 81 16093 3.1 0 15:39 09.04.2020
5213 Clouds 10 998 81 16093 3.1 140 15:20 09.04.2020
5214 Clouds 10 998 81 16093 3.1 140 14:59 09.04.2020
5215 Clouds 10 998 81 16093 3.1 140 14:38 09.04.2020
5216 Clouds 9 999 81 16093 2.6 0 14:20 09.04.2020
5217 Clouds 9 999 81 16093 6.92 164 13:42 09.04.2020
5218 Clouds 9 1000 87 16093 6.92 164 13:24 09.04.2020
5219 Clouds 9 1000 87 16093 6.92 164 12:59 09.04.2020
5220 Clouds 9 1000 87 16093 6.92 164 12:39 09.04.2020
5221 Clouds 8 1001 87 16093 5.07 168 12:20 09.04.2020
5222 Clouds 8 1001 87 16093 5.07 168 12:20 09.04.2020
5223 Clouds 8 1001 87 16093 5.07 168 11:55 09.04.2020
5224 Clouds 8 1001 87 16093 5.07 168 11:36 09.04.2020
5225 Clear 8 1002 93 16093 1.5 290 11:18 09.04.2020
5226 Clear 8 1002 93 16093 1.5 290 10:54 09.04.2020
5227 Clear 8 1002 93 16093 1.5 290 10:36 09.04.2020
5228 Clear 8 1003 87 16093 2.6 270 10:18 09.04.2020
5229 Clear 8 1003 87 16093 2.6 270 09:40 09.04.2020
5230 Clear 8 1004 87 16093 2.6 260 09:21 09.04.2020
5231 Clear 8 1004 87 16093 2.6 260 09:21 09.04.2020
5232 Clear 8 1004 87 16093 2.6 260 08:57 09.04.2020
5233 Clear 8 1004 87 16093 2.6 260 08:39 09.04.2020
5234 Clear 8 1004 87 16093 2.1 230 08:21 09.04.2020
5235 Clear 8 1004 87 16093 2.1 230 07:40 09.04.2020
5236 Clear 8 1005 87 16093 2.3 182 07:21 09.04.2020
5237 Clear 8 1005 87 16093 2.3 182 06:42 09.04.2020
5238 Clear 9 1005 81 16093 2.6 190 05:49 09.04.2020
5239 Clear 9 1005 81 16093 2.6 190 05:25 09.04.2020
5240 Clear 12 1004 71 16093 4.1 190 02:36 09.04.2020
5241 Clear 15 1003 48 16093 1.42 42 01:46 09.04.2020
5242 Clear 15 1003 48 16093 1.42 42 01:46 09.04.2020
5243 Clouds 15 1002 45 16093 1.5 0 01:27 09.04.2020
5244 Clouds 17 1002 45 16093 1.5 0 00:55 09.04.2020
5245 Clouds 17 1002 45 16093 1.5 0 00:37 09.04.2020
5246 Clouds 17 1001 48 16093 3.1 60 00:18 09.04.2020
5247 Clouds 17 1001 48 16093 3.1 60 23:42 08.04.2020
5248 Clouds 17 1001 48 16093 3.1 60 23:23 08.04.2020
5249 Clouds 17 1001 48 16093 3.1 60 23:23 08.04.2020
5250 Clouds 17 1001 48 16093 3.6 80 22:56 08.04.2020
5251 Clouds 17 1001 48 16093 3.6 80 22:38 08.04.2020
5252 Clouds 17 1001 48 16093 3.6 80 22:19 08.04.2020
5253 Clouds 17 1001 55 16093 2.1 0 21:55 08.04.2020
5254 Clouds 17 1001 55 16093 2.1 0 21:37 08.04.2020
5255 Clouds 17 1001 55 16093 2.1 0 21:37 08.04.2020
5256 Clouds 16 1001 55 16093 2.1 0 21:18 08.04.2020
5257 Rain 16 1001 55 16093 1.5 0 20:41 08.04.2020
5258 Rain 16 1001 55 16093 1.5 0 20:21 08.04.2020
5259 Rain 16 1001 63 16093 2.1 0 19:59 08.04.2020
5260 Clouds 15 1001 63 16093 2.1 0 19:40 08.04.2020
5261 Clouds 15 1001 71 16093 1.5 0 19:21 08.04.2020
5262 Clouds 14 1001 71 16093 1.5 0 18:55 08.04.2020
5263 Clouds 14 1001 71 16093 1.5 0 18:37 08.04.2020
5264 Rain 14 1001 71 16093 1.5 0 18:19 08.04.2020
5265 Clouds 13 1001 76 16093 2.6 50 17:42 08.04.2020
5266 Mist 12 1001 87 8047 2.6 0 17:20 08.04.2020
5267 Mist 12 1001 87 8047 2.6 0 16:57 08.04.2020
5268 Mist 12 1001 87 8047 2.6 0 16:39 08.04.2020
5269 Mist 12 1001 81 8047 3.1 90 16:19 08.04.2020
5270 Clouds 12 1000 87 11265 3.1 80 15:39 08.04.2020
5271 Clouds 11 1000 87 11265 3.1 80 15:21 08.04.2020
5272 Clouds 11 1000 87 11265 3.1 80 15:21 08.04.2020
5273 Clouds 11 1000 93 11265 4.6 60 14:58 08.04.2020
5274 Clouds 11 1000 93 11265 4.6 60 14:58 08.04.2020
5275 Rain 11 1000 93 11265 4.6 60 14:39 08.04.2020
5276 Rain 11 999 93 16093 3.21 320 14:21 08.04.2020
5277 Clouds 11 999 93 16093 3.21 320 13:44 08.04.2020
5278 Rain 11 999 87 16093 3.1 270 13:21 08.04.2020
5279 Rain 11 997 93 12874 3.21 320 12:57 08.04.2020
5280 Rain 11 997 93 12874 3.21 320 12:39 08.04.2020
5281 Rain 11 1000 87 12874 2.6 250 12:18 08.04.2020
5282 Rain 11 1000 87 12874 2.6 250 12:18 08.04.2020
5283 Rain 11 1000 87 12874 2.6 250 12:18 08.04.2020
5284 Rain 11 1000 87 12874 2.6 250 11:42 08.04.2020
5285 Rain 11 1000 87 12874 2.6 250 11:42 08.04.2020
5286 Rain 11 1000 87 14484 2.1 260 11:23 08.04.2020
5287 Rain 11 1000 87 14484 2.1 260 10:58 08.04.2020
5288 Rain 11 1001 81 8047 2.8 281 10:39 08.04.2020
5289 Rain 11 1001 81 8047 2.8 281 10:21 08.04.2020
5290 Rain 11 1001 71 16093 1.5 70 09:57 08.04.2020
5291 Rain 11 1001 71 16093 1.5 70 09:39 08.04.2020
5292 Clouds 12 1002 71 16093 4.31 228 09:18 08.04.2020
5293 Clouds 12 1002 71 16093 4.31 228 08:56 08.04.2020
5294 Clouds 12 1002 71 16093 4.31 228 08:38 08.04.2020
5295 Clouds 12 1003 67 16093 2.1 250 08:20 08.04.2020
5296 Clouds 12 1003 67 16093 2.1 250 07:42 08.04.2020
5297 Clouds 12 1004 58 16093 2.6 0 07:20 08.04.2020
5298 Clouds 12 1004 58 16093 2.6 0 06:28 08.04.2020
5299 Clouds 12 1006 62 16093 2.1 250 04:54 08.04.2020
5300 Clear 13 1008 54 16093 1.5 10 02:50 08.04.2020
5301 Clear 13 1008 47 16093 3.1 160 02:21 08.04.2020
5302 Clear 13 1008 47 16093 3.1 160 01:56 08.04.2020
5303 Clear 14 1008 47 16093 3.1 160 01:28 08.04.2020
5304 Clear 15 1008 62 16093 5.7 170 00:45 08.04.2020
5305 Clear 16 1009 27 16093 6.2 170 00:25 08.04.2020
5306 Clear 17 1009 27 16093 6.2 170 23:41 07.04.2020
5307 Clear 17 1010 33 16093 5.1 170 23:23 07.04.2020
5308 Clear 18 1010 33 16093 5.1 170 22:59 07.04.2020
5309 Clear 18 1010 33 16093 5.1 170 22:40 07.04.2020
5310 Clear 18 1011 31 16093 5.1 210 22:21 07.04.2020
5311 Clear 18 1011 31 16093 5.1 210 22:00 07.04.2020
5312 Clear 18 1011 31 16093 5.1 210 21:41 07.04.2020
5313 Clear 18 1011 31 16093 5.1 210 21:21 07.04.2020
5314 Clear 18 1011 31 16093 5.1 210 21:21 07.04.2020
5315 Clouds 18 1012 29 16093 2.6 200 20:58 07.04.2020
5316 Clouds 18 1012 29 16093 2.6 200 20:39 07.04.2020
5317 Clear 18 1013 29 16093 2.8 169 20:21 07.04.2020
5318 Clear 18 1013 29 16093 2.8 169 19:57 07.04.2020
5319 Clear 18 1013 29 16093 2.8 169 19:37 07.04.2020
5320 Clear 18 1013 29 16093 2.8 169 19:19 07.04.2020
5321 Clear 17 1014 38 16093 2.6 210 18:58 07.04.2020
5322 Clear 17 1014 38 16093 2.6 210 18:58 07.04.2020
5323 Clear 17 1014 38 16093 2.6 210 18:39 07.04.2020
5324 Clear 16 1014 38 16093 2.6 210 18:20 07.04.2020
5325 Clouds 15 1015 38 16093 2.6 240 17:46 07.04.2020
5326 Clouds 15 1015 38 16093 2.6 240 17:24 07.04.2020
5327 Clouds 14 1016 47 16093 3.1 240 16:54 07.04.2020
5328 Clouds 14 1016 47 16093 3.1 240 16:36 07.04.2020
5329 Clouds 14 1016 47 16093 3.1 240 16:36 07.04.2020
5330 Clouds 14 1016 47 16093 3.1 240 16:18 07.04.2020
5331 Clear 13 1016 50 16093 3.1 250 15:42 07.04.2020
5332 Clear 12 1016 50 16093 3.1 250 15:24 07.04.2020
5333 Clear 11 1016 61 16093 2.6 230 14:42 07.04.2020
5334 Clear 10 1016 57 16093 3.1 200 14:23 07.04.2020
5335 Clear 9 1016 57 16093 3.1 200 13:58 07.04.2020
5336 Clear 9 1016 57 16093 3.1 200 13:39 07.04.2020
5337 Clear 9 1015 40 16093 2.1 240 13:19 07.04.2020
5338 Clear 9 1015 40 16093 2.1 240 12:56 07.04.2020
5339 Clouds 9 1015 37 16093 2.6 250 12:37 07.04.2020
5340 Clouds 9 1015 37 16093 2.6 250 12:18 07.04.2020
5341 Clouds 9 1015 37 16093 2.6 250 11:44 07.04.2020
5342 Clouds 10 1015 32 16093 1.5 250 11:26 07.04.2020
5343 Clouds 10 1015 32 16093 1.5 250 10:59 07.04.2020
5344 Clouds 10 1015 32 16093 1.5 250 10:39 07.04.2020
5345 Clouds 10 1016 34 16093 1.5 140 10:19 07.04.2020
5346 Clouds 10 1016 34 16093 1.5 140 09:46 07.04.2020
5347 Clear 10 1016 24 16093 1.5 280 09:20 07.04.2020
5348 Clear 10 1016 24 16093 1.5 280 08:59 07.04.2020
5349 Clear 10 1016 24 16093 1.5 280 08:39 07.04.2020
5350 Clear 10 1016 26 16093 3.01 319 08:20 07.04.2020
5351 Clear 10 1016 26 16093 3.01 319 07:44 07.04.2020
5352 Clear 10 1015 26 16093 1.5 0 07:26 07.04.2020
5353 Clear 10 1015 26 16093 1.5 0 06:52 07.04.2020
5354 Clear 10 1015 30 16093 3.58 329 06:25 07.04.2020
5355 Clear 11 1015 30 16093 3.58 329 05:50 07.04.2020
5356 Clear 11 1016 22 16093 1.5 0 05:24 07.04.2020
5357 Clear 13 1015 26 16093 1.92 323 03:34 07.04.2020
5358 Clear 13 1014 25 16093 1.92 323 02:59 07.04.2020
5359 Clear 14 1014 25 16093 1.92 323 02:36 07.04.2020
5360 Clear 15 1014 36 16093 3.6 220 01:34 07.04.2020
5361 Clear 16 1014 18 16093 1.5 0 00:54 07.04.2020
5362 Clear 17 1014 39 16093 3.1 0 00:25 07.04.2020
5363 Clear 18 1014 39 16093 3.1 0 23:41 06.04.2020
5364 Clear 18 1015 34 16093 2.6 220 23:21 06.04.2020
5365 Clear 18 1015 34 16093 2.6 220 22:54 06.04.2020
5366 Clear 18 1015 27 16093 5.7 240 22:36 06.04.2020
5367 Clear 18 1015 27 16093 5.7 240 22:18 06.04.2020
5368 Clear 18 1015 27 16093 5.7 240 21:43 06.04.2020
5369 Clear 17 1016 33 16093 2.1 0 21:20 06.04.2020
5370 Clear 17 1016 33 16093 2.1 0 20:57 06.04.2020
5371 Clear 17 1016 33 16093 2.1 0 20:39 06.04.2020
5372 Clear 16 1017 36 16093 3.6 170 20:21 06.04.2020
5373 Clear 16 1017 36 16093 3.6 170 19:58 06.04.2020
5374 Clear 16 1017 36 16093 3.6 170 19:38 06.04.2020
5375 Clear 16 1018 47 16093 2.1 0 19:20 06.04.2020
5376 Clear 15 1018 47 16093 2.1 0 18:43 06.04.2020
5377 Clear 14 1018 47 16093 1.5 0 18:24 06.04.2020
5378 Clear 14 1018 47 16093 1.5 0 17:59 06.04.2020
5379 Clear 14 1018 47 16093 1.5 0 17:41 06.04.2020
5380 Clear 13 1018 58 16093 2.1 0 17:19 06.04.2020
5381 Clear 13 1018 58 16093 2.1 0 16:49 06.04.2020
5382 Clear 12 1018 58 16093 2.1 0 16:30 06.04.2020
5383 Clouds 10 1018 76 16093 2.1 270 15:00 06.04.2020
5384 Clouds 10 1018 76 16093 2.1 270 14:59 06.04.2020
5385 Clouds 10 1018 76 16093 2.1 270 14:59 06.04.2020
5386 Clouds 10 1018 76 16093 2.1 270 14:59 06.04.2020
5387 Clouds 9 1017 71 16093 1.5 0 13:45 06.04.2020
5388 Clouds 8 1017 71 16093 1.5 0 13:23 06.04.2020
5389 Clouds 8 1016 81 16093 3.1 70 12:47 06.04.2020
5390 Clouds 8 1016 81 16093 3.1 70 12:47 06.04.2020
5391 Rain 9 1016 87 16093 3.32 357 12:20 06.04.2020
5392 Rain 9 1016 87 16093 3.32 357 11:46 06.04.2020
5393 Rain 9 1016 87 16093 3.32 357 11:27 06.04.2020
5394 Rain 9 1016 87 16093 3.32 357 11:27 06.04.2020
5395 Rain 9 1016 87 16093 3.32 357 11:27 06.04.2020
5396 Rain 9 1016 87 16093 3.32 357 11:27 06.04.2020
5397 Rain 9 1016 87 16093 3.32 357 11:27 06.04.2020
5398 Rain 9 1015 87 16093 6.2 40 10:43 06.04.2020
5399 Rain 9 1015 87 16093 6.2 40 10:43 06.04.2020
5400 Rain 9 1015 87 16093 6.2 40 10:43 06.04.2020
5401 Rain 9 1015 87 16093 6.2 40 10:43 06.04.2020
5402 Rain 9 1015 87 16093 6.2 40 10:43 06.04.2020
5403 Rain 9 1015 87 16093 6.2 40 10:21 06.04.2020
5404 Rain 9 1016 87 16093 3.1 50 10:21 06.04.2020
5405 Rain 9 1016 87 16093 3.1 50 10:21 06.04.2020
5406 Rain 9 1015 87 16093 6.2 40 10:21 06.04.2020
5407 Rain 9 1016 87 16093 3.1 50 10:21 06.04.2020
5408 Rain 10 1016 87 16093 3.1 50 09:42 06.04.2020
5409 Rain 10 1016 87 16093 3.1 50 09:42 06.04.2020
5410 Rain 10 1016 87 16093 3.1 50 09:42 06.04.2020
5411 Rain 10 1016 87 16093 3.1 50 09:42 06.04.2020
5412 Rain 10 1016 81 16093 4.6 50 09:20 06.04.2020
5413 Rain 10 1016 81 16093 4.6 50 08:51 06.04.2020
5414 Clouds 10 1016 81 16093 4.6 50 08:29 06.04.2020
5415 Clouds 10 1016 81 16093 4.6 50 08:29 06.04.2020
5416 Clouds 10 1016 81 16093 4.6 50 08:29 06.04.2020
5417 Clear 10 1016 81 16093 1.5 30 07:24 06.04.2020
5418 Clear 10 1016 81 16093 1.5 30 07:24 06.04.2020
5419 Clear 10 1016 81 16093 1.5 30 07:24 06.04.2020
5420 Clear 10 1016 81 16093 2.1 30 06:34 06.04.2020
5421 Clear 10 1016 81 16093 2.6 40 06:01 06.04.2020
5422 Clouds 11 1016 81 16093 2.6 50 04:18 06.04.2020
5423 Clouds 12 1015 71 16093 3.1 30 02:56 06.04.2020
5424 Clouds 13 1015 67 16093 2.1 0 01:57 06.04.2020
5425 Clouds 14 1015 67 16093 2.1 0 01:22 06.04.2020
5426 Clouds 14 1016 71 16093 1.63 224 00:41 06.04.2020
5427 Clouds 15 1016 71 16093 2.81 193 00:20 06.04.2020
5428 Clouds 15 1016 62 16093 3.1 0 23:41 05.04.2020
5429 Clouds 15 1016 62 16093 3.1 0 23:21 05.04.2020
5430 Clouds 16 1016 59 16093 3.1 140 22:54 05.04.2020
5431 Clouds 16 1016 59 16093 3.1 140 22:54 05.04.2020
5432 Clouds 16 1016 59 16093 3.1 140 22:36 05.04.2020
5433 Clouds 17 1016 52 16093 2.1 220 22:18 05.04.2020
5434 Clouds 17 1016 52 16093 2.1 220 21:44 05.04.2020
5435 Clouds 17 1016 52 16093 2.1 220 21:44 05.04.2020
5436 Clouds 17 1016 52 16093 2.1 220 21:44 05.04.2020
5437 Clear 17 1017 59 16093 2.6 260 21:23 05.04.2020
5438 Clear 16 1017 59 16093 2.6 260 20:25 05.04.2020
5439 Clouds 16 1018 71 16093 2.1 260 20:25 05.04.2020
5440 Clear 16 1017 59 16093 2.6 260 20:25 05.04.2020
5441 Clouds 16 1018 71 16093 2.1 260 19:45 05.04.2020
5442 Clouds 15 1018 71 16093 2.1 260 19:26 05.04.2020
5443 Clouds 14 1018 76 16093 1.5 270 18:50 05.04.2020
5444 Clouds 14 1018 76 16093 1.5 270 18:50 05.04.2020
5445 Clouds 14 1018 76 16093 1.5 270 18:50 05.04.2020
5446 Clouds 14 1018 76 16093 1.5 270 18:50 05.04.2020
5447 Clouds 14 1018 76 16093 1.5 270 18:28 05.04.2020
5448 Clouds 14 1018 76 16093 1.5 270 18:28 05.04.2020
5449 Clouds 14 1018 76 16093 1.5 270 18:28 05.04.2020
5450 Clouds 13 1019 81 16093 1.5 260 17:49 05.04.2020
5451 Clouds 13 1019 81 16093 1.5 260 17:49 05.04.2020
5452 Clouds 13 1019 81 16093 1.5 260 17:49 05.04.2020
5453 Clouds 13 1019 81 16093 1.5 260 17:49 05.04.2020
5454 Clouds 12 1019 81 16093 1.5 260 17:23 05.04.2020
5455 Clouds 12 1019 76 16093 2.6 270 16:47 05.04.2020
5456 Clouds 12 1019 76 16093 2.6 270 16:47 05.04.2020
5457 Clouds 11 1019 76 16093 2.6 270 16:19 05.04.2020
5458 Clouds 10 1018 76 16093 2.69 250 15:46 05.04.2020
5459 Clouds 10 1018 76 16093 2.69 250 15:46 05.04.2020
5460 Clouds 10 1018 76 16093 2.69 250 15:46 05.04.2020
5461 Clouds 10 1018 76 16093 2.69 250 15:28 05.04.2020
5462 Clouds 9 1018 87 16093 2.15 249 14:48 05.04.2020
5463 Clouds 9 1018 87 16093 1.5 270 14:23 05.04.2020
5464 Clouds 9 1018 87 16093 1.5 270 14:23 05.04.2020
5465 Clouds 9 1018 87 16093 1.5 270 14:23 05.04.2020
5466 Clouds 9 1018 87 16093 1.5 270 14:23 05.04.2020
5467 Clouds 9 1018 87 16093 1.5 270 14:23 05.04.2020
5468 Clouds 8 1018 87 16093 1.5 270 13:41 05.04.2020
5469 Clouds 7 1017 87 16093 2.37 253 12:42 05.04.2020
5470 Clouds 7 1017 87 16093 2.37 253 12:42 05.04.2020
5471 Clouds 7 1017 87 16093 2.37 253 12:41 05.04.2020
5472 Clouds 7 1017 87 16093 2.37 253 12:41 05.04.2020
5473 Clouds 7 1017 87 16093 2.37 253 12:41 05.04.2020
5474 Clouds 7 1017 87 16093 2.74 233 11:41 05.04.2020
5475 Clouds 7 1017 87 16093 2.74 233 11:20 05.04.2020
5476 Clear 7 1017 87 16093 2.6 230 10:48 05.04.2020
5477 Clear 7 1017 87 16093 2.1 220 10:24 05.04.2020
5478 Clear 7 1017 87 16093 2.6 230 10:24 05.04.2020
5479 Clear 7 1017 87 16093 2.6 230 10:24 05.04.2020
5480 Clear 7 1017 87 16093 2.6 230 10:24 05.04.2020
5481 Clear 7 1017 87 16093 2.1 220 10:24 05.04.2020
5482 Clear 7 1017 87 16093 2.1 220 09:56 05.04.2020
5483 Clear 7 1017 87 16093 2.1 220 09:56 05.04.2020
5484 Clear 8 1017 87 16093 2.1 220 09:31 05.04.2020
5485 Clouds 8 1017 81 16093 3.3 195 08:57 05.04.2020
5486 Clouds 8 1017 81 16093 3.3 195 08:57 05.04.2020
5487 Clouds 8 1017 81 16093 3.3 195 08:57 05.04.2020
5488 Clouds 8 1017 81 16093 3.3 195 08:57 05.04.2020
5489 Clouds 8 1017 81 16093 3.3 195 08:57 05.04.2020
5490 Clouds 8 1018 81 16093 1.5 270 07:25 05.04.2020
5491 Clouds 8 1018 81 16093 1.5 270 07:25 05.04.2020
5492 Clouds 8 1018 81 16093 1.5 270 07:25 05.04.2020
5493 Clouds 9 1018 81 16093 2.1 160 04:35 05.04.2020
5494 Clouds 9 1017 76 16093 2.1 120 03:30 05.04.2020
5495 Clouds 10 1017 76 16093 4.1 150 02:49 05.04.2020
5496 Clouds 11 1016 66 16093 3.1 120 01:47 05.04.2020
5497 Clouds 11 1016 66 16093 3.1 120 01:28 05.04.2020
5498 Clouds 12 1016 58 16093 2.1 230 00:44 05.04.2020
5499 Clouds 13 1016 58 16093 2.1 230 00:21 05.04.2020
5500 Clouds 14 1016 51 16093 4.1 220 23:43 04.04.2020
5501 Clouds 14 1016 51 16093 4.1 220 23:23 04.04.2020
5502 Clear 15 1016 54 16093 3.6 240 22:59 04.04.2020
5503 Clear 15 1016 54 16093 3.6 240 22:40 04.04.2020
5504 Clear 15 1016 54 16093 3.6 240 22:21 04.04.2020
5505 Clear 15 1016 54 16093 3.6 240 22:21 04.04.2020
5506 Clear 15 1016 48 16093 1.5 230 21:58 04.04.2020
5507 Clear 14 1016 48 16093 1.5 230 21:39 04.04.2020
5508 Clear 14 1016 48 16093 1.5 230 21:19 04.04.2020
5509 Clouds 14 1017 51 16093 2.6 260 20:58 04.04.2020
5510 Clouds 13 1017 51 16093 2.6 260 20:39 04.04.2020
5511 Clouds 13 1017 47 16093 2.58 34 20:21 04.04.2020
5512 Clouds 13 1017 54 16093 2.1 30 19:57 04.04.2020
5513 Clouds 13 1017 66 16093 2.1 50 19:37 04.04.2020
5514 Clouds 13 1017 71 16093 2.1 0 19:19 04.04.2020
5515 Clouds 12 1017 71 16093 2.1 0 18:56 04.04.2020
5516 Clouds 12 1017 71 16093 2.1 0 18:37 04.04.2020
5517 Clouds 11 1017 62 16093 2.6 60 18:19 04.04.2020
5518 Clouds 11 1017 81 16093 3.1 70 17:41 04.04.2020
5519 Clouds 10 1017 81 16093 3.1 70 17:41 04.04.2020
5520 Clouds 10 1017 81 16093 3.1 70 17:21 04.04.2020
5521 Clouds 10 1017 81 16093 4.1 30 16:59 04.04.2020
5522 Clouds 9 1017 81 16093 4.1 30 16:41 04.04.2020
5523 Clouds 9 1017 81 16093 4.1 30 16:22 04.04.2020
5524 Rain 9 1016 93 14484 4.1 50 15:55 04.04.2020
5525 Rain 9 1016 93 14484 4.1 50 15:36 04.04.2020
5526 Rain 8 1016 93 14484 4.1 50 15:18 04.04.2020
5527 Rain 8 1016 93 14484 4.1 50 15:18 04.04.2020
5528 Rain 8 1016 93 4828 5.1 40 14:42 04.04.2020
5529 Rain 8 1016 93 4828 5.1 40 14:22 04.04.2020
5530 Rain 8 1015 93 14484 2.6 30 13:56 04.04.2020
5531 Rain 8 1015 93 16093 5.1 40 13:38 04.04.2020
5532 Rain 8 1015 87 6437 2.1 70 13:19 04.04.2020
5533 Rain 8 1015 87 6437 2.1 70 13:19 04.04.2020
5534 Rain 8 1014 81 9656 2.6 60 12:45 04.04.2020
5535 Rain 8 1014 81 9656 2.6 60 12:26 04.04.2020
5536 Clouds 8 1013 76 16093 3.1 0 11:59 04.04.2020
5537 Clouds 9 1013 76 16093 5.1 350 11:39 04.04.2020
5538 Clouds 9 1013 76 16093 5.1 350 11:21 04.04.2020
5539 Clouds 9 1012 76 16093 2.6 0 10:56 04.04.2020
5540 Clouds 9 1012 76 16093 2.6 0 10:38 04.04.2020
5541 Clouds 9 1012 76 16093 2.6 0 10:19 04.04.2020
5542 Clouds 9 1013 66 16093 3.1 40 09:55 04.04.2020
5543 Clouds 9 1013 66 16093 3.1 40 09:37 04.04.2020
5544 Clouds 9 1013 66 16093 3.1 40 09:19 04.04.2020
5545 Clouds 9 1012 66 16093 5.1 40 08:42 04.04.2020
5546 Clouds 9 1012 71 16093 6.7 40 08:21 04.04.2020
5547 Clouds 10 1012 71 16093 6.7 40 07:47 04.04.2020
5548 Clouds 10 1012 71 16093 2.6 20 07:28 04.04.2020
5549 Clouds 10 1012 71 16093 2.1 0 06:57 04.04.2020
5550 Clouds 10 1012 71 16093 2.1 0 06:21 04.04.2020
5551 Clouds 10 1011 71 16093 7.2 50 05:51 04.04.2020
5552 Clouds 10 1011 71 16093 7.2 50 05:32 04.04.2020
5553 Clouds 10 1011 71 16093 2.1 0 04:33 04.04.2020
5554 Clouds 10 1011 71 16093 1.5 0 03:55 04.04.2020
5555 Clouds 10 1010 76 16093 3.1 0 03:27 04.04.2020
5556 Rain 10 1009 76 16093 2.6 0 02:40 04.04.2020
5557 Rain 10 1009 76 16093 2.6 0 02:22 04.04.2020
5558 Clouds 10 1008 76 16093 2.1 0 01:27 04.04.2020
5559 Clouds 10 1008 76 16093 2.6 0 00:55 04.04.2020
5560 Clouds 11 1008 76 16093 2.6 0 00:30 04.04.2020
5561 Rain 11 1007 76 16093 2.1 130 23:56 03.04.2020
5562 Rain 11 1007 76 16093 2.1 130 23:37 03.04.2020
5563 Rain 11 1006 76 16093 2.1 0 23:18 03.04.2020
5564 Rain 11 1006 76 16093 2.1 0 22:40 03.04.2020
5565 Rain 11 1005 76 16093 3.1 190 22:19 03.04.2020
5566 Rain 11 1005 76 16093 3.1 190 21:56 03.04.2020
5567 Rain 11 1005 76 16093 3.1 190 21:56 03.04.2020
5568 Rain 11 1005 76 16093 3.1 190 21:37 03.04.2020
5569 Rain 11 1005 76 16093 3.1 190 21:19 03.04.2020
5570 Rain 11 1005 66 16093 2.6 0 20:55 03.04.2020
5571 Rain 11 1005 66 16093 2.6 0 20:36 03.04.2020
5572 Rain 11 1005 66 16093 2.6 0 20:18 03.04.2020
5573 Rain 11 1005 66 16093 2.1 0 19:54 03.04.2020
5574 Rain 11 1005 66 16093 2.1 0 19:36 03.04.2020
5575 Rain 10 1005 66 16093 2.6 0 19:18 03.04.2020
5576 Rain 10 1005 66 16093 2.6 0 18:56 03.04.2020
5577 Rain 10 1005 66 16093 2.6 0 18:38 03.04.2020
5578 Rain 10 1005 57 16093 2.6 0 18:20 03.04.2020
5579 Clouds 10 1005 57 16093 2.6 0 17:40 03.04.2020
5580 Rain 9 1004 61 16093 7.17 351 17:19 03.04.2020
5581 Rain 9 1004 61 16093 7.17 351 16:55 03.04.2020
5582 Clouds 9 1004 61 16093 7.17 351 16:36 03.04.2020
5583 Clouds 9 1004 70 16093 1.5 0 16:18 03.04.2020
5584 Rain 8 1004 70 16093 1.5 0 15:41 03.04.2020
5585 Rain 8 1004 70 16093 1.5 0 15:22 03.04.2020
5586 Rain 7 1004 70 16093 9.3 330 14:58 03.04.2020
5587 Drizzle 7 1004 61 16093 6.2 350 14:40 03.04.2020
5588 Rain 7 1004 70 16093 3.6 230 14:22 03.04.2020
5589 Rain 7 1004 70 16093 3.6 230 13:46 03.04.2020
5590 Rain 7 1004 70 16093 3.6 230 13:27 03.04.2020
5591 Rain 7 1003 70 16093 2.1 0 12:58 03.04.2020
5592 Rain 7 1003 70 16093 2.1 0 12:40 03.04.2020
5593 Rain 8 1002 61 16093 1.5 0 12:18 03.04.2020
5594 Rain 8 1002 61 16093 1.5 0 11:55 03.04.2020
5595 Rain 8 1002 61 16093 1.5 0 11:37 03.04.2020
5596 Clouds 8 1002 61 16093 1.5 0 11:18 03.04.2020
5597 Rain 8 1002 61 16093 1.5 0 10:57 03.04.2020
5598 Rain 8 1002 61 16093 1.5 0 10:38 03.04.2020
5599 Rain 8 1003 61 16093 8.38 323 10:20 03.04.2020
5600 Rain 8 1003 61 16093 8.38 323 10:20 03.04.2020
5601 Rain 8 1003 61 16093 8.38 323 09:57 03.04.2020
5602 Rain 8 1003 61 16093 8.38 323 09:57 03.04.2020
5603 Rain 8 1003 61 16093 8.38 323 09:38 03.04.2020
5604 Rain 8 1003 61 16093 9.98 325 09:20 03.04.2020
5605 Rain 8 1003 53 16093 2.6 0 08:55 03.04.2020
5606 Rain 9 1003 53 16093 2.6 0 08:36 03.04.2020
5607 Clouds 9 1003 43 16093 2.6 0 08:18 03.04.2020
5608 Clouds 9 1003 43 16093 2.6 0 07:41 03.04.2020
5609 Clouds 9 1003 43 16093 2.6 0 07:23 03.04.2020
5610 Clouds 9 1003 43 16093 2.1 0 06:34 03.04.2020
5611 Clouds 10 1004 40 16093 2.6 0 05:43 03.04.2020
5612 Clouds 10 1004 40 16093 2.6 0 05:21 03.04.2020
5613 Clouds 11 1005 40 16093 1.5 0 03:37 03.04.2020
5614 Clouds 11 1004 58 16093 2.1 0 02:47 03.04.2020
5615 Clouds 12 1003 37 16093 2.1 0 01:36 03.04.2020
5616 Clouds 12 1003 37 16093 2.1 0 01:18 03.04.2020
5617 Clouds 13 1003 32 16093 6.7 300 00:34 03.04.2020
5618 Clouds 13 1003 32 16093 4.1 310 23:57 02.04.2020
5619 Clouds 13 1003 32 16093 4.1 310 23:39 02.04.2020
5620 Clouds 13 1003 32 16093 4.1 310 23:19 02.04.2020
5621 Clouds 13 1003 32 16093 4.1 310 23:19 02.04.2020
5622 Clouds 13 1003 32 16093 4.1 310 23:19 02.04.2020
5623 Clouds 13 1003 30 16093 6.2 290 22:43 02.04.2020
5624 Clouds 14 1003 30 16093 6.2 290 22:25 02.04.2020
5625 Clouds 14 1003 30 16093 6.2 290 21:59 02.04.2020
5626 Clouds 13 1004 32 16093 3.6 300 21:38 02.04.2020
5627 Clouds 13 1004 32 16093 3.6 300 21:19 02.04.2020
5628 Clouds 13 1004 50 16093 3.6 220 20:55 02.04.2020
5629 Clouds 13 1004 50 16093 3.6 220 20:37 02.04.2020
5630 Clouds 13 1004 50 16093 3.6 220 20:19 02.04.2020
5631 Clouds 12 1005 37 16093 8.93 318 19:42 02.04.2020
5632 Clouds 12 1005 37 16093 8.93 318 19:20 02.04.2020
5633 Clouds 12 1005 37 16093 8.93 318 19:20 02.04.2020
5634 Clouds 12 1006 50 16093 8.93 318 18:57 02.04.2020
5635 Clouds 11 1006 50 16093 8.93 318 18:39 02.04.2020
5636 Clouds 11 1006 43 16093 1.5 0 18:20 02.04.2020
5637 Clouds 10 1006 43 16093 1.5 0 17:55 02.04.2020
5638 Clouds 10 1006 43 16093 1.5 0 17:37 02.04.2020
5639 Clouds 9 1006 43 16093 1.5 0 17:18 02.04.2020
5640 Clouds 9 1007 52 16093 1.5 0 16:55 02.04.2020
5641 Clouds 8 1007 52 16093 1.5 0 16:36 02.04.2020
5642 Clouds 8 1007 52 16093 1.5 0 16:36 02.04.2020
5643 Clear 8 1007 52 16093 9.2 328 16:18 02.04.2020
5644 Clear 8 1007 52 16093 9.2 328 16:18 02.04.2020
5645 Clear 7 1007 52 16093 9.2 328 15:44 02.04.2020
5646 Clear 7 1007 52 16093 9.2 328 15:44 02.04.2020
5647 Clear 7 1007 52 16093 9.2 328 15:43 02.04.2020
5648 Clear 6 1008 60 16093 2.1 0 15:21 02.04.2020
5649 Clear 6 1008 60 16093 2.1 0 14:58 02.04.2020
5650 Clear 5 1008 60 16093 2.1 0 14:39 02.04.2020
5651 Clear 5 1008 64 16093 1.5 0 14:19 02.04.2020
5652 Clear 4 1008 64 16093 1.5 0 13:56 02.04.2020
5653 Clear 4 1008 64 16093 1.5 0 13:38 02.04.2020
5654 Clear 4 1008 64 16093 1.5 0 13:19 02.04.2020
5655 Clear 3 1008 64 16093 1.5 0 12:47 02.04.2020
5656 Clear 3 1008 56 16093 2.1 0 12:21 02.04.2020
5657 Clear 3 1008 56 16093 2.1 0 11:58 02.04.2020
5658 Clear 3 1008 56 16093 2.1 0 11:40 02.04.2020
5659 Clear 3 1008 56 16093 2.1 0 11:39 02.04.2020
5660 Clear 4 1008 55 16093 2.1 0 11:21 02.04.2020
5661 Clear 4 1008 52 16093 6.7 320 10:57 02.04.2020
5662 Clear 4 1008 52 16093 1.5 0 10:39 02.04.2020
5663 Clear 4 1008 48 16093 2.6 300 10:21 02.04.2020
5664 Clear 4 1008 48 16093 2.6 0 09:59 02.04.2020
5665 Clear 4 1008 48 16093 2.6 0 09:41 02.04.2020
5666 Clear 5 1008 48 16093 1.5 0 09:23 02.04.2020
5667 Clear 5 1008 52 16093 2.1 0 08:58 02.04.2020
5668 Clear 5 1008 52 16093 2.1 0 08:39 02.04.2020
5669 Clear 6 1008 52 16093 2.1 0 08:19 02.04.2020
5670 Clear 6 1008 49 16093 2.6 0 07:42 02.04.2020
5671 Clear 6 1008 45 16093 2.6 0 07:19 02.04.2020
5672 Clear 7 1008 42 16093 2.6 0 06:57 02.04.2020
5673 Clear 7 1008 45 16093 2.1 270 06:20 02.04.2020
5674 Clear 7 1008 45 16093 2.1 270 05:42 02.04.2020
5675 Clear 9 1008 43 16093 1.5 180 03:24 02.04.2020
5676 Clouds 10 1007 37 16093 1.5 80 01:31 02.04.2020
5677 Clouds 11 1007 34 16093 4.93 8 00:42 02.04.2020
5678 Clouds 11 1007 37 16093 2.1 0 00:24 02.04.2020
5679 Clear 12 1007 32 16093 3.6 360 23:41 01.04.2020
5680 Clear 12 1007 32 16093 3.6 360 23:20 01.04.2020
5681 Clear 12 1007 30 16093 3.1 0 22:59 01.04.2020
5682 Clear 12 1007 30 16093 3.1 0 22:39 01.04.2020
5683 Clear 12 1007 30 16093 3.1 0 22:21 01.04.2020
5684 Clouds 12 1007 37 16093 1.5 0 21:42 01.04.2020
5685 Clouds 11 1007 37 16093 1.5 0 21:22 01.04.2020
5686 Clouds 11 1008 40 16093 6.7 50 21:22 01.04.2020
5687 Clouds 11 1007 37 16093 1.5 0 21:21 01.04.2020
5688 Clouds 11 1007 37 16093 1.5 0 21:21 01.04.2020
5689 Clouds 11 1007 37 16093 1.5 0 21:20 01.04.2020
5690 Clouds 11 1008 40 16093 6.7 50 20:57 01.04.2020
5691 Clouds 11 1008 40 16093 6.7 50 20:39 01.04.2020
5692 Clouds 11 1008 40 16093 6.7 50 20:21 01.04.2020
5693 Clouds 10 1009 43 16093 3.09 14 19:59 01.04.2020
5694 Clouds 10 1009 43 16093 3.09 14 19:41 01.04.2020
5695 Clouds 10 1009 43 16093 3.09 14 19:20 01.04.2020
5696 Clouds 9 1009 50 16093 1.5 0 18:44 01.04.2020
5697 Clouds 9 1010 45 16093 5.45 35 18:26 01.04.2020
5698 Clouds 8 1011 45 16093 4.6 50 17:58 01.04.2020
5699 Clear 8 1010 62 16093 4.1 60 17:38 01.04.2020
5700 Clouds 8 1011 65 16093 4.1 50 17:20 01.04.2020
5701 Clouds 7 1011 65 16093 4.1 50 16:59 01.04.2020
5702 Clouds 7 1011 65 16093 4.1 50 16:40 01.04.2020
5703 Clouds 6 1011 65 16093 4.1 50 16:22 01.04.2020
5704 Clouds 6 1011 65 16093 5.7 50 15:58 01.04.2020
5705 Clouds 5 1011 70 16093 7.7 50 15:38 01.04.2020
5706 Clouds 5 1011 70 16093 7.7 50 15:38 01.04.2020
5707 Clouds 5 1011 70 16093 7.7 50 15:20 01.04.2020
5708 Clouds 4 1011 69 16093 5.7 40 14:57 01.04.2020
5709 Clouds 4 1011 69 16093 5.7 40 14:38 01.04.2020
5710 Clouds 4 1011 69 16093 5.7 40 14:38 01.04.2020
5711 Clouds 4 1011 69 16093 5.7 40 14:19 01.04.2020
5712 Clouds 3 1011 69 16093 5.1 40 13:58 01.04.2020
5713 Clear 3 1011 69 16093 6.2 50 13:37 01.04.2020
5714 Clear 3 1011 69 16093 6.2 50 13:19 01.04.2020
5715 Clouds 3 1011 69 16093 5.1 60 12:54 01.04.2020
5716 Clouds 3 1011 69 16093 5.1 60 12:36 01.04.2020
5717 Clouds 3 1011 69 16093 5.1 60 12:18 01.04.2020
5718 Clear 3 1011 69 16093 2.6 50 11:42 01.04.2020
5719 Clouds 4 1011 72 16093 4.1 30 11:23 01.04.2020
5720 Clouds 4 1011 72 16093 4.1 30 10:58 01.04.2020
5721 Clouds 4 1011 72 16093 4.1 30 10:38 01.04.2020
5722 Clouds 4 1011 72 16093 4.1 30 10:19 01.04.2020
5723 Clouds 4 1012 72 16093 3.1 0 09:57 01.04.2020
5724 Clouds 4 1012 72 16093 3.1 0 09:38 01.04.2020
5725 Clouds 4 1012 74 16093 3.1 0 09:18 01.04.2020
5726 Clouds 4 1013 74 16093 2.6 50 08:40 01.04.2020
5727 Clouds 4 1013 75 16093 3.6 40 08:18 01.04.2020
5728 Clouds 5 1013 75 16093 3.1 90 07:44 01.04.2020
5729 Clouds 5 1013 75 16093 3.1 90 07:21 01.04.2020
5730 Clouds 5 1014 81 16093 2.6 120 06:48 01.04.2020
5731 Clouds 5 1014 81 16093 2.6 120 06:26 01.04.2020
5732 Clouds 5 1015 70 16093 3.1 0 05:56 01.04.2020
5733 Clouds 5 1016 75 16093 2.1 150 04:32 01.04.2020
5734 Clouds 6 1015 75 16093 2.1 160 03:32 01.04.2020
5735 Clouds 6 1015 75 16093 3.6 180 02:56 01.04.2020
5736 Clouds 6 1015 70 16093 2.1 120 01:59 01.04.2020
5737 Clouds 6 1015 70 16093 2.1 120 01:39 01.04.2020
5738 Clouds 6 1015 70 16093 2.1 120 01:19 01.04.2020
5739 Clouds 7 1015 75 16093 1.5 150 00:46 01.04.2020
5740 Clouds 7 1015 75 16093 1.5 150 00:21 01.04.2020
5741 Clouds 7 1015 75 16093 2.6 170 23:48 31.03.2020
5742 Clouds 8 1015 75 16093 2.6 170 23:28 31.03.2020
5743 Clouds 8 1016 75 16093 3.1 220 22:59 31.03.2020
5744 Clouds 8 1016 75 16093 3.1 220 22:37 31.03.2020
5745 Clouds 8 1016 75 16093 3.1 220 22:19 31.03.2020
5746 Clouds 8 1016 75 16093 3.1 220 21:57 31.03.2020
5747 Clouds 8 1016 75 16093 2.6 240 21:39 31.03.2020
5748 Clouds 7 1016 75 16093 2.6 240 21:20 31.03.2020
5749 Clouds 7 1016 75 16093 2.6 240 21:20 31.03.2020
5750 Clouds 7 1016 75 16093 2.6 240 21:20 31.03.2020
5751 Clouds 7 1016 75 16093 2.6 240 20:56 31.03.2020
5752 Clouds 7 1017 70 16093 2.6 250 20:37 31.03.2020
5753 Clouds 7 1018 70 16093 3.71 99 20:18 31.03.2020
5754 Clouds 7 1018 70 16093 3.71 99 19:54 31.03.2020
5755 Clouds 7 1018 70 16093 3.71 99 19:36 31.03.2020
5756 Clouds 6 1018 70 16093 3.71 99 19:18 31.03.2020
5757 Clouds 6 1018 75 16093 3.6 50 18:41 31.03.2020
5758 Clouds 6 1018 75 16093 3.6 50 18:20 31.03.2020
5759 Clouds 6 1018 75 16093 3.6 50 17:56 31.03.2020
5760 Clouds 6 1018 75 16093 3.6 50 17:56 31.03.2020
5761 Clouds 6 1018 75 16093 2.6 50 17:38 31.03.2020
5762 Clouds 6 1018 75 16093 2.6 50 17:20 31.03.2020
5763 Clouds 5 1019 81 16093 3.6 70 16:42 31.03.2020
5764 Clouds 5 1019 81 16093 3.6 70 16:20 31.03.2020
5765 Clouds 5 1018 81 16093 4.6 60 15:59 31.03.2020
5766 Clouds 5 1018 81 16093 4.6 60 15:41 31.03.2020
5767 Haze 5 1018 81 9656 5.1 30 15:23 31.03.2020
5768 Haze 5 1018 81 9656 5.1 30 14:59 31.03.2020
5769 Haze 5 1018 81 9656 5.1 30 14:41 31.03.2020
5770 Haze 5 1018 81 9656 5.1 30 14:22 31.03.2020
5771 Clouds 5 1018 81 16093 6.7 50 13:55 31.03.2020
5772 Clouds 5 1018 81 16093 6.7 50 13:37 31.03.2020
5773 Clouds 5 1017 87 16093 6.7 40 13:18 31.03.2020
5774 Clouds 5 1017 87 16093 6.7 40 12:44 31.03.2020
5775 Clouds 5 1017 87 16093 6.7 40 12:20 31.03.2020
5776 Rain 5 1017 87 16093 6.7 50 11:55 31.03.2020
5777 Rain 5 1016 87 16093 6.2 40 11:36 31.03.2020
5778 Rain 5 1016 87 16093 6.2 40 11:36 31.03.2020
5779 Rain 5 1016 93 16093 5.1 40 11:18 31.03.2020
5780 Rain 5 1016 93 16093 5.1 40 10:55 31.03.2020
5781 Rain 6 1016 93 16093 4.6 40 10:37 31.03.2020
5782 Rain 6 1016 93 11265 3.6 70 10:18 31.03.2020
5783 Rain 6 1016 93 11265 3.6 70 09:43 31.03.2020
5784 Rain 6 1016 93 11265 3.6 70 09:25 31.03.2020
5785 Rain 6 1016 93 16093 3.1 0 08:58 31.03.2020
5786 Rain 6 1016 93 12874 1.5 160 08:39 31.03.2020
5787 Rain 6 1016 93 12874 1.5 160 08:20 31.03.2020
5788 Rain 6 1016 93 12874 1.5 160 08:20 31.03.2020
5789 Rain 6 1016 93 12874 1.5 190 07:56 31.03.2020
5790 Rain 6 1016 93 16093 2.1 150 07:38 31.03.2020
5791 Rain 7 1016 93 16093 2.1 150 07:20 31.03.2020
5792 Clouds 7 1016 93 11265 3.81 106 06:51 31.03.2020
5793 Clouds 7 1016 93 11265 3.81 106 06:30 31.03.2020
5794 Clouds 7 1016 87 16093 2.93 121 05:40 31.03.2020
5795 Rain 7 1016 87 8047 2.1 240 03:57 31.03.2020
5796 Clouds 8 1015 87 16093 2.6 170 02:26 31.03.2020
5797 Rain 8 1014 81 11265 3.1 140 01:46 31.03.2020
5798 Rain 9 1013 81 16093 3.1 50 00:52 31.03.2020
5799 Rain 9 1013 81 16093 3.1 50 00:25 31.03.2020
5800 Clouds 9 1013 76 16093 2.6 50 23:59 30.03.2020
5801 Clouds 9 1013 81 16093 3.1 40 23:38 30.03.2020
5802 Clouds 9 1013 81 16093 3.1 40 23:19 30.03.2020
5803 Clouds 9 1013 81 16093 1.5 200 22:57 30.03.2020
5804 Clouds 9 1013 81 16093 1.5 200 22:38 30.03.2020
5805 Clouds 9 1013 81 16093 2.1 260 22:18 30.03.2020
5806 Clouds 9 1013 81 16093 2.1 260 21:57 30.03.2020
5807 Clouds 9 1013 81 16093 2.1 260 21:37 30.03.2020
5808 Clouds 9 1013 81 16093 2.1 260 21:19 30.03.2020
5809 Clouds 9 1013 81 14484 2.6 220 20:56 30.03.2020
5810 Clouds 9 1013 81 14484 2.6 220 20:37 30.03.2020
5811 Clouds 9 1013 81 14484 2.6 220 20:19 30.03.2020
5812 Clouds 9 1014 76 16093 2.6 260 19:41 30.03.2020
5813 Clouds 9 1014 76 16093 2.6 260 19:22 30.03.2020
5814 Clouds 8 1014 81 16093 4.61 122 18:57 30.03.2020
5815 Clouds 8 1014 81 16093 4.61 122 18:39 30.03.2020
5816 Clouds 8 1014 81 16093 2.33 162 18:21 30.03.2020
5817 Clouds 8 1014 81 16093 2.33 162 17:57 30.03.2020
5818 Clouds 7 1015 81 16093 2.33 162 17:39 30.03.2020
5819 Clouds 7 1016 87 16093 1.5 0 17:19 30.03.2020
5820 Clouds 7 1016 87 16093 1.5 0 16:57 30.03.2020
5821 Clouds 7 1016 87 16093 1.5 0 16:38 30.03.2020
5822 Clouds 7 1016 87 16093 1.5 0 16:20 30.03.2020
5823 Clouds 7 1015 81 16093 4.6 60 15:55 30.03.2020
5824 Clouds 7 1015 81 16093 4.6 60 15:36 30.03.2020
5825 Clouds 6 1016 81 16093 4.6 50 15:18 30.03.2020
5826 Clouds 6 1016 81 16093 4.6 50 14:55 30.03.2020
5827 Clouds 6 1016 81 16093 4.6 50 14:36 30.03.2020
5828 Clouds 6 1016 87 16093 3.1 50 14:18 30.03.2020
5829 Clouds 6 1016 87 16093 3.1 50 13:43 30.03.2020
5830 Clouds 6 1016 87 16093 3.1 50 13:21 30.03.2020
5831 Clouds 6 1015 87 16093 3.1 60 13:21 30.03.2020
5832 Clouds 6 1015 87 16093 3.1 60 12:59 30.03.2020
5833 Clouds 6 1015 93 16093 2.6 80 12:41 30.03.2020
5834 Clouds 7 1015 87 16093 5.7 60 12:19 30.03.2020
5835 Clouds 7 1015 87 16093 5.7 60 11:57 30.03.2020
5836 Clouds 7 1015 87 16093 5.7 60 11:38 30.03.2020
5837 Clouds 7 1015 87 16093 5.7 60 11:20 30.03.2020
5838 Clouds 7 1014 87 16093 3.6 60 10:40 30.03.2020
5839 Clouds 7 1014 87 16093 2.1 0 10:22 30.03.2020
5840 Clouds 7 1014 87 16093 2.1 0 09:57 30.03.2020
5841 Clouds 7 1014 87 16093 2.1 0 09:38 30.03.2020
5842 Clouds 8 1013 93 16093 2.6 70 09:19 30.03.2020
5843 Clouds 8 1013 93 16093 2.6 70 08:42 30.03.2020
5844 Clouds 8 1013 93 16093 2.6 70 08:22 30.03.2020
5845 Clouds 8 1013 87 16093 4.1 40 07:50 30.03.2020
5846 Clouds 8 1013 87 16093 4.1 40 07:31 30.03.2020
5847 Clouds 8 1012 93 16093 6.2 40 06:57 30.03.2020
5848 Clouds 8 1012 93 16093 6.2 40 06:33 30.03.2020
5849 Clouds 8 1012 93 16093 7.2 40 05:54 30.03.2020
5850 Clouds 8 1012 93 16093 7.2 40 05:33 30.03.2020
5851 Clouds 8 1012 93 11265 5.7 30 04:24 30.03.2020
5852 Mist 8 1012 93 8047 7.2 30 03:44 30.03.2020
5853 Clouds 8 1011 93 16093 6.7 30 02:42 30.03.2020
5854 Mist 8 1011 93 6437 8.2 30 01:48 30.03.2020
5855 Mist 8 1012 93 4828 6.7 40 00:55 30.03.2020
5856 Mist 8 1012 93 3219 5.7 40 00:24 30.03.2020
5857 Mist 8 1011 93 2816 4.6 30 23:43 29.03.2020
5858 Mist 8 1011 93 2816 4.6 30 23:24 29.03.2020
5859 Mist 9 1011 93 3219 5.1 30 22:59 29.03.2020
5860 Mist 9 1010 93 4828 6.2 30 22:39 29.03.2020
5861 Mist 9 1010 93 4828 6.2 30 22:19 29.03.2020
5862 Mist 9 1009 93 3219 7.7 30 21:58 29.03.2020
5863 Mist 9 1011 93 4828 7.2 30 21:37 29.03.2020
5864 Mist 8 1011 93 4828 7.2 30 21:18 29.03.2020
5865 Mist 8 1014 93 6437 5.7 30 20:55 29.03.2020
5866 Mist 8 1014 93 6437 5.7 30 20:55 29.03.2020
5867 Mist 8 1014 93 6437 5.7 30 20:37 29.03.2020
5868 Mist 8 1014 93 6437 5.7 30 20:37 29.03.2020
5869 Mist 8 1014 93 6437 5.7 30 20:18 29.03.2020
5870 Rain 8 1015 93 3219 5.7 30 19:55 29.03.2020
5871 Rain 8 1014 93 6437 5.7 30 19:55 29.03.2020
5872 Rain 9 1015 93 3219 5.7 30 19:37 29.03.2020
5873 Rain 9 1015 93 3219 5.7 30 19:18 29.03.2020
5874 Rain 9 1014 93 4828 9.3 50 18:55 29.03.2020
5875 Rain 8 1014 93 4828 9.3 50 18:36 29.03.2020
5876 Rain 8 1014 93 4828 9.3 50 18:18 29.03.2020
5877 Rain 8 1017 93 2816 5.1 20 17:42 29.03.2020
5878 Rain 8 1017 93 2816 5.1 20 17:24 29.03.2020
5879 Rain 8 1017 93 2816 3.1 10 16:59 29.03.2020
5880 Rain 8 1017 93 2816 3.1 10 16:41 29.03.2020
5881 Rain 8 1017 93 2816 3.1 10 16:21 29.03.2020
5882 Rain 8 1016 93 3219 6.7 30 15:59 29.03.2020
5883 Rain 8 1016 93 3219 6.7 30 15:40 29.03.2020
5884 Mist 8 1016 93 4023 7.2 30 15:21 29.03.2020
5885 Mist 8 1016 93 4023 7.2 30 14:57 29.03.2020
5886 Mist 8 1016 93 4023 7.2 30 14:38 29.03.2020
5887 Mist 8 1016 93 4023 7.2 30 14:19 29.03.2020
5888 Mist 8 1016 93 4828 9.3 30 13:56 29.03.2020
5889 Mist 7 1016 93 4828 9.3 30 13:37 29.03.2020
5890 Mist 7 1016 93 4828 9.3 30 13:19 29.03.2020
5891 Clouds 7 1016 93 11265 8.2 30 12:55 29.03.2020
5892 Clouds 7 1016 93 11265 8.2 30 12:37 29.03.2020
5893 Mist 7 1016 93 8047 7.7 30 12:18 29.03.2020
5894 Mist 7 1016 93 8047 7.7 30 12:18 29.03.2020
5895 Mist 7 1016 93 8047 7.7 30 11:39 29.03.2020
5896 Rain 7 1016 93 8047 7.7 30 11:21 29.03.2020
5897 Rain 7 1016 93 8047 7.7 40 10:59 29.03.2020
5898 Rain 7 1016 93 8047 7.7 40 10:37 29.03.2020
5899 Rain 7 1016 93 8047 7.7 40 10:18 29.03.2020
5900 Rain 7 1016 93 8047 7.7 40 10:18 29.03.2020
5901 Rain 7 1016 93 4828 6.2 30 09:40 29.03.2020
5902 Mist 7 1017 93 8047 3.6 20 09:19 29.03.2020
5903 Rain 8 1017 93 8047 3.6 20 08:54 29.03.2020
5904 Rain 8 1017 93 6437 7.7 30 08:28 29.03.2020
5905 Rain 8 1017 93 6437 7.7 30 07:58 29.03.2020
5906 Rain 8 1017 93 6437 7.7 30 07:58 29.03.2020
5907 Rain 8 1017 93 6437 7.7 30 07:40 29.03.2020
5908 Rain 8 1017 93 6437 7.7 30 07:20 29.03.2020
5909 Rain 8 1017 93 8047 7.2 20 05:41 29.03.2020
5910 Rain 7 1019 93 14484 4.6 40 03:58 29.03.2020
5911 Rain 7 1019 93 14484 4.6 40 03:28 29.03.2020
5912 Rain 7 1018 93 6437 5.7 30 01:51 29.03.2020
5913 Rain 7 1018 93 4023 6.2 30 01:23 29.03.2020
5914 Rain 7 1018 87 12874 5.1 30 00:55 29.03.2020
5915 Rain 7 1017 87 6437 7.2 50 00:32 29.03.2020
5916 Rain 7 1018 87 16093 5.1 40 23:43 28.03.2020
5917 Rain 7 1018 87 16093 5.1 40 23:24 28.03.2020
5918 Clouds 7 1018 87 16093 5.7 30 22:59 28.03.2020
5919 Clouds 7 1017 87 16093 6.2 40 22:39 28.03.2020
5920 Clouds 7 1017 87 16093 6.2 40 22:20 28.03.2020
5921 Rain 7 1017 87 16093 6.2 40 21:55 28.03.2020
5922 Rain 7 1017 87 16093 6.2 40 21:37 28.03.2020
5923 Rain 7 1017 87 16093 6.2 40 21:18 28.03.2020
5924 Rain 8 1020 87 11265 4.6 30 20:42 28.03.2020
5925 Rain 8 1021 81 14484 3.6 40 20:23 28.03.2020
5926 Rain 8 1021 81 14484 3.6 40 19:57 28.03.2020
5927 Rain 8 1021 81 14484 3.6 40 19:39 28.03.2020
5928 Rain 8 1021 81 14484 3.6 40 19:21 28.03.2020
5929 Rain 8 1020 81 16093 4.1 40 18:59 28.03.2020
5930 Rain 8 1020 81 16093 4.1 40 18:39 28.03.2020
5931 Rain 8 1020 81 16093 4.1 40 18:19 28.03.2020
5932 Rain 8 1021 76 16093 5.1 60 17:39 28.03.2020
5933 Rain 8 1021 76 16093 5.1 60 17:21 28.03.2020
5934 Rain 8 1021 76 16093 5.1 60 16:55 28.03.2020
5935 Rain 9 1021 70 16093 4.6 70 16:37 28.03.2020
5936 Rain 9 1021 66 16093 2.1 0 16:18 28.03.2020
5937 Rain 9 1021 53 16093 3.6 70 15:39 28.03.2020
5938 Rain 9 1021 53 16093 3.6 70 15:19 28.03.2020
5939 Rain 9 1020 43 16093 5.1 50 14:56 28.03.2020
5940 Rain 9 1020 43 16093 5.1 50 14:38 28.03.2020
5941 Clouds 9 1019 46 16093 5.1 30 14:20 28.03.2020
5942 Clouds 9 1019 46 16093 5.1 30 13:41 28.03.2020
5943 Clouds 9 1019 46 16093 5.1 30 13:22 28.03.2020
5944 Clouds 9 1019 49 16093 6.2 30 12:41 28.03.2020
5945 Clouds 9 1019 49 16093 6.2 30 12:22 28.03.2020
5946 Clouds 8 1019 43 16093 4.6 40 11:43 28.03.2020
5947 Clouds 8 1019 43 16093 4.6 40 11:24 28.03.2020
5948 Clouds 8 1019 43 16093 4.6 40 10:58 28.03.2020
5949 Clear 8 1019 39 16093 5.1 40 10:38 28.03.2020
5950 Clear 8 1019 37 16093 6.2 50 10:19 28.03.2020
5951 Clear 8 1019 37 16093 6.2 50 09:43 28.03.2020
5952 Clear 8 1019 37 16093 6.2 50 09:24 28.03.2020
5953 Clear 8 1019 40 16093 6.2 50 08:57 28.03.2020
5954 Clear 8 1019 40 16093 6.2 50 08:39 28.03.2020
5955 Clear 8 1019 40 16093 6.2 50 08:39 28.03.2020
5956 Clear 9 1019 40 16093 6.2 50 08:20 28.03.2020
5957 Clear 9 1019 37 16093 4.1 40 07:44 28.03.2020
5958 Clear 9 1019 37 16093 4.1 40 07:26 28.03.2020
5959 Clear 9 1019 37 16093 5.1 40 06:36 28.03.2020
5960 Clear 9 1018 54 16093 4.6 50 05:43 28.03.2020
5961 Clear 10 1018 54 16093 4.6 50 05:21 28.03.2020
5962 Clear 10 1018 35 16093 4.1 60 04:41 28.03.2020
5963 Clear 10 1017 43 16093 4 37 03:54 28.03.2020
5964 Clear 12 1015 38 16093 3.86 357 02:21 28.03.2020
5965 Clear 13 1015 38 16093 3.86 357 01:41 28.03.2020
5966 Clear 13 1015 16 16093 1.5 330 01:18 28.03.2020
5967 Clear 15 1014 47 16093 2.1 280 00:37 28.03.2020
5968 Clear 17 1014 47 16093 2.1 280 23:59 27.03.2020
5969 Clear 18 1013 19 16093 3.1 350 23:41 27.03.2020
5970 Clear 18 1013 19 16093 3.1 350 23:21 27.03.2020
5971 Clear 19 1012 18 16093 1.5 0 22:56 27.03.2020
5972 Clear 19 1012 18 16093 1.5 0 22:38 27.03.2020
5973 Clear 19 1011 21 16093 2.1 150 22:19 27.03.2020
5974 Clear 19 1011 21 16093 2.1 150 21:45 27.03.2020
5975 Clear 19 1011 21 16093 2.1 150 21:25 27.03.2020
5976 Clear 19 1011 24 16093 2.1 150 20:59 27.03.2020
5977 Clear 19 1011 24 16093 2.1 150 20:41 27.03.2020
5978 Clear 19 1011 24 16093 2.1 150 20:21 27.03.2020
5979 Clear 18 1011 29 16093 2.9 332 19:58 27.03.2020
5980 Clear 18 1011 29 16093 2.9 332 19:40 27.03.2020
5981 Clear 18 1011 29 16093 2.9 332 19:21 27.03.2020
5982 Clouds 18 1011 39 16093 3.1 170 18:45 27.03.2020
5983 Clouds 18 1011 39 16093 3.1 170 18:25 27.03.2020
5984 Clouds 17 1011 39 16093 3.1 170 17:59 27.03.2020
5985 Clouds 17 1011 45 16093 1.5 220 17:40 27.03.2020
5986 Clouds 16 1011 45 16093 1.5 220 17:20 27.03.2020
5987 Clear 16 1011 51 16093 1.5 0 16:45 27.03.2020
5988 Clear 16 1011 51 16093 1.5 0 16:27 27.03.2020
5989 Clear 14 1010 67 16093 1.5 0 15:57 27.03.2020
5990 Clear 14 1010 67 16093 1.5 0 15:39 27.03.2020
5991 Clear 14 1010 67 16093 1.5 0 15:21 27.03.2020
5992 Clouds 13 1010 76 16093 3.1 230 14:45 27.03.2020
5993 Clouds 11 1009 81 16093 2.1 230 14:24 27.03.2020
5994 Clouds 11 1009 81 16093 2.1 230 13:56 27.03.2020
5995 Clouds 11 1009 81 16093 2.1 230 13:37 27.03.2020
5996 Clouds 10 1009 81 16093 2.1 230 13:18 27.03.2020
5997 Clouds 10 1009 81 16093 2.1 240 12:49 27.03.2020
5998 Clouds 10 1009 81 16093 2.1 240 12:21 27.03.2020
5999 Clouds 10 1009 81 16093 2.1 240 11:59 27.03.2020
6000 Clouds 10 1008 81 16093 2.6 270 11:41 27.03.2020
6001 Clouds 10 1008 81 16093 2.6 270 11:41 27.03.2020
6002 Clouds 10 1008 81 16093 2.6 270 11:22 27.03.2020
6003 Clouds 10 1008 81 16093 4.1 260 10:54 27.03.2020
6004 Clouds 10 1008 81 16093 4.1 260 10:36 27.03.2020
6005 Rain 10 1008 76 16093 3.1 260 10:18 27.03.2020
6006 Rain 10 1008 76 16093 3.1 260 09:56 27.03.2020
6007 Rain 10 1008 76 16093 3.1 260 09:37 27.03.2020
6008 Rain 10 1009 76 16093 3.1 260 09:18 27.03.2020
6009 Rain 10 1009 76 16093 3.1 260 08:54 27.03.2020
6010 Rain 10 1009 76 16093 3.1 260 08:36 27.03.2020
6011 Clouds 10 1009 76 16093 3.1 270 08:18 27.03.2020
6012 Clouds 10 1009 76 16093 3.1 270 07:49 27.03.2020
6013 Clouds 11 1009 76 16093 3.1 270 07:22 27.03.2020
6014 Clouds 10 1010 76 16093 3.1 260 06:45 27.03.2020
6015 Clouds 10 1010 76 16093 3.1 260 06:26 27.03.2020
6016 Clear 9 1011 76 16093 2.6 260 03:42 27.03.2020
6017 Clear 9 1012 70 16093 4.3 187 02:25 27.03.2020
6018 Clear 9 1012 62 16093 2.6 120 01:22 27.03.2020
6019 Clear 9 1012 62 16093 2.6 120 00:47 27.03.2020
6020 Clear 9 1012 62 16093 2.6 120 00:23 27.03.2020
6021 Clear 11 1013 54 16093 3.6 170 23:42 26.03.2020
6022 Clear 11 1013 54 16093 3.6 170 23:21 26.03.2020
6023 Clear 12 1013 54 16093 3.6 170 22:58 26.03.2020
6024 Clear 13 1013 47 16093 3.1 160 22:37 26.03.2020
6025 Clear 13 1013 47 16093 3.1 160 22:19 26.03.2020
6026 Clear 15 1013 47 16093 3.1 210 21:55 26.03.2020
6027 Clear 15 1013 47 16093 3.1 210 21:36 26.03.2020
6028 Clear 15 1013 47 16093 3.1 210 21:18 26.03.2020
6029 Clear 15 1014 41 16093 2.1 200 20:41 26.03.2020
6030 Clear 15 1014 41 16093 2.1 200 20:23 26.03.2020
6031 Clear 15 1014 41 16093 2.1 200 20:23 26.03.2020
6032 Clear 14 1016 50 16093 2.6 210 19:58 26.03.2020
6033 Clear 14 1016 50 16093 2.6 210 19:40 26.03.2020
6034 Clear 13 1017 50 16093 2.46 174 19:22 26.03.2020
6035 Clear 13 1017 50 16093 2.46 174 18:59 26.03.2020
6036 Clear 12 1017 50 16093 2.46 174 18:41 26.03.2020
6037 Clear 12 1017 50 16093 2.46 174 18:23 26.03.2020
6038 Clear 10 1018 57 16093 2.6 210 17:45 26.03.2020
6039 Clear 10 1018 57 16093 2.6 210 17:20 26.03.2020
6040 Clear 9 1018 57 16093 2.6 210 16:59 26.03.2020
6041 Clear 8 1019 61 16093 3.1 240 16:39 26.03.2020
6042 Clear 9 1019 61 16093 3.1 240 16:39 26.03.2020
6043 Clear 8 1019 61 16093 3.1 240 16:21 26.03.2020
6044 Clear 8 1019 52 16093 1.5 260 15:56 26.03.2020
6045 Clear 8 1019 52 16093 1.5 260 15:38 26.03.2020
6046 Clear 8 1019 52 16093 1.5 260 15:38 26.03.2020
6047 Clear 7 1019 52 16093 1.5 260 15:20 26.03.2020
6048 Clear 7 1019 61 16093 3.1 70 14:55 26.03.2020
6049 Clear 6 1019 61 16093 3.1 70 14:36 26.03.2020
6050 Clear 6 1019 74 16093 2.1 80 14:18 26.03.2020
6051 Clear 5 1019 74 16093 2.1 80 13:41 26.03.2020
6052 Clear 4 1019 60 16093 3.1 0 13:22 26.03.2020
6053 Clear 4 1018 65 16093 4.1 50 12:55 26.03.2020
6054 Clear 3 1018 65 16093 4.1 50 12:37 26.03.2020
6055 Clear 3 1018 65 16093 4.1 50 12:18 26.03.2020
6056 Clear 3 1018 69 16093 2.1 0 11:44 26.03.2020
6057 Clear 3 1018 69 16093 2.1 0 11:20 26.03.2020
6058 Clear 3 1018 69 16093 2.1 0 10:55 26.03.2020
6059 Clear 3 1018 69 16093 2.6 0 10:36 26.03.2020
6060 Clear 3 1017 76 16093 4.31 349 10:18 26.03.2020
6061 Clear 3 1017 76 16093 4.31 349 09:42 26.03.2020
6062 Clear 3 1017 76 16093 4.31 349 09:19 26.03.2020
6063 Clear 4 1017 75 16093 5.7 40 08:44 26.03.2020
6064 Clear 4 1017 75 16093 5.7 40 08:26 26.03.2020
6065 Clear 4 1017 65 16093 4.1 360 07:57 26.03.2020
6066 Clear 4 1019 69 16093 5.3 35 07:38 26.03.2020
6067 Clear 4 1019 69 16093 5.3 35 07:20 26.03.2020
6068 Clear 4 1018 65 16093 1.5 0 06:38 26.03.2020
6069 Clouds 5 1018 70 16093 5.7 40 05:52 26.03.2020
6070 Clouds 5 1018 70 16093 5.1 10 03:52 26.03.2020
6071 Clouds 6 1019 70 16093 5.1 20 03:33 26.03.2020
6072 Clouds 6 1017 75 16093 5.1 40 02:53 26.03.2020
6073 Clouds 6 1017 75 16093 3.6 60 01:20 26.03.2020
6074 Clouds 6 1017 70 16093 6.2 40 00:43 26.03.2020
6075 Clouds 7 1016 70 16093 7.2 40 23:45 25.03.2020
6076 Clouds 7 1016 70 16093 7.2 40 23:27 25.03.2020
6077 Clouds 7 1016 70 16093 8.7 30 22:58 25.03.2020
6078 Clouds 7 1016 75 16093 9.8 30 22:38 25.03.2020
6079 Clouds 7 1016 75 16093 9.8 30 22:19 25.03.2020
6080 Clouds 7 1016 81 16093 9.3 40 21:55 25.03.2020
6081 Rain 7 1016 81 16093 9.3 40 21:37 25.03.2020
6082 Rain 7 1016 81 16093 7.2 40 21:18 25.03.2020
6083 Rain 7 1017 81 16093 5.7 30 20:40 25.03.2020
6084 Rain 7 1017 81 16093 5.7 30 20:20 25.03.2020
6085 Clouds 7 1018 75 16093 5.7 30 19:59 25.03.2020
6086 Rain 7 1018 75 16093 5.7 30 19:41 25.03.2020
6087 Clouds 7 1018 75 16093 5.7 30 19:21 25.03.2020
6088 Clouds 7 1018 75 16093 5.7 30 18:56 25.03.2020
6089 Clouds 7 1019 75 16093 5.1 40 18:37 25.03.2020
6090 Clouds 7 1019 75 16093 5.1 40 18:19 25.03.2020
6091 Clouds 7 1019 75 16093 5.1 40 17:54 25.03.2020
6092 Clouds 7 1018 75 16093 6.2 40 17:36 25.03.2020
6093 Clouds 7 1018 75 16093 6.2 40 17:18 25.03.2020
6094 Clouds 7 1019 70 16093 4.6 30 16:41 25.03.2020
6095 Clouds 6 1019 70 16093 4.6 30 16:22 25.03.2020
6096 Clouds 6 1019 70 16093 4.1 40 15:57 25.03.2020
6097 Clouds 6 1019 70 16093 4.1 40 15:38 25.03.2020
6098 Clouds 6 1019 75 16093 6.2 40 15:19 25.03.2020
6099 Clouds 6 1019 75 16093 6.2 40 14:42 25.03.2020
6100 Clouds 6 1020 70 16093 5.7 50 14:21 25.03.2020
6101 Clouds 5 1020 70 16093 5.7 50 13:46 25.03.2020
6102 Clouds 5 1020 70 16093 5.7 50 13:27 25.03.2020
6103 Clouds 5 1020 70 16093 5.1 40 12:57 25.03.2020
6104 Clouds 5 1020 70 16093 5.1 40 12:37 25.03.2020
6105 Clouds 5 1020 70 16093 5.1 40 12:19 25.03.2020
6106 Clouds 5 1020 70 16093 5.1 40 11:55 25.03.2020
6107 Clouds 5 1019 70 16093 6.2 40 11:36 25.03.2020
6108 Clouds 5 1019 70 16093 6.2 40 11:18 25.03.2020
6109 Clouds 5 1019 70 16093 6.2 40 10:55 25.03.2020
6110 Clouds 5 1019 74 16093 4.6 20 10:36 25.03.2020
6111 Clear 5 1020 74 16093 5.1 40 10:18 25.03.2020
6112 Clear 5 1020 74 16093 5.1 40 09:42 25.03.2020
6113 Clear 5 1020 74 16093 5.1 40 09:22 25.03.2020
6114 Clear 5 1021 74 16093 6.7 40 08:56 25.03.2020
6115 Clear 5 1021 74 16093 6.7 40 08:38 25.03.2020
6116 Clear 5 1021 74 16093 6.7 40 08:38 25.03.2020
6117 Clear 5 1021 70 16093 6.7 40 08:19 25.03.2020
6118 Clear 5 1021 70 16093 6.7 30 07:41 25.03.2020
6119 Clear 5 1021 70 16093 6.7 30 07:20 25.03.2020
6120 Clear 5 1022 70 16093 5.1 50 06:47 25.03.2020
6121 Clear 5 1022 70 16093 5.1 50 06:26 25.03.2020
6122 Clear 5 1023 56 16093 2.6 60 05:53 25.03.2020
6123 Clear 5 1023 56 16093 2.6 60 05:30 25.03.2020
6124 Clear 6 1022 70 16093 4.6 70 04:39 25.03.2020
6125 Clear 8 1022 66 16093 5.7 40 03:36 25.03.2020
6126 Clear 9 1022 66 16093 2.6 60 02:31 25.03.2020
6127 Clear 10 1021 61 16093 3.6 50 01:21 25.03.2020
6128 Clear 10 1021 50 16093 3.1 50 00:48 25.03.2020
6129 Clear 10 1020 50 16093 4.34 54 00:23 25.03.2020
6130 Clear 11 1019 50 16093 3.1 60 23:45 24.03.2020
6131 Clear 11 1020 46 16093 3.1 30 23:26 24.03.2020
6132 Clear 12 1019 44 16093 3.6 60 22:57 24.03.2020
6133 Clear 13 1019 44 16093 3.6 60 22:38 24.03.2020
6134 Clear 13 1019 44 16093 3.6 60 22:19 24.03.2020
6135 Clear 12 1020 44 16093 4.1 70 21:56 24.03.2020
6136 Clear 12 1020 44 16093 4.1 70 21:37 24.03.2020
6137 Clear 12 1021 44 16093 1.5 0 21:18 24.03.2020
6138 Clear 12 1021 44 16093 1.5 0 20:56 24.03.2020
6139 Clear 12 1021 44 16093 1.5 0 20:38 24.03.2020
6140 Clear 12 1021 44 16093 1.5 0 20:20 24.03.2020
6141 Clear 12 1020 43 16093 2.1 0 19:44 24.03.2020
6142 Clear 11 1021 50 16093 2.1 170 19:19 24.03.2020
6143 Clear 11 1021 50 16093 2.1 170 18:56 24.03.2020
6144 Clear 11 1021 50 16093 2.1 170 18:37 24.03.2020
6145 Clear 11 1021 50 16093 2.1 170 18:18 24.03.2020
6146 Clear 10 1021 57 16093 2.6 0 17:42 24.03.2020
6147 Clear 9 1021 57 16093 2.6 0 17:24 24.03.2020
6148 Clear 8 1021 57 16093 2.6 0 16:59 24.03.2020
6149 Clear 8 1021 67 16093 1.5 360 16:41 24.03.2020
6150 Clear 8 1021 67 16093 1.5 360 16:23 24.03.2020
6151 Clear 8 1021 67 16093 1.5 360 16:23 24.03.2020
6152 Clear 7 1021 67 16093 3.6 20 15:59 24.03.2020
6153 Clear 7 1021 67 16093 4.6 360 15:40 24.03.2020
6154 Clear 7 1021 67 16093 4.6 360 15:22 24.03.2020
6155 Clear 6 1021 75 16093 3.19 3 14:43 24.03.2020
6156 Clear 6 1021 75 16093 3.19 3 14:43 24.03.2020
6157 Clear 6 1021 75 16093 5.37 356 14:22 24.03.2020
6158 Clear 5 1020 80 16093 3.1 0 13:56 24.03.2020
6159 Clear 5 1020 80 16093 3.1 0 13:38 24.03.2020
6160 Clear 4 1020 80 16093 3.1 0 13:20 24.03.2020
6161 Clouds 3 1020 80 16093 4.86 350 12:42 24.03.2020
6162 Clouds 3 1019 80 16093 2.6 290 12:23 24.03.2020
6163 Clouds 3 1018 80 16093 2.1 250 11:41 24.03.2020
6164 Clouds 2 1018 80 16093 1.5 0 11:21 24.03.2020
6165 Clouds 2 1018 74 16093 4.6 330 10:59 24.03.2020
6166 Clouds 2 1018 86 16093 4.6 320 10:40 24.03.2020
6167 Clouds 2 1018 86 16093 3.6 250 10:18 24.03.2020
6168 Clouds 2 1017 86 16093 1.5 280 09:46 24.03.2020
6169 Clouds 2 1016 80 16093 4.6 320 09:27 24.03.2020
6170 Clouds 2 1016 80 16093 4.6 330 08:57 24.03.2020
6171 Clouds 2 1017 80 16093 3.6 290 08:38 24.03.2020
6172 Clouds 2 1017 85 16093 7.2 320 08:19 24.03.2020
6173 Clouds 2 1017 85 16093 5.1 290 07:44 24.03.2020
6174 Clouds 2 1017 80 16093 2.6 240 07:22 24.03.2020
6175 Clouds 3 1016 85 16093 6.7 330 06:42 24.03.2020
6176 Clouds 3 1016 85 16093 6.7 330 06:21 24.03.2020
6177 Clouds 3 1016 86 16093 8.29 336 04:52 24.03.2020
6178 Clouds 3 1015 86 16093 2.1 0 03:41 24.03.2020
6179 Rain 3 1015 93 16093 2.6 0 02:44 24.03.2020
6180 Rain 3 1016 93 16093 4.1 30 01:22 24.03.2020
6181 Rain 3 1015 93 9656 9.3 30 00:41 24.03.2020
6182 Rain 4 1018 87 6437 10.49 18 00:22 24.03.2020
6183 Rain 4 1016 93 4828 3.6 40 23:39 23.03.2020
6184 Rain 5 1017 93 1609 3.6 40 23:21 23.03.2020
6185 Rain 4 1017 93 4828 6.2 10 22:45 23.03.2020
6186 Rain 4 1017 100 3219 8.2 60 22:24 23.03.2020
6187 Rain 4 1018 86 4828 5.1 50 21:58 23.03.2020
6188 Rain 4 1018 93 4828 4.6 40 21:40 23.03.2020
6189 Rain 4 1020 93 1609 4.1 70 21:20 23.03.2020
6190 Rain 4 1020 86 4828 6.2 70 20:57 23.03.2020
6191 Rain 4 1021 93 2414 4.1 60 20:38 23.03.2020
6192 Rain 4 1021 93 3219 5.1 90 20:19 23.03.2020
6193 Rain 4 1023 93 4023 3.6 70 19:45 23.03.2020
6194 Rain 4 1023 93 4023 3.6 70 19:26 23.03.2020
6195 Rain 3 1023 93 6437 8.2 50 18:57 23.03.2020
6196 Rain 3 1025 93 3219 6.7 70 18:39 23.03.2020
6197 Rain 3 1027 93 8047 4.1 70 18:20 23.03.2020
6198 Rain 3 1028 86 14484 6.2 70 17:42 23.03.2020
6199 Rain 3 1029 93 6437 3.1 0 17:21 23.03.2020
6200 Rain 3 1028 93 8047 9.8 50 16:57 23.03.2020
6201 Rain 3 1030 86 3219 3.1 0 16:39 23.03.2020
6202 Rain 3 1030 93 6437 7.7 60 16:20 23.03.2020
6203 Rain 3 1031 90 4023 3.6 90 15:42 23.03.2020
6204 Rain 3 1031 86 4828 5.1 100 15:20 23.03.2020
6205 Rain 3 1033 90 11265 10.17 117 14:38 23.03.2020
6206 Rain 2 1032 80 16093 6.7 60 14:20 23.03.2020
6207 Rain 2 1032 80 16093 6.7 60 14:20 23.03.2020
6208 Rain 2 1033 74 11265 6.2 100 13:59 23.03.2020
6209 Rain 2 1032 82 4828 4.1 90 13:40 23.03.2020
6210 Rain 2 1032 86 8047 6.7 120 13:21 23.03.2020
6211 Rain 2 1031 93 4828 2.6 90 12:45 23.03.2020
6212 Rain 2 1033 86 4023 3.6 80 12:45 23.03.2020
6213 Rain 2 1034 74 8047 5.1 90 12:26 23.03.2020
6214 Rain 2 1034 80 16093 6.2 80 11:59 23.03.2020
6215 Rain 2 1034 80 16093 7.2 120 11:40 23.03.2020
6216 Clouds 3 1035 79 16093 6.2 70 11:20 23.03.2020
6217 Clouds 3 1035 79 16093 6.2 70 10:58 23.03.2020
6218 Drizzle 3 1035 69 16093 6.7 110 10:39 23.03.2020
6219 Drizzle 3 1035 69 16093 6.7 110 10:21 23.03.2020
6220 Clouds 3 1036 59 16093 3.1 100 09:46 23.03.2020
6221 Clouds 3 1036 59 16093 3.1 100 09:21 23.03.2020
6222 Clouds 3 1036 59 16093 7.2 100 08:58 23.03.2020
6223 Clouds 3 1037 64 16093 4.6 70 08:36 23.03.2020
6224 Clouds 3 1037 64 16093 4.6 70 08:18 23.03.2020
6225 Clouds 3 1037 55 16093 5.1 140 07:47 23.03.2020
6226 Clouds 2 1037 55 16093 5.1 140 07:29 23.03.2020
6227 Clouds 2 1038 59 16093 4.6 130 06:52 23.03.2020
6228 Clouds 2 1038 60 16093 5.1 70 06:20 23.03.2020
6229 Clouds 2 1039 64 16093 6.2 60 05:34 23.03.2020
6230 Clouds 2 1039 55 16093 4.6 140 03:45 23.03.2020
6231 Clouds 2 1040 55 16093 8.98 114 02:40 23.03.2020
6232 Clear 3 1039 55 16093 8.31 118 01:34 23.03.2020
6233 Clouds 3 1039 55 16093 4.6 140 00:43 23.03.2020
6234 Clouds 4 1039 60 16093 4.1 140 23:53 22.03.2020
6235 Clouds 4 1039 51 16093 3.6 160 23:27 22.03.2020
6236 Clouds 5 1038 48 16093 5.1 170 22:59 22.03.2020
6237 Clouds 5 1038 48 16093 1.5 160 22:39 22.03.2020
6238 Clouds 5 1038 45 16093 7.48 114 22:18 22.03.2020
6239 Clouds 6 1038 41 16093 4.6 150 21:40 22.03.2020
6240 Clouds 6 1038 42 16093 5.1 140 21:20 22.03.2020
6241 Clouds 6 1038 28 16093 5.1 40 20:58 22.03.2020
6242 Clouds 6 1038 35 16093 5.1 160 20:39 22.03.2020
6243 Clouds 6 1038 35 16093 5.1 160 20:21 22.03.2020
6244 Clouds 6 1038 26 16093 5.1 50 19:55 22.03.2020
6245 Clouds 6 1039 28 16093 6.56 99 19:37 22.03.2020
6246 Clouds 6 1039 33 16093 2.6 70 19:19 22.03.2020
6247 Clouds 5 1039 27 16093 4.1 90 18:56 22.03.2020
6248 Clouds 5 1039 27 16093 4.1 90 18:38 22.03.2020
6249 Clouds 5 1040 32 16093 2.6 0 18:18 22.03.2020
6250 Clouds 5 1040 32 16093 6.7 60 17:56 22.03.2020
6251 Clouds 4 1039 27 16093 4.1 130 17:37 22.03.2020
6252 Clouds 4 1039 32 16093 3.6 50 17:19 22.03.2020
6253 Clouds 3 1039 40 16093 6.7 50 16:55 22.03.2020
6254 Clouds 3 1039 27 16093 3.6 110 16:36 22.03.2020
6255 Clouds 3 1039 27 16093 3.6 110 16:18 22.03.2020
6256 Clouds 2 1039 32 16093 5.1 90 15:39 22.03.2020
6257 Clouds 2 1039 31 16093 6.2 50 14:55 22.03.2020
6258 Clear 1 1038 37 16093 5.1 60 14:37 22.03.2020
6259 Clouds 1 1038 34 16093 4.1 50 14:18 22.03.2020
6260 Clouds 1 1037 40 16093 7.2 50 13:41 22.03.2020
6261 Clouds 0 1037 40 16093 7.7 30 13:19 22.03.2020
6262 Clouds 0 1036 40 16093 4.6 40 12:47 22.03.2020
6263 Clouds 0 1036 40 16093 4.6 40 12:23 22.03.2020
6264 Clouds 0 1036 44 16093 7.7 30 11:59 22.03.2020
6265 Clouds 1 1035 37 16093 5.1 40 11:41 22.03.2020
6266 Clouds 1 1035 37 16093 5.1 40 11:23 22.03.2020
6267 Clouds 1 1034 34 16093 7.7 40 10:57 22.03.2020
6268 Clouds 1 1034 37 16093 1.5 30 10:39 22.03.2020
6269 Clouds 1 1033 43 16093 5.1 20 10:21 22.03.2020
6270 Clouds 2 1033 34 16093 7.7 20 09:43 22.03.2020
6271 Clouds 2 1033 34 16093 7.7 20 09:23 22.03.2020
6272 Clouds 2 1033 34 16093 2.1 30 08:44 22.03.2020
6273 Clouds 2 1033 34 16093 2.1 30 08:25 22.03.2020
6274 Clouds 2 1033 40 16093 5.1 360 07:53 22.03.2020
6275 Clouds 3 1033 32 16093 3.6 50 07:28 22.03.2020
6276 Clouds 3 1031 30 16093 7.64 29 06:40 22.03.2020
6277 Clouds 4 1031 28 16093 4.1 50 05:37 22.03.2020
6278 Clear 5 1030 26 16093 2.6 40 03:47 22.03.2020
6279 Clouds 7 1028 23 16093 2.56 149 01:35 22.03.2020
6280 Clear 8 1028 21 16093 2.6 40 00:49 22.03.2020
6281 Clouds 8 1028 23 16093 1.72 140 00:29 22.03.2020
6282 Clouds 9 1027 23 16093 4.1 120 23:45 21.03.2020
6283 Clear 10 1027 21 16093 4.1 40 23:21 21.03.2020
6284 Clouds 10 1026 21 16093 3.6 10 22:58 21.03.2020
6285 Clouds 10 1026 27 16093 4.1 130 22:37 21.03.2020
6286 Clear 10 1027 19 16093 2.6 50 22:18 21.03.2020
6287 Clouds 10 1026 20 16093 2.6 30 21:56 21.03.2020
6288 Clear 10 1026 27 16093 4.1 130 21:37 21.03.2020
6289 Clear 10 1027 23 16093 3.1 0 21:18 21.03.2020
6290 Clouds 10 1026 32 16093 3.1 20 20:42 21.03.2020
6291 Clear 10 1027 30 16093 3.6 80 20:21 21.03.2020
6292 Clouds 10 1026 29 16093 5.1 10 19:54 21.03.2020
6293 Clear 10 1027 34 16093 4.6 50 19:36 21.03.2020
6294 Clear 9 1027 34 16093 4.6 50 19:18 21.03.2020
6295 Clear 9 1027 36 16093 5.23 20 18:40 21.03.2020
6296 Clear 9 1027 37 16093 5.7 60 18:20 21.03.2020
6297 Clear 8 1027 37 16093 5.7 60 17:58 21.03.2020
6298 Clear 8 1027 36 16093 4.6 10 17:39 21.03.2020
6299 Clear 8 1028 42 16093 2.1 0 17:21 21.03.2020
6300 Clear 7 1027 42 16093 4.1 10 16:42 21.03.2020
6301 Clear 7 1027 42 16093 4.1 10 16:23 21.03.2020
6302 Clouds 6 1027 39 16093 7.7 350 15:58 21.03.2020
6303 Clear 6 1026 52 16093 2.1 0 15:40 21.03.2020
6304 Clear 6 1026 52 16093 2.1 0 15:21 21.03.2020
6305 Clouds 6 1026 52 16093 6.2 330 14:56 21.03.2020
6306 Clear 5 1026 48 16093 6.2 20 14:38 21.03.2020
6307 Clear 5 1026 52 16093 8.54 342 14:19 21.03.2020
6308 Clouds 5 1025 52 16093 6.2 340 13:57 21.03.2020
6309 Clear 5 1025 52 16093 3.6 340 13:39 21.03.2020
6310 Clear 5 1025 52 16093 3.6 340 13:21 21.03.2020
6311 Clear 6 1023 48 16093 5.7 350 12:55 21.03.2020
6312 Clear 6 1023 48 16093 5.7 350 12:36 21.03.2020
6313 Clear 6 1022 52 16093 9.07 340 12:18 21.03.2020
6314 Clear 7 1022 52 16093 9.07 340 11:55 21.03.2020
6315 Clouds 7 1021 49 16093 1.5 340 11:37 21.03.2020
6316 Clouds 7 1021 49 16093 1.5 340 11:18 21.03.2020
6317 Clouds 8 1021 56 16093 5.1 330 10:55 21.03.2020
6318 Clear 9 1020 61 16093 5.1 360 10:37 21.03.2020
6319 Clouds 9 1020 49 16093 3.1 0 10:18 21.03.2020
6320 Clouds 10 1019 50 16093 6.7 350 09:40 21.03.2020
6321 Clouds 10 1019 50 16093 6.7 350 09:21 21.03.2020
6322 Clouds 11 1017 54 16093 7.2 350 08:56 21.03.2020
6323 Clouds 11 1017 54 16093 7.2 350 08:38 21.03.2020
6324 Clouds 12 1017 58 16093 2.1 0 08:20 21.03.2020
6325 Clouds 13 1016 51 16093 5.1 340 07:39 21.03.2020
6326 Clear 14 1016 59 16093 2.1 0 07:20 21.03.2020
6327 Clouds 16 1014 55 16093 8.78 320 06:45 21.03.2020
6328 Clouds 16 1014 55 16093 8.78 320 06:26 21.03.2020
6329 Clouds 20 1014 49 16093 4.1 310 05:41 21.03.2020
6330 Clouds 20 1013 49 16093 7.2 310 04:34 21.03.2020
6331 Clouds 20 1012 40 16093 6.7 300 02:39 21.03.2020
6332 Clouds 20 1011 38 16093 8.2 270 01:57 21.03.2020
6333 Clouds 20 1012 43 16093 6.2 300 01:29 21.03.2020
6334 Clouds 20 1011 68 16093 4.1 250 00:47 21.03.2020
6335 Clouds 21 1010 56 16093 4.1 270 00:24 21.03.2020
6336 Rain 21 1009 50 16093 7.88 253 23:46 20.03.2020
6337 Rain 22 1009 50 16093 7.88 253 23:24 20.03.2020
6338 Clouds 22 1008 56 16093 6.2 270 22:55 20.03.2020
6339 Clouds 22 1008 60 16093 4.1 280 22:36 20.03.2020
6340 Clear 21 1009 56 16093 9.52 245 22:18 20.03.2020
6341 Clouds 21 1008 56 16093 2.1 190 21:54 20.03.2020
6342 Clear 21 1008 50 16093 4.6 270 21:36 20.03.2020
6343 Clear 21 1009 60 14484 2.6 160 21:18 20.03.2020
6344 Clouds 20 1011 82 14484 3.1 270 20:41 20.03.2020
6345 Clouds 19 1011 82 14484 3.1 270 20:21 20.03.2020
6346 Clouds 18 1011 87 16093 3.6 140 19:59 20.03.2020
6347 Clouds 18 1012 87 11265 2.1 270 19:40 20.03.2020
6348 Clouds 17 1012 77 11265 1.5 0 19:18 20.03.2020
6349 Clouds 16 1011 77 12874 5.1 200 18:54 20.03.2020
6350 Mist 16 1012 82 6437 4.1 210 18:36 20.03.2020
6351 Mist 15 1012 82 6437 4.1 210 18:18 20.03.2020
6352 Mist 14 1014 87 4828 2.1 170 17:39 20.03.2020
6353 Mist 13 1014 87 6437 2.1 210 17:21 20.03.2020
6354 Mist 12 1014 87 6437 2.1 210 16:57 20.03.2020
6355 Mist 11 1015 93 8047 2.1 260 16:39 20.03.2020
6356 Haze 11 1015 81 9656 1.5 0 16:18 20.03.2020
6357 Haze 11 1015 81 4828 2.6 0 15:42 20.03.2020
6358 Mist 10 1016 93 8047 1.5 260 15:21 20.03.2020
6359 Mist 9 1015 87 3219 2.6 190 14:54 20.03.2020
6360 Mist 9 1015 93 1609 2.6 200 14:36 20.03.2020
6361 Mist 9 1015 93 1609 2.6 200 14:18 20.03.2020
6362 Mist 8 1017 93 4828 3.32 229 13:40 20.03.2020
6363 Mist 8 1017 93 4828 3.47 206 13:19 20.03.2020
6364 Drizzle 8 1017 93 805 2.6 150 12:39 20.03.2020
6365 Rain 8 1017 93 1207 2.1 190 12:20 20.03.2020
6366 Rain 8 1018 93 1609 3.47 206 11:57 20.03.2020
6367 Rain 8 1018 93 2816 2.1 220 11:38 20.03.2020
6368 Mist 8 1018 93 4828 2.65 182 11:19 20.03.2020
6369 Drizzle 8 1018 93 1609 1.5 0 10:41 20.03.2020
6370 Clouds 8 1018 81 16093 4.1 160 10:21 20.03.2020
6371 Rain 8 1018 81 16093 4.1 160 09:59 20.03.2020
6372 Rain 8 1019 93 16093 2.1 140 09:41 20.03.2020
6373 Rain 8 1019 87 16093 2.65 182 09:19 20.03.2020
6374 Rain 8 1020 87 16093 3.1 0 08:43 20.03.2020
6375 Rain 8 1020 93 16093 2.6 0 08:22 20.03.2020
6376 Rain 8 1020 93 16093 2.6 0 08:22 20.03.2020
6377 Rain 8 1020 81 16093 2.6 160 07:55 20.03.2020
6378 Rain 8 1021 81 16093 3.6 140 07:37 20.03.2020
6379 Rain 8 1021 81 16093 3.6 140 07:18 20.03.2020
6380 Clouds 8 1022 87 16093 2.6 0 06:41 20.03.2020
6381 Clouds 8 1023 81 16093 1.5 130 04:52 20.03.2020
6382 Clouds 9 1024 87 16093 3.39 140 03:50 20.03.2020
6383 Clouds 9 1024 81 16093 1.5 270 02:21 20.03.2020
6384 Clouds 9 1024 76 16093 1.5 200 01:47 20.03.2020
6385 Clouds 10 1024 76 16093 2.1 250 00:33 20.03.2020
6386 Clouds 10 1024 76 16093 1.5 20 23:51 19.03.2020
6387 Clouds 10 1024 76 16093 1.7 74 23:30 19.03.2020
6388 Clouds 10 1024 76 16093 2.32 30 22:58 19.03.2020
6389 Clouds 10 1023 76 16093 2.32 30 22:38 19.03.2020
6390 Clouds 10 1024 76 16093 2.32 30 22:20 19.03.2020
6391 Clouds 10 1023 71 16093 2.1 0 21:56 19.03.2020
6392 Clouds 10 1023 81 16093 2.1 70 21:37 19.03.2020
6393 Clouds 10 1023 71 16093 2.32 30 21:18 19.03.2020
6394 Rain 10 1023 76 16093 3.6 70 20:42 19.03.2020
6395 Rain 10 1023 76 16093 3.6 70 20:23 19.03.2020
6396 Rain 10 1023 76 16093 3.1 60 19:57 19.03.2020
6397 Clouds 9 1024 81 16093 4.6 50 19:38 19.03.2020
6398 Clouds 9 1024 81 16093 4.6 50 19:20 19.03.2020
6399 Clouds 9 1024 81 16093 4.6 50 18:56 19.03.2020
6400 Clouds 9 1024 100 16093 3.1 350 18:38 19.03.2020
6401 Clouds 9 1024 81 16093 6.2 50 18:19 19.03.2020
6402 Clouds 8 1024 87 16093 4.1 10 17:42 19.03.2020
6403 Clouds 8 1024 87 16093 4.1 10 17:20 19.03.2020
6404 Clouds 8 1024 87 16093 6.2 40 16:57 19.03.2020
6405 Clouds 7 1024 87 16093 5.1 50 16:39 19.03.2020
6406 Clouds 7 1025 87 16093 7.2 30 16:20 19.03.2020
6407 Rain 7 1025 93 16093 5.08 43 15:41 19.03.2020
6408 Rain 6 1024 93 6437 3.1 40 15:23 19.03.2020
6409 Rain 6 1025 93 4023 2.6 60 14:43 19.03.2020
6410 Rain 6 1025 93 8047 3.6 50 14:22 19.03.2020
6411 Rain 6 1025 81 4023 8.2 40 13:56 19.03.2020
6412 Rain 6 1025 93 6437 4.1 60 13:37 19.03.2020
6413 Drizzle 6 1024 87 4828 3.1 30 13:18 19.03.2020
6414 Rain 6 1025 93 4023 4.1 70 12:40 19.03.2020
6415 Drizzle 6 1024 87 3219 2.6 30 12:22 19.03.2020
6416 Rain 6 1024 93 9656 3.6 20 11:57 19.03.2020
6417 Rain 6 1025 87 4828 1.5 60 11:38 19.03.2020
6418 Rain 5 1024 93 8047 6.2 30 11:20 19.03.2020
6419 Rain 5 1025 93 2816 3.6 50 10:41 19.03.2020
6420 Rain 5 1025 87 4023 4.1 60 10:20 19.03.2020
6421 Rain 5 1025 87 6437 4.6 60 09:58 19.03.2020
6422 Rain 5 1026 87 6437 3.1 0 09:38 19.03.2020
6423 Rain 5 1026 87 4023 2.6 0 09:19 19.03.2020
6424 Rain 5 1027 93 4828 3.6 60 08:45 19.03.2020
6425 Rain 5 1027 87 11265 5.1 30 08:21 19.03.2020
6426 Rain 5 1028 86 4828 2.6 50 07:47 19.03.2020
6427 Rain 5 1028 81 11265 3.6 40 07:28 19.03.2020
6428 Rain 5 1028 87 12874 4.6 100 06:49 19.03.2020
6429 Rain 6 1029 70 16093 5.7 150 05:52 19.03.2020
6430 Clouds 7 1030 67 16093 8.62 149 04:59 19.03.2020
6431 Clouds 7 1030 67 16093 8.62 149 04:40 19.03.2020
6432 Clouds 7 1030 67 16093 8.62 149 04:40 19.03.2020
6433 Clouds 7 1031 67 16093 2.6 0 03:20 19.03.2020
6434 Clear 7 1031 42 16093 7.36 147 01:27 19.03.2020
6435 Clear 8 1031 42 16093 3.6 170 00:35 19.03.2020
6436 Clear 8 1031 45 16093 3.6 150 23:57 18.03.2020
6437 Clear 9 1031 45 16093 3.6 150 23:36 18.03.2020
6438 Clear 9 1031 49 16093 3.6 160 23:18 18.03.2020
6439 Clear 10 1030 46 16093 4.1 140 22:42 18.03.2020
6440 Clear 10 1030 46 16093 4.1 140 22:22 18.03.2020
6441 Clear 11 1031 46 16093 4.6 160 21:54 18.03.2020
6442 Clear 11 1031 46 16093 4.6 160 21:36 18.03.2020
6443 Clear 11 1032 55 16093 3.6 180 21:18 18.03.2020
6444 Clear 12 1031 43 16093 5.1 140 20:41 18.03.2020
6445 Clear 12 1031 43 16093 5.1 140 20:21 18.03.2020
6446 Clouds 12 1031 30 16093 4.6 190 19:59 18.03.2020
6447 Clear 12 1032 40 16093 3.1 150 19:40 18.03.2020
6448 Clear 11 1033 34 16093 1.5 0 19:21 18.03.2020
6449 Clouds 11 1032 37 16093 3.1 180 18:56 18.03.2020
6450 Clear 11 1033 37 16093 4.1 160 18:37 18.03.2020
6451 Clear 11 1034 40 16093 4.1 220 18:18 18.03.2020
6452 Clear 11 1033 37 16093 4.1 180 17:41 18.03.2020
6453 Clear 10 1033 43 16093 3.1 240 17:22 18.03.2020
6454 Clear 10 1033 43 16093 3.1 240 16:59 18.03.2020
6455 Clear 10 1033 43 16093 3.1 240 16:59 18.03.2020
6456 Clear 9 1033 40 16093 1.42 76 16:40 18.03.2020
6457 Clear 9 1033 40 16093 1.42 76 16:20 18.03.2020
6458 Clouds 9 1033 42 16093 3.6 60 15:56 18.03.2020
6459 Clear 8 1033 39 16093 1.42 76 15:37 18.03.2020
6460 Clear 8 1033 42 16093 2.1 0 15:18 18.03.2020
6461 Clear 7 1032 52 16093 1.42 76 14:42 18.03.2020
6462 Clear 7 1032 52 16093 4.31 8 14:21 18.03.2020
6463 Clear 5 1032 56 16093 4.31 8 13:41 18.03.2020
6464 Clear 4 1031 52 16093 4.16 2 13:19 18.03.2020
6465 Clear 3 1031 52 16093 4.16 2 12:54 18.03.2020
6466 Clear 2 1031 60 16093 4.16 2 12:36 18.03.2020
6467 Clear 3 1031 56 16093 2.6 280 12:18 18.03.2020
6468 Clear 3 1030 60 16093 4.16 2 11:37 18.03.2020
6469 Clear 3 1029 56 16093 3.1 270 11:19 18.03.2020
6470 Clear 4 1029 56 16093 3.1 270 10:56 18.03.2020
6471 Clear 4 1028 52 16093 1.5 240 10:37 18.03.2020
6472 Clear 4 1029 52 16093 1.5 0 10:18 18.03.2020
6473 Clear 5 1028 52 16093 6.36 344 09:42 18.03.2020
6474 Clear 5 1028 48 16093 2.1 290 09:23 18.03.2020
6475 Clouds 5 1027 48 16093 4.1 320 08:55 18.03.2020
6476 Clear 5 1028 49 16093 1.5 0 08:36 18.03.2020
6477 Clear 6 1028 48 16093 4.1 300 08:18 18.03.2020
6478 Clouds 6 1027 52 16093 7.25 341 07:40 18.03.2020
6479 Clear 6 1027 52 16093 1.5 0 07:22 18.03.2020
6480 Clouds 7 1026 63 16093 3.6 360 06:42 18.03.2020
6481 Clear 8 1026 52 16093 3.6 330 05:53 18.03.2020
6482 Clouds 8 1025 61 16093 6.46 321 05:19 18.03.2020
6483 Clouds 9 1023 57 16093 5.1 320 03:56 18.03.2020
6484 Clear 9 1023 66 16093 6.46 321 02:40 18.03.2020
6485 Clouds 10 1022 87 16093 5.75 264 01:46 18.03.2020
6486 Clouds 10 1021 66 16093 3.6 280 01:21 18.03.2020
6487 Clouds 10 1020 71 16093 3.1 260 00:23 18.03.2020
6488 Clear 11 1020 62 16093 5.91 286 23:47 17.03.2020
6489 Clouds 11 1019 66 16093 4.1 260 23:26 17.03.2020
6490 Clouds 11 1019 66 16093 3.1 0 22:47 17.03.2020
6491 Clouds 11 1019 66 16093 5.7 290 22:29 17.03.2020
6492 Clouds 11 1018 58 16093 4.6 250 21:59 17.03.2020
6493 Rain 11 1019 66 16093 3.6 260 21:39 17.03.2020
6494 Rain 11 1019 66 16093 2.1 280 21:21 17.03.2020
6495 Clouds 11 1019 71 16093 3.1 230 20:40 17.03.2020
6496 Clouds 11 1019 71 16093 3.1 230 20:21 17.03.2020
6497 Clouds 10 1019 62 16093 3.6 280 19:58 17.03.2020
6498 Clouds 10 1019 66 16093 2.6 260 19:39 17.03.2020
6499 Clouds 10 1020 81 16093 1.5 250 19:18 17.03.2020
6500 Clouds 9 1019 71 16093 3.6 240 18:56 17.03.2020
6501 Clouds 9 1021 87 16093 1.5 260 18:37 17.03.2020
6502 Clouds 9 1020 76 16093 5.7 240 18:19 17.03.2020
6503 Rain 8 1021 81 16093 2.6 0 17:40 17.03.2020
6504 Rain 8 1022 93 16093 2.6 250 17:21 17.03.2020
6505 Rain 7 1022 93 16093 2.6 250 16:55 17.03.2020
6506 Rain 7 1022 87 16093 1.95 251 16:37 17.03.2020
6507 Rain 7 1023 87 6437 1.95 251 16:18 17.03.2020
6508 Rain 6 1023 93 16093 1.95 251 15:43 17.03.2020
6509 Rain 6 1023 93 16093 1.95 251 15:20 17.03.2020
6510 Rain 6 1023 87 11265 1.95 251 14:42 17.03.2020
6511 Rain 6 1023 87 11265 4.46 148 14:21 17.03.2020
6512 Rain 5 1023 93 16093 1.5 0 13:44 17.03.2020
6513 Rain 5 1023 93 11265 3.74 142 13:26 17.03.2020
6514 Rain 5 1024 87 16093 2.1 0 12:58 17.03.2020
6515 Rain 5 1024 87 14484 4.18 147 12:40 17.03.2020
6516 Rain 5 1025 87 14484 1.5 0 12:22 17.03.2020
6517 Drizzle 5 1024 87 16093 3.74 142 11:47 17.03.2020
6518 Drizzle 5 1024 87 16093 3.74 142 11:28 17.03.2020
6519 Rain 5 1025 87 16093 2.6 130 10:58 17.03.2020
6520 Drizzle 5 1025 87 16093 6.76 160 10:38 17.03.2020
6521 Rain 5 1025 87 16093 2.6 0 10:20 17.03.2020
6522 Rain 5 1025 81 16093 4.1 140 09:59 17.03.2020
6523 Rain 5 1026 81 16093 3.1 150 09:39 17.03.2020
6524 Rain 5 1026 81 16093 2.1 160 09:19 17.03.2020
6525 Clouds 5 1026 75 16093 3.6 140 08:47 17.03.2020
6526 Clouds 5 1028 75 16093 7.16 144 08:22 17.03.2020
6527 Clouds 5 1028 75 16093 2.6 140 07:50 17.03.2020
6528 Clouds 5 1028 75 16093 2.6 140 07:26 17.03.2020
6529 Clouds 5 1028 70 16093 5.1 120 06:59 17.03.2020
6530 Clouds 5 1028 75 16093 1.5 100 06:34 17.03.2020
6531 Clouds 5 1029 79 16093 3.6 120 05:56 17.03.2020
6532 Clouds 4 1031 75 16093 4.6 120 03:56 17.03.2020
6533 Clouds 4 1033 73 16093 3.6 60 02:46 17.03.2020
6534 Clouds 4 1033 60 16093 8.18 135 01:44 17.03.2020
6535 Clouds 4 1033 65 16093 4.6 140 01:25 17.03.2020
6536 Clouds 4 1033 65 16093 3.1 0 00:46 17.03.2020
6537 Clouds 5 1033 72 16093 4.1 110 23:48 16.03.2020
6538 Clouds 5 1033 72 16093 4.1 110 23:30 16.03.2020
6539 Clouds 5 1033 65 16093 4.1 140 22:42 16.03.2020
6540 Clouds 5 1033 65 16093 4.1 140 22:24 16.03.2020
6541 Clouds 6 1034 60 16093 5.1 130 21:58 16.03.2020
6542 Clouds 6 1034 60 16093 5.1 130 21:40 16.03.2020
6543 Clouds 6 1034 52 16093 3.1 60 21:22 16.03.2020
6544 Clouds 6 1034 60 16093 5.7 50 20:56 16.03.2020
6545 Clouds 6 1034 60 16093 5.7 130 20:37 16.03.2020
6546 Clouds 6 1034 60 16093 5.7 130 20:19 16.03.2020
6547 Clouds 6 1035 52 16093 5.7 130 19:41 16.03.2020
6548 Clouds 6 1036 49 16093 3.6 50 19:21 16.03.2020
6549 Clouds 6 1035 55 16093 6.7 40 18:56 16.03.2020
6550 Clouds 6 1036 48 16093 4.6 170 18:37 16.03.2020
6551 Clear 6 1037 35 16093 3.1 50 18:18 16.03.2020
6552 Clouds 5 1037 35 16093 7.54 103 17:42 16.03.2020
6553 Clouds 5 1037 35 16093 7.54 103 17:22 16.03.2020
6554 Clouds 4 1037 30 16093 6.48 81 16:46 16.03.2020
6555 Clouds 4 1037 30 16093 6.48 81 16:28 16.03.2020
6556 Clouds 3 1037 44 16093 5.1 40 15:56 16.03.2020
6557 Clouds 3 1037 29 16093 4.1 90 15:37 16.03.2020
6558 Clouds 3 1037 29 16093 4.1 90 15:18 16.03.2020
6559 Clear 2 1037 32 16093 4.1 110 14:42 16.03.2020
6560 Clear 1 1037 37 16093 5.7 50 14:19 16.03.2020
6561 Clear 1 1037 37 16093 1.5 50 13:42 16.03.2020
6562 Clear 0 1037 31 16093 4.6 50 13:23 16.03.2020
6563 Clear 0 1036 40 16093 3.1 50 12:46 16.03.2020
6564 Clear 0 1036 40 16093 3.1 50 12:27 16.03.2020
6565 Clear 0 1036 43 16093 6.2 30 11:59 16.03.2020
6566 Clear 0 1035 37 16093 5.1 50 11:41 16.03.2020
6567 Clear 0 1036 44 16093 5.7 30 11:18 16.03.2020
6568 Clear 0 1035 40 16093 7.63 52 10:42 16.03.2020
6569 Clear 1 1035 47 16093 6.7 30 10:24 16.03.2020
6570 Clear 1 1035 34 16093 4.1 60 09:45 16.03.2020
6571 Clear 1 1035 34 16093 4.1 50 09:27 16.03.2020
6572 Clouds 1 1035 40 16093 7.7 50 08:58 16.03.2020
6573 Clear 2 1035 32 16093 3.1 50 08:26 16.03.2020
6574 Clouds 2 1035 44 16093 4.6 40 07:54 16.03.2020
6575 Clear 3 1035 27 16093 4.1 40 07:28 16.03.2020
6576 Clouds 3 1034 32 16093 5.1 20 06:54 16.03.2020
6577 Clouds 3 1034 32 16093 5.1 20 06:54 16.03.2020
6578 Clear 3 1034 23 16093 4.6 30 06:27 16.03.2020
6579 Clear 4 1034 38 16093 2.6 0 05:54 16.03.2020
6580 Clear 5 1033 36 16093 1.5 50 03:31 16.03.2020
6581 Clear 7 1031 36 16093 2.84 142 01:20 16.03.2020
6582 Clear 8 1030 29 16093 3.25 136 00:43 16.03.2020
6583 Clear 10 1029 18 16093 3.6 340 23:49 15.03.2020
6584 Clear 10 1030 23 16093 2.1 0 23:23 15.03.2020
6585 Clear 11 1029 23 16093 5.7 80 22:58 15.03.2020
6586 Clear 11 1029 22 16093 3.6 340 22:38 15.03.2020
6587 Clear 11 1029 22 16093 3.6 340 22:20 15.03.2020
6588 Clear 12 1029 24 16093 2.6 70 21:39 15.03.2020
6589 Clear 12 1029 24 16093 2.6 70 21:20 15.03.2020
6590 Clouds 11 1029 25 16093 2.1 320 20:55 15.03.2020
6591 Clear 11 1030 25 16093 3.04 152 20:36 15.03.2020
6592 Clear 11 1030 25 16093 1.21 99 20:18 15.03.2020
6593 Clear 11 1030 27 16093 4.1 20 19:42 15.03.2020
6594 Clear 11 1030 27 16093 4.1 20 19:24 15.03.2020
6595 Clouds 10 1030 27 16093 5.7 20 18:59 15.03.2020
6596 Clear 10 1031 29 16093 4.1 60 18:40 15.03.2020
6597 Clear 10 1032 27 16093 3.6 50 18:21 15.03.2020
6598 Clouds 9 1031 29 16093 4.6 20 17:57 15.03.2020
6599 Clear 9 1031 34 16093 1.21 99 17:38 15.03.2020
6600 Clear 9 1032 42 16093 2.1 0 17:18 15.03.2020
6601 Clear 8 1032 36 16093 3.6 60 16:43 15.03.2020
6602 Clear 8 1032 36 16093 3.6 60 16:25 15.03.2020
6603 Clouds 7 1032 42 16093 3.6 50 15:59 15.03.2020
6604 Clouds 7 1032 42 16093 5.35 23 15:41 15.03.2020
6605 Clouds 6 1032 42 16093 5.35 23 15:20 15.03.2020
6606 Clouds 6 1032 48 16093 1.5 40 14:46 15.03.2020
6607 Clouds 6 1032 48 16093 1.5 40 14:25 15.03.2020
6608 Clouds 5 1031 48 16093 5.7 360 13:58 15.03.2020
6609 Clouds 5 1031 48 16093 2.1 40 13:38 15.03.2020
6610 Clouds 5 1031 48 16093 2.1 40 13:38 15.03.2020
6611 Clouds 5 1031 52 16093 4.1 10 13:20 15.03.2020
6612 Clouds 5 1030 48 16093 5.17 38 12:44 15.03.2020
6613 Clouds 5 1030 48 16093 5.17 38 12:26 15.03.2020
6614 Clouds 5 1030 48 16093 5.17 38 11:57 15.03.2020
6615 Clouds 5 1030 48 16093 5.17 38 11:39 15.03.2020
6616 Clouds 5 1029 48 16093 3.6 60 11:20 15.03.2020
6617 Clouds 5 1029 48 16093 3.6 60 10:56 15.03.2020
6618 Clouds 5 1029 48 16093 2.27 19 10:36 15.03.2020
6619 Clouds 5 1029 45 16093 1.5 0 10:18 15.03.2020
6620 Clouds 5 1028 48 16093 2.27 19 09:40 15.03.2020
6621 Clouds 5 1029 45 16093 2.1 40 09:21 15.03.2020
6622 Clouds 6 1029 45 16093 4.1 20 08:44 15.03.2020
6623 Clouds 6 1029 52 16093 6.02 347 08:21 15.03.2020
6624 Clouds 6 1029 45 16093 4.6 350 07:51 15.03.2020
6625 Clouds 6 1029 42 16093 2.1 10 07:32 15.03.2020
6626 Clouds 7 1029 36 16093 4.1 350 06:53 15.03.2020
6627 Clouds 7 1029 42 16093 1.5 0 06:18 15.03.2020
6628 Clouds 7 1029 36 16093 3.1 0 05:21 15.03.2020
6629 Clouds 8 1029 36 16093 7.45 332 04:43 15.03.2020
6630 Clouds 8 1029 36 16093 7.45 332 04:25 15.03.2020
6631 Clouds 8 1028 34 16093 6.2 330 03:54 15.03.2020
6632 Clouds 9 1028 34 16093 7.45 332 02:44 15.03.2020
6633 Clouds 9 1027 29 16093 1.5 340 01:40 15.03.2020
6634 Clouds 10 1027 29 16093 4.1 360 00:47 15.03.2020
6635 Clouds 10 1027 29 16093 4.1 360 00:27 15.03.2020
6636 Clouds 10 1027 32 16093 1.5 0 23:56 14.03.2020
6637 Clear 10 1027 27 16093 5.7 330 23:37 14.03.2020
6638 Clear 11 1027 26 16093 1.5 0 23:18 14.03.2020
6639 Clear 11 1026 26 16093 5.7 350 22:44 14.03.2020
6640 Clear 12 1026 26 16093 5.7 350 22:26 14.03.2020
6641 Clouds 12 1026 27 16093 5.1 320 21:57 14.03.2020
6642 Clear 12 1026 26 16093 3.97 314 21:36 14.03.2020
6643 Clear 12 1026 24 16093 3.1 290 21:18 14.03.2020
6644 Clouds 12 1025 26 16093 4.6 310 20:59 14.03.2020
6645 Clear 12 1026 28 16093 4.1 340 20:40 14.03.2020
6646 Clear 12 1026 25 16093 4.1 270 20:19 14.03.2020
6647 Clouds 12 1025 27 16093 3.6 320 19:56 14.03.2020
6648 Clear 12 1026 28 16093 6.2 310 19:38 14.03.2020
6649 Clear 12 1026 32 16093 1.5 0 19:19 14.03.2020
6650 Clear 11 1027 30 16093 4.1 300 18:37 14.03.2020
6651 Clear 11 1027 32 16093 4.1 260 18:19 14.03.2020
6652 Clear 10 1027 32 16093 4.1 330 17:39 14.03.2020
6653 Clear 9 1027 34 16093 3.1 0 17:21 14.03.2020
6654 Clear 9 1027 31 16093 3.6 320 16:41 14.03.2020
6655 Clear 8 1027 31 16093 3.6 320 16:23 14.03.2020
6656 Clear 8 1027 31 16093 4.6 320 15:59 14.03.2020
6657 Clear 8 1027 31 16093 4.6 320 15:27 14.03.2020
6658 Clouds 7 1026 39 16093 9.3 310 14:59 14.03.2020
6659 Clear 7 1027 39 16093 4.1 290 14:38 14.03.2020
6660 Clear 7 1027 39 16093 2.6 0 14:20 14.03.2020
6661 Clouds 6 1026 36 16093 7.7 290 13:56 14.03.2020
6662 Clear 6 1027 41 16093 4.1 300 13:38 14.03.2020
6663 Clear 6 1027 41 16093 4.6 270 13:18 14.03.2020
6664 Clear 5 1026 44 16093 8.75 300 12:43 14.03.2020
6665 Clear 5 1026 44 16093 8.75 300 12:43 14.03.2020
6666 Clear 5 1025 42 16093 2.6 0 12:24 14.03.2020
6667 Clear 5 1025 51 16093 3.1 290 11:44 14.03.2020
6668 Clear 6 1024 45 16093 8.75 300 11:25 14.03.2020
6669 Clear 6 1024 41 16093 5.7 300 10:48 14.03.2020
6670 Clear 6 1024 38 16093 4.6 300 10:28 14.03.2020
6671 Clouds 6 1023 33 16093 5.7 290 09:59 14.03.2020
6672 Clear 7 1023 36 16093 1.5 300 09:40 14.03.2020
6673 Clear 7 1023 36 16093 1.5 300 09:21 14.03.2020
6674 Clear 7 1023 36 16093 5.7 310 08:46 14.03.2020
6675 Clear 7 1023 36 16093 5.7 310 08:27 14.03.2020
6676 Clear 8 1022 33 16093 9.3 320 07:45 14.03.2020
6677 Clear 8 1022 33 16093 9.3 320 07:22 14.03.2020
6678 Clouds 8 1022 34 16093 8.7 300 06:55 14.03.2020
6679 Clear 8 1021 34 16093 7.7 330 06:36 14.03.2020
6680 Clear 10 1020 37 16093 2.1 0 04:57 14.03.2020
6681 Clear 13 1017 22 16093 5.1 300 03:40 14.03.2020
6682 Clouds 14 1016 18 16093 7.2 290 02:53 14.03.2020
6683 Clear 15 1014 21 16093 6.7 310 01:50 14.03.2020
6684 Clear 17 1012 18 16093 8.7 310 00:36 14.03.2020
6685 Clear 18 1010 30 16093 4.1 340 23:44 13.03.2020
6686 Clear 19 1010 30 16093 4.1 340 23:25 13.03.2020
6687 Clear 20 1009 17 16093 7.2 270 22:46 13.03.2020
6688 Clouds 20 1009 42 16093 9.3 310 22:25 13.03.2020
6689 Clouds 21 1008 48 16093 5.7 270 21:42 13.03.2020
6690 Clouds 20 1008 48 16093 5.7 270 21:21 13.03.2020
6691 Clear 20 1007 37 16093 9.8 300 20:57 13.03.2020
6692 Clear 20 1007 37 16093 9.8 300 20:38 13.03.2020
6693 Clear 19 1007 63 16093 9.3 270 20:19 13.03.2020
6694 Clouds 19 1007 63 16093 6.7 270 19:42 13.03.2020
6695 Clouds 18 1008 68 16093 5.7 250 19:23 13.03.2020
6696 Clouds 18 1008 68 16093 5.7 250 19:23 13.03.2020
6697 Clouds 16 1008 77 16093 7.2 250 18:44 13.03.2020
6698 Clouds 15 1007 77 16093 6.7 230 18:25 13.03.2020
6699 Clouds 14 1008 93 16093 6.2 270 17:57 13.03.2020
6700 Mist 14 1007 87 8047 4.1 200 17:37 13.03.2020